<?xml version="1.0" encoding="UTF-8" standalone="no" ?>
<gpx xmlns="http://www.topografix.com/GPX/1/1" xmlns:xsi="http://www.w3.org/2001/XMLSchema-instance" xsi:schemaLocation="http://www.topografix.com/GPX/1/1 http://www.topografix.com/GPX/1/1/gpx.xsd" version="1.1" creator="VisuGPX - https://www.visugpx.com">
  <metadata>
    <name>Col du Coin, Par les lacs de Saint Guérin, des Fées et de Roselend</name>
  </metadata>
  <trk>
    <name><![CDATA[Col du Coin, Par les lacs de Saint Guérin, des Fées et de Roselend_1]]></name>
    <trkseg>
      <trkpt lat="45.68661" lon="6.5691">
        <ele>1027.4</ele>
        <time>2017-09-28T07:57:04Z</time>
      </trkpt>
      <trkpt lat="45.68663" lon="6.56909">
        <ele>1030.5</ele>
        <time>2017-09-28T07:57:05Z</time>
      </trkpt>
      <trkpt lat="45.68654" lon="6.56909">
        <ele>1032.8</ele>
        <time>2017-09-28T08:01:06Z</time>
      </trkpt>
      <trkpt lat="45.68646" lon="6.56897">
        <ele>1033.2</ele>
        <time>2017-09-28T08:01:12Z</time>
      </trkpt>
      <trkpt lat="45.68646" lon="6.56884">
        <ele>1033.3</ele>
        <time>2017-09-28T08:01:16Z</time>
      </trkpt>
      <trkpt lat="45.68637" lon="6.56879">
        <ele>1033.7</ele>
        <time>2017-09-28T08:01:20Z</time>
      </trkpt>
      <trkpt lat="45.68627" lon="6.56876">
        <ele>1034.2</ele>
        <time>2017-09-28T08:01:24Z</time>
      </trkpt>
      <trkpt lat="45.68616" lon="6.56874">
        <ele>1034.7</ele>
        <time>2017-09-28T08:01:28Z</time>
      </trkpt>
      <trkpt lat="45.68605" lon="6.56876">
        <ele>1035.3</ele>
        <time>2017-09-28T08:01:32Z</time>
      </trkpt>
      <trkpt lat="45.68596" lon="6.5688">
        <ele>1036</ele>
        <time>2017-09-28T08:01:36Z</time>
      </trkpt>
      <trkpt lat="45.68587" lon="6.56883">
        <ele>1036.8</ele>
        <time>2017-09-28T08:01:40Z</time>
      </trkpt>
      <trkpt lat="45.68578" lon="6.56884">
        <ele>1037.5</ele>
        <time>2017-09-28T08:01:44Z</time>
      </trkpt>
      <trkpt lat="45.68568" lon="6.56882">
        <ele>1038.2</ele>
        <time>2017-09-28T08:01:48Z</time>
      </trkpt>
      <trkpt lat="45.68558" lon="6.5688">
        <ele>1039.1</ele>
        <time>2017-09-28T08:01:53Z</time>
      </trkpt>
      <trkpt lat="45.68549" lon="6.56876">
        <ele>1039.8</ele>
        <time>2017-09-28T08:01:57Z</time>
      </trkpt>
      <trkpt lat="45.68539" lon="6.56879">
        <ele>1040.7</ele>
        <time>2017-09-28T08:02:02Z</time>
      </trkpt>
      <trkpt lat="45.68533" lon="6.56892">
        <ele>1041.8</ele>
        <time>2017-09-28T08:02:07Z</time>
      </trkpt>
      <trkpt lat="45.68534" lon="6.56906">
        <ele>1042.9</ele>
        <time>2017-09-28T08:02:11Z</time>
      </trkpt>
      <trkpt lat="45.68537" lon="6.56919">
        <ele>1043.5</ele>
        <time>2017-09-28T08:02:15Z</time>
      </trkpt>
      <trkpt lat="45.68542" lon="6.56931">
        <ele>1044.2</ele>
        <time>2017-09-28T08:02:19Z</time>
      </trkpt>
      <trkpt lat="45.68545" lon="6.56944">
        <ele>1044.9</ele>
        <time>2017-09-28T08:02:23Z</time>
      </trkpt>
      <trkpt lat="45.68547" lon="6.56958">
        <ele>1045.2</ele>
        <time>2017-09-28T08:02:27Z</time>
      </trkpt>
      <trkpt lat="45.68554" lon="6.56971">
        <ele>1046</ele>
        <time>2017-09-28T08:02:32Z</time>
      </trkpt>
      <trkpt lat="45.68562" lon="6.56975">
        <ele>1046.7</ele>
        <time>2017-09-28T08:02:36Z</time>
      </trkpt>
      <trkpt lat="45.68572" lon="6.56976">
        <ele>1047.3</ele>
        <time>2017-09-28T08:02:40Z</time>
      </trkpt>
      <trkpt lat="45.68581" lon="6.56977">
        <ele>1047.9</ele>
        <time>2017-09-28T08:02:44Z</time>
      </trkpt>
      <trkpt lat="45.68591" lon="6.56979">
        <ele>1048.6</ele>
        <time>2017-09-28T08:02:48Z</time>
      </trkpt>
      <trkpt lat="45.68599" lon="6.56986">
        <ele>1049.2</ele>
        <time>2017-09-28T08:02:52Z</time>
      </trkpt>
      <trkpt lat="45.68608" lon="6.56991">
        <ele>1050</ele>
        <time>2017-09-28T08:02:56Z</time>
      </trkpt>
      <trkpt lat="45.68617" lon="6.56993">
        <ele>1050.8</ele>
        <time>2017-09-28T08:03:00Z</time>
      </trkpt>
      <trkpt lat="45.68626" lon="6.56993">
        <ele>1051.4</ele>
        <time>2017-09-28T08:03:04Z</time>
      </trkpt>
      <trkpt lat="45.68635" lon="6.57002">
        <ele>1052.4</ele>
        <time>2017-09-28T08:03:09Z</time>
      </trkpt>
      <trkpt lat="45.68634" lon="6.57017">
        <ele>1053.5</ele>
        <time>2017-09-28T08:03:14Z</time>
      </trkpt>
      <trkpt lat="45.68625" lon="6.57021">
        <ele>1054.3</ele>
        <time>2017-09-28T08:03:18Z</time>
      </trkpt>
      <trkpt lat="45.68616" lon="6.57017">
        <ele>1055.1</ele>
        <time>2017-09-28T08:03:22Z</time>
      </trkpt>
      <trkpt lat="45.68606" lon="6.57015">
        <ele>1056</ele>
        <time>2017-09-28T08:03:26Z</time>
      </trkpt>
      <trkpt lat="45.68596" lon="6.57016">
        <ele>1057</ele>
        <time>2017-09-28T08:03:30Z</time>
      </trkpt>
      <trkpt lat="45.68586" lon="6.57019">
        <ele>1058.1</ele>
        <time>2017-09-28T08:03:35Z</time>
      </trkpt>
      <trkpt lat="45.68576" lon="6.57027">
        <ele>1059.1</ele>
        <time>2017-09-28T08:03:40Z</time>
      </trkpt>
      <trkpt lat="45.68567" lon="6.57036">
        <ele>1060.2</ele>
        <time>2017-09-28T08:03:45Z</time>
      </trkpt>
      <trkpt lat="45.68559" lon="6.57046">
        <ele>1061.1</ele>
        <time>2017-09-28T08:03:50Z</time>
      </trkpt>
      <trkpt lat="45.68551" lon="6.57057">
        <ele>1062.1</ele>
        <time>2017-09-28T08:03:55Z</time>
      </trkpt>
      <trkpt lat="45.68543" lon="6.57067">
        <ele>1063.1</ele>
        <time>2017-09-28T08:04:00Z</time>
      </trkpt>
      <trkpt lat="45.68535" lon="6.57078">
        <ele>1064.2</ele>
        <time>2017-09-28T08:04:05Z</time>
      </trkpt>
      <trkpt lat="45.68527" lon="6.57088">
        <ele>1065.3</ele>
        <time>2017-09-28T08:04:10Z</time>
      </trkpt>
      <trkpt lat="45.68517" lon="6.57095">
        <ele>1066.3</ele>
        <time>2017-09-28T08:04:15Z</time>
      </trkpt>
      <trkpt lat="45.68507" lon="6.57103">
        <ele>1067.3</ele>
        <time>2017-09-28T08:04:20Z</time>
      </trkpt>
      <trkpt lat="45.68497" lon="6.5711">
        <ele>1068.4</ele>
        <time>2017-09-28T08:04:25Z</time>
      </trkpt>
      <trkpt lat="45.68489" lon="6.57115">
        <ele>1069.1</ele>
        <time>2017-09-28T08:04:29Z</time>
      </trkpt>
      <trkpt lat="45.68479" lon="6.5712">
        <ele>1070.1</ele>
        <time>2017-09-28T08:04:34Z</time>
      </trkpt>
      <trkpt lat="45.68469" lon="6.57127">
        <ele>1071.1</ele>
        <time>2017-09-28T08:04:39Z</time>
      </trkpt>
      <trkpt lat="45.6846" lon="6.57134">
        <ele>1072.3</ele>
        <time>2017-09-28T08:04:44Z</time>
      </trkpt>
      <trkpt lat="45.68451" lon="6.57143">
        <ele>1073.5</ele>
        <time>2017-09-28T08:04:49Z</time>
      </trkpt>
      <trkpt lat="45.68442" lon="6.57152">
        <ele>1074.4</ele>
        <time>2017-09-28T08:04:54Z</time>
      </trkpt>
      <trkpt lat="45.68433" lon="6.57159">
        <ele>1075.2</ele>
        <time>2017-09-28T08:04:59Z</time>
      </trkpt>
      <trkpt lat="45.68425" lon="6.5717">
        <ele>1076.2</ele>
        <time>2017-09-28T08:05:04Z</time>
      </trkpt>
      <trkpt lat="45.68417" lon="6.57179">
        <ele>1077.3</ele>
        <time>2017-09-28T08:05:09Z</time>
      </trkpt>
      <trkpt lat="45.68407" lon="6.57186">
        <ele>1078.2</ele>
        <time>2017-09-28T08:05:14Z</time>
      </trkpt>
      <trkpt lat="45.68397" lon="6.5719">
        <ele>1079.2</ele>
        <time>2017-09-28T08:05:19Z</time>
      </trkpt>
      <trkpt lat="45.68386" lon="6.57197">
        <ele>1080.2</ele>
        <time>2017-09-28T08:05:24Z</time>
      </trkpt>
      <trkpt lat="45.68377" lon="6.57205">
        <ele>1081.4</ele>
        <time>2017-09-28T08:05:29Z</time>
      </trkpt>
      <trkpt lat="45.6837" lon="6.57212">
        <ele>1082.1</ele>
        <time>2017-09-28T08:05:33Z</time>
      </trkpt>
      <trkpt lat="45.68361" lon="6.5722">
        <ele>1083.1</ele>
        <time>2017-09-28T08:05:38Z</time>
      </trkpt>
      <trkpt lat="45.68351" lon="6.57227">
        <ele>1083.9</ele>
        <time>2017-09-28T08:05:43Z</time>
      </trkpt>
      <trkpt lat="45.68342" lon="6.57234">
        <ele>1084.9</ele>
        <time>2017-09-28T08:05:48Z</time>
      </trkpt>
      <trkpt lat="45.68332" lon="6.5724">
        <ele>1085.8</ele>
        <time>2017-09-28T08:05:53Z</time>
      </trkpt>
      <trkpt lat="45.68323" lon="6.57246">
        <ele>1086.7</ele>
        <time>2017-09-28T08:05:58Z</time>
      </trkpt>
      <trkpt lat="45.68313" lon="6.57251">
        <ele>1087.7</ele>
        <time>2017-09-28T08:06:03Z</time>
      </trkpt>
      <trkpt lat="45.68304" lon="6.57258">
        <ele>1088.6</ele>
        <time>2017-09-28T08:06:08Z</time>
      </trkpt>
      <trkpt lat="45.68296" lon="6.57267">
        <ele>1089.9</ele>
        <time>2017-09-28T08:06:13Z</time>
      </trkpt>
      <trkpt lat="45.68301" lon="6.57279">
        <ele>1090.9</ele>
        <time>2017-09-28T08:06:18Z</time>
      </trkpt>
      <trkpt lat="45.68311" lon="6.57278">
        <ele>1091.4</ele>
        <time>2017-09-28T08:06:22Z</time>
      </trkpt>
      <trkpt lat="45.68321" lon="6.57272">
        <ele>1091.9</ele>
        <time>2017-09-28T08:06:26Z</time>
      </trkpt>
      <trkpt lat="45.6833" lon="6.57268">
        <ele>1092.6</ele>
        <time>2017-09-28T08:06:30Z</time>
      </trkpt>
      <trkpt lat="45.6834" lon="6.57265">
        <ele>1093.3</ele>
        <time>2017-09-28T08:06:34Z</time>
      </trkpt>
      <trkpt lat="45.68351" lon="6.57263">
        <ele>1094.2</ele>
        <time>2017-09-28T08:06:39Z</time>
      </trkpt>
      <trkpt lat="45.6836" lon="6.57263">
        <ele>1095</ele>
        <time>2017-09-28T08:06:43Z</time>
      </trkpt>
      <trkpt lat="45.68371" lon="6.57262">
        <ele>1095.9</ele>
        <time>2017-09-28T08:06:48Z</time>
      </trkpt>
      <trkpt lat="45.68382" lon="6.57261">
        <ele>1096.8</ele>
        <time>2017-09-28T08:06:53Z</time>
      </trkpt>
      <trkpt lat="45.68391" lon="6.5726">
        <ele>1097.5</ele>
        <time>2017-09-28T08:06:57Z</time>
      </trkpt>
      <trkpt lat="45.68401" lon="6.57262">
        <ele>1098.3</ele>
        <time>2017-09-28T08:07:01Z</time>
      </trkpt>
      <trkpt lat="45.6841" lon="6.57263">
        <ele>1099.2</ele>
        <time>2017-09-28T08:07:05Z</time>
      </trkpt>
      <trkpt lat="45.68419" lon="6.57264">
        <ele>1100.2</ele>
        <time>2017-09-28T08:07:10Z</time>
      </trkpt>
      <trkpt lat="45.68428" lon="6.57262">
        <ele>1101.2</ele>
        <time>2017-09-28T08:07:15Z</time>
      </trkpt>
      <trkpt lat="45.68437" lon="6.57254">
        <ele>1102.3</ele>
        <time>2017-09-28T08:07:20Z</time>
      </trkpt>
      <trkpt lat="45.68446" lon="6.57247">
        <ele>1103.3</ele>
        <time>2017-09-28T08:07:25Z</time>
      </trkpt>
      <trkpt lat="45.68454" lon="6.57241">
        <ele>1104.3</ele>
        <time>2017-09-28T08:07:30Z</time>
      </trkpt>
      <trkpt lat="45.68464" lon="6.57237">
        <ele>1105.4</ele>
        <time>2017-09-28T08:07:35Z</time>
      </trkpt>
      <trkpt lat="45.68473" lon="6.57235">
        <ele>1106.5</ele>
        <time>2017-09-28T08:07:40Z</time>
      </trkpt>
      <trkpt lat="45.68483" lon="6.57233">
        <ele>1107.5</ele>
        <time>2017-09-28T08:07:45Z</time>
      </trkpt>
      <trkpt lat="45.68492" lon="6.5723">
        <ele>1108.4</ele>
        <time>2017-09-28T08:07:50Z</time>
      </trkpt>
      <trkpt lat="45.68502" lon="6.57227">
        <ele>1109.2</ele>
        <time>2017-09-28T08:07:55Z</time>
      </trkpt>
      <trkpt lat="45.68511" lon="6.57231">
        <ele>1110.3</ele>
        <time>2017-09-28T08:08:00Z</time>
      </trkpt>
      <trkpt lat="45.68513" lon="6.57244">
        <ele>1111.4</ele>
        <time>2017-09-28T08:08:05Z</time>
      </trkpt>
      <trkpt lat="45.68507" lon="6.57254">
        <ele>1112.4</ele>
        <time>2017-09-28T08:08:10Z</time>
      </trkpt>
      <trkpt lat="45.68496" lon="6.57258">
        <ele>1113</ele>
        <time>2017-09-28T08:08:15Z</time>
      </trkpt>
      <trkpt lat="45.68489" lon="6.57265">
        <ele>1113.6</ele>
        <time>2017-09-28T08:08:19Z</time>
      </trkpt>
      <trkpt lat="45.68479" lon="6.57272">
        <ele>1114.6</ele>
        <time>2017-09-28T08:08:24Z</time>
      </trkpt>
      <trkpt lat="45.68471" lon="6.57282">
        <ele>1115.5</ele>
        <time>2017-09-28T08:08:29Z</time>
      </trkpt>
      <trkpt lat="45.68463" lon="6.57293">
        <ele>1116.6</ele>
        <time>2017-09-28T08:08:34Z</time>
      </trkpt>
      <trkpt lat="45.68455" lon="6.57303">
        <ele>1117.3</ele>
        <time>2017-09-28T08:08:39Z</time>
      </trkpt>
      <trkpt lat="45.68448" lon="6.57314">
        <ele>1118.3</ele>
        <time>2017-09-28T08:08:44Z</time>
      </trkpt>
      <trkpt lat="45.68438" lon="6.57321">
        <ele>1119.3</ele>
        <time>2017-09-28T08:08:49Z</time>
      </trkpt>
      <trkpt lat="45.6843" lon="6.57327">
        <ele>1120.2</ele>
        <time>2017-09-28T08:08:53Z</time>
      </trkpt>
      <trkpt lat="45.6842" lon="6.5733">
        <ele>1121.2</ele>
        <time>2017-09-28T08:08:58Z</time>
      </trkpt>
      <trkpt lat="45.6841" lon="6.57331">
        <ele>1122.1</ele>
        <time>2017-09-28T08:09:03Z</time>
      </trkpt>
      <trkpt lat="45.68399" lon="6.57333">
        <ele>1123.1</ele>
        <time>2017-09-28T08:09:08Z</time>
      </trkpt>
      <trkpt lat="45.68389" lon="6.57335">
        <ele>1124.2</ele>
        <time>2017-09-28T08:09:13Z</time>
      </trkpt>
      <trkpt lat="45.68378" lon="6.57337">
        <ele>1125.3</ele>
        <time>2017-09-28T08:09:18Z</time>
      </trkpt>
      <trkpt lat="45.68369" lon="6.57342">
        <ele>1126.3</ele>
        <time>2017-09-28T08:09:23Z</time>
      </trkpt>
      <trkpt lat="45.6836" lon="6.57345">
        <ele>1127.3</ele>
        <time>2017-09-28T08:09:28Z</time>
      </trkpt>
      <trkpt lat="45.68349" lon="6.57348">
        <ele>1128.2</ele>
        <time>2017-09-28T08:09:33Z</time>
      </trkpt>
      <trkpt lat="45.6834" lon="6.5735">
        <ele>1129.2</ele>
        <time>2017-09-28T08:09:38Z</time>
      </trkpt>
      <trkpt lat="45.68331" lon="6.57355">
        <ele>1130.1</ele>
        <time>2017-09-28T08:09:42Z</time>
      </trkpt>
      <trkpt lat="45.68324" lon="6.57366">
        <ele>1131.3</ele>
        <time>2017-09-28T08:09:47Z</time>
      </trkpt>
      <trkpt lat="45.6832" lon="6.57379">
        <ele>1132.3</ele>
        <time>2017-09-28T08:09:52Z</time>
      </trkpt>
      <trkpt lat="45.68318" lon="6.57393">
        <ele>1133.4</ele>
        <time>2017-09-28T08:09:57Z</time>
      </trkpt>
      <trkpt lat="45.68316" lon="6.57407">
        <ele>1134.1</ele>
        <time>2017-09-28T08:10:02Z</time>
      </trkpt>
      <trkpt lat="45.68312" lon="6.57421">
        <ele>1134.8</ele>
        <time>2017-09-28T08:10:07Z</time>
      </trkpt>
      <trkpt lat="45.68309" lon="6.57434">
        <ele>1136</ele>
        <time>2017-09-28T08:10:12Z</time>
      </trkpt>
      <trkpt lat="45.68305" lon="6.57447">
        <ele>1137.1</ele>
        <time>2017-09-28T08:10:17Z</time>
      </trkpt>
      <trkpt lat="45.68303" lon="6.57462">
        <ele>1138</ele>
        <time>2017-09-28T08:10:22Z</time>
      </trkpt>
      <trkpt lat="45.68304" lon="6.57476">
        <ele>1138.8</ele>
        <time>2017-09-28T08:10:27Z</time>
      </trkpt>
      <trkpt lat="45.68307" lon="6.5749">
        <ele>1139.8</ele>
        <time>2017-09-28T08:10:32Z</time>
      </trkpt>
      <trkpt lat="45.68311" lon="6.57503">
        <ele>1140.9</ele>
        <time>2017-09-28T08:10:37Z</time>
      </trkpt>
      <trkpt lat="45.68314" lon="6.57517">
        <ele>1142.1</ele>
        <time>2017-09-28T08:10:42Z</time>
      </trkpt>
      <trkpt lat="45.68313" lon="6.57531">
        <ele>1143.3</ele>
        <time>2017-09-28T08:10:47Z</time>
      </trkpt>
      <trkpt lat="45.68312" lon="6.57546">
        <ele>1144.4</ele>
        <time>2017-09-28T08:10:52Z</time>
      </trkpt>
      <trkpt lat="45.68321" lon="6.57554">
        <ele>1145.4</ele>
        <time>2017-09-28T08:10:58Z</time>
      </trkpt>
      <trkpt lat="45.68326" lon="6.5754">
        <ele>1146</ele>
        <time>2017-09-28T08:11:03Z</time>
      </trkpt>
      <trkpt lat="45.68327" lon="6.57525">
        <ele>1147</ele>
        <time>2017-09-28T08:11:08Z</time>
      </trkpt>
      <trkpt lat="45.68328" lon="6.57511">
        <ele>1147.9</ele>
        <time>2017-09-28T08:11:13Z</time>
      </trkpt>
      <trkpt lat="45.68329" lon="6.57496">
        <ele>1148.9</ele>
        <time>2017-09-28T08:11:18Z</time>
      </trkpt>
      <trkpt lat="45.68332" lon="6.57482">
        <ele>1150.1</ele>
        <time>2017-09-28T08:11:23Z</time>
      </trkpt>
      <trkpt lat="45.68337" lon="6.5747">
        <ele>1151.1</ele>
        <time>2017-09-28T08:11:28Z</time>
      </trkpt>
      <trkpt lat="45.68342" lon="6.57457">
        <ele>1152.2</ele>
        <time>2017-09-28T08:11:33Z</time>
      </trkpt>
      <trkpt lat="45.68348" lon="6.57445">
        <ele>1153.4</ele>
        <time>2017-09-28T08:11:38Z</time>
      </trkpt>
      <trkpt lat="45.68355" lon="6.57436">
        <ele>1154.7</ele>
        <time>2017-09-28T08:11:43Z</time>
      </trkpt>
      <trkpt lat="45.68363" lon="6.57426">
        <ele>1155.5</ele>
        <time>2017-09-28T08:11:48Z</time>
      </trkpt>
      <trkpt lat="45.68373" lon="6.57426">
        <ele>1156.5</ele>
        <time>2017-09-28T08:11:53Z</time>
      </trkpt>
      <trkpt lat="45.68384" lon="6.57427">
        <ele>1157.7</ele>
        <time>2017-09-28T08:11:58Z</time>
      </trkpt>
      <trkpt lat="45.68393" lon="6.5743">
        <ele>1158.7</ele>
        <time>2017-09-28T08:12:02Z</time>
      </trkpt>
      <trkpt lat="45.68403" lon="6.57435">
        <ele>1159.9</ele>
        <time>2017-09-28T08:12:07Z</time>
      </trkpt>
      <trkpt lat="45.68413" lon="6.57438">
        <ele>1161</ele>
        <time>2017-09-28T08:12:12Z</time>
      </trkpt>
      <trkpt lat="45.68422" lon="6.57441">
        <ele>1161.6</ele>
        <time>2017-09-28T08:12:16Z</time>
      </trkpt>
      <trkpt lat="45.6843" lon="6.5745">
        <ele>1162.5</ele>
        <time>2017-09-28T08:12:21Z</time>
      </trkpt>
      <trkpt lat="45.68425" lon="6.57461">
        <ele>1163.6</ele>
        <time>2017-09-28T08:12:27Z</time>
      </trkpt>
      <trkpt lat="45.68416" lon="6.57461">
        <ele>1164.6</ele>
        <time>2017-09-28T08:12:31Z</time>
      </trkpt>
      <trkpt lat="45.68405" lon="6.57462">
        <ele>1165.8</ele>
        <time>2017-09-28T08:12:36Z</time>
      </trkpt>
      <trkpt lat="45.68396" lon="6.57469">
        <ele>1166.8</ele>
        <time>2017-09-28T08:12:41Z</time>
      </trkpt>
      <trkpt lat="45.6839" lon="6.5748">
        <ele>1167.6</ele>
        <time>2017-09-28T08:12:46Z</time>
      </trkpt>
      <trkpt lat="45.68384" lon="6.57492">
        <ele>1168.7</ele>
        <time>2017-09-28T08:12:51Z</time>
      </trkpt>
      <trkpt lat="45.6838" lon="6.57506">
        <ele>1169.6</ele>
        <time>2017-09-28T08:12:56Z</time>
      </trkpt>
      <trkpt lat="45.68378" lon="6.5752">
        <ele>1170.6</ele>
        <time>2017-09-28T08:13:01Z</time>
      </trkpt>
      <trkpt lat="45.68375" lon="6.57534">
        <ele>1171.9</ele>
        <time>2017-09-28T08:13:06Z</time>
      </trkpt>
      <trkpt lat="45.68375" lon="6.57548">
        <ele>1172.9</ele>
        <time>2017-09-28T08:13:11Z</time>
      </trkpt>
      <trkpt lat="45.68374" lon="6.57563">
        <ele>1174</ele>
        <time>2017-09-28T08:13:16Z</time>
      </trkpt>
      <trkpt lat="45.6837" lon="6.57576">
        <ele>1174.8</ele>
        <time>2017-09-28T08:13:21Z</time>
      </trkpt>
      <trkpt lat="45.68365" lon="6.57589">
        <ele>1176</ele>
        <time>2017-09-28T08:13:26Z</time>
      </trkpt>
      <trkpt lat="45.68359" lon="6.57602">
        <ele>1177.1</ele>
        <time>2017-09-28T08:13:31Z</time>
      </trkpt>
      <trkpt lat="45.68355" lon="6.57614">
        <ele>1178.1</ele>
        <time>2017-09-28T08:13:36Z</time>
      </trkpt>
      <trkpt lat="45.68349" lon="6.57627">
        <ele>1179.2</ele>
        <time>2017-09-28T08:13:41Z</time>
      </trkpt>
      <trkpt lat="45.68344" lon="6.57639">
        <ele>1180.1</ele>
        <time>2017-09-28T08:13:46Z</time>
      </trkpt>
      <trkpt lat="45.6834" lon="6.57652">
        <ele>1181.2</ele>
        <time>2017-09-28T08:13:51Z</time>
      </trkpt>
      <trkpt lat="45.68334" lon="6.57663">
        <ele>1181.8</ele>
        <time>2017-09-28T08:13:56Z</time>
      </trkpt>
      <trkpt lat="45.68328" lon="6.57675">
        <ele>1182.9</ele>
        <time>2017-09-28T08:14:01Z</time>
      </trkpt>
      <trkpt lat="45.68323" lon="6.57689">
        <ele>1184</ele>
        <time>2017-09-28T08:14:06Z</time>
      </trkpt>
      <trkpt lat="45.68318" lon="6.57702">
        <ele>1185</ele>
        <time>2017-09-28T08:14:11Z</time>
      </trkpt>
      <trkpt lat="45.68319" lon="6.57717">
        <ele>1186.2</ele>
        <time>2017-09-28T08:14:16Z</time>
      </trkpt>
      <trkpt lat="45.68329" lon="6.57721">
        <ele>1186.9</ele>
        <time>2017-09-28T08:14:21Z</time>
      </trkpt>
      <trkpt lat="45.68337" lon="6.57712">
        <ele>1187.6</ele>
        <time>2017-09-28T08:14:25Z</time>
      </trkpt>
      <trkpt lat="45.68341" lon="6.57701">
        <ele>1188.3</ele>
        <time>2017-09-28T08:14:29Z</time>
      </trkpt>
      <trkpt lat="45.68346" lon="6.57688">
        <ele>1189.4</ele>
        <time>2017-09-28T08:14:34Z</time>
      </trkpt>
      <trkpt lat="45.68353" lon="6.57678">
        <ele>1190.3</ele>
        <time>2017-09-28T08:14:39Z</time>
      </trkpt>
      <trkpt lat="45.68362" lon="6.5767">
        <ele>1191.3</ele>
        <time>2017-09-28T08:14:44Z</time>
      </trkpt>
      <trkpt lat="45.68371" lon="6.57666">
        <ele>1192.4</ele>
        <time>2017-09-28T08:14:49Z</time>
      </trkpt>
      <trkpt lat="45.6838" lon="6.57659">
        <ele>1193.4</ele>
        <time>2017-09-28T08:14:54Z</time>
      </trkpt>
      <trkpt lat="45.68389" lon="6.57652">
        <ele>1194.3</ele>
        <time>2017-09-28T08:14:59Z</time>
      </trkpt>
      <trkpt lat="45.68398" lon="6.57643">
        <ele>1195.4</ele>
        <time>2017-09-28T08:15:04Z</time>
      </trkpt>
      <trkpt lat="45.68407" lon="6.57636">
        <ele>1196.3</ele>
        <time>2017-09-28T08:15:09Z</time>
      </trkpt>
      <trkpt lat="45.68414" lon="6.57626">
        <ele>1197.5</ele>
        <time>2017-09-28T08:15:14Z</time>
      </trkpt>
      <trkpt lat="45.68421" lon="6.57616">
        <ele>1198.7</ele>
        <time>2017-09-28T08:15:19Z</time>
      </trkpt>
      <trkpt lat="45.68428" lon="6.57607">
        <ele>1200</ele>
        <time>2017-09-28T08:15:24Z</time>
      </trkpt>
      <trkpt lat="45.68437" lon="6.57598">
        <ele>1201.2</ele>
        <time>2017-09-28T08:15:29Z</time>
      </trkpt>
      <trkpt lat="45.68446" lon="6.5759">
        <ele>1202.2</ele>
        <time>2017-09-28T08:15:34Z</time>
      </trkpt>
      <trkpt lat="45.68455" lon="6.57586">
        <ele>1203.3</ele>
        <time>2017-09-28T08:15:39Z</time>
      </trkpt>
      <trkpt lat="45.68466" lon="6.57581">
        <ele>1203.9</ele>
        <time>2017-09-28T08:15:44Z</time>
      </trkpt>
      <trkpt lat="45.68475" lon="6.57574">
        <ele>1204.6</ele>
        <time>2017-09-28T08:15:49Z</time>
      </trkpt>
      <trkpt lat="45.68484" lon="6.57571">
        <ele>1205.4</ele>
        <time>2017-09-28T08:15:54Z</time>
      </trkpt>
      <trkpt lat="45.68491" lon="6.57581">
        <ele>1206.2</ele>
        <time>2017-09-28T08:15:59Z</time>
      </trkpt>
      <trkpt lat="45.6849" lon="6.57595">
        <ele>1207.4</ele>
        <time>2017-09-28T08:16:04Z</time>
      </trkpt>
      <trkpt lat="45.68483" lon="6.57604">
        <ele>1208.4</ele>
        <time>2017-09-28T08:16:09Z</time>
      </trkpt>
      <trkpt lat="45.68473" lon="6.57611">
        <ele>1209.6</ele>
        <time>2017-09-28T08:16:14Z</time>
      </trkpt>
      <trkpt lat="45.68465" lon="6.57619">
        <ele>1210.5</ele>
        <time>2017-09-28T08:16:19Z</time>
      </trkpt>
      <trkpt lat="45.68456" lon="6.57626">
        <ele>1211.3</ele>
        <time>2017-09-28T08:16:24Z</time>
      </trkpt>
      <trkpt lat="45.68447" lon="6.57634">
        <ele>1212.4</ele>
        <time>2017-09-28T08:16:29Z</time>
      </trkpt>
      <trkpt lat="45.68439" lon="6.57645">
        <ele>1213.6</ele>
        <time>2017-09-28T08:16:34Z</time>
      </trkpt>
      <trkpt lat="45.68434" lon="6.57659">
        <ele>1214.6</ele>
        <time>2017-09-28T08:16:39Z</time>
      </trkpt>
      <trkpt lat="45.68428" lon="6.57672">
        <ele>1215.6</ele>
        <time>2017-09-28T08:16:44Z</time>
      </trkpt>
      <trkpt lat="45.68425" lon="6.57687">
        <ele>1217</ele>
        <time>2017-09-28T08:16:49Z</time>
      </trkpt>
      <trkpt lat="45.68421" lon="6.577">
        <ele>1218.4</ele>
        <time>2017-09-28T08:16:54Z</time>
      </trkpt>
      <trkpt lat="45.68419" lon="6.57714">
        <ele>1219.6</ele>
        <time>2017-09-28T08:16:59Z</time>
      </trkpt>
      <trkpt lat="45.68418" lon="6.57728">
        <ele>1221</ele>
        <time>2017-09-28T08:17:04Z</time>
      </trkpt>
      <trkpt lat="45.68417" lon="6.57743">
        <ele>1222</ele>
        <time>2017-09-28T08:17:09Z</time>
      </trkpt>
      <trkpt lat="45.68417" lon="6.57756">
        <ele>1222.7</ele>
        <time>2017-09-28T08:17:14Z</time>
      </trkpt>
      <trkpt lat="45.68414" lon="6.57771">
        <ele>1224</ele>
        <time>2017-09-28T08:17:20Z</time>
      </trkpt>
      <trkpt lat="45.68424" lon="6.57774">
        <ele>1225</ele>
        <time>2017-09-28T08:17:26Z</time>
      </trkpt>
      <trkpt lat="45.68427" lon="6.57758">
        <ele>1225.7</ele>
        <time>2017-09-28T08:17:31Z</time>
      </trkpt>
      <trkpt lat="45.68428" lon="6.57743">
        <ele>1226.3</ele>
        <time>2017-09-28T08:17:36Z</time>
      </trkpt>
      <trkpt lat="45.6843" lon="6.57728">
        <ele>1227.1</ele>
        <time>2017-09-28T08:17:41Z</time>
      </trkpt>
      <trkpt lat="45.68434" lon="6.57715">
        <ele>1228.1</ele>
        <time>2017-09-28T08:17:46Z</time>
      </trkpt>
      <trkpt lat="45.68441" lon="6.57704">
        <ele>1228.9</ele>
        <time>2017-09-28T08:17:51Z</time>
      </trkpt>
      <trkpt lat="45.68449" lon="6.57697">
        <ele>1230.3</ele>
        <time>2017-09-28T08:17:56Z</time>
      </trkpt>
      <trkpt lat="45.68457" lon="6.57691">
        <ele>1231.4</ele>
        <time>2017-09-28T08:18:01Z</time>
      </trkpt>
      <trkpt lat="45.68466" lon="6.57684">
        <ele>1232.2</ele>
        <time>2017-09-28T08:18:06Z</time>
      </trkpt>
      <trkpt lat="45.68475" lon="6.57677">
        <ele>1233.4</ele>
        <time>2017-09-28T08:18:11Z</time>
      </trkpt>
      <trkpt lat="45.68484" lon="6.57671">
        <ele>1234.7</ele>
        <time>2017-09-28T08:18:16Z</time>
      </trkpt>
      <trkpt lat="45.68493" lon="6.57663">
        <ele>1235.6</ele>
        <time>2017-09-28T08:18:21Z</time>
      </trkpt>
      <trkpt lat="45.68502" lon="6.5766">
        <ele>1236.6</ele>
        <time>2017-09-28T08:18:26Z</time>
      </trkpt>
      <trkpt lat="45.68509" lon="6.57651">
        <ele>1237.9</ele>
        <time>2017-09-28T08:18:31Z</time>
      </trkpt>
      <trkpt lat="45.68517" lon="6.57642">
        <ele>1238.8</ele>
        <time>2017-09-28T08:18:36Z</time>
      </trkpt>
      <trkpt lat="45.68524" lon="6.57632">
        <ele>1239.8</ele>
        <time>2017-09-28T08:18:41Z</time>
      </trkpt>
      <trkpt lat="45.68533" lon="6.57626">
        <ele>1241.1</ele>
        <time>2017-09-28T08:18:46Z</time>
      </trkpt>
      <trkpt lat="45.68541" lon="6.5762">
        <ele>1242.2</ele>
        <time>2017-09-28T08:18:51Z</time>
      </trkpt>
      <trkpt lat="45.6855" lon="6.57616">
        <ele>1243.4</ele>
        <time>2017-09-28T08:18:56Z</time>
      </trkpt>
      <trkpt lat="45.68559" lon="6.57608">
        <ele>1244.8</ele>
        <time>2017-09-28T08:19:01Z</time>
      </trkpt>
      <trkpt lat="45.68568" lon="6.57602">
        <ele>1245.8</ele>
        <time>2017-09-28T08:19:06Z</time>
      </trkpt>
      <trkpt lat="45.68574" lon="6.5759">
        <ele>1246.7</ele>
        <time>2017-09-28T08:19:11Z</time>
      </trkpt>
      <trkpt lat="45.68583" lon="6.57583">
        <ele>1247.9</ele>
        <time>2017-09-28T08:19:16Z</time>
      </trkpt>
      <trkpt lat="45.68589" lon="6.57571">
        <ele>1249.1</ele>
        <time>2017-09-28T08:19:21Z</time>
      </trkpt>
      <trkpt lat="45.68594" lon="6.57559">
        <ele>1250.1</ele>
        <time>2017-09-28T08:19:26Z</time>
      </trkpt>
      <trkpt lat="45.68596" lon="6.57545">
        <ele>1251.1</ele>
        <time>2017-09-28T08:19:31Z</time>
      </trkpt>
      <trkpt lat="45.68606" lon="6.57544">
        <ele>1252</ele>
        <time>2017-09-28T08:19:37Z</time>
      </trkpt>
      <trkpt lat="45.68606" lon="6.57558">
        <ele>1252.8</ele>
        <time>2017-09-28T08:19:42Z</time>
      </trkpt>
      <trkpt lat="45.68599" lon="6.5757">
        <ele>1253.8</ele>
        <time>2017-09-28T08:19:47Z</time>
      </trkpt>
      <trkpt lat="45.68593" lon="6.57581">
        <ele>1254.8</ele>
        <time>2017-09-28T08:19:52Z</time>
      </trkpt>
      <trkpt lat="45.68588" lon="6.57594">
        <ele>1255.6</ele>
        <time>2017-09-28T08:19:57Z</time>
      </trkpt>
      <trkpt lat="45.68581" lon="6.57605">
        <ele>1256.8</ele>
        <time>2017-09-28T08:20:03Z</time>
      </trkpt>
      <trkpt lat="45.68572" lon="6.57611">
        <ele>1257.9</ele>
        <time>2017-09-28T08:20:08Z</time>
      </trkpt>
      <trkpt lat="45.68563" lon="6.57619">
        <ele>1258.9</ele>
        <time>2017-09-28T08:20:13Z</time>
      </trkpt>
      <trkpt lat="45.68556" lon="6.57629">
        <ele>1260.1</ele>
        <time>2017-09-28T08:20:18Z</time>
      </trkpt>
      <trkpt lat="45.68549" lon="6.57641">
        <ele>1261.1</ele>
        <time>2017-09-28T08:20:23Z</time>
      </trkpt>
      <trkpt lat="45.68542" lon="6.57652">
        <ele>1262.3</ele>
        <time>2017-09-28T08:20:28Z</time>
      </trkpt>
      <trkpt lat="45.68537" lon="6.57665">
        <ele>1263.6</ele>
        <time>2017-09-28T08:20:33Z</time>
      </trkpt>
      <trkpt lat="45.68535" lon="6.57678">
        <ele>1264.6</ele>
        <time>2017-09-28T08:20:37Z</time>
      </trkpt>
      <trkpt lat="45.68529" lon="6.57689">
        <ele>1265.8</ele>
        <time>2017-09-28T08:20:42Z</time>
      </trkpt>
      <trkpt lat="45.68526" lon="6.57703">
        <ele>1266.9</ele>
        <time>2017-09-28T08:20:47Z</time>
      </trkpt>
      <trkpt lat="45.68521" lon="6.57716">
        <ele>1267.9</ele>
        <time>2017-09-28T08:20:52Z</time>
      </trkpt>
      <trkpt lat="45.68519" lon="6.5773">
        <ele>1268.8</ele>
        <time>2017-09-28T08:20:57Z</time>
      </trkpt>
      <trkpt lat="45.68513" lon="6.57741">
        <ele>1269.8</ele>
        <time>2017-09-28T08:21:02Z</time>
      </trkpt>
      <trkpt lat="45.68512" lon="6.57755">
        <ele>1271.2</ele>
        <time>2017-09-28T08:21:07Z</time>
      </trkpt>
      <trkpt lat="45.68509" lon="6.57769">
        <ele>1272.4</ele>
        <time>2017-09-28T08:21:12Z</time>
      </trkpt>
      <trkpt lat="45.68508" lon="6.57783">
        <ele>1273.3</ele>
        <time>2017-09-28T08:21:17Z</time>
      </trkpt>
      <trkpt lat="45.68508" lon="6.57798">
        <ele>1274.5</ele>
        <time>2017-09-28T08:21:22Z</time>
      </trkpt>
      <trkpt lat="45.68512" lon="6.57811">
        <ele>1275.3</ele>
        <time>2017-09-28T08:21:27Z</time>
      </trkpt>
      <trkpt lat="45.68518" lon="6.57823">
        <ele>1276.2</ele>
        <time>2017-09-28T08:21:32Z</time>
      </trkpt>
      <trkpt lat="45.68523" lon="6.57834">
        <ele>1277.4</ele>
        <time>2017-09-28T08:21:37Z</time>
      </trkpt>
      <trkpt lat="45.68528" lon="6.57847">
        <ele>1278.2</ele>
        <time>2017-09-28T08:21:42Z</time>
      </trkpt>
      <trkpt lat="45.68532" lon="6.5786">
        <ele>1279.4</ele>
        <time>2017-09-28T08:21:47Z</time>
      </trkpt>
      <trkpt lat="45.68534" lon="6.57874">
        <ele>1280.6</ele>
        <time>2017-09-28T08:21:52Z</time>
      </trkpt>
      <trkpt lat="45.68536" lon="6.57887">
        <ele>1281.6</ele>
        <time>2017-09-28T08:21:57Z</time>
      </trkpt>
      <trkpt lat="45.68542" lon="6.57899">
        <ele>1282.8</ele>
        <time>2017-09-28T08:22:02Z</time>
      </trkpt>
      <trkpt lat="45.68548" lon="6.57911">
        <ele>1284.1</ele>
        <time>2017-09-28T08:22:07Z</time>
      </trkpt>
      <trkpt lat="45.68554" lon="6.57922">
        <ele>1285.2</ele>
        <time>2017-09-28T08:22:12Z</time>
      </trkpt>
      <trkpt lat="45.68561" lon="6.57934">
        <ele>1286</ele>
        <time>2017-09-28T08:22:17Z</time>
      </trkpt>
      <trkpt lat="45.68568" lon="6.57943">
        <ele>1286.8</ele>
        <time>2017-09-28T08:22:22Z</time>
      </trkpt>
      <trkpt lat="45.68575" lon="6.57954">
        <ele>1288</ele>
        <time>2017-09-28T08:22:27Z</time>
      </trkpt>
      <trkpt lat="45.6858" lon="6.57965">
        <ele>1289.3</ele>
        <time>2017-09-28T08:22:32Z</time>
      </trkpt>
      <trkpt lat="45.68585" lon="6.57977">
        <ele>1290.1</ele>
        <time>2017-09-28T08:22:37Z</time>
      </trkpt>
      <trkpt lat="45.6859" lon="6.5799">
        <ele>1291</ele>
        <time>2017-09-28T08:22:42Z</time>
      </trkpt>
      <trkpt lat="45.68596" lon="6.58002">
        <ele>1292.1</ele>
        <time>2017-09-28T08:22:47Z</time>
      </trkpt>
      <trkpt lat="45.68598" lon="6.58015">
        <ele>1293.3</ele>
        <time>2017-09-28T08:22:52Z</time>
      </trkpt>
      <trkpt lat="45.68601" lon="6.58028">
        <ele>1294.3</ele>
        <time>2017-09-28T08:22:57Z</time>
      </trkpt>
      <trkpt lat="45.68604" lon="6.58041">
        <ele>1295.3</ele>
        <time>2017-09-28T08:23:02Z</time>
      </trkpt>
      <trkpt lat="45.68609" lon="6.58054">
        <ele>1296.1</ele>
        <time>2017-09-28T08:23:07Z</time>
      </trkpt>
      <trkpt lat="45.68618" lon="6.58053">
        <ele>1296.9</ele>
        <time>2017-09-28T08:23:12Z</time>
      </trkpt>
      <trkpt lat="45.68623" lon="6.58041">
        <ele>1297.8</ele>
        <time>2017-09-28T08:23:17Z</time>
      </trkpt>
      <trkpt lat="45.6862" lon="6.58026">
        <ele>1298.4</ele>
        <time>2017-09-28T08:23:22Z</time>
      </trkpt>
      <trkpt lat="45.68615" lon="6.58012">
        <ele>1299.2</ele>
        <time>2017-09-28T08:23:27Z</time>
      </trkpt>
      <trkpt lat="45.6861" lon="6.57999">
        <ele>1300.2</ele>
        <time>2017-09-28T08:23:32Z</time>
      </trkpt>
      <trkpt lat="45.68607" lon="6.57986">
        <ele>1301.4</ele>
        <time>2017-09-28T08:23:37Z</time>
      </trkpt>
      <trkpt lat="45.68604" lon="6.57972">
        <ele>1302.5</ele>
        <time>2017-09-28T08:23:42Z</time>
      </trkpt>
      <trkpt lat="45.68602" lon="6.57959">
        <ele>1303.8</ele>
        <time>2017-09-28T08:23:47Z</time>
      </trkpt>
      <trkpt lat="45.68599" lon="6.57947">
        <ele>1304.4</ele>
        <time>2017-09-28T08:23:52Z</time>
      </trkpt>
      <trkpt lat="45.68598" lon="6.57933">
        <ele>1305.6</ele>
        <time>2017-09-28T08:23:57Z</time>
      </trkpt>
      <trkpt lat="45.68594" lon="6.57921">
        <ele>1306.4</ele>
        <time>2017-09-28T08:24:02Z</time>
      </trkpt>
      <trkpt lat="45.68592" lon="6.57907">
        <ele>1307.5</ele>
        <time>2017-09-28T08:24:07Z</time>
      </trkpt>
      <trkpt lat="45.68587" lon="6.57894">
        <ele>1308.7</ele>
        <time>2017-09-28T08:24:12Z</time>
      </trkpt>
      <trkpt lat="45.68583" lon="6.57882">
        <ele>1309.8</ele>
        <time>2017-09-28T08:24:17Z</time>
      </trkpt>
      <trkpt lat="45.68578" lon="6.57869">
        <ele>1310.8</ele>
        <time>2017-09-28T08:24:22Z</time>
      </trkpt>
      <trkpt lat="45.6858" lon="6.57854">
        <ele>1311.9</ele>
        <time>2017-09-28T08:24:27Z</time>
      </trkpt>
      <trkpt lat="45.68587" lon="6.57844">
        <ele>1313.2</ele>
        <time>2017-09-28T08:24:32Z</time>
      </trkpt>
      <trkpt lat="45.68594" lon="6.57835">
        <ele>1314.1</ele>
        <time>2017-09-28T08:24:37Z</time>
      </trkpt>
      <trkpt lat="45.68599" lon="6.57824">
        <ele>1315</ele>
        <time>2017-09-28T08:24:42Z</time>
      </trkpt>
      <trkpt lat="45.68602" lon="6.5781">
        <ele>1316</ele>
        <time>2017-09-28T08:24:48Z</time>
      </trkpt>
      <trkpt lat="45.68606" lon="6.57798">
        <ele>1317.1</ele>
        <time>2017-09-28T08:24:53Z</time>
      </trkpt>
      <trkpt lat="45.68608" lon="6.57785">
        <ele>1318.3</ele>
        <time>2017-09-28T08:24:58Z</time>
      </trkpt>
      <trkpt lat="45.68614" lon="6.57772">
        <ele>1319.5</ele>
        <time>2017-09-28T08:25:04Z</time>
      </trkpt>
      <trkpt lat="45.68618" lon="6.5776">
        <ele>1320.6</ele>
        <time>2017-09-28T08:25:09Z</time>
      </trkpt>
      <trkpt lat="45.68622" lon="6.57748">
        <ele>1321.4</ele>
        <time>2017-09-28T08:25:14Z</time>
      </trkpt>
      <trkpt lat="45.68627" lon="6.57737">
        <ele>1322.3</ele>
        <time>2017-09-28T08:25:19Z</time>
      </trkpt>
      <trkpt lat="45.68632" lon="6.57726">
        <ele>1323.3</ele>
        <time>2017-09-28T08:25:24Z</time>
      </trkpt>
      <trkpt lat="45.6864" lon="6.57716">
        <ele>1324.4</ele>
        <time>2017-09-28T08:25:30Z</time>
      </trkpt>
      <trkpt lat="45.68648" lon="6.57707">
        <ele>1325.4</ele>
        <time>2017-09-28T08:25:35Z</time>
      </trkpt>
      <trkpt lat="45.68654" lon="6.57698">
        <ele>1326.2</ele>
        <time>2017-09-28T08:25:39Z</time>
      </trkpt>
      <trkpt lat="45.68661" lon="6.57686">
        <ele>1327.3</ele>
        <time>2017-09-28T08:25:44Z</time>
      </trkpt>
      <trkpt lat="45.6867" lon="6.57679">
        <ele>1328.5</ele>
        <time>2017-09-28T08:25:49Z</time>
      </trkpt>
      <trkpt lat="45.68675" lon="6.57667">
        <ele>1329.7</ele>
        <time>2017-09-28T08:25:54Z</time>
      </trkpt>
      <trkpt lat="45.68683" lon="6.57658">
        <ele>1330.8</ele>
        <time>2017-09-28T08:25:59Z</time>
      </trkpt>
      <trkpt lat="45.68691" lon="6.57648">
        <ele>1331.7</ele>
        <time>2017-09-28T08:26:04Z</time>
      </trkpt>
      <trkpt lat="45.68701" lon="6.57641">
        <ele>1332.4</ele>
        <time>2017-09-28T08:26:09Z</time>
      </trkpt>
      <trkpt lat="45.68711" lon="6.57643">
        <ele>1332.9</ele>
        <time>2017-09-28T08:26:14Z</time>
      </trkpt>
      <trkpt lat="45.68704" lon="6.57654">
        <ele>1333.9</ele>
        <time>2017-09-28T08:26:21Z</time>
      </trkpt>
      <trkpt lat="45.68694" lon="6.57656">
        <ele>1334.6</ele>
        <time>2017-09-28T08:26:26Z</time>
      </trkpt>
      <trkpt lat="45.68687" lon="6.57667">
        <ele>1335.3</ele>
        <time>2017-09-28T08:26:31Z</time>
      </trkpt>
      <trkpt lat="45.68682" lon="6.5768">
        <ele>1336.1</ele>
        <time>2017-09-28T08:26:36Z</time>
      </trkpt>
      <trkpt lat="45.68679" lon="6.57693">
        <ele>1337.1</ele>
        <time>2017-09-28T08:26:41Z</time>
      </trkpt>
      <trkpt lat="45.68677" lon="6.57707">
        <ele>1338.5</ele>
        <time>2017-09-28T08:28:00Z</time>
      </trkpt>
      <trkpt lat="45.68673" lon="6.5772">
        <ele>1339.3</ele>
        <time>2017-09-28T08:28:04Z</time>
      </trkpt>
      <trkpt lat="45.6867" lon="6.57733">
        <ele>1340.1</ele>
        <time>2017-09-28T08:28:08Z</time>
      </trkpt>
      <trkpt lat="45.68666" lon="6.57746">
        <ele>1340.9</ele>
        <time>2017-09-28T08:28:12Z</time>
      </trkpt>
      <trkpt lat="45.68662" lon="6.5776">
        <ele>1341.8</ele>
        <time>2017-09-28T08:28:16Z</time>
      </trkpt>
      <trkpt lat="45.68659" lon="6.57773">
        <ele>1342.5</ele>
        <time>2017-09-28T08:28:20Z</time>
      </trkpt>
      <trkpt lat="45.68657" lon="6.57787">
        <ele>1343.5</ele>
        <time>2017-09-28T08:28:24Z</time>
      </trkpt>
      <trkpt lat="45.68657" lon="6.578">
        <ele>1344.2</ele>
        <time>2017-09-28T08:28:28Z</time>
      </trkpt>
      <trkpt lat="45.68658" lon="6.57816">
        <ele>1345.1</ele>
        <time>2017-09-28T08:28:33Z</time>
      </trkpt>
      <trkpt lat="45.68659" lon="6.57829">
        <ele>1346.2</ele>
        <time>2017-09-28T08:28:37Z</time>
      </trkpt>
      <trkpt lat="45.68662" lon="6.57843">
        <ele>1347.1</ele>
        <time>2017-09-28T08:28:42Z</time>
      </trkpt>
      <trkpt lat="45.68667" lon="6.57855">
        <ele>1348.1</ele>
        <time>2017-09-28T08:28:47Z</time>
      </trkpt>
      <trkpt lat="45.68672" lon="6.57867">
        <ele>1349.4</ele>
        <time>2017-09-28T08:28:52Z</time>
      </trkpt>
      <trkpt lat="45.68679" lon="6.57876">
        <ele>1350.6</ele>
        <time>2017-09-28T08:28:57Z</time>
      </trkpt>
      <trkpt lat="45.68685" lon="6.57887">
        <ele>1351.6</ele>
        <time>2017-09-28T08:29:02Z</time>
      </trkpt>
      <trkpt lat="45.68692" lon="6.57898">
        <ele>1352.6</ele>
        <time>2017-09-28T08:29:07Z</time>
      </trkpt>
      <trkpt lat="45.68698" lon="6.57908">
        <ele>1353.5</ele>
        <time>2017-09-28T08:29:12Z</time>
      </trkpt>
      <trkpt lat="45.68706" lon="6.57917">
        <ele>1354.4</ele>
        <time>2017-09-28T08:29:17Z</time>
      </trkpt>
      <trkpt lat="45.68713" lon="6.57927">
        <ele>1355.6</ele>
        <time>2017-09-28T08:29:22Z</time>
      </trkpt>
      <trkpt lat="45.68716" lon="6.5794">
        <ele>1356.6</ele>
        <time>2017-09-28T08:29:27Z</time>
      </trkpt>
      <trkpt lat="45.68719" lon="6.57953">
        <ele>1357.5</ele>
        <time>2017-09-28T08:29:32Z</time>
      </trkpt>
      <trkpt lat="45.68723" lon="6.57965">
        <ele>1358.3</ele>
        <time>2017-09-28T08:29:37Z</time>
      </trkpt>
      <trkpt lat="45.68727" lon="6.57977">
        <ele>1359.3</ele>
        <time>2017-09-28T08:29:42Z</time>
      </trkpt>
      <trkpt lat="45.68731" lon="6.5799">
        <ele>1360.4</ele>
        <time>2017-09-28T08:29:47Z</time>
      </trkpt>
      <trkpt lat="45.68735" lon="6.58002">
        <ele>1361.5</ele>
        <time>2017-09-28T08:29:52Z</time>
      </trkpt>
      <trkpt lat="45.68739" lon="6.58015">
        <ele>1362.5</ele>
        <time>2017-09-28T08:29:57Z</time>
      </trkpt>
      <trkpt lat="45.68745" lon="6.58027">
        <ele>1363.8</ele>
        <time>2017-09-28T08:30:02Z</time>
      </trkpt>
      <trkpt lat="45.68749" lon="6.5804">
        <ele>1365</ele>
        <time>2017-09-28T08:30:07Z</time>
      </trkpt>
      <trkpt lat="45.68753" lon="6.58053">
        <ele>1365.9</ele>
        <time>2017-09-28T08:30:12Z</time>
      </trkpt>
      <trkpt lat="45.68755" lon="6.58066">
        <ele>1367.1</ele>
        <time>2017-09-28T08:30:17Z</time>
      </trkpt>
      <trkpt lat="45.68758" lon="6.58079">
        <ele>1368</ele>
        <time>2017-09-28T08:30:22Z</time>
      </trkpt>
      <trkpt lat="45.68757" lon="6.58093">
        <ele>1369.2</ele>
        <time>2017-09-28T08:30:27Z</time>
      </trkpt>
      <trkpt lat="45.68758" lon="6.58107">
        <ele>1369.9</ele>
        <time>2017-09-28T08:30:31Z</time>
      </trkpt>
      <trkpt lat="45.68757" lon="6.58121">
        <ele>1370.8</ele>
        <time>2017-09-28T08:30:36Z</time>
      </trkpt>
      <trkpt lat="45.68755" lon="6.58135">
        <ele>1371.9</ele>
        <time>2017-09-28T08:30:41Z</time>
      </trkpt>
      <trkpt lat="45.68759" lon="6.58148">
        <ele>1372.8</ele>
        <time>2017-09-28T08:30:46Z</time>
      </trkpt>
      <trkpt lat="45.68769" lon="6.58141">
        <ele>1373.5</ele>
        <time>2017-09-28T08:30:51Z</time>
      </trkpt>
      <trkpt lat="45.68774" lon="6.58127">
        <ele>1374.2</ele>
        <time>2017-09-28T08:30:56Z</time>
      </trkpt>
      <trkpt lat="45.68776" lon="6.58112">
        <ele>1374.9</ele>
        <time>2017-09-28T08:31:01Z</time>
      </trkpt>
      <trkpt lat="45.68777" lon="6.58097">
        <ele>1376.2</ele>
        <time>2017-09-28T08:31:06Z</time>
      </trkpt>
      <trkpt lat="45.68776" lon="6.58082">
        <ele>1377.5</ele>
        <time>2017-09-28T08:31:11Z</time>
      </trkpt>
      <trkpt lat="45.68774" lon="6.58067">
        <ele>1378.9</ele>
        <time>2017-09-28T08:31:16Z</time>
      </trkpt>
      <trkpt lat="45.68774" lon="6.58053">
        <ele>1380.3</ele>
        <time>2017-09-28T08:31:21Z</time>
      </trkpt>
      <trkpt lat="45.68776" lon="6.58038">
        <ele>1381.5</ele>
        <time>2017-09-28T08:31:26Z</time>
      </trkpt>
      <trkpt lat="45.68779" lon="6.58023">
        <ele>1382.3</ele>
        <time>2017-09-28T08:31:31Z</time>
      </trkpt>
      <trkpt lat="45.68782" lon="6.58008">
        <ele>1383.4</ele>
        <time>2017-09-28T08:31:36Z</time>
      </trkpt>
      <trkpt lat="45.68786" lon="6.57996">
        <ele>1384.3</ele>
        <time>2017-09-28T08:31:41Z</time>
      </trkpt>
      <trkpt lat="45.68789" lon="6.57983">
        <ele>1385.4</ele>
        <time>2017-09-28T08:31:46Z</time>
      </trkpt>
      <trkpt lat="45.68795" lon="6.57971">
        <ele>1386.5</ele>
        <time>2017-09-28T08:31:52Z</time>
      </trkpt>
      <trkpt lat="45.68795" lon="6.57957">
        <ele>1387.5</ele>
        <time>2017-09-28T08:31:57Z</time>
      </trkpt>
      <trkpt lat="45.68797" lon="6.57942">
        <ele>1388.8</ele>
        <time>2017-09-28T08:32:03Z</time>
      </trkpt>
      <trkpt lat="45.68795" lon="6.57929">
        <ele>1389.7</ele>
        <time>2017-09-28T08:32:08Z</time>
      </trkpt>
      <trkpt lat="45.6879" lon="6.57917">
        <ele>1390.5</ele>
        <time>2017-09-28T08:32:13Z</time>
      </trkpt>
      <trkpt lat="45.68785" lon="6.57906">
        <ele>1391.8</ele>
        <time>2017-09-28T08:32:18Z</time>
      </trkpt>
      <trkpt lat="45.68781" lon="6.57894">
        <ele>1393.2</ele>
        <time>2017-09-28T08:32:23Z</time>
      </trkpt>
      <trkpt lat="45.68776" lon="6.5788">
        <ele>1394.5</ele>
        <time>2017-09-28T08:32:29Z</time>
      </trkpt>
      <trkpt lat="45.68776" lon="6.57867">
        <ele>1395.6</ele>
        <time>2017-09-28T08:32:34Z</time>
      </trkpt>
      <trkpt lat="45.68779" lon="6.57854">
        <ele>1396.5</ele>
        <time>2017-09-28T08:32:39Z</time>
      </trkpt>
      <trkpt lat="45.68784" lon="6.57842">
        <ele>1397.6</ele>
        <time>2017-09-28T08:32:44Z</time>
      </trkpt>
      <trkpt lat="45.6879" lon="6.5783">
        <ele>1398.6</ele>
        <time>2017-09-28T08:32:49Z</time>
      </trkpt>
      <trkpt lat="45.68796" lon="6.57819">
        <ele>1399.7</ele>
        <time>2017-09-28T08:32:54Z</time>
      </trkpt>
      <trkpt lat="45.68804" lon="6.57808">
        <ele>1400.8</ele>
        <time>2017-09-28T08:32:59Z</time>
      </trkpt>
      <trkpt lat="45.68813" lon="6.57803">
        <ele>1401.6</ele>
        <time>2017-09-28T08:33:03Z</time>
      </trkpt>
      <trkpt lat="45.68823" lon="6.57802">
        <ele>1402.1</ele>
        <time>2017-09-28T08:33:07Z</time>
      </trkpt>
      <trkpt lat="45.68833" lon="6.57802">
        <ele>1402.7</ele>
        <time>2017-09-28T08:33:11Z</time>
      </trkpt>
      <trkpt lat="45.68843" lon="6.57801">
        <ele>1403.1</ele>
        <time>2017-09-28T08:33:15Z</time>
      </trkpt>
      <trkpt lat="45.68853" lon="6.57799">
        <ele>1403.8</ele>
        <time>2017-09-28T08:33:19Z</time>
      </trkpt>
      <trkpt lat="45.68862" lon="6.57801">
        <ele>1404.2</ele>
        <time>2017-09-28T08:33:23Z</time>
      </trkpt>
      <trkpt lat="45.6886" lon="6.57815">
        <ele>1405</ele>
        <time>2017-09-28T08:33:29Z</time>
      </trkpt>
      <trkpt lat="45.68849" lon="6.57814">
        <ele>1405.6</ele>
        <time>2017-09-28T08:33:33Z</time>
      </trkpt>
      <trkpt lat="45.68839" lon="6.57813">
        <ele>1406.1</ele>
        <time>2017-09-28T08:33:37Z</time>
      </trkpt>
      <trkpt lat="45.6883" lon="6.57815">
        <ele>1406.9</ele>
        <time>2017-09-28T08:33:41Z</time>
      </trkpt>
      <trkpt lat="45.68821" lon="6.57823">
        <ele>1408.1</ele>
        <time>2017-09-28T08:33:46Z</time>
      </trkpt>
      <trkpt lat="45.68821" lon="6.57839">
        <ele>1408.8</ele>
        <time>2017-09-28T08:33:51Z</time>
      </trkpt>
      <trkpt lat="45.68822" lon="6.57853">
        <ele>1409.9</ele>
        <time>2017-09-28T08:33:56Z</time>
      </trkpt>
      <trkpt lat="45.68824" lon="6.57867">
        <ele>1410.9</ele>
        <time>2017-09-28T08:34:01Z</time>
      </trkpt>
      <trkpt lat="45.68823" lon="6.57882">
        <ele>1411.8</ele>
        <time>2017-09-28T08:34:06Z</time>
      </trkpt>
      <trkpt lat="45.68823" lon="6.57896">
        <ele>1413</ele>
        <time>2017-09-28T08:34:11Z</time>
      </trkpt>
      <trkpt lat="45.68827" lon="6.5791">
        <ele>1414.2</ele>
        <time>2017-09-28T08:34:16Z</time>
      </trkpt>
      <trkpt lat="45.68834" lon="6.5792">
        <ele>1415.2</ele>
        <time>2017-09-28T08:34:21Z</time>
      </trkpt>
      <trkpt lat="45.68839" lon="6.57932">
        <ele>1416.1</ele>
        <time>2017-09-28T08:34:26Z</time>
      </trkpt>
      <trkpt lat="45.68844" lon="6.57944">
        <ele>1417.2</ele>
        <time>2017-09-28T08:34:31Z</time>
      </trkpt>
      <trkpt lat="45.68848" lon="6.57957">
        <ele>1418.2</ele>
        <time>2017-09-28T08:34:36Z</time>
      </trkpt>
      <trkpt lat="45.68852" lon="6.5797">
        <ele>1419.4</ele>
        <time>2017-09-28T08:34:41Z</time>
      </trkpt>
      <trkpt lat="45.68851" lon="6.57985">
        <ele>1420.5</ele>
        <time>2017-09-28T08:34:46Z</time>
      </trkpt>
      <trkpt lat="45.68853" lon="6.57998">
        <ele>1421.5</ele>
        <time>2017-09-28T08:34:51Z</time>
      </trkpt>
      <trkpt lat="45.68853" lon="6.58012">
        <ele>1422.6</ele>
        <time>2017-09-28T08:34:56Z</time>
      </trkpt>
      <trkpt lat="45.68853" lon="6.58027">
        <ele>1423.7</ele>
        <time>2017-09-28T08:35:01Z</time>
      </trkpt>
      <trkpt lat="45.68854" lon="6.58041">
        <ele>1424.4</ele>
        <time>2017-09-28T08:35:06Z</time>
      </trkpt>
      <trkpt lat="45.68855" lon="6.58055">
        <ele>1425.8</ele>
        <time>2017-09-28T08:35:11Z</time>
      </trkpt>
      <trkpt lat="45.68855" lon="6.58069">
        <ele>1426.8</ele>
        <time>2017-09-28T08:35:16Z</time>
      </trkpt>
      <trkpt lat="45.68856" lon="6.58083">
        <ele>1428.1</ele>
        <time>2017-09-28T08:35:21Z</time>
      </trkpt>
      <trkpt lat="45.68857" lon="6.58097">
        <ele>1429</ele>
        <time>2017-09-28T08:35:26Z</time>
      </trkpt>
      <trkpt lat="45.68859" lon="6.58111">
        <ele>1430.2</ele>
        <time>2017-09-28T08:35:31Z</time>
      </trkpt>
      <trkpt lat="45.68862" lon="6.58123">
        <ele>1431.1</ele>
        <time>2017-09-28T08:35:36Z</time>
      </trkpt>
      <trkpt lat="45.68866" lon="6.58135">
        <ele>1432</ele>
        <time>2017-09-28T08:35:41Z</time>
      </trkpt>
      <trkpt lat="45.6887" lon="6.58149">
        <ele>1433</ele>
        <time>2017-09-28T08:35:46Z</time>
      </trkpt>
      <trkpt lat="45.68873" lon="6.58164">
        <ele>1433.5</ele>
        <time>2017-09-28T08:35:51Z</time>
      </trkpt>
      <trkpt lat="45.68873" lon="6.58178">
        <ele>1434.5</ele>
        <time>2017-09-28T08:35:56Z</time>
      </trkpt>
      <trkpt lat="45.68872" lon="6.58192">
        <ele>1435.7</ele>
        <time>2017-09-28T08:36:01Z</time>
      </trkpt>
      <trkpt lat="45.6887" lon="6.58207">
        <ele>1436.5</ele>
        <time>2017-09-28T08:36:06Z</time>
      </trkpt>
      <trkpt lat="45.68865" lon="6.58218">
        <ele>1437.7</ele>
        <time>2017-09-28T08:36:11Z</time>
      </trkpt>
      <trkpt lat="45.68857" lon="6.58224">
        <ele>1439</ele>
        <time>2017-09-28T08:36:15Z</time>
      </trkpt>
      <trkpt lat="45.68846" lon="6.58229">
        <ele>1440.5</ele>
        <time>2017-09-28T08:36:20Z</time>
      </trkpt>
      <trkpt lat="45.68835" lon="6.58232">
        <ele>1441.9</ele>
        <time>2017-09-28T08:36:25Z</time>
      </trkpt>
      <trkpt lat="45.6883" lon="6.58245">
        <ele>1443.2</ele>
        <time>2017-09-28T08:36:30Z</time>
      </trkpt>
      <trkpt lat="45.68824" lon="6.58255">
        <ele>1445</ele>
        <time>2017-09-28T08:36:37Z</time>
      </trkpt>
      <trkpt lat="45.68814" lon="6.5826">
        <ele>1446.1</ele>
        <time>2017-09-28T08:36:43Z</time>
      </trkpt>
      <trkpt lat="45.68811" lon="6.58273">
        <ele>1447.2</ele>
        <time>2017-09-28T08:36:47Z</time>
      </trkpt>
      <trkpt lat="45.68806" lon="6.58285">
        <ele>1448.6</ele>
        <time>2017-09-28T08:36:52Z</time>
      </trkpt>
      <trkpt lat="45.68803" lon="6.58301">
        <ele>1449.7</ele>
        <time>2017-09-28T08:36:57Z</time>
      </trkpt>
      <trkpt lat="45.688" lon="6.58314">
        <ele>1451</ele>
        <time>2017-09-28T08:37:02Z</time>
      </trkpt>
      <trkpt lat="45.68796" lon="6.58328">
        <ele>1452.5</ele>
        <time>2017-09-28T08:37:08Z</time>
      </trkpt>
      <trkpt lat="45.68795" lon="6.58342">
        <ele>1453.6</ele>
        <time>2017-09-28T08:37:13Z</time>
      </trkpt>
      <trkpt lat="45.68795" lon="6.58356">
        <ele>1454.4</ele>
        <time>2017-09-28T08:37:18Z</time>
      </trkpt>
      <trkpt lat="45.68796" lon="6.58369">
        <ele>1455.3</ele>
        <time>2017-09-28T08:37:23Z</time>
      </trkpt>
      <trkpt lat="45.68796" lon="6.58384">
        <ele>1456.5</ele>
        <time>2017-09-28T08:37:29Z</time>
      </trkpt>
      <trkpt lat="45.68796" lon="6.58399">
        <ele>1457.9</ele>
        <time>2017-09-28T08:37:35Z</time>
      </trkpt>
      <trkpt lat="45.68794" lon="6.58413">
        <ele>1458.8</ele>
        <time>2017-09-28T08:37:41Z</time>
      </trkpt>
      <trkpt lat="45.68794" lon="6.58426">
        <ele>1459.8</ele>
        <time>2017-09-28T08:37:46Z</time>
      </trkpt>
      <trkpt lat="45.68795" lon="6.58441">
        <ele>1461.2</ele>
        <time>2017-09-28T08:37:52Z</time>
      </trkpt>
      <trkpt lat="45.68795" lon="6.58456">
        <ele>1462.4</ele>
        <time>2017-09-28T08:37:58Z</time>
      </trkpt>
      <trkpt lat="45.68794" lon="6.58469">
        <ele>1463.7</ele>
        <time>2017-09-28T08:38:04Z</time>
      </trkpt>
      <trkpt lat="45.68793" lon="6.58482">
        <ele>1464.6</ele>
        <time>2017-09-28T08:38:09Z</time>
      </trkpt>
      <trkpt lat="45.68794" lon="6.58497">
        <ele>1466</ele>
        <time>2017-09-28T08:38:15Z</time>
      </trkpt>
      <trkpt lat="45.68795" lon="6.58511">
        <ele>1467.1</ele>
        <time>2017-09-28T08:38:21Z</time>
      </trkpt>
      <trkpt lat="45.68793" lon="6.58525">
        <ele>1468</ele>
        <time>2017-09-28T08:38:27Z</time>
      </trkpt>
      <trkpt lat="45.68795" lon="6.58538">
        <ele>1469.2</ele>
        <time>2017-09-28T08:38:33Z</time>
      </trkpt>
      <trkpt lat="45.68795" lon="6.58554">
        <ele>1470.5</ele>
        <time>2017-09-28T08:38:39Z</time>
      </trkpt>
      <trkpt lat="45.68797" lon="6.58568">
        <ele>1472</ele>
        <time>2017-09-28T08:38:46Z</time>
      </trkpt>
      <trkpt lat="45.68797" lon="6.58583">
        <ele>1473.3</ele>
        <time>2017-09-28T08:38:52Z</time>
      </trkpt>
      <trkpt lat="45.68799" lon="6.58596">
        <ele>1474.4</ele>
        <time>2017-09-28T08:38:57Z</time>
      </trkpt>
      <trkpt lat="45.68801" lon="6.58612">
        <ele>1475.5</ele>
        <time>2017-09-28T08:39:03Z</time>
      </trkpt>
      <trkpt lat="45.68803" lon="6.58625">
        <ele>1476.2</ele>
        <time>2017-09-28T08:39:07Z</time>
      </trkpt>
      <trkpt lat="45.68802" lon="6.58639">
        <ele>1477.4</ele>
        <time>2017-09-28T08:39:12Z</time>
      </trkpt>
      <trkpt lat="45.688" lon="6.58652">
        <ele>1478.3</ele>
        <time>2017-09-28T08:39:17Z</time>
      </trkpt>
      <trkpt lat="45.68797" lon="6.58664">
        <ele>1478.9</ele>
        <time>2017-09-28T08:39:22Z</time>
      </trkpt>
      <trkpt lat="45.68801" lon="6.58677">
        <ele>1479.6</ele>
        <time>2017-09-28T08:39:28Z</time>
      </trkpt>
      <trkpt lat="45.68808" lon="6.58665">
        <ele>1480.6</ele>
        <time>2017-09-28T08:39:33Z</time>
      </trkpt>
      <trkpt lat="45.68811" lon="6.5865">
        <ele>1481.2</ele>
        <time>2017-09-28T08:39:38Z</time>
      </trkpt>
      <trkpt lat="45.68813" lon="6.58636">
        <ele>1481.9</ele>
        <time>2017-09-28T08:39:43Z</time>
      </trkpt>
      <trkpt lat="45.68816" lon="6.58621">
        <ele>1482.5</ele>
        <time>2017-09-28T08:39:48Z</time>
      </trkpt>
      <trkpt lat="45.68819" lon="6.58608">
        <ele>1483.3</ele>
        <time>2017-09-28T08:39:53Z</time>
      </trkpt>
      <trkpt lat="45.68822" lon="6.58594">
        <ele>1484.7</ele>
        <time>2017-09-28T08:39:59Z</time>
      </trkpt>
      <trkpt lat="45.68824" lon="6.58581">
        <ele>1485.7</ele>
        <time>2017-09-28T08:40:05Z</time>
      </trkpt>
      <trkpt lat="45.68824" lon="6.58568">
        <ele>1486.8</ele>
        <time>2017-09-28T08:40:10Z</time>
      </trkpt>
      <trkpt lat="45.68823" lon="6.58553">
        <ele>1488.1</ele>
        <time>2017-09-28T08:40:16Z</time>
      </trkpt>
      <trkpt lat="45.68823" lon="6.58538">
        <ele>1489.2</ele>
        <time>2017-09-28T08:40:22Z</time>
      </trkpt>
      <trkpt lat="45.68824" lon="6.58524">
        <ele>1490.5</ele>
        <time>2017-09-28T08:40:29Z</time>
      </trkpt>
      <trkpt lat="45.68827" lon="6.58509">
        <ele>1491.6</ele>
        <time>2017-09-28T08:40:34Z</time>
      </trkpt>
      <trkpt lat="45.68832" lon="6.58497">
        <ele>1492.6</ele>
        <time>2017-09-28T08:40:39Z</time>
      </trkpt>
      <trkpt lat="45.68836" lon="6.58486">
        <ele>1493.7</ele>
        <time>2017-09-28T08:40:44Z</time>
      </trkpt>
      <trkpt lat="45.68842" lon="6.58474">
        <ele>1494.9</ele>
        <time>2017-09-28T08:40:50Z</time>
      </trkpt>
      <trkpt lat="45.68844" lon="6.5846">
        <ele>1495.8</ele>
        <time>2017-09-28T08:40:55Z</time>
      </trkpt>
      <trkpt lat="45.68847" lon="6.58447">
        <ele>1496.7</ele>
        <time>2017-09-28T08:41:00Z</time>
      </trkpt>
      <trkpt lat="45.6885" lon="6.58435">
        <ele>1497.7</ele>
        <time>2017-09-28T08:41:05Z</time>
      </trkpt>
      <trkpt lat="45.68854" lon="6.58423">
        <ele>1498.7</ele>
        <time>2017-09-28T08:41:10Z</time>
      </trkpt>
      <trkpt lat="45.6886" lon="6.58412">
        <ele>1499.7</ele>
        <time>2017-09-28T08:41:16Z</time>
      </trkpt>
      <trkpt lat="45.68864" lon="6.58399">
        <ele>1500.5</ele>
        <time>2017-09-28T08:41:21Z</time>
      </trkpt>
      <trkpt lat="45.68869" lon="6.58388">
        <ele>1501.5</ele>
        <time>2017-09-28T08:41:26Z</time>
      </trkpt>
      <trkpt lat="45.68876" lon="6.58379">
        <ele>1502.6</ele>
        <time>2017-09-28T08:41:31Z</time>
      </trkpt>
      <trkpt lat="45.6888" lon="6.58367">
        <ele>1503.6</ele>
        <time>2017-09-28T08:41:36Z</time>
      </trkpt>
      <trkpt lat="45.68885" lon="6.58357">
        <ele>1504.7</ele>
        <time>2017-09-28T08:41:41Z</time>
      </trkpt>
      <trkpt lat="45.68891" lon="6.58344">
        <ele>1505.9</ele>
        <time>2017-09-28T08:41:47Z</time>
      </trkpt>
      <trkpt lat="45.68897" lon="6.58331">
        <ele>1507.1</ele>
        <time>2017-09-28T08:41:53Z</time>
      </trkpt>
      <trkpt lat="45.68904" lon="6.58321">
        <ele>1508.5</ele>
        <time>2017-09-28T08:41:59Z</time>
      </trkpt>
      <trkpt lat="45.6891" lon="6.58309">
        <ele>1509.6</ele>
        <time>2017-09-28T08:42:05Z</time>
      </trkpt>
      <trkpt lat="45.68919" lon="6.58302">
        <ele>1511.1</ele>
        <time>2017-09-28T08:42:11Z</time>
      </trkpt>
      <trkpt lat="45.68928" lon="6.58299">
        <ele>1512.2</ele>
        <time>2017-09-28T08:42:16Z</time>
      </trkpt>
      <trkpt lat="45.68937" lon="6.58295">
        <ele>1513.3</ele>
        <time>2017-09-28T08:42:21Z</time>
      </trkpt>
      <trkpt lat="45.68948" lon="6.58291">
        <ele>1514.6</ele>
        <time>2017-09-28T08:42:27Z</time>
      </trkpt>
      <trkpt lat="45.68957" lon="6.58288">
        <ele>1515.7</ele>
        <time>2017-09-28T08:42:32Z</time>
      </trkpt>
      <trkpt lat="45.68967" lon="6.58282">
        <ele>1516.9</ele>
        <time>2017-09-28T08:42:37Z</time>
      </trkpt>
      <trkpt lat="45.68976" lon="6.58273">
        <ele>1518.1</ele>
        <time>2017-09-28T08:42:42Z</time>
      </trkpt>
      <trkpt lat="45.68983" lon="6.58264">
        <ele>1519</ele>
        <time>2017-09-28T08:42:47Z</time>
      </trkpt>
      <trkpt lat="45.68987" lon="6.58252">
        <ele>1520</ele>
        <time>2017-09-28T08:42:52Z</time>
      </trkpt>
      <trkpt lat="45.68991" lon="6.5824">
        <ele>1521.1</ele>
        <time>2017-09-28T08:42:57Z</time>
      </trkpt>
      <trkpt lat="45.68995" lon="6.58227">
        <ele>1522.2</ele>
        <time>2017-09-28T08:43:02Z</time>
      </trkpt>
      <trkpt lat="45.68999" lon="6.58215">
        <ele>1523.3</ele>
        <time>2017-09-28T08:43:07Z</time>
      </trkpt>
      <trkpt lat="45.69001" lon="6.58201">
        <ele>1524.4</ele>
        <time>2017-09-28T08:43:12Z</time>
      </trkpt>
      <trkpt lat="45.69006" lon="6.58189">
        <ele>1525.4</ele>
        <time>2017-09-28T08:43:17Z</time>
      </trkpt>
      <trkpt lat="45.69009" lon="6.58177">
        <ele>1526.6</ele>
        <time>2017-09-28T08:43:22Z</time>
      </trkpt>
      <trkpt lat="45.69013" lon="6.58165">
        <ele>1527.7</ele>
        <time>2017-09-28T08:43:27Z</time>
      </trkpt>
      <trkpt lat="45.6902" lon="6.58156">
        <ele>1529</ele>
        <time>2017-09-28T08:43:33Z</time>
      </trkpt>
      <trkpt lat="45.69027" lon="6.58145">
        <ele>1530.4</ele>
        <time>2017-09-28T08:43:39Z</time>
      </trkpt>
      <trkpt lat="45.69035" lon="6.58134">
        <ele>1531.8</ele>
        <time>2017-09-28T08:43:45Z</time>
      </trkpt>
      <trkpt lat="45.69042" lon="6.58124">
        <ele>1533.1</ele>
        <time>2017-09-28T08:43:51Z</time>
      </trkpt>
      <trkpt lat="45.69048" lon="6.58114">
        <ele>1534.3</ele>
        <time>2017-09-28T08:43:57Z</time>
      </trkpt>
      <trkpt lat="45.69055" lon="6.58103">
        <ele>1535.3</ele>
        <time>2017-09-28T08:44:02Z</time>
      </trkpt>
      <trkpt lat="45.69062" lon="6.58094">
        <ele>1536.4</ele>
        <time>2017-09-28T08:44:07Z</time>
      </trkpt>
      <trkpt lat="45.6907" lon="6.58086">
        <ele>1537.5</ele>
        <time>2017-09-28T08:44:12Z</time>
      </trkpt>
      <trkpt lat="45.69077" lon="6.58076">
        <ele>1538.4</ele>
        <time>2017-09-28T08:44:17Z</time>
      </trkpt>
      <trkpt lat="45.69085" lon="6.58069">
        <ele>1539.5</ele>
        <time>2017-09-28T08:44:22Z</time>
      </trkpt>
      <trkpt lat="45.69091" lon="6.58059">
        <ele>1540.8</ele>
        <time>2017-09-28T08:44:27Z</time>
      </trkpt>
      <trkpt lat="45.69099" lon="6.5805">
        <ele>1541.6</ele>
        <time>2017-09-28T08:44:32Z</time>
      </trkpt>
      <trkpt lat="45.69106" lon="6.58041">
        <ele>1542.6</ele>
        <time>2017-09-28T08:44:37Z</time>
      </trkpt>
      <trkpt lat="45.69115" lon="6.58037">
        <ele>1543.6</ele>
        <time>2017-09-28T08:44:43Z</time>
      </trkpt>
      <trkpt lat="45.69112" lon="6.58051">
        <ele>1544.5</ele>
        <time>2017-09-28T08:44:49Z</time>
      </trkpt>
      <trkpt lat="45.69105" lon="6.5806">
        <ele>1545.4</ele>
        <time>2017-09-28T08:44:54Z</time>
      </trkpt>
      <trkpt lat="45.69097" lon="6.5807">
        <ele>1546.3</ele>
        <time>2017-09-28T08:44:59Z</time>
      </trkpt>
      <trkpt lat="45.69089" lon="6.58077">
        <ele>1547.2</ele>
        <time>2017-09-28T08:45:04Z</time>
      </trkpt>
      <trkpt lat="45.69084" lon="6.58088">
        <ele>1548.2</ele>
        <time>2017-09-28T08:45:09Z</time>
      </trkpt>
      <trkpt lat="45.69077" lon="6.58098">
        <ele>1549.3</ele>
        <time>2017-09-28T08:45:14Z</time>
      </trkpt>
      <trkpt lat="45.69071" lon="6.58108">
        <ele>1550.4</ele>
        <time>2017-09-28T08:45:19Z</time>
      </trkpt>
      <trkpt lat="45.69064" lon="6.5812">
        <ele>1551.5</ele>
        <time>2017-09-28T08:45:24Z</time>
      </trkpt>
      <trkpt lat="45.6906" lon="6.58132">
        <ele>1552.6</ele>
        <time>2017-09-28T08:45:29Z</time>
      </trkpt>
      <trkpt lat="45.69058" lon="6.58147">
        <ele>1553.9</ele>
        <time>2017-09-28T08:45:34Z</time>
      </trkpt>
      <trkpt lat="45.69054" lon="6.58161">
        <ele>1555.4</ele>
        <time>2017-09-28T08:45:39Z</time>
      </trkpt>
      <trkpt lat="45.69048" lon="6.58173">
        <ele>1556.4</ele>
        <time>2017-09-28T08:45:44Z</time>
      </trkpt>
      <trkpt lat="45.69046" lon="6.58186">
        <ele>1557.6</ele>
        <time>2017-09-28T08:45:49Z</time>
      </trkpt>
      <trkpt lat="45.69047" lon="6.58202">
        <ele>1559</ele>
        <time>2017-09-28T08:45:54Z</time>
      </trkpt>
      <trkpt lat="45.69049" lon="6.58217">
        <ele>1560.2</ele>
        <time>2017-09-28T08:45:59Z</time>
      </trkpt>
      <trkpt lat="45.69051" lon="6.58231">
        <ele>1561.5</ele>
        <time>2017-09-28T08:46:04Z</time>
      </trkpt>
      <trkpt lat="45.69052" lon="6.58245">
        <ele>1562.9</ele>
        <time>2017-09-28T08:46:09Z</time>
      </trkpt>
      <trkpt lat="45.6905" lon="6.58259">
        <ele>1563.8</ele>
        <time>2017-09-28T08:46:14Z</time>
      </trkpt>
      <trkpt lat="45.69047" lon="6.58272">
        <ele>1564.7</ele>
        <time>2017-09-28T08:46:19Z</time>
      </trkpt>
      <trkpt lat="45.69043" lon="6.58285">
        <ele>1565.8</ele>
        <time>2017-09-28T08:46:24Z</time>
      </trkpt>
      <trkpt lat="45.69037" lon="6.58296">
        <ele>1567.1</ele>
        <time>2017-09-28T08:46:29Z</time>
      </trkpt>
      <trkpt lat="45.69034" lon="6.58309">
        <ele>1568.3</ele>
        <time>2017-09-28T08:46:34Z</time>
      </trkpt>
      <trkpt lat="45.69027" lon="6.58319">
        <ele>1569.7</ele>
        <time>2017-09-28T08:46:40Z</time>
      </trkpt>
      <trkpt lat="45.69019" lon="6.58327">
        <ele>1571.3</ele>
        <time>2017-09-28T08:46:46Z</time>
      </trkpt>
      <trkpt lat="45.69011" lon="6.58338">
        <ele>1572.9</ele>
        <time>2017-09-28T08:46:52Z</time>
      </trkpt>
      <trkpt lat="45.69002" lon="6.58345">
        <ele>1574.2</ele>
        <time>2017-09-28T08:46:58Z</time>
      </trkpt>
      <trkpt lat="45.68998" lon="6.58356">
        <ele>1575.1</ele>
        <time>2017-09-28T08:47:02Z</time>
      </trkpt>
      <trkpt lat="45.68997" lon="6.5837">
        <ele>1575.9</ele>
        <time>2017-09-28T08:47:06Z</time>
      </trkpt>
      <trkpt lat="45.68996" lon="6.58386">
        <ele>1577.2</ele>
        <time>2017-09-28T08:47:11Z</time>
      </trkpt>
      <trkpt lat="45.68993" lon="6.58399">
        <ele>1578.4</ele>
        <time>2017-09-28T08:47:16Z</time>
      </trkpt>
      <trkpt lat="45.68991" lon="6.58411">
        <ele>1579.7</ele>
        <time>2017-09-28T08:47:21Z</time>
      </trkpt>
      <trkpt lat="45.68992" lon="6.58427">
        <ele>1580.7</ele>
        <time>2017-09-28T08:47:26Z</time>
      </trkpt>
      <trkpt lat="45.6899" lon="6.58441">
        <ele>1582.1</ele>
        <time>2017-09-28T08:47:31Z</time>
      </trkpt>
      <trkpt lat="45.68989" lon="6.58456">
        <ele>1583.1</ele>
        <time>2017-09-28T08:47:36Z</time>
      </trkpt>
      <trkpt lat="45.68988" lon="6.58471">
        <ele>1584</ele>
        <time>2017-09-28T08:47:41Z</time>
      </trkpt>
      <trkpt lat="45.68986" lon="6.58484">
        <ele>1584.6</ele>
        <time>2017-09-28T08:47:45Z</time>
      </trkpt>
      <trkpt lat="45.68982" lon="6.58497">
        <ele>1585.7</ele>
        <time>2017-09-28T08:47:50Z</time>
      </trkpt>
      <trkpt lat="45.68978" lon="6.58512">
        <ele>1586.8</ele>
        <time>2017-09-28T08:47:55Z</time>
      </trkpt>
      <trkpt lat="45.68972" lon="6.58525">
        <ele>1587.7</ele>
        <time>2017-09-28T08:48:00Z</time>
      </trkpt>
      <trkpt lat="45.6897" lon="6.58539">
        <ele>1588.6</ele>
        <time>2017-09-28T08:48:05Z</time>
      </trkpt>
      <trkpt lat="45.68965" lon="6.58553">
        <ele>1589.8</ele>
        <time>2017-09-28T08:48:10Z</time>
      </trkpt>
      <trkpt lat="45.68961" lon="6.58567">
        <ele>1590.6</ele>
        <time>2017-09-28T08:48:15Z</time>
      </trkpt>
      <trkpt lat="45.68959" lon="6.58582">
        <ele>1591.8</ele>
        <time>2017-09-28T08:48:20Z</time>
      </trkpt>
      <trkpt lat="45.68958" lon="6.58596">
        <ele>1592.8</ele>
        <time>2017-09-28T08:48:25Z</time>
      </trkpt>
      <trkpt lat="45.68958" lon="6.58609">
        <ele>1593.9</ele>
        <time>2017-09-28T08:48:30Z</time>
      </trkpt>
      <trkpt lat="45.68959" lon="6.58624">
        <ele>1595.2</ele>
        <time>2017-09-28T08:48:35Z</time>
      </trkpt>
      <trkpt lat="45.68961" lon="6.58638">
        <ele>1596.4</ele>
        <time>2017-09-28T08:48:40Z</time>
      </trkpt>
      <trkpt lat="45.68964" lon="6.58651">
        <ele>1597.6</ele>
        <time>2017-09-28T08:48:45Z</time>
      </trkpt>
      <trkpt lat="45.68967" lon="6.58664">
        <ele>1598.7</ele>
        <time>2017-09-28T08:48:50Z</time>
      </trkpt>
      <trkpt lat="45.68968" lon="6.58679">
        <ele>1599.9</ele>
        <time>2017-09-28T08:48:55Z</time>
      </trkpt>
      <trkpt lat="45.68967" lon="6.58694">
        <ele>1601.2</ele>
        <time>2017-09-28T08:49:01Z</time>
      </trkpt>
      <trkpt lat="45.68969" lon="6.58709">
        <ele>1602.4</ele>
        <time>2017-09-28T08:49:07Z</time>
      </trkpt>
      <trkpt lat="45.68969" lon="6.58724">
        <ele>1603.5</ele>
        <time>2017-09-28T08:49:12Z</time>
      </trkpt>
      <trkpt lat="45.68967" lon="6.58737">
        <ele>1604.8</ele>
        <time>2017-09-28T08:49:17Z</time>
      </trkpt>
      <trkpt lat="45.68966" lon="6.58751">
        <ele>1606</ele>
        <time>2017-09-28T08:49:22Z</time>
      </trkpt>
      <trkpt lat="45.68966" lon="6.58766">
        <ele>1607.1</ele>
        <time>2017-09-28T08:49:27Z</time>
      </trkpt>
      <trkpt lat="45.68963" lon="6.58781">
        <ele>1608.2</ele>
        <time>2017-09-28T08:49:33Z</time>
      </trkpt>
      <trkpt lat="45.6896" lon="6.58794">
        <ele>1609.4</ele>
        <time>2017-09-28T08:49:38Z</time>
      </trkpt>
      <trkpt lat="45.68958" lon="6.58807">
        <ele>1610.5</ele>
        <time>2017-09-28T08:49:43Z</time>
      </trkpt>
      <trkpt lat="45.68955" lon="6.5882">
        <ele>1611.6</ele>
        <time>2017-09-28T08:49:48Z</time>
      </trkpt>
      <trkpt lat="45.68952" lon="6.58832">
        <ele>1612.7</ele>
        <time>2017-09-28T08:49:53Z</time>
      </trkpt>
      <trkpt lat="45.68949" lon="6.58846">
        <ele>1613.9</ele>
        <time>2017-09-28T08:49:58Z</time>
      </trkpt>
      <trkpt lat="45.68944" lon="6.58858">
        <ele>1614.9</ele>
        <time>2017-09-28T08:50:03Z</time>
      </trkpt>
      <trkpt lat="45.68942" lon="6.58871">
        <ele>1616.1</ele>
        <time>2017-09-28T08:50:08Z</time>
      </trkpt>
      <trkpt lat="45.68937" lon="6.58883">
        <ele>1617.1</ele>
        <time>2017-09-28T08:50:13Z</time>
      </trkpt>
      <trkpt lat="45.68933" lon="6.58897">
        <ele>1618.3</ele>
        <time>2017-09-28T08:50:19Z</time>
      </trkpt>
      <trkpt lat="45.68929" lon="6.58911">
        <ele>1619.4</ele>
        <time>2017-09-28T08:50:24Z</time>
      </trkpt>
      <trkpt lat="45.68925" lon="6.58925">
        <ele>1620.5</ele>
        <time>2017-09-28T08:50:29Z</time>
      </trkpt>
      <trkpt lat="45.68921" lon="6.58939">
        <ele>1621.6</ele>
        <time>2017-09-28T08:50:34Z</time>
      </trkpt>
      <trkpt lat="45.68919" lon="6.58953">
        <ele>1622.6</ele>
        <time>2017-09-28T08:50:39Z</time>
      </trkpt>
      <trkpt lat="45.68916" lon="6.58966">
        <ele>1623.9</ele>
        <time>2017-09-28T08:50:44Z</time>
      </trkpt>
      <trkpt lat="45.68912" lon="6.58979">
        <ele>1625</ele>
        <time>2017-09-28T08:50:49Z</time>
      </trkpt>
      <trkpt lat="45.68911" lon="6.58993">
        <ele>1626.1</ele>
        <time>2017-09-28T08:50:54Z</time>
      </trkpt>
      <trkpt lat="45.68912" lon="6.59007">
        <ele>1627.4</ele>
        <time>2017-09-28T08:50:59Z</time>
      </trkpt>
      <trkpt lat="45.68911" lon="6.59021">
        <ele>1628.5</ele>
        <time>2017-09-28T08:51:04Z</time>
      </trkpt>
      <trkpt lat="45.68912" lon="6.59035">
        <ele>1629.4</ele>
        <time>2017-09-28T08:51:09Z</time>
      </trkpt>
      <trkpt lat="45.68913" lon="6.59049">
        <ele>1630.9</ele>
        <time>2017-09-28T08:51:14Z</time>
      </trkpt>
      <trkpt lat="45.68912" lon="6.59063">
        <ele>1631.9</ele>
        <time>2017-09-28T08:51:19Z</time>
      </trkpt>
      <trkpt lat="45.68909" lon="6.59077">
        <ele>1632.8</ele>
        <time>2017-09-28T08:51:24Z</time>
      </trkpt>
      <trkpt lat="45.68907" lon="6.59091">
        <ele>1633.9</ele>
        <time>2017-09-28T08:51:29Z</time>
      </trkpt>
      <trkpt lat="45.68904" lon="6.59105">
        <ele>1635.1</ele>
        <time>2017-09-28T08:51:34Z</time>
      </trkpt>
      <trkpt lat="45.68904" lon="6.59119">
        <ele>1636.2</ele>
        <time>2017-09-28T08:51:39Z</time>
      </trkpt>
      <trkpt lat="45.68905" lon="6.59132">
        <ele>1637.3</ele>
        <time>2017-09-28T08:51:44Z</time>
      </trkpt>
      <trkpt lat="45.68904" lon="6.59146">
        <ele>1638.1</ele>
        <time>2017-09-28T08:51:49Z</time>
      </trkpt>
      <trkpt lat="45.68904" lon="6.5916">
        <ele>1639.2</ele>
        <time>2017-09-28T08:51:54Z</time>
      </trkpt>
      <trkpt lat="45.68904" lon="6.59174">
        <ele>1640.1</ele>
        <time>2017-09-28T08:51:59Z</time>
      </trkpt>
      <trkpt lat="45.68902" lon="6.5919">
        <ele>1641.4</ele>
        <time>2017-09-28T08:52:05Z</time>
      </trkpt>
      <trkpt lat="45.68903" lon="6.59203">
        <ele>1642.3</ele>
        <time>2017-09-28T08:52:10Z</time>
      </trkpt>
      <trkpt lat="45.68903" lon="6.59217">
        <ele>1643.5</ele>
        <time>2017-09-28T08:52:15Z</time>
      </trkpt>
      <trkpt lat="45.68906" lon="6.5923">
        <ele>1645</ele>
        <time>2017-09-28T08:52:37Z</time>
      </trkpt>
      <trkpt lat="45.6891" lon="6.59243">
        <ele>1645.8</ele>
        <time>2017-09-28T08:52:43Z</time>
      </trkpt>
      <trkpt lat="45.68913" lon="6.59256">
        <ele>1646.6</ele>
        <time>2017-09-28T08:52:48Z</time>
      </trkpt>
      <trkpt lat="45.68913" lon="6.5927">
        <ele>1647.6</ele>
        <time>2017-09-28T08:52:53Z</time>
      </trkpt>
      <trkpt lat="45.68913" lon="6.59284">
        <ele>1648.6</ele>
        <time>2017-09-28T08:52:58Z</time>
      </trkpt>
      <trkpt lat="45.68913" lon="6.59298">
        <ele>1649.7</ele>
        <time>2017-09-28T08:53:03Z</time>
      </trkpt>
      <trkpt lat="45.68913" lon="6.59312">
        <ele>1650.9</ele>
        <time>2017-09-28T08:53:08Z</time>
      </trkpt>
      <trkpt lat="45.68914" lon="6.59327">
        <ele>1651.8</ele>
        <time>2017-09-28T08:53:13Z</time>
      </trkpt>
      <trkpt lat="45.68915" lon="6.59341">
        <ele>1652.5</ele>
        <time>2017-09-28T08:53:18Z</time>
      </trkpt>
      <trkpt lat="45.68919" lon="6.59354">
        <ele>1653.9</ele>
        <time>2017-09-28T08:53:23Z</time>
      </trkpt>
      <trkpt lat="45.68922" lon="6.59367">
        <ele>1654.7</ele>
        <time>2017-09-28T08:53:28Z</time>
      </trkpt>
      <trkpt lat="45.68926" lon="6.5938">
        <ele>1655.8</ele>
        <time>2017-09-28T08:53:33Z</time>
      </trkpt>
      <trkpt lat="45.68929" lon="6.59393">
        <ele>1656.9</ele>
        <time>2017-09-28T08:53:38Z</time>
      </trkpt>
      <trkpt lat="45.68931" lon="6.59407">
        <ele>1658</ele>
        <time>2017-09-28T08:53:43Z</time>
      </trkpt>
      <trkpt lat="45.68932" lon="6.59421">
        <ele>1659</ele>
        <time>2017-09-28T08:53:48Z</time>
      </trkpt>
      <trkpt lat="45.68934" lon="6.59435">
        <ele>1660</ele>
        <time>2017-09-28T08:53:53Z</time>
      </trkpt>
      <trkpt lat="45.68932" lon="6.59448">
        <ele>1661.2</ele>
        <time>2017-09-28T08:53:57Z</time>
      </trkpt>
      <trkpt lat="45.68928" lon="6.59462">
        <ele>1662.7</ele>
        <time>2017-09-28T08:54:02Z</time>
      </trkpt>
      <trkpt lat="45.68927" lon="6.59476">
        <ele>1663.9</ele>
        <time>2017-09-28T08:54:07Z</time>
      </trkpt>
      <trkpt lat="45.6892" lon="6.59484">
        <ele>1665.1</ele>
        <time>2017-09-28T08:54:12Z</time>
      </trkpt>
      <trkpt lat="45.68913" lon="6.59494">
        <ele>1666.3</ele>
        <time>2017-09-28T08:54:17Z</time>
      </trkpt>
      <trkpt lat="45.68908" lon="6.59506">
        <ele>1667.6</ele>
        <time>2017-09-28T08:54:22Z</time>
      </trkpt>
      <trkpt lat="45.68909" lon="6.59519">
        <ele>1668.7</ele>
        <time>2017-09-28T08:54:27Z</time>
      </trkpt>
      <trkpt lat="45.68916" lon="6.5953">
        <ele>1669.8</ele>
        <time>2017-09-28T08:54:32Z</time>
      </trkpt>
      <trkpt lat="45.68923" lon="6.59539">
        <ele>1670.8</ele>
        <time>2017-09-28T08:54:37Z</time>
      </trkpt>
      <trkpt lat="45.68931" lon="6.59547">
        <ele>1672.1</ele>
        <time>2017-09-28T08:54:42Z</time>
      </trkpt>
      <trkpt lat="45.68937" lon="6.59557">
        <ele>1673</ele>
        <time>2017-09-28T08:54:47Z</time>
      </trkpt>
      <trkpt lat="45.68945" lon="6.59565">
        <ele>1674.1</ele>
        <time>2017-09-28T08:54:52Z</time>
      </trkpt>
      <trkpt lat="45.6895" lon="6.59576">
        <ele>1675.1</ele>
        <time>2017-09-28T08:54:57Z</time>
      </trkpt>
      <trkpt lat="45.68955" lon="6.59589">
        <ele>1676.4</ele>
        <time>2017-09-28T08:55:03Z</time>
      </trkpt>
      <trkpt lat="45.68959" lon="6.59601">
        <ele>1677.5</ele>
        <time>2017-09-28T08:55:08Z</time>
      </trkpt>
      <trkpt lat="45.68966" lon="6.59611">
        <ele>1678.5</ele>
        <time>2017-09-28T08:55:13Z</time>
      </trkpt>
      <trkpt lat="45.68972" lon="6.5962">
        <ele>1679.6</ele>
        <time>2017-09-28T08:55:18Z</time>
      </trkpt>
      <trkpt lat="45.68979" lon="6.59631">
        <ele>1681.1</ele>
        <time>2017-09-28T08:55:23Z</time>
      </trkpt>
      <trkpt lat="45.68984" lon="6.59641">
        <ele>1682.4</ele>
        <time>2017-09-28T08:55:28Z</time>
      </trkpt>
      <trkpt lat="45.6899" lon="6.59652">
        <ele>1683.3</ele>
        <time>2017-09-28T08:55:33Z</time>
      </trkpt>
      <trkpt lat="45.68994" lon="6.59665">
        <ele>1684.2</ele>
        <time>2017-09-28T08:55:38Z</time>
      </trkpt>
      <trkpt lat="45.68999" lon="6.59676">
        <ele>1685.1</ele>
        <time>2017-09-28T08:55:43Z</time>
      </trkpt>
      <trkpt lat="45.69004" lon="6.59688">
        <ele>1686</ele>
        <time>2017-09-28T08:55:48Z</time>
      </trkpt>
      <trkpt lat="45.6901" lon="6.59701">
        <ele>1687</ele>
        <time>2017-09-28T08:55:53Z</time>
      </trkpt>
      <trkpt lat="45.69015" lon="6.59714">
        <ele>1687.9</ele>
        <time>2017-09-28T08:55:58Z</time>
      </trkpt>
      <trkpt lat="45.6902" lon="6.59726">
        <ele>1688.7</ele>
        <time>2017-09-28T08:56:03Z</time>
      </trkpt>
      <trkpt lat="45.69024" lon="6.59739">
        <ele>1689.5</ele>
        <time>2017-09-28T08:56:08Z</time>
      </trkpt>
      <trkpt lat="45.69028" lon="6.59753">
        <ele>1690.3</ele>
        <time>2017-09-28T08:56:13Z</time>
      </trkpt>
      <trkpt lat="45.69031" lon="6.59767">
        <ele>1691.3</ele>
        <time>2017-09-28T08:56:18Z</time>
      </trkpt>
      <trkpt lat="45.69032" lon="6.59782">
        <ele>1692.4</ele>
        <time>2017-09-28T08:56:23Z</time>
      </trkpt>
      <trkpt lat="45.69035" lon="6.59796">
        <ele>1693.7</ele>
        <time>2017-09-28T08:56:28Z</time>
      </trkpt>
      <trkpt lat="45.6904" lon="6.59809">
        <ele>1694.5</ele>
        <time>2017-09-28T08:56:34Z</time>
      </trkpt>
      <trkpt lat="45.6905" lon="6.59804">
        <ele>1694.8</ele>
        <time>2017-09-28T08:56:40Z</time>
      </trkpt>
      <trkpt lat="45.69041" lon="6.59808">
        <ele>1697.4</ele>
        <time>2017-09-28T09:00:47Z</time>
      </trkpt>
      <trkpt lat="45.69032" lon="6.59806">
        <ele>1697.7</ele>
        <time>2017-09-28T09:00:51Z</time>
      </trkpt>
      <trkpt lat="45.69021" lon="6.59809">
        <ele>1698.2</ele>
        <time>2017-09-28T09:00:56Z</time>
      </trkpt>
      <trkpt lat="45.69011" lon="6.59816">
        <ele>1698.9</ele>
        <time>2017-09-28T09:01:01Z</time>
      </trkpt>
      <trkpt lat="45.69004" lon="6.59826">
        <ele>1699.7</ele>
        <time>2017-09-28T09:01:06Z</time>
      </trkpt>
      <trkpt lat="45.68998" lon="6.59837">
        <ele>1700.7</ele>
        <time>2017-09-28T09:01:11Z</time>
      </trkpt>
      <trkpt lat="45.68995" lon="6.59851">
        <ele>1701.6</ele>
        <time>2017-09-28T09:01:16Z</time>
      </trkpt>
      <trkpt lat="45.68996" lon="6.59865">
        <ele>1702.7</ele>
        <time>2017-09-28T09:01:21Z</time>
      </trkpt>
      <trkpt lat="45.68998" lon="6.59879">
        <ele>1703.7</ele>
        <time>2017-09-28T09:01:26Z</time>
      </trkpt>
      <trkpt lat="45.68999" lon="6.59893">
        <ele>1704.6</ele>
        <time>2017-09-28T09:01:31Z</time>
      </trkpt>
      <trkpt lat="45.69" lon="6.59907">
        <ele>1705.4</ele>
        <time>2017-09-28T09:01:36Z</time>
      </trkpt>
      <trkpt lat="45.68999" lon="6.5992">
        <ele>1706.3</ele>
        <time>2017-09-28T09:01:41Z</time>
      </trkpt>
      <trkpt lat="45.68995" lon="6.59934">
        <ele>1707.1</ele>
        <time>2017-09-28T09:01:46Z</time>
      </trkpt>
      <trkpt lat="45.68992" lon="6.59947">
        <ele>1707.7</ele>
        <time>2017-09-28T09:01:51Z</time>
      </trkpt>
      <trkpt lat="45.68988" lon="6.5996">
        <ele>1708.6</ele>
        <time>2017-09-28T09:01:56Z</time>
      </trkpt>
      <trkpt lat="45.68984" lon="6.59972">
        <ele>1709.3</ele>
        <time>2017-09-28T09:02:01Z</time>
      </trkpt>
      <trkpt lat="45.68978" lon="6.59984">
        <ele>1710.4</ele>
        <time>2017-09-28T09:02:06Z</time>
      </trkpt>
      <trkpt lat="45.68975" lon="6.59996">
        <ele>1711.4</ele>
        <time>2017-09-28T09:02:11Z</time>
      </trkpt>
      <trkpt lat="45.68969" lon="6.60009">
        <ele>1712.3</ele>
        <time>2017-09-28T09:02:16Z</time>
      </trkpt>
      <trkpt lat="45.68964" lon="6.60021">
        <ele>1713.2</ele>
        <time>2017-09-28T09:02:21Z</time>
      </trkpt>
      <trkpt lat="45.68959" lon="6.60033">
        <ele>1714.3</ele>
        <time>2017-09-28T09:02:26Z</time>
      </trkpt>
      <trkpt lat="45.68952" lon="6.60044">
        <ele>1715.4</ele>
        <time>2017-09-28T09:02:31Z</time>
      </trkpt>
      <trkpt lat="45.68943" lon="6.60052">
        <ele>1716.3</ele>
        <time>2017-09-28T09:02:36Z</time>
      </trkpt>
      <trkpt lat="45.68935" lon="6.60058">
        <ele>1716.9</ele>
        <time>2017-09-28T09:02:40Z</time>
      </trkpt>
      <trkpt lat="45.68925" lon="6.60063">
        <ele>1717.7</ele>
        <time>2017-09-28T09:02:44Z</time>
      </trkpt>
      <trkpt lat="45.68916" lon="6.60068">
        <ele>1718.3</ele>
        <time>2017-09-28T09:02:48Z</time>
      </trkpt>
      <trkpt lat="45.68909" lon="6.60075">
        <ele>1718.8</ele>
        <time>2017-09-28T09:02:52Z</time>
      </trkpt>
      <trkpt lat="45.68902" lon="6.60085">
        <ele>1719.5</ele>
        <time>2017-09-28T09:02:56Z</time>
      </trkpt>
      <trkpt lat="45.68894" lon="6.60095">
        <ele>1720.2</ele>
        <time>2017-09-28T09:03:00Z</time>
      </trkpt>
      <trkpt lat="45.68891" lon="6.60109">
        <ele>1720.9</ele>
        <time>2017-09-28T09:03:04Z</time>
      </trkpt>
      <trkpt lat="45.68891" lon="6.60125">
        <ele>1721.5</ele>
        <time>2017-09-28T09:03:08Z</time>
      </trkpt>
      <trkpt lat="45.6889" lon="6.60138">
        <ele>1721.9</ele>
        <time>2017-09-28T09:03:11Z</time>
      </trkpt>
      <trkpt lat="45.68888" lon="6.60151">
        <ele>1722.3</ele>
        <time>2017-09-28T09:03:14Z</time>
      </trkpt>
      <trkpt lat="45.68887" lon="6.60164">
        <ele>1722.5</ele>
        <time>2017-09-28T09:03:17Z</time>
      </trkpt>
      <trkpt lat="45.68885" lon="6.60177">
        <ele>1722.7</ele>
        <time>2017-09-28T09:03:20Z</time>
      </trkpt>
      <trkpt lat="45.68883" lon="6.60189">
        <ele>1723</ele>
        <time>2017-09-28T09:03:23Z</time>
      </trkpt>
      <trkpt lat="45.68882" lon="6.60202">
        <ele>1723.2</ele>
        <time>2017-09-28T09:03:26Z</time>
      </trkpt>
      <trkpt lat="45.68882" lon="6.60218">
        <ele>1724.1</ele>
        <time>2017-09-28T09:04:07Z</time>
      </trkpt>
      <trkpt lat="45.68879" lon="6.60234">
        <ele>1724.5</ele>
        <time>2017-09-28T09:04:11Z</time>
      </trkpt>
      <trkpt lat="45.68875" lon="6.60247">
        <ele>1724.7</ele>
        <time>2017-09-28T09:04:14Z</time>
      </trkpt>
      <trkpt lat="45.68869" lon="6.6026">
        <ele>1725</ele>
        <time>2017-09-28T09:04:17Z</time>
      </trkpt>
      <trkpt lat="45.68861" lon="6.6027">
        <ele>1724.9</ele>
        <time>2017-09-28T09:04:20Z</time>
      </trkpt>
      <trkpt lat="45.68851" lon="6.60279">
        <ele>1724.9</ele>
        <time>2017-09-28T09:04:23Z</time>
      </trkpt>
      <trkpt lat="45.68842" lon="6.6029">
        <ele>1725.1</ele>
        <time>2017-09-28T09:04:26Z</time>
      </trkpt>
      <trkpt lat="45.68831" lon="6.603">
        <ele>1725</ele>
        <time>2017-09-28T09:04:29Z</time>
      </trkpt>
      <trkpt lat="45.68822" lon="6.60312">
        <ele>1725.1</ele>
        <time>2017-09-28T09:04:32Z</time>
      </trkpt>
      <trkpt lat="45.68816" lon="6.60325">
        <ele>1725.1</ele>
        <time>2017-09-28T09:04:35Z</time>
      </trkpt>
      <trkpt lat="45.68813" lon="6.6034">
        <ele>1725.1</ele>
        <time>2017-09-28T09:04:38Z</time>
      </trkpt>
      <trkpt lat="45.68811" lon="6.60355">
        <ele>1725.4</ele>
        <time>2017-09-28T09:04:41Z</time>
      </trkpt>
      <trkpt lat="45.68805" lon="6.60368">
        <ele>1725.7</ele>
        <time>2017-09-28T09:04:44Z</time>
      </trkpt>
      <trkpt lat="45.68797" lon="6.60377">
        <ele>1726.1</ele>
        <time>2017-09-28T09:04:47Z</time>
      </trkpt>
      <trkpt lat="45.68787" lon="6.60382">
        <ele>1726.5</ele>
        <time>2017-09-28T09:04:50Z</time>
      </trkpt>
      <trkpt lat="45.68777" lon="6.60386">
        <ele>1726.8</ele>
        <time>2017-09-28T09:04:53Z</time>
      </trkpt>
      <trkpt lat="45.68767" lon="6.6039">
        <ele>1727.1</ele>
        <time>2017-09-28T09:04:56Z</time>
      </trkpt>
      <trkpt lat="45.68757" lon="6.60394">
        <ele>1727.4</ele>
        <time>2017-09-28T09:04:59Z</time>
      </trkpt>
      <trkpt lat="45.68749" lon="6.60401">
        <ele>1727.6</ele>
        <time>2017-09-28T09:05:02Z</time>
      </trkpt>
      <trkpt lat="45.68744" lon="6.60414">
        <ele>1727.9</ele>
        <time>2017-09-28T09:05:05Z</time>
      </trkpt>
      <trkpt lat="45.68741" lon="6.60427">
        <ele>1728.3</ele>
        <time>2017-09-28T09:05:08Z</time>
      </trkpt>
      <trkpt lat="45.68736" lon="6.6044">
        <ele>1728.7</ele>
        <time>2017-09-28T09:05:11Z</time>
      </trkpt>
      <trkpt lat="45.68733" lon="6.60454">
        <ele>1728.9</ele>
        <time>2017-09-28T09:05:14Z</time>
      </trkpt>
      <trkpt lat="45.68729" lon="6.60468">
        <ele>1729.1</ele>
        <time>2017-09-28T09:05:17Z</time>
      </trkpt>
      <trkpt lat="45.68727" lon="6.60482">
        <ele>1729.3</ele>
        <time>2017-09-28T09:05:20Z</time>
      </trkpt>
      <trkpt lat="45.68726" lon="6.60497">
        <ele>1729.6</ele>
        <time>2017-09-28T09:05:23Z</time>
      </trkpt>
      <trkpt lat="45.68728" lon="6.60511">
        <ele>1729.9</ele>
        <time>2017-09-28T09:05:26Z</time>
      </trkpt>
      <trkpt lat="45.6873" lon="6.60527">
        <ele>1730.3</ele>
        <time>2017-09-28T09:05:30Z</time>
      </trkpt>
      <trkpt lat="45.68726" lon="6.60541">
        <ele>1730.8</ele>
        <time>2017-09-28T09:06:41Z</time>
      </trkpt>
      <trkpt lat="45.68719" lon="6.60555">
        <ele>1730.8</ele>
        <time>2017-09-28T09:06:45Z</time>
      </trkpt>
      <trkpt lat="45.68715" lon="6.60573">
        <ele>1730.5</ele>
        <time>2017-09-28T09:06:48Z</time>
      </trkpt>
      <trkpt lat="45.68711" lon="6.60585">
        <ele>1730.3</ele>
        <time>2017-09-28T09:06:50Z</time>
      </trkpt>
      <trkpt lat="45.68705" lon="6.60597">
        <ele>1730.1</ele>
        <time>2017-09-28T09:06:52Z</time>
      </trkpt>
      <trkpt lat="45.68698" lon="6.6061">
        <ele>1729.8</ele>
        <time>2017-09-28T09:06:54Z</time>
      </trkpt>
      <trkpt lat="45.68693" lon="6.60623">
        <ele>1729.5</ele>
        <time>2017-09-28T09:06:56Z</time>
      </trkpt>
      <trkpt lat="45.68685" lon="6.60637">
        <ele>1729.2</ele>
        <time>2017-09-28T09:06:58Z</time>
      </trkpt>
      <trkpt lat="45.68675" lon="6.6065">
        <ele>1728.8</ele>
        <time>2017-09-28T09:07:00Z</time>
      </trkpt>
      <trkpt lat="45.68665" lon="6.60664">
        <ele>1728.4</ele>
        <time>2017-09-28T09:07:02Z</time>
      </trkpt>
      <trkpt lat="45.68658" lon="6.6068">
        <ele>1727.8</ele>
        <time>2017-09-28T09:07:04Z</time>
      </trkpt>
      <trkpt lat="45.68651" lon="6.60698">
        <ele>1727.3</ele>
        <time>2017-09-28T09:07:06Z</time>
      </trkpt>
      <trkpt lat="45.68644" lon="6.60715">
        <ele>1726.9</ele>
        <time>2017-09-28T09:07:08Z</time>
      </trkpt>
      <trkpt lat="45.68638" lon="6.60732">
        <ele>1726.7</ele>
        <time>2017-09-28T09:07:10Z</time>
      </trkpt>
      <trkpt lat="45.68631" lon="6.60746">
        <ele>1726.5</ele>
        <time>2017-09-28T09:07:12Z</time>
      </trkpt>
      <trkpt lat="45.68621" lon="6.60757">
        <ele>1726.2</ele>
        <time>2017-09-28T09:07:14Z</time>
      </trkpt>
      <trkpt lat="45.68611" lon="6.6077">
        <ele>1725.8</ele>
        <time>2017-09-28T09:07:16Z</time>
      </trkpt>
      <trkpt lat="45.68601" lon="6.60781">
        <ele>1725.4</ele>
        <time>2017-09-28T09:07:18Z</time>
      </trkpt>
      <trkpt lat="45.68591" lon="6.60793">
        <ele>1725</ele>
        <time>2017-09-28T09:07:20Z</time>
      </trkpt>
      <trkpt lat="45.68581" lon="6.60805">
        <ele>1724.8</ele>
        <time>2017-09-28T09:07:22Z</time>
      </trkpt>
      <trkpt lat="45.68572" lon="6.60817">
        <ele>1724.6</ele>
        <time>2017-09-28T09:07:24Z</time>
      </trkpt>
      <trkpt lat="45.68563" lon="6.60827">
        <ele>1724.5</ele>
        <time>2017-09-28T09:07:26Z</time>
      </trkpt>
      <trkpt lat="45.68554" lon="6.60836">
        <ele>1724.5</ele>
        <time>2017-09-28T09:07:28Z</time>
      </trkpt>
      <trkpt lat="45.68544" lon="6.60843">
        <ele>1724.3</ele>
        <time>2017-09-28T09:07:30Z</time>
      </trkpt>
      <trkpt lat="45.68533" lon="6.6085">
        <ele>1724.1</ele>
        <time>2017-09-28T09:07:32Z</time>
      </trkpt>
      <trkpt lat="45.68522" lon="6.6085">
        <ele>1723.7</ele>
        <time>2017-09-28T09:07:34Z</time>
      </trkpt>
      <trkpt lat="45.6851" lon="6.60844">
        <ele>1723.2</ele>
        <time>2017-09-28T09:07:36Z</time>
      </trkpt>
      <trkpt lat="45.68497" lon="6.60838">
        <ele>1722.6</ele>
        <time>2017-09-28T09:07:38Z</time>
      </trkpt>
      <trkpt lat="45.68483" lon="6.60837">
        <ele>1721.6</ele>
        <time>2017-09-28T09:07:40Z</time>
      </trkpt>
      <trkpt lat="45.6847" lon="6.60843">
        <ele>1720.5</ele>
        <time>2017-09-28T09:07:42Z</time>
      </trkpt>
      <trkpt lat="45.6846" lon="6.60856">
        <ele>1719.5</ele>
        <time>2017-09-28T09:07:44Z</time>
      </trkpt>
      <trkpt lat="45.68452" lon="6.60874">
        <ele>1718.8</ele>
        <time>2017-09-28T09:07:46Z</time>
      </trkpt>
      <trkpt lat="45.68447" lon="6.60893">
        <ele>1717.8</ele>
        <time>2017-09-28T09:07:48Z</time>
      </trkpt>
      <trkpt lat="45.68445" lon="6.60913">
        <ele>1717.1</ele>
        <time>2017-09-28T09:07:50Z</time>
      </trkpt>
      <trkpt lat="45.68445" lon="6.60932">
        <ele>1716.5</ele>
        <time>2017-09-28T09:07:52Z</time>
      </trkpt>
      <trkpt lat="45.68443" lon="6.60949">
        <ele>1715.7</ele>
        <time>2017-09-28T09:07:54Z</time>
      </trkpt>
      <trkpt lat="45.68436" lon="6.60964">
        <ele>1715.1</ele>
        <time>2017-09-28T09:07:56Z</time>
      </trkpt>
      <trkpt lat="45.68427" lon="6.60977">
        <ele>1714.4</ele>
        <time>2017-09-28T09:07:58Z</time>
      </trkpt>
      <trkpt lat="45.68417" lon="6.6099">
        <ele>1713.6</ele>
        <time>2017-09-28T09:08:00Z</time>
      </trkpt>
      <trkpt lat="45.68406" lon="6.61001">
        <ele>1712.8</ele>
        <time>2017-09-28T09:08:02Z</time>
      </trkpt>
      <trkpt lat="45.68395" lon="6.61006">
        <ele>1712</ele>
        <time>2017-09-28T09:08:04Z</time>
      </trkpt>
      <trkpt lat="45.68383" lon="6.61005">
        <ele>1711.2</ele>
        <time>2017-09-28T09:08:06Z</time>
      </trkpt>
      <trkpt lat="45.68371" lon="6.61003">
        <ele>1710.5</ele>
        <time>2017-09-28T09:08:08Z</time>
      </trkpt>
      <trkpt lat="45.68358" lon="6.61004">
        <ele>1709.4</ele>
        <time>2017-09-28T09:08:10Z</time>
      </trkpt>
      <trkpt lat="45.68345" lon="6.61012">
        <ele>1708.4</ele>
        <time>2017-09-28T09:08:12Z</time>
      </trkpt>
      <trkpt lat="45.68336" lon="6.61027">
        <ele>1707.7</ele>
        <time>2017-09-28T09:08:14Z</time>
      </trkpt>
      <trkpt lat="45.68329" lon="6.61043">
        <ele>1706.7</ele>
        <time>2017-09-28T09:08:16Z</time>
      </trkpt>
      <trkpt lat="45.68322" lon="6.61057">
        <ele>1705.7</ele>
        <time>2017-09-28T09:08:18Z</time>
      </trkpt>
      <trkpt lat="45.68312" lon="6.61067">
        <ele>1704.7</ele>
        <time>2017-09-28T09:08:20Z</time>
      </trkpt>
      <trkpt lat="45.683" lon="6.61079">
        <ele>1703.8</ele>
        <time>2017-09-28T09:08:22Z</time>
      </trkpt>
      <trkpt lat="45.68289" lon="6.61091">
        <ele>1703</ele>
        <time>2017-09-28T09:08:24Z</time>
      </trkpt>
      <trkpt lat="45.68277" lon="6.61103">
        <ele>1701.9</ele>
        <time>2017-09-28T09:08:26Z</time>
      </trkpt>
      <trkpt lat="45.68267" lon="6.61111">
        <ele>1700.7</ele>
        <time>2017-09-28T09:08:28Z</time>
      </trkpt>
      <trkpt lat="45.68256" lon="6.61118">
        <ele>1699.4</ele>
        <time>2017-09-28T09:08:30Z</time>
      </trkpt>
      <trkpt lat="45.68244" lon="6.61123">
        <ele>1698.2</ele>
        <time>2017-09-28T09:08:32Z</time>
      </trkpt>
      <trkpt lat="45.68231" lon="6.61126">
        <ele>1696.9</ele>
        <time>2017-09-28T09:08:34Z</time>
      </trkpt>
      <trkpt lat="45.68222" lon="6.61128">
        <ele>1695.5</ele>
        <time>2017-09-28T09:08:36Z</time>
      </trkpt>
      <trkpt lat="45.68212" lon="6.61134">
        <ele>1693.7</ele>
        <time>2017-09-28T09:08:39Z</time>
      </trkpt>
      <trkpt lat="45.68203" lon="6.61129">
        <ele>1692.4</ele>
        <time>2017-09-28T09:08:44Z</time>
      </trkpt>
      <trkpt lat="45.68196" lon="6.61119">
        <ele>1692.5</ele>
        <time>2017-09-28T09:08:48Z</time>
      </trkpt>
      <trkpt lat="45.68189" lon="6.61109">
        <ele>1692.8</ele>
        <time>2017-09-28T09:08:52Z</time>
      </trkpt>
      <trkpt lat="45.68181" lon="6.61098">
        <ele>1693.2</ele>
        <time>2017-09-28T09:08:56Z</time>
      </trkpt>
      <trkpt lat="45.68171" lon="6.6109">
        <ele>1693.7</ele>
        <time>2017-09-28T09:09:00Z</time>
      </trkpt>
      <trkpt lat="45.68161" lon="6.61093">
        <ele>1694.6</ele>
        <time>2017-09-28T09:09:04Z</time>
      </trkpt>
      <trkpt lat="45.68157" lon="6.61105">
        <ele>1695.7</ele>
        <time>2017-09-28T09:09:08Z</time>
      </trkpt>
      <trkpt lat="45.68152" lon="6.61116">
        <ele>1697.4</ele>
        <time>2017-09-28T09:10:22Z</time>
      </trkpt>
      <trkpt lat="45.68146" lon="6.61127">
        <ele>1698.3</ele>
        <time>2017-09-28T09:10:26Z</time>
      </trkpt>
      <trkpt lat="45.68139" lon="6.61136">
        <ele>1699.2</ele>
        <time>2017-09-28T09:10:30Z</time>
      </trkpt>
      <trkpt lat="45.68129" lon="6.61143">
        <ele>1700.1</ele>
        <time>2017-09-28T09:10:35Z</time>
      </trkpt>
      <trkpt lat="45.6812" lon="6.61143">
        <ele>1701.3</ele>
        <time>2017-09-28T09:10:40Z</time>
      </trkpt>
      <trkpt lat="45.6811" lon="6.61141">
        <ele>1702.2</ele>
        <time>2017-09-28T09:10:45Z</time>
      </trkpt>
      <trkpt lat="45.681" lon="6.61138">
        <ele>1703</ele>
        <time>2017-09-28T09:10:50Z</time>
      </trkpt>
      <trkpt lat="45.68089" lon="6.61137">
        <ele>1703.9</ele>
        <time>2017-09-28T09:10:55Z</time>
      </trkpt>
      <trkpt lat="45.68079" lon="6.61139">
        <ele>1704.8</ele>
        <time>2017-09-28T09:11:00Z</time>
      </trkpt>
      <trkpt lat="45.6807" lon="6.61141">
        <ele>1705.8</ele>
        <time>2017-09-28T09:11:05Z</time>
      </trkpt>
      <trkpt lat="45.68059" lon="6.61142">
        <ele>1706.7</ele>
        <time>2017-09-28T09:11:10Z</time>
      </trkpt>
      <trkpt lat="45.68048" lon="6.61143">
        <ele>1707.7</ele>
        <time>2017-09-28T09:11:15Z</time>
      </trkpt>
      <trkpt lat="45.68039" lon="6.61143">
        <ele>1708.5</ele>
        <time>2017-09-28T09:11:19Z</time>
      </trkpt>
      <trkpt lat="45.68028" lon="6.61144">
        <ele>1709.6</ele>
        <time>2017-09-28T09:11:24Z</time>
      </trkpt>
      <trkpt lat="45.68017" lon="6.61143">
        <ele>1710.6</ele>
        <time>2017-09-28T09:11:29Z</time>
      </trkpt>
      <trkpt lat="45.68007" lon="6.61142">
        <ele>1711.7</ele>
        <time>2017-09-28T09:11:34Z</time>
      </trkpt>
      <trkpt lat="45.67996" lon="6.61141">
        <ele>1712.5</ele>
        <time>2017-09-28T09:11:39Z</time>
      </trkpt>
      <trkpt lat="45.67986" lon="6.6114">
        <ele>1713.4</ele>
        <time>2017-09-28T09:11:44Z</time>
      </trkpt>
      <trkpt lat="45.67977" lon="6.61138">
        <ele>1714</ele>
        <time>2017-09-28T09:11:48Z</time>
      </trkpt>
      <trkpt lat="45.67967" lon="6.61137">
        <ele>1714.5</ele>
        <time>2017-09-28T09:11:52Z</time>
      </trkpt>
      <trkpt lat="45.67957" lon="6.61139">
        <ele>1714.9</ele>
        <time>2017-09-28T09:11:55Z</time>
      </trkpt>
      <trkpt lat="45.67947" lon="6.6114">
        <ele>1715.2</ele>
        <time>2017-09-28T09:11:58Z</time>
      </trkpt>
      <trkpt lat="45.67937" lon="6.61139">
        <ele>1715.4</ele>
        <time>2017-09-28T09:12:01Z</time>
      </trkpt>
      <trkpt lat="45.67927" lon="6.61138">
        <ele>1715.5</ele>
        <time>2017-09-28T09:12:04Z</time>
      </trkpt>
      <trkpt lat="45.67917" lon="6.61137">
        <ele>1715.5</ele>
        <time>2017-09-28T09:12:07Z</time>
      </trkpt>
      <trkpt lat="45.67907" lon="6.61135">
        <ele>1715.6</ele>
        <time>2017-09-28T09:12:10Z</time>
      </trkpt>
      <trkpt lat="45.67896" lon="6.61131">
        <ele>1715.7</ele>
        <time>2017-09-28T09:12:13Z</time>
      </trkpt>
      <trkpt lat="45.67885" lon="6.61126">
        <ele>1715.7</ele>
        <time>2017-09-28T09:12:16Z</time>
      </trkpt>
      <trkpt lat="45.67874" lon="6.61123">
        <ele>1715.6</ele>
        <time>2017-09-28T09:12:19Z</time>
      </trkpt>
      <trkpt lat="45.67862" lon="6.61122">
        <ele>1715.4</ele>
        <time>2017-09-28T09:12:22Z</time>
      </trkpt>
      <trkpt lat="45.6785" lon="6.61124">
        <ele>1715.5</ele>
        <time>2017-09-28T09:12:25Z</time>
      </trkpt>
      <trkpt lat="45.6784" lon="6.61118">
        <ele>1715.4</ele>
        <time>2017-09-28T09:12:28Z</time>
      </trkpt>
      <trkpt lat="45.67828" lon="6.61109">
        <ele>1715</ele>
        <time>2017-09-28T09:12:31Z</time>
      </trkpt>
      <trkpt lat="45.67818" lon="6.61103">
        <ele>1714.5</ele>
        <time>2017-09-28T09:12:33Z</time>
      </trkpt>
      <trkpt lat="45.67809" lon="6.611">
        <ele>1713.8</ele>
        <time>2017-09-28T09:12:35Z</time>
      </trkpt>
      <trkpt lat="45.67798" lon="6.61099">
        <ele>1713.3</ele>
        <time>2017-09-28T09:12:37Z</time>
      </trkpt>
      <trkpt lat="45.67787" lon="6.61102">
        <ele>1712.8</ele>
        <time>2017-09-28T09:12:39Z</time>
      </trkpt>
      <trkpt lat="45.67775" lon="6.61107">
        <ele>1712</ele>
        <time>2017-09-28T09:12:41Z</time>
      </trkpt>
      <trkpt lat="45.67764" lon="6.61117">
        <ele>1711.1</ele>
        <time>2017-09-28T09:12:43Z</time>
      </trkpt>
      <trkpt lat="45.67755" lon="6.61132">
        <ele>1710.2</ele>
        <time>2017-09-28T09:12:45Z</time>
      </trkpt>
      <trkpt lat="45.67748" lon="6.61142">
        <ele>1709.2</ele>
        <time>2017-09-28T09:12:47Z</time>
      </trkpt>
      <trkpt lat="45.67739" lon="6.61145">
        <ele>1708.2</ele>
        <time>2017-09-28T09:12:49Z</time>
      </trkpt>
      <trkpt lat="45.67729" lon="6.61144">
        <ele>1707.1</ele>
        <time>2017-09-28T09:12:51Z</time>
      </trkpt>
      <trkpt lat="45.67713" lon="6.6114">
        <ele>1706.2</ele>
        <time>2017-09-28T09:12:53Z</time>
      </trkpt>
      <trkpt lat="45.67696" lon="6.61136">
        <ele>1705.2</ele>
        <time>2017-09-28T09:12:55Z</time>
      </trkpt>
      <trkpt lat="45.67681" lon="6.61136">
        <ele>1704.2</ele>
        <time>2017-09-28T09:12:57Z</time>
      </trkpt>
      <trkpt lat="45.67667" lon="6.61136">
        <ele>1703.5</ele>
        <time>2017-09-28T09:12:59Z</time>
      </trkpt>
      <trkpt lat="45.67655" lon="6.61135">
        <ele>1703.1</ele>
        <time>2017-09-28T09:13:01Z</time>
      </trkpt>
      <trkpt lat="45.67645" lon="6.61134">
        <ele>1703.1</ele>
        <time>2017-09-28T09:13:03Z</time>
      </trkpt>
      <trkpt lat="45.67636" lon="6.61138">
        <ele>1703.4</ele>
        <time>2017-09-28T09:13:06Z</time>
      </trkpt>
      <trkpt lat="45.67627" lon="6.61143">
        <ele>1704.3</ele>
        <time>2017-09-28T09:13:09Z</time>
      </trkpt>
      <trkpt lat="45.67618" lon="6.61152">
        <ele>1705.2</ele>
        <time>2017-09-28T09:13:13Z</time>
      </trkpt>
      <trkpt lat="45.67612" lon="6.61162">
        <ele>1705.8</ele>
        <time>2017-09-28T09:13:17Z</time>
      </trkpt>
      <trkpt lat="45.67605" lon="6.61175">
        <ele>1706.2</ele>
        <time>2017-09-28T09:13:21Z</time>
      </trkpt>
      <trkpt lat="45.67595" lon="6.61183">
        <ele>1706.3</ele>
        <time>2017-09-28T09:13:24Z</time>
      </trkpt>
      <trkpt lat="45.67583" lon="6.61189">
        <ele>1706.1</ele>
        <time>2017-09-28T09:13:27Z</time>
      </trkpt>
      <trkpt lat="45.67573" lon="6.6119">
        <ele>1705.8</ele>
        <time>2017-09-28T09:13:29Z</time>
      </trkpt>
      <trkpt lat="45.67561" lon="6.61193">
        <ele>1705.1</ele>
        <time>2017-09-28T09:13:31Z</time>
      </trkpt>
      <trkpt lat="45.67548" lon="6.61196">
        <ele>1704.2</ele>
        <time>2017-09-28T09:13:33Z</time>
      </trkpt>
      <trkpt lat="45.67535" lon="6.61202">
        <ele>1703.1</ele>
        <time>2017-09-28T09:13:35Z</time>
      </trkpt>
      <trkpt lat="45.67519" lon="6.6121">
        <ele>1701.9</ele>
        <time>2017-09-28T09:13:37Z</time>
      </trkpt>
      <trkpt lat="45.67503" lon="6.61216">
        <ele>1700.7</ele>
        <time>2017-09-28T09:13:39Z</time>
      </trkpt>
      <trkpt lat="45.67489" lon="6.61223">
        <ele>1699.7</ele>
        <time>2017-09-28T09:13:41Z</time>
      </trkpt>
      <trkpt lat="45.67477" lon="6.61232">
        <ele>1698.2</ele>
        <time>2017-09-28T09:13:43Z</time>
      </trkpt>
      <trkpt lat="45.67466" lon="6.61241">
        <ele>1696.9</ele>
        <time>2017-09-28T09:13:45Z</time>
      </trkpt>
      <trkpt lat="45.67451" lon="6.61248">
        <ele>1695.4</ele>
        <time>2017-09-28T09:13:47Z</time>
      </trkpt>
      <trkpt lat="45.67436" lon="6.61253">
        <ele>1694.1</ele>
        <time>2017-09-28T09:13:49Z</time>
      </trkpt>
      <trkpt lat="45.67421" lon="6.61261">
        <ele>1693.1</ele>
        <time>2017-09-28T09:13:51Z</time>
      </trkpt>
      <trkpt lat="45.67408" lon="6.61273">
        <ele>1692</ele>
        <time>2017-09-28T09:13:53Z</time>
      </trkpt>
      <trkpt lat="45.67397" lon="6.61287">
        <ele>1690.5</ele>
        <time>2017-09-28T09:13:55Z</time>
      </trkpt>
      <trkpt lat="45.67387" lon="6.61301">
        <ele>1689</ele>
        <time>2017-09-28T09:13:57Z</time>
      </trkpt>
      <trkpt lat="45.67377" lon="6.61313">
        <ele>1687.6</ele>
        <time>2017-09-28T09:13:59Z</time>
      </trkpt>
      <trkpt lat="45.67363" lon="6.61319">
        <ele>1686.4</ele>
        <time>2017-09-28T09:14:01Z</time>
      </trkpt>
      <trkpt lat="45.67349" lon="6.61322">
        <ele>1685.4</ele>
        <time>2017-09-28T09:14:03Z</time>
      </trkpt>
      <trkpt lat="45.67336" lon="6.61324">
        <ele>1684.5</ele>
        <time>2017-09-28T09:14:05Z</time>
      </trkpt>
      <trkpt lat="45.67323" lon="6.61326">
        <ele>1683.6</ele>
        <time>2017-09-28T09:14:07Z</time>
      </trkpt>
      <trkpt lat="45.67312" lon="6.61328">
        <ele>1682.4</ele>
        <time>2017-09-28T09:14:09Z</time>
      </trkpt>
      <trkpt lat="45.67302" lon="6.61325">
        <ele>1681.3</ele>
        <time>2017-09-28T09:14:11Z</time>
      </trkpt>
      <trkpt lat="45.67293" lon="6.61321">
        <ele>1680.2</ele>
        <time>2017-09-28T09:14:13Z</time>
      </trkpt>
      <trkpt lat="45.67284" lon="6.61325">
        <ele>1678.9</ele>
        <time>2017-09-28T09:14:15Z</time>
      </trkpt>
      <trkpt lat="45.67276" lon="6.61339">
        <ele>1677.7</ele>
        <time>2017-09-28T09:14:17Z</time>
      </trkpt>
      <trkpt lat="45.67268" lon="6.61353">
        <ele>1676.4</ele>
        <time>2017-09-28T09:14:19Z</time>
      </trkpt>
      <trkpt lat="45.67257" lon="6.61365">
        <ele>1675.2</ele>
        <time>2017-09-28T09:14:21Z</time>
      </trkpt>
      <trkpt lat="45.67245" lon="6.61375">
        <ele>1673.9</ele>
        <time>2017-09-28T09:14:23Z</time>
      </trkpt>
      <trkpt lat="45.6723" lon="6.61383">
        <ele>1672.7</ele>
        <time>2017-09-28T09:14:25Z</time>
      </trkpt>
      <trkpt lat="45.67214" lon="6.61389">
        <ele>1671.6</ele>
        <time>2017-09-28T09:14:27Z</time>
      </trkpt>
      <trkpt lat="45.672" lon="6.61395">
        <ele>1671</ele>
        <time>2017-09-28T09:14:29Z</time>
      </trkpt>
      <trkpt lat="45.67189" lon="6.61401">
        <ele>1670.6</ele>
        <time>2017-09-28T09:14:31Z</time>
      </trkpt>
      <trkpt lat="45.67179" lon="6.61408">
        <ele>1670.4</ele>
        <time>2017-09-28T09:14:33Z</time>
      </trkpt>
      <trkpt lat="45.67169" lon="6.61412">
        <ele>1670.2</ele>
        <time>2017-09-28T09:14:35Z</time>
      </trkpt>
      <trkpt lat="45.6716" lon="6.61416">
        <ele>1670.1</ele>
        <time>2017-09-28T09:14:37Z</time>
      </trkpt>
      <trkpt lat="45.67149" lon="6.61426">
        <ele>1670.2</ele>
        <time>2017-09-28T09:14:40Z</time>
      </trkpt>
      <trkpt lat="45.67141" lon="6.61433">
        <ele>1670.8</ele>
        <time>2017-09-28T09:17:43Z</time>
      </trkpt>
      <trkpt lat="45.67131" lon="6.61436">
        <ele>1671.5</ele>
        <time>2017-09-28T09:17:47Z</time>
      </trkpt>
      <trkpt lat="45.67121" lon="6.61436">
        <ele>1672</ele>
        <time>2017-09-28T09:17:50Z</time>
      </trkpt>
      <trkpt lat="45.67111" lon="6.61433">
        <ele>1673</ele>
        <time>2017-09-28T09:17:54Z</time>
      </trkpt>
      <trkpt lat="45.67103" lon="6.61426">
        <ele>1673.2</ele>
        <time>2017-09-28T09:17:57Z</time>
      </trkpt>
      <trkpt lat="45.67095" lon="6.61418">
        <ele>1673.3</ele>
        <time>2017-09-28T09:18:00Z</time>
      </trkpt>
      <trkpt lat="45.67085" lon="6.61412">
        <ele>1673.4</ele>
        <time>2017-09-28T09:18:03Z</time>
      </trkpt>
      <trkpt lat="45.67073" lon="6.61409">
        <ele>1673.2</ele>
        <time>2017-09-28T09:18:06Z</time>
      </trkpt>
      <trkpt lat="45.67059" lon="6.61406">
        <ele>1673</ele>
        <time>2017-09-28T09:18:09Z</time>
      </trkpt>
      <trkpt lat="45.67049" lon="6.61402">
        <ele>1672.6</ele>
        <time>2017-09-28T09:18:11Z</time>
      </trkpt>
      <trkpt lat="45.67039" lon="6.61395">
        <ele>1672</ele>
        <time>2017-09-28T09:18:13Z</time>
      </trkpt>
      <trkpt lat="45.67032" lon="6.61387">
        <ele>1671.4</ele>
        <time>2017-09-28T09:18:15Z</time>
      </trkpt>
      <trkpt lat="45.67025" lon="6.61377">
        <ele>1670.8</ele>
        <time>2017-09-28T09:18:17Z</time>
      </trkpt>
      <trkpt lat="45.67016" lon="6.61364">
        <ele>1669.6</ele>
        <time>2017-09-28T09:18:20Z</time>
      </trkpt>
      <trkpt lat="45.67006" lon="6.61365">
        <ele>1669</ele>
        <time>2017-09-28T09:18:22Z</time>
      </trkpt>
      <trkpt lat="45.66995" lon="6.61369">
        <ele>1668.4</ele>
        <time>2017-09-28T09:18:24Z</time>
      </trkpt>
      <trkpt lat="45.66983" lon="6.61366">
        <ele>1667.7</ele>
        <time>2017-09-28T09:18:26Z</time>
      </trkpt>
      <trkpt lat="45.66974" lon="6.61361">
        <ele>1667</ele>
        <time>2017-09-28T09:18:28Z</time>
      </trkpt>
      <trkpt lat="45.66964" lon="6.61354">
        <ele>1666</ele>
        <time>2017-09-28T09:18:31Z</time>
      </trkpt>
      <trkpt lat="45.66951" lon="6.61352">
        <ele>1665.3</ele>
        <time>2017-09-28T09:18:34Z</time>
      </trkpt>
      <trkpt lat="45.66938" lon="6.61357">
        <ele>1664.7</ele>
        <time>2017-09-28T09:18:37Z</time>
      </trkpt>
      <trkpt lat="45.66929" lon="6.61361">
        <ele>1664.2</ele>
        <time>2017-09-28T09:18:39Z</time>
      </trkpt>
      <trkpt lat="45.6692" lon="6.61363">
        <ele>1663.7</ele>
        <time>2017-09-28T09:18:41Z</time>
      </trkpt>
      <trkpt lat="45.66909" lon="6.61366">
        <ele>1662.8</ele>
        <time>2017-09-28T09:18:44Z</time>
      </trkpt>
      <trkpt lat="45.66898" lon="6.6137">
        <ele>1662</ele>
        <time>2017-09-28T09:18:47Z</time>
      </trkpt>
      <trkpt lat="45.66887" lon="6.6138">
        <ele>1661.3</ele>
        <time>2017-09-28T09:18:50Z</time>
      </trkpt>
      <trkpt lat="45.66879" lon="6.61388">
        <ele>1660.9</ele>
        <time>2017-09-28T09:18:52Z</time>
      </trkpt>
      <trkpt lat="45.6687" lon="6.61394">
        <ele>1660.4</ele>
        <time>2017-09-28T09:18:54Z</time>
      </trkpt>
      <trkpt lat="45.6686" lon="6.614">
        <ele>1659.9</ele>
        <time>2017-09-28T09:18:56Z</time>
      </trkpt>
      <trkpt lat="45.66851" lon="6.61404">
        <ele>1659.6</ele>
        <time>2017-09-28T09:18:58Z</time>
      </trkpt>
      <trkpt lat="45.66842" lon="6.61408">
        <ele>1659.3</ele>
        <time>2017-09-28T09:19:00Z</time>
      </trkpt>
      <trkpt lat="45.66832" lon="6.6141">
        <ele>1659.2</ele>
        <time>2017-09-28T09:19:02Z</time>
      </trkpt>
      <trkpt lat="45.66823" lon="6.61412">
        <ele>1658.9</ele>
        <time>2017-09-28T09:19:04Z</time>
      </trkpt>
      <trkpt lat="45.66811" lon="6.61419">
        <ele>1658.7</ele>
        <time>2017-09-28T09:19:07Z</time>
      </trkpt>
      <trkpt lat="45.66804" lon="6.61426">
        <ele>1658.5</ele>
        <time>2017-09-28T09:19:09Z</time>
      </trkpt>
      <trkpt lat="45.66795" lon="6.61431">
        <ele>1658.3</ele>
        <time>2017-09-28T09:19:11Z</time>
      </trkpt>
      <trkpt lat="45.66786" lon="6.61433">
        <ele>1658.2</ele>
        <time>2017-09-28T09:19:13Z</time>
      </trkpt>
      <trkpt lat="45.66773" lon="6.61433">
        <ele>1658.1</ele>
        <time>2017-09-28T09:19:16Z</time>
      </trkpt>
      <trkpt lat="45.66762" lon="6.6143">
        <ele>1658.1</ele>
        <time>2017-09-28T09:19:19Z</time>
      </trkpt>
      <trkpt lat="45.66749" lon="6.6143">
        <ele>1658</ele>
        <time>2017-09-28T09:19:22Z</time>
      </trkpt>
      <trkpt lat="45.66739" lon="6.61431">
        <ele>1657.9</ele>
        <time>2017-09-28T09:19:24Z</time>
      </trkpt>
      <trkpt lat="45.66729" lon="6.61434">
        <ele>1657.6</ele>
        <time>2017-09-28T09:19:26Z</time>
      </trkpt>
      <trkpt lat="45.66719" lon="6.61437">
        <ele>1657.2</ele>
        <time>2017-09-28T09:19:28Z</time>
      </trkpt>
      <trkpt lat="45.6671" lon="6.61435">
        <ele>1656.7</ele>
        <time>2017-09-28T09:19:30Z</time>
      </trkpt>
      <trkpt lat="45.66701" lon="6.61431">
        <ele>1656</ele>
        <time>2017-09-28T09:19:32Z</time>
      </trkpt>
      <trkpt lat="45.6669" lon="6.61436">
        <ele>1655.1</ele>
        <time>2017-09-28T09:19:34Z</time>
      </trkpt>
      <trkpt lat="45.66683" lon="6.61449">
        <ele>1654.6</ele>
        <time>2017-09-28T09:19:36Z</time>
      </trkpt>
      <trkpt lat="45.66675" lon="6.61458">
        <ele>1654.1</ele>
        <time>2017-09-28T09:19:38Z</time>
      </trkpt>
      <trkpt lat="45.66665" lon="6.61462">
        <ele>1653.7</ele>
        <time>2017-09-28T09:19:40Z</time>
      </trkpt>
      <trkpt lat="45.66652" lon="6.61462">
        <ele>1653.4</ele>
        <time>2017-09-28T09:19:43Z</time>
      </trkpt>
      <trkpt lat="45.66643" lon="6.61452">
        <ele>1653.2</ele>
        <time>2017-09-28T09:19:46Z</time>
      </trkpt>
      <trkpt lat="45.66635" lon="6.61438">
        <ele>1652.9</ele>
        <time>2017-09-28T09:19:49Z</time>
      </trkpt>
      <trkpt lat="45.66628" lon="6.61424">
        <ele>1652.3</ele>
        <time>2017-09-28T09:19:52Z</time>
      </trkpt>
      <trkpt lat="45.66617" lon="6.61415">
        <ele>1651.7</ele>
        <time>2017-09-28T09:19:55Z</time>
      </trkpt>
      <trkpt lat="45.66606" lon="6.61413">
        <ele>1651.3</ele>
        <time>2017-09-28T09:19:57Z</time>
      </trkpt>
      <trkpt lat="45.66595" lon="6.6141">
        <ele>1650.8</ele>
        <time>2017-09-28T09:19:59Z</time>
      </trkpt>
      <trkpt lat="45.66584" lon="6.61408">
        <ele>1650.1</ele>
        <time>2017-09-28T09:20:01Z</time>
      </trkpt>
      <trkpt lat="45.66573" lon="6.61415">
        <ele>1649.2</ele>
        <time>2017-09-28T09:20:04Z</time>
      </trkpt>
      <trkpt lat="45.66574" lon="6.61431">
        <ele>1648.7</ele>
        <time>2017-09-28T09:20:07Z</time>
      </trkpt>
      <trkpt lat="45.66582" lon="6.61444">
        <ele>1648.6</ele>
        <time>2017-09-28T09:20:10Z</time>
      </trkpt>
      <trkpt lat="45.66589" lon="6.61455">
        <ele>1648.6</ele>
        <time>2017-09-28T09:20:13Z</time>
      </trkpt>
      <trkpt lat="45.66593" lon="6.61467">
        <ele>1648.7</ele>
        <time>2017-09-28T09:20:16Z</time>
      </trkpt>
      <trkpt lat="45.66597" lon="6.6148">
        <ele>1649</ele>
        <time>2017-09-28T09:20:19Z</time>
      </trkpt>
      <trkpt lat="45.66601" lon="6.61492">
        <ele>1649.3</ele>
        <time>2017-09-28T09:20:22Z</time>
      </trkpt>
      <trkpt lat="45.66607" lon="6.61507">
        <ele>1650</ele>
        <time>2017-09-28T09:20:26Z</time>
      </trkpt>
      <trkpt lat="45.66611" lon="6.61523">
        <ele>1650.7</ele>
        <time>2017-09-28T09:20:30Z</time>
      </trkpt>
      <trkpt lat="45.66615" lon="6.61538">
        <ele>1651.4</ele>
        <time>2017-09-28T09:20:34Z</time>
      </trkpt>
      <trkpt lat="45.66617" lon="6.61554">
        <ele>1652.1</ele>
        <time>2017-09-28T09:20:38Z</time>
      </trkpt>
      <trkpt lat="45.66616" lon="6.61571">
        <ele>1652.7</ele>
        <time>2017-09-28T09:20:42Z</time>
      </trkpt>
      <trkpt lat="45.66613" lon="6.61583">
        <ele>1652.9</ele>
        <time>2017-09-28T09:20:45Z</time>
      </trkpt>
      <trkpt lat="45.66609" lon="6.61597">
        <ele>1653.1</ele>
        <time>2017-09-28T09:20:48Z</time>
      </trkpt>
      <trkpt lat="45.66606" lon="6.61612">
        <ele>1653</ele>
        <time>2017-09-28T09:20:51Z</time>
      </trkpt>
      <trkpt lat="45.66597" lon="6.61626">
        <ele>1652.8</ele>
        <time>2017-09-28T09:20:54Z</time>
      </trkpt>
      <trkpt lat="45.6659" lon="6.61635">
        <ele>1652.5</ele>
        <time>2017-09-28T09:20:56Z</time>
      </trkpt>
      <trkpt lat="45.66583" lon="6.61649">
        <ele>1651.9</ele>
        <time>2017-09-28T09:20:58Z</time>
      </trkpt>
      <trkpt lat="45.66581" lon="6.61667">
        <ele>1651.4</ele>
        <time>2017-09-28T09:21:00Z</time>
      </trkpt>
      <trkpt lat="45.66582" lon="6.61684">
        <ele>1650.9</ele>
        <time>2017-09-28T09:21:02Z</time>
      </trkpt>
      <trkpt lat="45.6658" lon="6.61699">
        <ele>1650.3</ele>
        <time>2017-09-28T09:21:04Z</time>
      </trkpt>
      <trkpt lat="45.66576" lon="6.61713">
        <ele>1649.7</ele>
        <time>2017-09-28T09:21:06Z</time>
      </trkpt>
      <trkpt lat="45.66567" lon="6.61727">
        <ele>1648.8</ele>
        <time>2017-09-28T09:21:08Z</time>
      </trkpt>
      <trkpt lat="45.66556" lon="6.61744">
        <ele>1647.6</ele>
        <time>2017-09-28T09:21:10Z</time>
      </trkpt>
      <trkpt lat="45.66545" lon="6.61764">
        <ele>1646.3</ele>
        <time>2017-09-28T09:21:12Z</time>
      </trkpt>
      <trkpt lat="45.66541" lon="6.61776">
        <ele>1645.8</ele>
        <time>2017-09-28T09:21:13Z</time>
      </trkpt>
      <trkpt lat="45.66537" lon="6.61788">
        <ele>1645.3</ele>
        <time>2017-09-28T09:21:14Z</time>
      </trkpt>
      <trkpt lat="45.6653" lon="6.61809">
        <ele>1644.4</ele>
        <time>2017-09-28T09:21:16Z</time>
      </trkpt>
      <trkpt lat="45.66524" lon="6.61827">
        <ele>1644</ele>
        <time>2017-09-28T09:21:18Z</time>
      </trkpt>
      <trkpt lat="45.6652" lon="6.61842">
        <ele>1643.5</ele>
        <time>2017-09-28T09:21:20Z</time>
      </trkpt>
      <trkpt lat="45.66513" lon="6.61856">
        <ele>1643.1</ele>
        <time>2017-09-28T09:21:22Z</time>
      </trkpt>
      <trkpt lat="45.66504" lon="6.61872">
        <ele>1642.5</ele>
        <time>2017-09-28T09:21:24Z</time>
      </trkpt>
      <trkpt lat="45.66494" lon="6.61889">
        <ele>1641.8</ele>
        <time>2017-09-28T09:21:26Z</time>
      </trkpt>
      <trkpt lat="45.66483" lon="6.61908">
        <ele>1640.9</ele>
        <time>2017-09-28T09:21:28Z</time>
      </trkpt>
      <trkpt lat="45.66471" lon="6.61924">
        <ele>1640.1</ele>
        <time>2017-09-28T09:21:30Z</time>
      </trkpt>
      <trkpt lat="45.66457" lon="6.61939">
        <ele>1639.3</ele>
        <time>2017-09-28T09:21:32Z</time>
      </trkpt>
      <trkpt lat="45.66442" lon="6.61949">
        <ele>1638.6</ele>
        <time>2017-09-28T09:21:34Z</time>
      </trkpt>
      <trkpt lat="45.66427" lon="6.61954">
        <ele>1638.2</ele>
        <time>2017-09-28T09:21:36Z</time>
      </trkpt>
      <trkpt lat="45.66414" lon="6.61957">
        <ele>1637.9</ele>
        <time>2017-09-28T09:21:38Z</time>
      </trkpt>
      <trkpt lat="45.66403" lon="6.61962">
        <ele>1637.7</ele>
        <time>2017-09-28T09:21:40Z</time>
      </trkpt>
      <trkpt lat="45.66395" lon="6.61969">
        <ele>1637.8</ele>
        <time>2017-09-28T09:21:42Z</time>
      </trkpt>
      <trkpt lat="45.66388" lon="6.61977">
        <ele>1638</ele>
        <time>2017-09-28T09:21:44Z</time>
      </trkpt>
      <trkpt lat="45.6638" lon="6.61984">
        <ele>1638.1</ele>
        <time>2017-09-28T09:21:46Z</time>
      </trkpt>
      <trkpt lat="45.66373" lon="6.61992">
        <ele>1638.1</ele>
        <time>2017-09-28T09:21:48Z</time>
      </trkpt>
      <trkpt lat="45.66365" lon="6.62001">
        <ele>1638</ele>
        <time>2017-09-28T09:21:50Z</time>
      </trkpt>
      <trkpt lat="45.66357" lon="6.62012">
        <ele>1637.7</ele>
        <time>2017-09-28T09:21:52Z</time>
      </trkpt>
      <trkpt lat="45.66347" lon="6.62024">
        <ele>1637.2</ele>
        <time>2017-09-28T09:21:54Z</time>
      </trkpt>
      <trkpt lat="45.66336" lon="6.62038">
        <ele>1636.6</ele>
        <time>2017-09-28T09:21:56Z</time>
      </trkpt>
      <trkpt lat="45.66326" lon="6.62052">
        <ele>1636.1</ele>
        <time>2017-09-28T09:21:58Z</time>
      </trkpt>
      <trkpt lat="45.66319" lon="6.62066">
        <ele>1636</ele>
        <time>2017-09-28T09:22:00Z</time>
      </trkpt>
      <trkpt lat="45.66314" lon="6.62079">
        <ele>1635.9</ele>
        <time>2017-09-28T09:22:02Z</time>
      </trkpt>
      <trkpt lat="45.66309" lon="6.62094">
        <ele>1635.6</ele>
        <time>2017-09-28T09:22:04Z</time>
      </trkpt>
      <trkpt lat="45.66303" lon="6.62109">
        <ele>1635.3</ele>
        <time>2017-09-28T09:22:06Z</time>
      </trkpt>
      <trkpt lat="45.66294" lon="6.6212">
        <ele>1635</ele>
        <time>2017-09-28T09:22:08Z</time>
      </trkpt>
      <trkpt lat="45.66284" lon="6.62131">
        <ele>1634.5</ele>
        <time>2017-09-28T09:22:10Z</time>
      </trkpt>
      <trkpt lat="45.66274" lon="6.62145">
        <ele>1633.9</ele>
        <time>2017-09-28T09:22:12Z</time>
      </trkpt>
      <trkpt lat="45.66265" lon="6.62162">
        <ele>1633.4</ele>
        <time>2017-09-28T09:22:14Z</time>
      </trkpt>
      <trkpt lat="45.66257" lon="6.62181">
        <ele>1632.6</ele>
        <time>2017-09-28T09:22:16Z</time>
      </trkpt>
      <trkpt lat="45.6625" lon="6.62199">
        <ele>1631.9</ele>
        <time>2017-09-28T09:22:18Z</time>
      </trkpt>
      <trkpt lat="45.66244" lon="6.62216">
        <ele>1631.6</ele>
        <time>2017-09-28T09:22:20Z</time>
      </trkpt>
      <trkpt lat="45.66243" lon="6.6223">
        <ele>1631.5</ele>
        <time>2017-09-28T09:22:22Z</time>
      </trkpt>
      <trkpt lat="45.66242" lon="6.62246">
        <ele>1632</ele>
        <time>2017-09-28T09:22:25Z</time>
      </trkpt>
      <trkpt lat="45.66238" lon="6.62259">
        <ele>1632.7</ele>
        <time>2017-09-28T09:22:28Z</time>
      </trkpt>
      <trkpt lat="45.6623" lon="6.62271">
        <ele>1633.5</ele>
        <time>2017-09-28T09:22:31Z</time>
      </trkpt>
      <trkpt lat="45.66223" lon="6.62283">
        <ele>1634.4</ele>
        <time>2017-09-28T09:22:34Z</time>
      </trkpt>
      <trkpt lat="45.66217" lon="6.62294">
        <ele>1635.5</ele>
        <time>2017-09-28T09:22:37Z</time>
      </trkpt>
      <trkpt lat="45.66213" lon="6.62306">
        <ele>1636.2</ele>
        <time>2017-09-28T09:22:40Z</time>
      </trkpt>
      <trkpt lat="45.66208" lon="6.62318">
        <ele>1636.6</ele>
        <time>2017-09-28T09:22:43Z</time>
      </trkpt>
      <trkpt lat="45.66204" lon="6.62332">
        <ele>1636.8</ele>
        <time>2017-09-28T09:22:46Z</time>
      </trkpt>
      <trkpt lat="45.66197" lon="6.62346">
        <ele>1636.7</ele>
        <time>2017-09-28T09:22:49Z</time>
      </trkpt>
      <trkpt lat="45.66189" lon="6.6236">
        <ele>1636.6</ele>
        <time>2017-09-28T09:22:52Z</time>
      </trkpt>
      <trkpt lat="45.66183" lon="6.62374">
        <ele>1636.7</ele>
        <time>2017-09-28T09:22:55Z</time>
      </trkpt>
      <trkpt lat="45.66179" lon="6.62386">
        <ele>1636.9</ele>
        <time>2017-09-28T09:22:58Z</time>
      </trkpt>
      <trkpt lat="45.66173" lon="6.62401">
        <ele>1637.3</ele>
        <time>2017-09-28T09:23:02Z</time>
      </trkpt>
      <trkpt lat="45.66166" lon="6.62412">
        <ele>1638.1</ele>
        <time>2017-09-28T09:23:06Z</time>
      </trkpt>
      <trkpt lat="45.66158" lon="6.62419">
        <ele>1638.9</ele>
        <time>2017-09-28T09:23:10Z</time>
      </trkpt>
      <trkpt lat="45.6615" lon="6.62424">
        <ele>1639.8</ele>
        <time>2017-09-28T09:23:14Z</time>
      </trkpt>
      <trkpt lat="45.66141" lon="6.62434">
        <ele>1641.1</ele>
        <time>2017-09-28T09:23:19Z</time>
      </trkpt>
      <trkpt lat="45.66133" lon="6.62443">
        <ele>1642.5</ele>
        <time>2017-09-28T09:23:24Z</time>
      </trkpt>
      <trkpt lat="45.66124" lon="6.62453">
        <ele>1643.5</ele>
        <time>2017-09-28T09:23:29Z</time>
      </trkpt>
      <trkpt lat="45.66116" lon="6.62463">
        <ele>1644.3</ele>
        <time>2017-09-28T09:23:34Z</time>
      </trkpt>
      <trkpt lat="45.66109" lon="6.62474">
        <ele>1645.1</ele>
        <time>2017-09-28T09:23:39Z</time>
      </trkpt>
      <trkpt lat="45.66102" lon="6.62484">
        <ele>1645.9</ele>
        <time>2017-09-28T09:23:44Z</time>
      </trkpt>
      <trkpt lat="45.66095" lon="6.62493">
        <ele>1646.9</ele>
        <time>2017-09-28T09:23:49Z</time>
      </trkpt>
      <trkpt lat="45.66095" lon="6.62509">
        <ele>1647.6</ele>
        <time>2017-09-28T09:23:54Z</time>
      </trkpt>
      <trkpt lat="45.66096" lon="6.62526">
        <ele>1647.7</ele>
        <time>2017-09-28T09:23:58Z</time>
      </trkpt>
      <trkpt lat="45.66098" lon="6.62539">
        <ele>1647.7</ele>
        <time>2017-09-28T09:24:01Z</time>
      </trkpt>
      <trkpt lat="45.661" lon="6.62552">
        <ele>1648.2</ele>
        <time>2017-09-28T09:24:05Z</time>
      </trkpt>
      <trkpt lat="45.66101" lon="6.62565">
        <ele>1648.7</ele>
        <time>2017-09-28T09:24:09Z</time>
      </trkpt>
      <trkpt lat="45.66103" lon="6.6258">
        <ele>1649.7</ele>
        <time>2017-09-28T09:24:14Z</time>
      </trkpt>
      <trkpt lat="45.66106" lon="6.62592">
        <ele>1650.4</ele>
        <time>2017-09-28T09:24:18Z</time>
      </trkpt>
      <trkpt lat="45.66111" lon="6.62604">
        <ele>1651</ele>
        <time>2017-09-28T09:24:22Z</time>
      </trkpt>
      <trkpt lat="45.66118" lon="6.62616">
        <ele>1651.2</ele>
        <time>2017-09-28T09:24:26Z</time>
      </trkpt>
      <trkpt lat="45.66125" lon="6.62626">
        <ele>1651.3</ele>
        <time>2017-09-28T09:24:29Z</time>
      </trkpt>
      <trkpt lat="45.66131" lon="6.62637">
        <ele>1651.3</ele>
        <time>2017-09-28T09:24:32Z</time>
      </trkpt>
      <trkpt lat="45.66136" lon="6.6265">
        <ele>1651.2</ele>
        <time>2017-09-28T09:24:35Z</time>
      </trkpt>
      <trkpt lat="45.6614" lon="6.62665">
        <ele>1651.2</ele>
        <time>2017-09-28T09:24:38Z</time>
      </trkpt>
      <trkpt lat="45.66143" lon="6.6268">
        <ele>1651.2</ele>
        <time>2017-09-28T09:24:41Z</time>
      </trkpt>
      <trkpt lat="45.66147" lon="6.62698">
        <ele>1650.9</ele>
        <time>2017-09-28T09:24:44Z</time>
      </trkpt>
      <trkpt lat="45.66149" lon="6.62711">
        <ele>1650.6</ele>
        <time>2017-09-28T09:24:46Z</time>
      </trkpt>
      <trkpt lat="45.66151" lon="6.62724">
        <ele>1650.3</ele>
        <time>2017-09-28T09:24:48Z</time>
      </trkpt>
      <trkpt lat="45.66154" lon="6.62741">
        <ele>1650.1</ele>
        <time>2017-09-28T09:24:51Z</time>
      </trkpt>
      <trkpt lat="45.66156" lon="6.62754">
        <ele>1650.3</ele>
        <time>2017-09-28T09:24:54Z</time>
      </trkpt>
      <trkpt lat="45.66161" lon="6.6277">
        <ele>1650.8</ele>
        <time>2017-09-28T09:24:58Z</time>
      </trkpt>
      <trkpt lat="45.66165" lon="6.62786">
        <ele>1651.3</ele>
        <time>2017-09-28T09:25:02Z</time>
      </trkpt>
      <trkpt lat="45.66168" lon="6.62799">
        <ele>1651.4</ele>
        <time>2017-09-28T09:25:05Z</time>
      </trkpt>
      <trkpt lat="45.66168" lon="6.62814">
        <ele>1651.5</ele>
        <time>2017-09-28T09:25:08Z</time>
      </trkpt>
      <trkpt lat="45.66164" lon="6.62831">
        <ele>1651.5</ele>
        <time>2017-09-28T09:25:11Z</time>
      </trkpt>
      <trkpt lat="45.6616" lon="6.62847">
        <ele>1651.4</ele>
        <time>2017-09-28T09:25:14Z</time>
      </trkpt>
      <trkpt lat="45.66157" lon="6.62861">
        <ele>1651.6</ele>
        <time>2017-09-28T09:25:17Z</time>
      </trkpt>
      <trkpt lat="45.66158" lon="6.62875">
        <ele>1651.8</ele>
        <time>2017-09-28T09:25:20Z</time>
      </trkpt>
      <trkpt lat="45.66156" lon="6.62888">
        <ele>1652.2</ele>
        <time>2017-09-28T09:25:24Z</time>
      </trkpt>
      <trkpt lat="45.66149" lon="6.62898">
        <ele>1653.2</ele>
        <time>2017-09-28T09:25:29Z</time>
      </trkpt>
      <trkpt lat="45.66141" lon="6.62907">
        <ele>1654.5</ele>
        <time>2017-09-28T09:25:34Z</time>
      </trkpt>
      <trkpt lat="45.66135" lon="6.62918">
        <ele>1656.3</ele>
        <time>2017-09-28T09:25:40Z</time>
      </trkpt>
      <trkpt lat="45.66143" lon="6.62924">
        <ele>1657.7</ele>
        <time>2017-09-28T09:25:46Z</time>
      </trkpt>
      <trkpt lat="45.66153" lon="6.62922">
        <ele>1658.9</ele>
        <time>2017-09-28T09:25:51Z</time>
      </trkpt>
      <trkpt lat="45.66162" lon="6.62925">
        <ele>1659.7</ele>
        <time>2017-09-28T09:25:56Z</time>
      </trkpt>
      <trkpt lat="45.6616" lon="6.62938">
        <ele>1660.8</ele>
        <time>2017-09-28T09:26:02Z</time>
      </trkpt>
      <trkpt lat="45.66151" lon="6.62943">
        <ele>1662</ele>
        <time>2017-09-28T09:26:08Z</time>
      </trkpt>
      <trkpt lat="45.66143" lon="6.62951">
        <ele>1663.5</ele>
        <time>2017-09-28T09:26:14Z</time>
      </trkpt>
      <trkpt lat="45.66136" lon="6.6296">
        <ele>1664.9</ele>
        <time>2017-09-28T09:26:20Z</time>
      </trkpt>
      <trkpt lat="45.66132" lon="6.62974">
        <ele>1666.3</ele>
        <time>2017-09-28T09:26:27Z</time>
      </trkpt>
      <trkpt lat="45.66139" lon="6.62984">
        <ele>1667.7</ele>
        <time>2017-09-28T09:26:35Z</time>
      </trkpt>
      <trkpt lat="45.66148" lon="6.62975">
        <ele>1668.7</ele>
        <time>2017-09-28T09:26:41Z</time>
      </trkpt>
      <trkpt lat="45.66154" lon="6.62966">
        <ele>1669.6</ele>
        <time>2017-09-28T09:26:47Z</time>
      </trkpt>
      <trkpt lat="45.66162" lon="6.62962">
        <ele>1671</ele>
        <time>2017-09-28T09:26:54Z</time>
      </trkpt>
      <trkpt lat="45.66169" lon="6.62974">
        <ele>1672</ele>
        <time>2017-09-28T09:27:00Z</time>
      </trkpt>
      <trkpt lat="45.66163" lon="6.62985">
        <ele>1672.9</ele>
        <time>2017-09-28T09:27:06Z</time>
      </trkpt>
      <trkpt lat="45.66154" lon="6.62993">
        <ele>1674.2</ele>
        <time>2017-09-28T09:27:12Z</time>
      </trkpt>
      <trkpt lat="45.66151" lon="6.63005">
        <ele>1675.7</ele>
        <time>2017-09-28T09:27:19Z</time>
      </trkpt>
      <trkpt lat="45.6615" lon="6.6302">
        <ele>1676.8</ele>
        <time>2017-09-28T09:27:25Z</time>
      </trkpt>
      <trkpt lat="45.66146" lon="6.63033">
        <ele>1678</ele>
        <time>2017-09-28T09:27:31Z</time>
      </trkpt>
      <trkpt lat="45.66142" lon="6.63046">
        <ele>1679.1</ele>
        <time>2017-09-28T09:27:37Z</time>
      </trkpt>
      <trkpt lat="45.66137" lon="6.6306">
        <ele>1680.2</ele>
        <time>2017-09-28T09:27:43Z</time>
      </trkpt>
      <trkpt lat="45.66131" lon="6.63071">
        <ele>1680.8</ele>
        <time>2017-09-28T09:27:49Z</time>
      </trkpt>
      <trkpt lat="45.66127" lon="6.63086">
        <ele>1681.5</ele>
        <time>2017-09-28T09:27:55Z</time>
      </trkpt>
      <trkpt lat="45.66124" lon="6.631">
        <ele>1682.1</ele>
        <time>2017-09-28T09:28:00Z</time>
      </trkpt>
      <trkpt lat="45.66121" lon="6.63113">
        <ele>1682.6</ele>
        <time>2017-09-28T09:28:05Z</time>
      </trkpt>
      <trkpt lat="45.66118" lon="6.63126">
        <ele>1683.1</ele>
        <time>2017-09-28T09:28:10Z</time>
      </trkpt>
      <trkpt lat="45.66116" lon="6.6314">
        <ele>1683.7</ele>
        <time>2017-09-28T09:28:15Z</time>
      </trkpt>
      <trkpt lat="45.66113" lon="6.63153">
        <ele>1684.3</ele>
        <time>2017-09-28T09:28:20Z</time>
      </trkpt>
      <trkpt lat="45.66111" lon="6.63168">
        <ele>1684.9</ele>
        <time>2017-09-28T09:28:25Z</time>
      </trkpt>
      <trkpt lat="45.66107" lon="6.63181">
        <ele>1685.4</ele>
        <time>2017-09-28T09:28:30Z</time>
      </trkpt>
      <trkpt lat="45.66103" lon="6.63192">
        <ele>1686.1</ele>
        <time>2017-09-28T09:28:35Z</time>
      </trkpt>
      <trkpt lat="45.66098" lon="6.63206">
        <ele>1687</ele>
        <time>2017-09-28T09:28:41Z</time>
      </trkpt>
      <trkpt lat="45.66093" lon="6.63217">
        <ele>1688</ele>
        <time>2017-09-28T09:28:46Z</time>
      </trkpt>
      <trkpt lat="45.6609" lon="6.63231">
        <ele>1689.2</ele>
        <time>2017-09-28T09:28:52Z</time>
      </trkpt>
      <trkpt lat="45.66087" lon="6.63245">
        <ele>1690.2</ele>
        <time>2017-09-28T09:28:58Z</time>
      </trkpt>
      <trkpt lat="45.66084" lon="6.6326">
        <ele>1691.4</ele>
        <time>2017-09-28T09:29:04Z</time>
      </trkpt>
      <trkpt lat="45.66079" lon="6.63274">
        <ele>1692.5</ele>
        <time>2017-09-28T09:29:10Z</time>
      </trkpt>
      <trkpt lat="45.66074" lon="6.63285">
        <ele>1693.5</ele>
        <time>2017-09-28T09:29:15Z</time>
      </trkpt>
      <trkpt lat="45.66067" lon="6.63297">
        <ele>1694.6</ele>
        <time>2017-09-28T09:29:21Z</time>
      </trkpt>
      <trkpt lat="45.6606" lon="6.63308">
        <ele>1695.8</ele>
        <time>2017-09-28T09:29:27Z</time>
      </trkpt>
      <trkpt lat="45.66058" lon="6.6332">
        <ele>1696.5</ele>
        <time>2017-09-28T09:29:32Z</time>
      </trkpt>
      <trkpt lat="45.66059" lon="6.63335">
        <ele>1697.2</ele>
        <time>2017-09-28T09:29:37Z</time>
      </trkpt>
      <trkpt lat="45.66061" lon="6.63348">
        <ele>1697.8</ele>
        <time>2017-09-28T09:29:42Z</time>
      </trkpt>
      <trkpt lat="45.66061" lon="6.63362">
        <ele>1698.6</ele>
        <time>2017-09-28T09:29:47Z</time>
      </trkpt>
      <trkpt lat="45.66055" lon="6.63373">
        <ele>1699.6</ele>
        <time>2017-09-28T09:29:53Z</time>
      </trkpt>
      <trkpt lat="45.6605" lon="6.63387">
        <ele>1700.8</ele>
        <time>2017-09-28T09:29:59Z</time>
      </trkpt>
      <trkpt lat="45.66045" lon="6.63401">
        <ele>1702</ele>
        <time>2017-09-28T09:30:05Z</time>
      </trkpt>
      <trkpt lat="45.66041" lon="6.63412">
        <ele>1703</ele>
        <time>2017-09-28T09:30:10Z</time>
      </trkpt>
      <trkpt lat="45.66035" lon="6.63424">
        <ele>1704.3</ele>
        <time>2017-09-28T09:30:16Z</time>
      </trkpt>
      <trkpt lat="45.6603" lon="6.63437">
        <ele>1705.2</ele>
        <time>2017-09-28T09:30:22Z</time>
      </trkpt>
      <trkpt lat="45.66026" lon="6.63452">
        <ele>1705.9</ele>
        <time>2017-09-28T09:30:27Z</time>
      </trkpt>
      <trkpt lat="45.66024" lon="6.63465">
        <ele>1706.2</ele>
        <time>2017-09-28T09:30:31Z</time>
      </trkpt>
      <trkpt lat="45.66019" lon="6.63481">
        <ele>1706.2</ele>
        <time>2017-09-28T09:30:35Z</time>
      </trkpt>
      <trkpt lat="45.66013" lon="6.63498">
        <ele>1705.9</ele>
        <time>2017-09-28T09:30:38Z</time>
      </trkpt>
      <trkpt lat="45.66009" lon="6.63513">
        <ele>1705.5</ele>
        <time>2017-09-28T09:30:40Z</time>
      </trkpt>
      <trkpt lat="45.66" lon="6.63528">
        <ele>1705</ele>
        <time>2017-09-28T09:30:42Z</time>
      </trkpt>
      <trkpt lat="45.65992" lon="6.63536">
        <ele>1704.6</ele>
        <time>2017-09-28T09:30:44Z</time>
      </trkpt>
      <trkpt lat="45.65982" lon="6.63542">
        <ele>1704.6</ele>
        <time>2017-09-28T09:30:47Z</time>
      </trkpt>
      <trkpt lat="45.65976" lon="6.63551">
        <ele>1705.1</ele>
        <time>2017-09-28T09:30:51Z</time>
      </trkpt>
      <trkpt lat="45.65971" lon="6.63566">
        <ele>1706</ele>
        <time>2017-09-28T09:30:56Z</time>
      </trkpt>
      <trkpt lat="45.65964" lon="6.63576">
        <ele>1707.1</ele>
        <time>2017-09-28T09:31:01Z</time>
      </trkpt>
      <trkpt lat="45.65958" lon="6.63587">
        <ele>1708.1</ele>
        <time>2017-09-28T09:31:07Z</time>
      </trkpt>
      <trkpt lat="45.65952" lon="6.63597">
        <ele>1709.3</ele>
        <time>2017-09-28T09:31:19Z</time>
      </trkpt>
      <trkpt lat="45.65943" lon="6.63604">
        <ele>1709.7</ele>
        <time>2017-09-28T09:31:24Z</time>
      </trkpt>
      <trkpt lat="45.65932" lon="6.63604">
        <ele>1710.1</ele>
        <time>2017-09-28T09:31:29Z</time>
      </trkpt>
      <trkpt lat="45.65922" lon="6.63597">
        <ele>1710.5</ele>
        <time>2017-09-28T09:31:34Z</time>
      </trkpt>
      <trkpt lat="45.65913" lon="6.63588">
        <ele>1711.2</ele>
        <time>2017-09-28T09:31:39Z</time>
      </trkpt>
      <trkpt lat="45.65903" lon="6.63585">
        <ele>1711.9</ele>
        <time>2017-09-28T09:31:44Z</time>
      </trkpt>
      <trkpt lat="45.65895" lon="6.63592">
        <ele>1712.6</ele>
        <time>2017-09-28T09:31:49Z</time>
      </trkpt>
      <trkpt lat="45.65886" lon="6.63597">
        <ele>1713.5</ele>
        <time>2017-09-28T09:31:54Z</time>
      </trkpt>
      <trkpt lat="45.65879" lon="6.63608">
        <ele>1714.6</ele>
        <time>2017-09-28T09:32:00Z</time>
      </trkpt>
      <trkpt lat="45.65871" lon="6.63619">
        <ele>1715.9</ele>
        <time>2017-09-28T09:32:06Z</time>
      </trkpt>
      <trkpt lat="45.65867" lon="6.6363">
        <ele>1717.2</ele>
        <time>2017-09-28T09:32:11Z</time>
      </trkpt>
      <trkpt lat="45.65862" lon="6.63643">
        <ele>1718.6</ele>
        <time>2017-09-28T09:32:17Z</time>
      </trkpt>
      <trkpt lat="45.65858" lon="6.63657">
        <ele>1719.7</ele>
        <time>2017-09-28T09:32:23Z</time>
      </trkpt>
      <trkpt lat="45.65853" lon="6.63668">
        <ele>1720.4</ele>
        <time>2017-09-28T09:32:28Z</time>
      </trkpt>
      <trkpt lat="45.65845" lon="6.63677">
        <ele>1721</ele>
        <time>2017-09-28T09:32:33Z</time>
      </trkpt>
      <trkpt lat="45.65835" lon="6.63683">
        <ele>1721.5</ele>
        <time>2017-09-28T09:32:38Z</time>
      </trkpt>
      <trkpt lat="45.65824" lon="6.63686">
        <ele>1722.1</ele>
        <time>2017-09-28T09:32:44Z</time>
      </trkpt>
      <trkpt lat="45.65815" lon="6.63687">
        <ele>1722.8</ele>
        <time>2017-09-28T09:32:49Z</time>
      </trkpt>
      <trkpt lat="45.65806" lon="6.63692">
        <ele>1723.6</ele>
        <time>2017-09-28T09:32:54Z</time>
      </trkpt>
      <trkpt lat="45.65796" lon="6.63696">
        <ele>1724.5</ele>
        <time>2017-09-28T09:33:01Z</time>
      </trkpt>
      <trkpt lat="45.65787" lon="6.63695">
        <ele>1725.3</ele>
        <time>2017-09-28T09:33:06Z</time>
      </trkpt>
      <trkpt lat="45.65777" lon="6.63699">
        <ele>1726.2</ele>
        <time>2017-09-28T09:33:11Z</time>
      </trkpt>
      <trkpt lat="45.65768" lon="6.63705">
        <ele>1727</ele>
        <time>2017-09-28T09:33:16Z</time>
      </trkpt>
      <trkpt lat="45.6576" lon="6.63712">
        <ele>1727.7</ele>
        <time>2017-09-28T09:33:21Z</time>
      </trkpt>
      <trkpt lat="45.65749" lon="6.63714">
        <ele>1728.2</ele>
        <time>2017-09-28T09:33:26Z</time>
      </trkpt>
      <trkpt lat="45.65739" lon="6.63717">
        <ele>1728.9</ele>
        <time>2017-09-28T09:33:31Z</time>
      </trkpt>
      <trkpt lat="45.6573" lon="6.63715">
        <ele>1729.5</ele>
        <time>2017-09-28T09:33:36Z</time>
      </trkpt>
      <trkpt lat="45.6572" lon="6.63714">
        <ele>1730.1</ele>
        <time>2017-09-28T09:33:41Z</time>
      </trkpt>
      <trkpt lat="45.6571" lon="6.63715">
        <ele>1730.4</ele>
        <time>2017-09-28T09:33:46Z</time>
      </trkpt>
      <trkpt lat="45.65701" lon="6.63721">
        <ele>1731</ele>
        <time>2017-09-28T09:33:51Z</time>
      </trkpt>
      <trkpt lat="45.65693" lon="6.6373">
        <ele>1731.7</ele>
        <time>2017-09-28T09:33:56Z</time>
      </trkpt>
      <trkpt lat="45.65685" lon="6.6374">
        <ele>1732.8</ele>
        <time>2017-09-28T09:34:02Z</time>
      </trkpt>
      <trkpt lat="45.6568" lon="6.6375">
        <ele>1734</ele>
        <time>2017-09-28T09:34:07Z</time>
      </trkpt>
      <trkpt lat="45.65674" lon="6.63762">
        <ele>1735.3</ele>
        <time>2017-09-28T09:34:13Z</time>
      </trkpt>
      <trkpt lat="45.65669" lon="6.63774">
        <ele>1736.4</ele>
        <time>2017-09-28T09:34:19Z</time>
      </trkpt>
      <trkpt lat="45.65664" lon="6.63787">
        <ele>1737.3</ele>
        <time>2017-09-28T09:34:25Z</time>
      </trkpt>
      <trkpt lat="45.65659" lon="6.63798">
        <ele>1738.3</ele>
        <time>2017-09-28T09:34:31Z</time>
      </trkpt>
      <trkpt lat="45.65652" lon="6.63809">
        <ele>1739.2</ele>
        <time>2017-09-28T09:34:37Z</time>
      </trkpt>
      <trkpt lat="45.65644" lon="6.63814">
        <ele>1740.4</ele>
        <time>2017-09-28T09:34:43Z</time>
      </trkpt>
      <trkpt lat="45.65635" lon="6.6382">
        <ele>1741.7</ele>
        <time>2017-09-28T09:34:49Z</time>
      </trkpt>
      <trkpt lat="45.65627" lon="6.63827">
        <ele>1743</ele>
        <time>2017-09-28T09:34:56Z</time>
      </trkpt>
      <trkpt lat="45.65619" lon="6.63836">
        <ele>1744.2</ele>
        <time>2017-09-28T09:35:02Z</time>
      </trkpt>
      <trkpt lat="45.65612" lon="6.63844">
        <ele>1745.4</ele>
        <time>2017-09-28T09:35:08Z</time>
      </trkpt>
      <trkpt lat="45.65605" lon="6.63853">
        <ele>1746.4</ele>
        <time>2017-09-28T09:35:14Z</time>
      </trkpt>
      <trkpt lat="45.65598" lon="6.63861">
        <ele>1747.6</ele>
        <time>2017-09-28T09:35:20Z</time>
      </trkpt>
      <trkpt lat="45.6559" lon="6.63868">
        <ele>1749</ele>
        <time>2017-09-28T09:35:27Z</time>
      </trkpt>
      <trkpt lat="45.6558" lon="6.63872">
        <ele>1750.6</ele>
        <time>2017-09-28T09:35:34Z</time>
      </trkpt>
      <trkpt lat="45.65578" lon="6.63886">
        <ele>1751.8</ele>
        <time>2017-09-28T09:35:41Z</time>
      </trkpt>
      <trkpt lat="45.65586" lon="6.63893">
        <ele>1752.5</ele>
        <time>2017-09-28T09:35:47Z</time>
      </trkpt>
      <trkpt lat="45.65596" lon="6.63891">
        <ele>1753.4</ele>
        <time>2017-09-28T09:35:53Z</time>
      </trkpt>
      <trkpt lat="45.65605" lon="6.63896">
        <ele>1754.5</ele>
        <time>2017-09-28T09:35:59Z</time>
      </trkpt>
      <trkpt lat="45.65614" lon="6.63901">
        <ele>1755.5</ele>
        <time>2017-09-28T09:36:05Z</time>
      </trkpt>
      <trkpt lat="45.65624" lon="6.639">
        <ele>1756.6</ele>
        <time>2017-09-28T09:36:11Z</time>
      </trkpt>
      <trkpt lat="45.65628" lon="6.63913">
        <ele>1757.2</ele>
        <time>2017-09-28T09:36:17Z</time>
      </trkpt>
      <trkpt lat="45.6562" lon="6.63921">
        <ele>1757.9</ele>
        <time>2017-09-28T09:36:23Z</time>
      </trkpt>
      <trkpt lat="45.6561" lon="6.6392">
        <ele>1758.6</ele>
        <time>2017-09-28T09:36:29Z</time>
      </trkpt>
      <trkpt lat="45.65601" lon="6.63923">
        <ele>1759.4</ele>
        <time>2017-09-28T09:36:35Z</time>
      </trkpt>
      <trkpt lat="45.65594" lon="6.63933">
        <ele>1760.6</ele>
        <time>2017-09-28T09:36:41Z</time>
      </trkpt>
      <trkpt lat="45.65589" lon="6.63947">
        <ele>1761.7</ele>
        <time>2017-09-28T09:36:47Z</time>
      </trkpt>
      <trkpt lat="45.65586" lon="6.6396">
        <ele>1762.6</ele>
        <time>2017-09-28T09:36:53Z</time>
      </trkpt>
      <trkpt lat="45.65577" lon="6.63966">
        <ele>1762.9</ele>
        <time>2017-09-28T09:36:59Z</time>
      </trkpt>
      <trkpt lat="45.65568" lon="6.63964">
        <ele>1763.6</ele>
        <time>2017-09-28T09:37:05Z</time>
      </trkpt>
      <trkpt lat="45.65558" lon="6.63966">
        <ele>1764.8</ele>
        <time>2017-09-28T09:37:11Z</time>
      </trkpt>
      <trkpt lat="45.65549" lon="6.63968">
        <ele>1766</ele>
        <time>2017-09-28T09:37:17Z</time>
      </trkpt>
      <trkpt lat="45.6554" lon="6.63974">
        <ele>1767.4</ele>
        <time>2017-09-28T09:37:23Z</time>
      </trkpt>
      <trkpt lat="45.65533" lon="6.63982">
        <ele>1768.6</ele>
        <time>2017-09-28T09:37:29Z</time>
      </trkpt>
      <trkpt lat="45.65528" lon="6.63994">
        <ele>1770.1</ele>
        <time>2017-09-28T09:37:35Z</time>
      </trkpt>
      <trkpt lat="45.65521" lon="6.64005">
        <ele>1771.6</ele>
        <time>2017-09-28T09:37:42Z</time>
      </trkpt>
      <trkpt lat="45.65512" lon="6.64008">
        <ele>1772.7</ele>
        <time>2017-09-28T09:37:48Z</time>
      </trkpt>
      <trkpt lat="45.65502" lon="6.64006">
        <ele>1773.8</ele>
        <time>2017-09-28T09:37:54Z</time>
      </trkpt>
      <trkpt lat="45.65492" lon="6.64005">
        <ele>1774.8</ele>
        <time>2017-09-28T09:38:01Z</time>
      </trkpt>
      <trkpt lat="45.65485" lon="6.64014">
        <ele>1776</ele>
        <time>2017-09-28T09:38:08Z</time>
      </trkpt>
      <trkpt lat="45.6549" lon="6.64026">
        <ele>1777</ele>
        <time>2017-09-28T09:38:14Z</time>
      </trkpt>
      <trkpt lat="45.65499" lon="6.64031">
        <ele>1777.6</ele>
        <time>2017-09-28T09:38:19Z</time>
      </trkpt>
      <trkpt lat="45.65508" lon="6.64034">
        <ele>1778.5</ele>
        <time>2017-09-28T09:38:25Z</time>
      </trkpt>
      <trkpt lat="45.65519" lon="6.64038">
        <ele>1779.2</ele>
        <time>2017-09-28T09:38:31Z</time>
      </trkpt>
      <trkpt lat="45.65528" lon="6.64041">
        <ele>1780.1</ele>
        <time>2017-09-28T09:38:37Z</time>
      </trkpt>
      <trkpt lat="45.65538" lon="6.64046">
        <ele>1781.3</ele>
        <time>2017-09-28T09:38:43Z</time>
      </trkpt>
      <trkpt lat="45.65547" lon="6.64053">
        <ele>1782.3</ele>
        <time>2017-09-28T09:38:49Z</time>
      </trkpt>
      <trkpt lat="45.65555" lon="6.64058">
        <ele>1783.5</ele>
        <time>2017-09-28T09:38:55Z</time>
      </trkpt>
      <trkpt lat="45.65565" lon="6.64062">
        <ele>1784.6</ele>
        <time>2017-09-28T09:39:01Z</time>
      </trkpt>
      <trkpt lat="45.65575" lon="6.64064">
        <ele>1785.9</ele>
        <time>2017-09-28T09:39:07Z</time>
      </trkpt>
      <trkpt lat="45.65584" lon="6.64063">
        <ele>1787</ele>
        <time>2017-09-28T09:39:13Z</time>
      </trkpt>
      <trkpt lat="45.65594" lon="6.64057">
        <ele>1787.8</ele>
        <time>2017-09-28T09:39:19Z</time>
      </trkpt>
      <trkpt lat="45.65602" lon="6.6405">
        <ele>1788.2</ele>
        <time>2017-09-28T09:39:24Z</time>
      </trkpt>
      <trkpt lat="45.6561" lon="6.64044">
        <ele>1788.6</ele>
        <time>2017-09-28T09:39:29Z</time>
      </trkpt>
      <trkpt lat="45.65615" lon="6.64058">
        <ele>1789</ele>
        <time>2017-09-28T09:39:35Z</time>
      </trkpt>
      <trkpt lat="45.65607" lon="6.64065">
        <ele>1789.8</ele>
        <time>2017-09-28T09:39:40Z</time>
      </trkpt>
      <trkpt lat="45.65598" lon="6.64071">
        <ele>1790.9</ele>
        <time>2017-09-28T09:39:46Z</time>
      </trkpt>
      <trkpt lat="45.65591" lon="6.64082">
        <ele>1792.1</ele>
        <time>2017-09-28T09:39:52Z</time>
      </trkpt>
      <trkpt lat="45.65584" lon="6.6409">
        <ele>1793</ele>
        <time>2017-09-28T09:39:57Z</time>
      </trkpt>
      <trkpt lat="45.65576" lon="6.641">
        <ele>1794.1</ele>
        <time>2017-09-28T09:40:03Z</time>
      </trkpt>
      <trkpt lat="45.65568" lon="6.64108">
        <ele>1795.4</ele>
        <time>2017-09-28T09:40:09Z</time>
      </trkpt>
      <trkpt lat="45.65561" lon="6.64117">
        <ele>1796.7</ele>
        <time>2017-09-28T09:40:16Z</time>
      </trkpt>
      <trkpt lat="45.65552" lon="6.64122">
        <ele>1797.8</ele>
        <time>2017-09-28T09:40:22Z</time>
      </trkpt>
      <trkpt lat="45.65542" lon="6.64126">
        <ele>1799</ele>
        <time>2017-09-28T09:40:29Z</time>
      </trkpt>
      <trkpt lat="45.65534" lon="6.64131">
        <ele>1800.2</ele>
        <time>2017-09-28T09:40:35Z</time>
      </trkpt>
      <trkpt lat="45.65526" lon="6.64137">
        <ele>1801.3</ele>
        <time>2017-09-28T09:40:41Z</time>
      </trkpt>
      <trkpt lat="45.65517" lon="6.64145">
        <ele>1802.6</ele>
        <time>2017-09-28T09:40:48Z</time>
      </trkpt>
      <trkpt lat="45.65509" lon="6.6415">
        <ele>1804</ele>
        <time>2017-09-28T09:40:54Z</time>
      </trkpt>
      <trkpt lat="45.65499" lon="6.64154">
        <ele>1805</ele>
        <time>2017-09-28T09:41:00Z</time>
      </trkpt>
      <trkpt lat="45.6549" lon="6.64156">
        <ele>1805.8</ele>
        <time>2017-09-28T09:41:05Z</time>
      </trkpt>
      <trkpt lat="45.6548" lon="6.64154">
        <ele>1806.9</ele>
        <time>2017-09-28T09:41:11Z</time>
      </trkpt>
      <trkpt lat="45.6547" lon="6.64154">
        <ele>1807.8</ele>
        <time>2017-09-28T09:41:17Z</time>
      </trkpt>
      <trkpt lat="45.65466" lon="6.64165">
        <ele>1808.9</ele>
        <time>2017-09-28T09:41:23Z</time>
      </trkpt>
      <trkpt lat="45.65475" lon="6.64172">
        <ele>1809.8</ele>
        <time>2017-09-28T09:41:29Z</time>
      </trkpt>
      <trkpt lat="45.65484" lon="6.64176">
        <ele>1811</ele>
        <time>2017-09-28T09:41:35Z</time>
      </trkpt>
      <trkpt lat="45.65493" lon="6.64179">
        <ele>1812</ele>
        <time>2017-09-28T09:41:40Z</time>
      </trkpt>
      <trkpt lat="45.65503" lon="6.64183">
        <ele>1813.3</ele>
        <time>2017-09-28T09:41:46Z</time>
      </trkpt>
      <trkpt lat="45.65513" lon="6.64184">
        <ele>1814.4</ele>
        <time>2017-09-28T09:41:52Z</time>
      </trkpt>
      <trkpt lat="45.65524" lon="6.64185">
        <ele>1815.5</ele>
        <time>2017-09-28T09:41:58Z</time>
      </trkpt>
      <trkpt lat="45.65534" lon="6.64186">
        <ele>1816.7</ele>
        <time>2017-09-28T09:42:04Z</time>
      </trkpt>
      <trkpt lat="45.65543" lon="6.64191">
        <ele>1817.7</ele>
        <time>2017-09-28T09:42:10Z</time>
      </trkpt>
      <trkpt lat="45.65551" lon="6.64195">
        <ele>1818.9</ele>
        <time>2017-09-28T09:42:16Z</time>
      </trkpt>
      <trkpt lat="45.65561" lon="6.64196">
        <ele>1820</ele>
        <time>2017-09-28T09:42:22Z</time>
      </trkpt>
      <trkpt lat="45.65571" lon="6.64196">
        <ele>1821.1</ele>
        <time>2017-09-28T09:42:28Z</time>
      </trkpt>
      <trkpt lat="45.6558" lon="6.64196">
        <ele>1822</ele>
        <time>2017-09-28T09:42:34Z</time>
      </trkpt>
      <trkpt lat="45.6559" lon="6.6419">
        <ele>1823.1</ele>
        <time>2017-09-28T09:42:40Z</time>
      </trkpt>
      <trkpt lat="45.656" lon="6.64185">
        <ele>1823.9</ele>
        <time>2017-09-28T09:42:46Z</time>
      </trkpt>
      <trkpt lat="45.65602" lon="6.64199">
        <ele>1824.8</ele>
        <time>2017-09-28T09:42:53Z</time>
      </trkpt>
      <trkpt lat="45.65591" lon="6.64204">
        <ele>1825.7</ele>
        <time>2017-09-28T09:42:59Z</time>
      </trkpt>
      <trkpt lat="45.65583" lon="6.64207">
        <ele>1826.4</ele>
        <time>2017-09-28T09:43:04Z</time>
      </trkpt>
      <trkpt lat="45.65575" lon="6.64215">
        <ele>1827.2</ele>
        <time>2017-09-28T09:43:09Z</time>
      </trkpt>
      <trkpt lat="45.65566" lon="6.64223">
        <ele>1828.1</ele>
        <time>2017-09-28T09:43:15Z</time>
      </trkpt>
      <trkpt lat="45.65556" lon="6.64228">
        <ele>1829.1</ele>
        <time>2017-09-28T09:43:21Z</time>
      </trkpt>
      <trkpt lat="45.65547" lon="6.6423">
        <ele>1830.3</ele>
        <time>2017-09-28T09:43:27Z</time>
      </trkpt>
      <trkpt lat="45.65537" lon="6.64236">
        <ele>1831.3</ele>
        <time>2017-09-28T09:43:33Z</time>
      </trkpt>
      <trkpt lat="45.65529" lon="6.64245">
        <ele>1832.6</ele>
        <time>2017-09-28T09:43:39Z</time>
      </trkpt>
      <trkpt lat="45.6552" lon="6.64248">
        <ele>1834</ele>
        <time>2017-09-28T09:43:45Z</time>
      </trkpt>
      <trkpt lat="45.65509" lon="6.64248">
        <ele>1835.5</ele>
        <time>2017-09-28T09:43:52Z</time>
      </trkpt>
      <trkpt lat="45.65501" lon="6.64255">
        <ele>1836.8</ele>
        <time>2017-09-28T09:43:59Z</time>
      </trkpt>
      <trkpt lat="45.65492" lon="6.64262">
        <ele>1837.6</ele>
        <time>2017-09-28T09:44:05Z</time>
      </trkpt>
      <trkpt lat="45.65483" lon="6.64268">
        <ele>1838.8</ele>
        <time>2017-09-28T09:44:12Z</time>
      </trkpt>
      <trkpt lat="45.65474" lon="6.64265">
        <ele>1840.2</ele>
        <time>2017-09-28T09:44:19Z</time>
      </trkpt>
      <trkpt lat="45.65466" lon="6.64274">
        <ele>1841.5</ele>
        <time>2017-09-28T09:44:26Z</time>
      </trkpt>
      <trkpt lat="45.65473" lon="6.64283">
        <ele>1842.6</ele>
        <time>2017-09-28T09:44:32Z</time>
      </trkpt>
      <trkpt lat="45.65483" lon="6.64284">
        <ele>1843.6</ele>
        <time>2017-09-28T09:44:38Z</time>
      </trkpt>
      <trkpt lat="45.65493" lon="6.64283">
        <ele>1845.1</ele>
        <time>2017-09-28T09:44:45Z</time>
      </trkpt>
      <trkpt lat="45.65502" lon="6.64282">
        <ele>1846.8</ele>
        <time>2017-09-28T09:44:52Z</time>
      </trkpt>
      <trkpt lat="45.65511" lon="6.64281">
        <ele>1848.4</ele>
        <time>2017-09-28T09:44:59Z</time>
      </trkpt>
      <trkpt lat="45.6552" lon="6.64279">
        <ele>1850</ele>
        <time>2017-09-28T09:45:06Z</time>
      </trkpt>
      <trkpt lat="45.6553" lon="6.6428">
        <ele>1851.9</ele>
        <time>2017-09-28T09:45:14Z</time>
      </trkpt>
      <trkpt lat="45.6554" lon="6.64282">
        <ele>1853.6</ele>
        <time>2017-09-28T09:45:22Z</time>
      </trkpt>
      <trkpt lat="45.65549" lon="6.64289">
        <ele>1855.2</ele>
        <time>2017-09-28T09:45:29Z</time>
      </trkpt>
      <trkpt lat="45.65557" lon="6.64295">
        <ele>1856.5</ele>
        <time>2017-09-28T09:45:36Z</time>
      </trkpt>
      <trkpt lat="45.65566" lon="6.64289">
        <ele>1857.7</ele>
        <time>2017-09-28T09:45:43Z</time>
      </trkpt>
      <trkpt lat="45.65573" lon="6.64282">
        <ele>1858.8</ele>
        <time>2017-09-28T09:45:50Z</time>
      </trkpt>
      <trkpt lat="45.65582" lon="6.6428">
        <ele>1859.8</ele>
        <time>2017-09-28T09:45:56Z</time>
      </trkpt>
      <trkpt lat="45.65592" lon="6.64279">
        <ele>1860.8</ele>
        <time>2017-09-28T09:46:02Z</time>
      </trkpt>
      <trkpt lat="45.65601" lon="6.64279">
        <ele>1861.8</ele>
        <time>2017-09-28T09:46:09Z</time>
      </trkpt>
      <trkpt lat="45.65611" lon="6.64278">
        <ele>1863.2</ele>
        <time>2017-09-28T09:46:15Z</time>
      </trkpt>
      <trkpt lat="45.6562" lon="6.64279">
        <ele>1864.7</ele>
        <time>2017-09-28T09:46:21Z</time>
      </trkpt>
      <trkpt lat="45.65629" lon="6.64283">
        <ele>1866.2</ele>
        <time>2017-09-28T09:46:27Z</time>
      </trkpt>
      <trkpt lat="45.65639" lon="6.64283">
        <ele>1867.5</ele>
        <time>2017-09-28T09:46:34Z</time>
      </trkpt>
      <trkpt lat="45.6565" lon="6.64284">
        <ele>1868.8</ele>
        <time>2017-09-28T09:46:41Z</time>
      </trkpt>
      <trkpt lat="45.65659" lon="6.64283">
        <ele>1869.7</ele>
        <time>2017-09-28T09:46:47Z</time>
      </trkpt>
      <trkpt lat="45.65668" lon="6.64281">
        <ele>1870.6</ele>
        <time>2017-09-28T09:46:53Z</time>
      </trkpt>
      <trkpt lat="45.65677" lon="6.64273">
        <ele>1871.2</ele>
        <time>2017-09-28T09:46:59Z</time>
      </trkpt>
      <trkpt lat="45.65686" lon="6.64277">
        <ele>1872</ele>
        <time>2017-09-28T09:47:06Z</time>
      </trkpt>
      <trkpt lat="45.6568" lon="6.64288">
        <ele>1872.9</ele>
        <time>2017-09-28T09:47:12Z</time>
      </trkpt>
      <trkpt lat="45.65672" lon="6.64292">
        <ele>1874.2</ele>
        <time>2017-09-28T09:47:18Z</time>
      </trkpt>
      <trkpt lat="45.65663" lon="6.64298">
        <ele>1875.8</ele>
        <time>2017-09-28T09:47:25Z</time>
      </trkpt>
      <trkpt lat="45.65654" lon="6.643">
        <ele>1877.4</ele>
        <time>2017-09-28T09:47:32Z</time>
      </trkpt>
      <trkpt lat="45.65644" lon="6.64306">
        <ele>1878.7</ele>
        <time>2017-09-28T09:47:39Z</time>
      </trkpt>
      <trkpt lat="45.65635" lon="6.6431">
        <ele>1879.3</ele>
        <time>2017-09-28T09:47:45Z</time>
      </trkpt>
      <trkpt lat="45.65625" lon="6.64311">
        <ele>1880.3</ele>
        <time>2017-09-28T09:47:52Z</time>
      </trkpt>
      <trkpt lat="45.65616" lon="6.64317">
        <ele>1881.9</ele>
        <time>2017-09-28T09:47:59Z</time>
      </trkpt>
      <trkpt lat="45.65609" lon="6.64326">
        <ele>1883.8</ele>
        <time>2017-09-28T09:48:06Z</time>
      </trkpt>
      <trkpt lat="45.65602" lon="6.64335">
        <ele>1885.7</ele>
        <time>2017-09-28T09:48:14Z</time>
      </trkpt>
      <trkpt lat="45.65595" lon="6.64345">
        <ele>1887.9</ele>
        <time>2017-09-28T09:48:22Z</time>
      </trkpt>
      <trkpt lat="45.65585" lon="6.64349">
        <ele>1889.9</ele>
        <time>2017-09-28T09:48:30Z</time>
      </trkpt>
      <trkpt lat="45.65576" lon="6.64352">
        <ele>1891.9</ele>
        <time>2017-09-28T09:48:39Z</time>
      </trkpt>
      <trkpt lat="45.65569" lon="6.64362">
        <ele>1893.6</ele>
        <time>2017-09-28T09:48:46Z</time>
      </trkpt>
      <trkpt lat="45.65562" lon="6.64371">
        <ele>1894.6</ele>
        <time>2017-09-28T09:48:53Z</time>
      </trkpt>
      <trkpt lat="45.65553" lon="6.64376">
        <ele>1895.9</ele>
        <time>2017-09-28T09:49:00Z</time>
      </trkpt>
      <trkpt lat="45.65544" lon="6.64378">
        <ele>1898</ele>
        <time>2017-09-28T09:49:08Z</time>
      </trkpt>
      <trkpt lat="45.65534" lon="6.6438">
        <ele>1899.9</ele>
        <time>2017-09-28T09:49:16Z</time>
      </trkpt>
      <trkpt lat="45.65525" lon="6.64381">
        <ele>1901</ele>
        <time>2017-09-28T09:49:23Z</time>
      </trkpt>
      <trkpt lat="45.65515" lon="6.64378">
        <ele>1902.6</ele>
        <time>2017-09-28T09:49:31Z</time>
      </trkpt>
      <trkpt lat="45.65506" lon="6.64383">
        <ele>1904.3</ele>
        <time>2017-09-28T09:49:39Z</time>
      </trkpt>
      <trkpt lat="45.65496" lon="6.64388">
        <ele>1906.2</ele>
        <time>2017-09-28T09:49:47Z</time>
      </trkpt>
      <trkpt lat="45.65488" lon="6.64397">
        <ele>1908</ele>
        <time>2017-09-28T09:49:55Z</time>
      </trkpt>
      <trkpt lat="45.6548" lon="6.64405">
        <ele>1909.7</ele>
        <time>2017-09-28T09:50:03Z</time>
      </trkpt>
      <trkpt lat="45.65472" lon="6.64411">
        <ele>1911.3</ele>
        <time>2017-09-28T09:50:11Z</time>
      </trkpt>
      <trkpt lat="45.65463" lon="6.64419">
        <ele>1912.5</ele>
        <time>2017-09-28T09:50:18Z</time>
      </trkpt>
      <trkpt lat="45.65456" lon="6.64429">
        <ele>1913.6</ele>
        <time>2017-09-28T09:50:24Z</time>
      </trkpt>
      <trkpt lat="45.65447" lon="6.64437">
        <ele>1914</ele>
        <time>2017-09-28T09:50:30Z</time>
      </trkpt>
      <trkpt lat="45.65437" lon="6.64436">
        <ele>1914.7</ele>
        <time>2017-09-28T09:50:36Z</time>
      </trkpt>
      <trkpt lat="45.65431" lon="6.64426">
        <ele>1915.3</ele>
        <time>2017-09-28T09:50:42Z</time>
      </trkpt>
      <trkpt lat="45.65421" lon="6.64422">
        <ele>1916.3</ele>
        <time>2017-09-28T09:50:49Z</time>
      </trkpt>
      <trkpt lat="45.65411" lon="6.64421">
        <ele>1917.5</ele>
        <time>2017-09-28T09:50:55Z</time>
      </trkpt>
      <trkpt lat="45.654" lon="6.6442">
        <ele>1919</ele>
        <time>2017-09-28T09:51:02Z</time>
      </trkpt>
      <trkpt lat="45.65391" lon="6.6442">
        <ele>1920.2</ele>
        <time>2017-09-28T09:51:16Z</time>
      </trkpt>
      <trkpt lat="45.65381" lon="6.64416">
        <ele>1921.5</ele>
        <time>2017-09-28T09:52:29Z</time>
      </trkpt>
      <trkpt lat="45.65371" lon="6.6442">
        <ele>1922.2</ele>
        <time>2017-09-28T09:52:35Z</time>
      </trkpt>
      <trkpt lat="45.65362" lon="6.64424">
        <ele>1923</ele>
        <time>2017-09-28T09:52:41Z</time>
      </trkpt>
      <trkpt lat="45.65351" lon="6.64425">
        <ele>1923.8</ele>
        <time>2017-09-28T09:52:47Z</time>
      </trkpt>
      <trkpt lat="45.65343" lon="6.6442">
        <ele>1924.3</ele>
        <time>2017-09-28T09:52:52Z</time>
      </trkpt>
      <trkpt lat="45.65337" lon="6.64408">
        <ele>1925.1</ele>
        <time>2017-09-28T09:52:58Z</time>
      </trkpt>
      <trkpt lat="45.6533" lon="6.644">
        <ele>1926.6</ele>
        <time>2017-09-28T09:53:04Z</time>
      </trkpt>
      <trkpt lat="45.6532" lon="6.64399">
        <ele>1928.1</ele>
        <time>2017-09-28T09:53:10Z</time>
      </trkpt>
      <trkpt lat="45.65311" lon="6.64398">
        <ele>1929.4</ele>
        <time>2017-09-28T09:53:17Z</time>
      </trkpt>
      <trkpt lat="45.65302" lon="6.64395">
        <ele>1930.3</ele>
        <time>2017-09-28T09:53:23Z</time>
      </trkpt>
      <trkpt lat="45.65292" lon="6.64392">
        <ele>1931</ele>
        <time>2017-09-28T09:53:29Z</time>
      </trkpt>
      <trkpt lat="45.65283" lon="6.64389">
        <ele>1931.5</ele>
        <time>2017-09-28T09:53:34Z</time>
      </trkpt>
      <trkpt lat="45.65274" lon="6.64386">
        <ele>1931.4</ele>
        <time>2017-09-28T09:53:39Z</time>
      </trkpt>
      <trkpt lat="45.65265" lon="6.64378">
        <ele>1930.8</ele>
        <time>2017-09-28T09:53:48Z</time>
      </trkpt>
      <trkpt lat="45.65264" lon="6.64364">
        <ele>1931.1</ele>
        <time>2017-09-28T09:53:54Z</time>
      </trkpt>
      <trkpt lat="45.6526" lon="6.6435">
        <ele>1932.5</ele>
        <time>2017-09-28T09:54:01Z</time>
      </trkpt>
      <trkpt lat="45.65254" lon="6.64341">
        <ele>1933.8</ele>
        <time>2017-09-28T09:54:08Z</time>
      </trkpt>
      <trkpt lat="45.65249" lon="6.6433">
        <ele>1935.4</ele>
        <time>2017-09-28T09:54:15Z</time>
      </trkpt>
      <trkpt lat="45.65244" lon="6.64318">
        <ele>1937.4</ele>
        <time>2017-09-28T09:54:23Z</time>
      </trkpt>
      <trkpt lat="45.6524" lon="6.64306">
        <ele>1939.3</ele>
        <time>2017-09-28T09:54:31Z</time>
      </trkpt>
      <trkpt lat="45.65235" lon="6.64294">
        <ele>1941.2</ele>
        <time>2017-09-28T09:54:39Z</time>
      </trkpt>
      <trkpt lat="45.65231" lon="6.64281">
        <ele>1943.3</ele>
        <time>2017-09-28T09:54:47Z</time>
      </trkpt>
      <trkpt lat="45.65224" lon="6.64271">
        <ele>1945.3</ele>
        <time>2017-09-28T09:54:56Z</time>
      </trkpt>
      <trkpt lat="45.65217" lon="6.64264">
        <ele>1947</ele>
        <time>2017-09-28T09:55:04Z</time>
      </trkpt>
      <trkpt lat="45.65208" lon="6.64258">
        <ele>1949</ele>
        <time>2017-09-28T09:55:12Z</time>
      </trkpt>
      <trkpt lat="45.652" lon="6.64252">
        <ele>1950.9</ele>
        <time>2017-09-28T09:55:21Z</time>
      </trkpt>
      <trkpt lat="45.65193" lon="6.64245">
        <ele>1952.9</ele>
        <time>2017-09-28T09:55:30Z</time>
      </trkpt>
      <trkpt lat="45.65186" lon="6.64235">
        <ele>1955.1</ele>
        <time>2017-09-28T09:55:39Z</time>
      </trkpt>
      <trkpt lat="45.65177" lon="6.64229">
        <ele>1956.9</ele>
        <time>2017-09-28T09:55:48Z</time>
      </trkpt>
      <trkpt lat="45.65171" lon="6.64219">
        <ele>1958.4</ele>
        <time>2017-09-28T09:55:56Z</time>
      </trkpt>
      <trkpt lat="45.65162" lon="6.64212">
        <ele>1960.2</ele>
        <time>2017-09-28T09:56:05Z</time>
      </trkpt>
      <trkpt lat="45.65153" lon="6.64207">
        <ele>1962.1</ele>
        <time>2017-09-28T09:56:13Z</time>
      </trkpt>
      <trkpt lat="45.65144" lon="6.64203">
        <ele>1964</ele>
        <time>2017-09-28T09:56:22Z</time>
      </trkpt>
      <trkpt lat="45.65137" lon="6.64194">
        <ele>1965.4</ele>
        <time>2017-09-28T09:56:30Z</time>
      </trkpt>
      <trkpt lat="45.65131" lon="6.64182">
        <ele>1966.7</ele>
        <time>2017-09-28T09:56:39Z</time>
      </trkpt>
      <trkpt lat="45.65126" lon="6.64171">
        <ele>1967.4</ele>
        <time>2017-09-28T09:56:45Z</time>
      </trkpt>
      <trkpt lat="45.65125" lon="6.64158">
        <ele>1968.2</ele>
        <time>2017-09-28T09:56:51Z</time>
      </trkpt>
      <trkpt lat="45.65116" lon="6.64152">
        <ele>1969</ele>
        <time>2017-09-28T09:56:58Z</time>
      </trkpt>
      <trkpt lat="45.65116" lon="6.64166">
        <ele>1970</ele>
        <time>2017-09-28T09:57:05Z</time>
      </trkpt>
      <trkpt lat="45.65117" lon="6.64179">
        <ele>1971.1</ele>
        <time>2017-09-28T09:57:11Z</time>
      </trkpt>
      <trkpt lat="45.65109" lon="6.64186">
        <ele>1972.2</ele>
        <time>2017-09-28T09:57:19Z</time>
      </trkpt>
      <trkpt lat="45.65107" lon="6.64172">
        <ele>1973.2</ele>
        <time>2017-09-28T09:57:26Z</time>
      </trkpt>
      <trkpt lat="45.65105" lon="6.64158">
        <ele>1974.6</ele>
        <time>2017-09-28T09:57:33Z</time>
      </trkpt>
      <trkpt lat="45.651" lon="6.64146">
        <ele>1975.9</ele>
        <time>2017-09-28T09:57:40Z</time>
      </trkpt>
      <trkpt lat="45.65093" lon="6.64137">
        <ele>1977.5</ele>
        <time>2017-09-28T09:57:48Z</time>
      </trkpt>
      <trkpt lat="45.65083" lon="6.64135">
        <ele>1979.3</ele>
        <time>2017-09-28T09:57:57Z</time>
      </trkpt>
      <trkpt lat="45.65074" lon="6.64137">
        <ele>1980.7</ele>
        <time>2017-09-28T09:58:05Z</time>
      </trkpt>
      <trkpt lat="45.65065" lon="6.64141">
        <ele>1982.1</ele>
        <time>2017-09-28T09:58:13Z</time>
      </trkpt>
      <trkpt lat="45.65057" lon="6.64147">
        <ele>1983.5</ele>
        <time>2017-09-28T09:58:20Z</time>
      </trkpt>
      <trkpt lat="45.65049" lon="6.64154">
        <ele>1984.9</ele>
        <time>2017-09-28T09:58:27Z</time>
      </trkpt>
      <trkpt lat="45.6504" lon="6.6416">
        <ele>1986.2</ele>
        <time>2017-09-28T09:58:35Z</time>
      </trkpt>
      <trkpt lat="45.65033" lon="6.64171">
        <ele>1987.5</ele>
        <time>2017-09-28T09:58:43Z</time>
      </trkpt>
      <trkpt lat="45.65026" lon="6.64178">
        <ele>1988.8</ele>
        <time>2017-09-28T09:58:50Z</time>
      </trkpt>
      <trkpt lat="45.65017" lon="6.64184">
        <ele>1990.3</ele>
        <time>2017-09-28T09:58:58Z</time>
      </trkpt>
      <trkpt lat="45.65009" lon="6.64188">
        <ele>1991.8</ele>
        <time>2017-09-28T09:59:05Z</time>
      </trkpt>
      <trkpt lat="45.65" lon="6.64195">
        <ele>1993.3</ele>
        <time>2017-09-28T09:59:13Z</time>
      </trkpt>
      <trkpt lat="45.64991" lon="6.642">
        <ele>1995</ele>
        <time>2017-09-28T09:59:21Z</time>
      </trkpt>
      <trkpt lat="45.64982" lon="6.64201">
        <ele>1996.4</ele>
        <time>2017-09-28T09:59:28Z</time>
      </trkpt>
      <trkpt lat="45.64974" lon="6.64206">
        <ele>1998</ele>
        <time>2017-09-28T09:59:35Z</time>
      </trkpt>
      <trkpt lat="45.64976" lon="6.6422">
        <ele>1999.3</ele>
        <time>2017-09-28T09:59:43Z</time>
      </trkpt>
      <trkpt lat="45.64984" lon="6.64227">
        <ele>2000.4</ele>
        <time>2017-09-28T09:59:50Z</time>
      </trkpt>
      <trkpt lat="45.64984" lon="6.64241">
        <ele>2001.9</ele>
        <time>2017-09-28T09:59:58Z</time>
      </trkpt>
      <trkpt lat="45.64977" lon="6.6425">
        <ele>2003.1</ele>
        <time>2017-09-28T10:00:05Z</time>
      </trkpt>
      <trkpt lat="45.64967" lon="6.64254">
        <ele>2003.6</ele>
        <time>2017-09-28T10:00:11Z</time>
      </trkpt>
      <trkpt lat="45.64957" lon="6.64257">
        <ele>2004.3</ele>
        <time>2017-09-28T10:00:17Z</time>
      </trkpt>
      <trkpt lat="45.64948" lon="6.64251">
        <ele>2005.1</ele>
        <time>2017-09-28T10:00:23Z</time>
      </trkpt>
      <trkpt lat="45.64939" lon="6.64244">
        <ele>2006</ele>
        <time>2017-09-28T10:00:29Z</time>
      </trkpt>
      <trkpt lat="45.64932" lon="6.64236">
        <ele>2006.6</ele>
        <time>2017-09-28T10:00:34Z</time>
      </trkpt>
      <trkpt lat="45.64924" lon="6.64228">
        <ele>2006.8</ele>
        <time>2017-09-28T10:00:40Z</time>
      </trkpt>
      <trkpt lat="45.64916" lon="6.64221">
        <ele>2007.2</ele>
        <time>2017-09-28T10:00:46Z</time>
      </trkpt>
      <trkpt lat="45.64907" lon="6.64214">
        <ele>2008.1</ele>
        <time>2017-09-28T10:00:53Z</time>
      </trkpt>
      <trkpt lat="45.64899" lon="6.6421">
        <ele>2009.1</ele>
        <time>2017-09-28T10:00:59Z</time>
      </trkpt>
      <trkpt lat="45.6489" lon="6.64203">
        <ele>2009.9</ele>
        <time>2017-09-28T10:01:05Z</time>
      </trkpt>
      <trkpt lat="45.64881" lon="6.64199">
        <ele>2011.1</ele>
        <time>2017-09-28T10:01:12Z</time>
      </trkpt>
      <trkpt lat="45.64872" lon="6.64191">
        <ele>2012.5</ele>
        <time>2017-09-28T10:01:19Z</time>
      </trkpt>
      <trkpt lat="45.64863" lon="6.64186">
        <ele>2014.1</ele>
        <time>2017-09-28T10:01:26Z</time>
      </trkpt>
      <trkpt lat="45.64855" lon="6.64177">
        <ele>2015.7</ele>
        <time>2017-09-28T10:01:33Z</time>
      </trkpt>
      <trkpt lat="45.64847" lon="6.6417">
        <ele>2017.6</ele>
        <time>2017-09-28T10:01:40Z</time>
      </trkpt>
      <trkpt lat="45.64839" lon="6.64162">
        <ele>2018.8</ele>
        <time>2017-09-28T10:01:46Z</time>
      </trkpt>
      <trkpt lat="45.64829" lon="6.64157">
        <ele>2020.1</ele>
        <time>2017-09-28T10:01:53Z</time>
      </trkpt>
      <trkpt lat="45.6482" lon="6.64153">
        <ele>2020.9</ele>
        <time>2017-09-28T10:01:59Z</time>
      </trkpt>
      <trkpt lat="45.64812" lon="6.64146">
        <ele>2021.4</ele>
        <time>2017-09-28T10:02:05Z</time>
      </trkpt>
      <trkpt lat="45.64803" lon="6.6414">
        <ele>2022</ele>
        <time>2017-09-28T10:02:11Z</time>
      </trkpt>
      <trkpt lat="45.64793" lon="6.64141">
        <ele>2022.5</ele>
        <time>2017-09-28T10:02:17Z</time>
      </trkpt>
      <trkpt lat="45.64784" lon="6.64136">
        <ele>2023</ele>
        <time>2017-09-28T10:02:23Z</time>
      </trkpt>
      <trkpt lat="45.64776" lon="6.64128">
        <ele>2023.9</ele>
        <time>2017-09-28T10:02:29Z</time>
      </trkpt>
      <trkpt lat="45.64768" lon="6.64121">
        <ele>2024.6</ele>
        <time>2017-09-28T10:02:35Z</time>
      </trkpt>
      <trkpt lat="45.6476" lon="6.64113">
        <ele>2025.2</ele>
        <time>2017-09-28T10:02:40Z</time>
      </trkpt>
      <trkpt lat="45.64752" lon="6.64103">
        <ele>2025.5</ele>
        <time>2017-09-28T10:02:45Z</time>
      </trkpt>
      <trkpt lat="45.64746" lon="6.64094">
        <ele>2025.7</ele>
        <time>2017-09-28T10:02:49Z</time>
      </trkpt>
      <trkpt lat="45.64739" lon="6.64083">
        <ele>2026</ele>
        <time>2017-09-28T10:02:53Z</time>
      </trkpt>
      <trkpt lat="45.64733" lon="6.6407">
        <ele>2026.3</ele>
        <time>2017-09-28T10:02:58Z</time>
      </trkpt>
      <trkpt lat="45.64728" lon="6.64056">
        <ele>2026.8</ele>
        <time>2017-09-28T10:03:03Z</time>
      </trkpt>
      <trkpt lat="45.64723" lon="6.64042">
        <ele>2027.3</ele>
        <time>2017-09-28T10:03:08Z</time>
      </trkpt>
      <trkpt lat="45.64716" lon="6.64033">
        <ele>2027.6</ele>
        <time>2017-09-28T10:03:12Z</time>
      </trkpt>
      <trkpt lat="45.64709" lon="6.64025">
        <ele>2027.1</ele>
        <time>2017-09-28T10:03:32Z</time>
      </trkpt>
      <trkpt lat="45.64704" lon="6.64014">
        <ele>2027.3</ele>
        <time>2017-09-28T10:06:22Z</time>
      </trkpt>
      <trkpt lat="45.64698" lon="6.64003">
        <ele>2027</ele>
        <time>2017-09-28T10:06:25Z</time>
      </trkpt>
      <trkpt lat="45.64693" lon="6.6399">
        <ele>2026.1</ele>
        <time>2017-09-28T10:06:31Z</time>
      </trkpt>
      <trkpt lat="45.64691" lon="6.63977">
        <ele>2025.7</ele>
        <time>2017-09-28T10:06:38Z</time>
      </trkpt>
      <trkpt lat="45.64696" lon="6.63966">
        <ele>2026.3</ele>
        <time>2017-09-28T10:06:44Z</time>
      </trkpt>
      <trkpt lat="45.64704" lon="6.6396">
        <ele>2027.2</ele>
        <time>2017-09-28T10:06:50Z</time>
      </trkpt>
      <trkpt lat="45.64713" lon="6.63955">
        <ele>2028.6</ele>
        <time>2017-09-28T10:06:57Z</time>
      </trkpt>
      <trkpt lat="45.64723" lon="6.6395">
        <ele>2029.8</ele>
        <time>2017-09-28T10:07:04Z</time>
      </trkpt>
      <trkpt lat="45.6473" lon="6.63942">
        <ele>2031.2</ele>
        <time>2017-09-28T10:07:11Z</time>
      </trkpt>
      <trkpt lat="45.64738" lon="6.63934">
        <ele>2032.7</ele>
        <time>2017-09-28T10:07:18Z</time>
      </trkpt>
      <trkpt lat="45.64743" lon="6.63922">
        <ele>2034.4</ele>
        <time>2017-09-28T10:07:26Z</time>
      </trkpt>
      <trkpt lat="45.64749" lon="6.63912">
        <ele>2036.1</ele>
        <time>2017-09-28T10:07:34Z</time>
      </trkpt>
      <trkpt lat="45.64754" lon="6.63901">
        <ele>2037.2</ele>
        <time>2017-09-28T10:07:41Z</time>
      </trkpt>
      <trkpt lat="45.64757" lon="6.63887">
        <ele>2038.6</ele>
        <time>2017-09-28T10:07:49Z</time>
      </trkpt>
      <trkpt lat="45.64757" lon="6.63874">
        <ele>2039.6</ele>
        <time>2017-09-28T10:07:56Z</time>
      </trkpt>
      <trkpt lat="45.64754" lon="6.6386">
        <ele>2040.6</ele>
        <time>2017-09-28T10:08:03Z</time>
      </trkpt>
      <trkpt lat="45.64753" lon="6.63846">
        <ele>2041.4</ele>
        <time>2017-09-28T10:08:10Z</time>
      </trkpt>
      <trkpt lat="45.64761" lon="6.63836">
        <ele>2041.8</ele>
        <time>2017-09-28T10:08:16Z</time>
      </trkpt>
      <trkpt lat="45.6477" lon="6.63837">
        <ele>2042.3</ele>
        <time>2017-09-28T10:08:22Z</time>
      </trkpt>
      <trkpt lat="45.64779" lon="6.63842">
        <ele>2043.4</ele>
        <time>2017-09-28T10:08:29Z</time>
      </trkpt>
      <trkpt lat="45.6479" lon="6.63843">
        <ele>2044.4</ele>
        <time>2017-09-28T10:08:36Z</time>
      </trkpt>
      <trkpt lat="45.64798" lon="6.63837">
        <ele>2045.6</ele>
        <time>2017-09-28T10:08:43Z</time>
      </trkpt>
      <trkpt lat="45.64807" lon="6.63832">
        <ele>2046.7</ele>
        <time>2017-09-28T10:08:49Z</time>
      </trkpt>
      <trkpt lat="45.64813" lon="6.63821">
        <ele>2047.9</ele>
        <time>2017-09-28T10:08:56Z</time>
      </trkpt>
      <trkpt lat="45.6482" lon="6.63813">
        <ele>2048.6</ele>
        <time>2017-09-28T10:09:02Z</time>
      </trkpt>
      <trkpt lat="45.64828" lon="6.63804">
        <ele>2048.9</ele>
        <time>2017-09-28T10:09:08Z</time>
      </trkpt>
      <trkpt lat="45.64837" lon="6.63798">
        <ele>2049.1</ele>
        <time>2017-09-28T10:09:13Z</time>
      </trkpt>
      <trkpt lat="45.64845" lon="6.63793">
        <ele>2049.5</ele>
        <time>2017-09-28T10:09:19Z</time>
      </trkpt>
      <trkpt lat="45.64852" lon="6.63784">
        <ele>2050</ele>
        <time>2017-09-28T10:09:25Z</time>
      </trkpt>
      <trkpt lat="45.64845" lon="6.63774">
        <ele>2050.8</ele>
        <time>2017-09-28T10:09:31Z</time>
      </trkpt>
      <trkpt lat="45.64835" lon="6.63771">
        <ele>2051.8</ele>
        <time>2017-09-28T10:09:37Z</time>
      </trkpt>
      <trkpt lat="45.64826" lon="6.63765">
        <ele>2053.3</ele>
        <time>2017-09-28T10:09:44Z</time>
      </trkpt>
      <trkpt lat="45.64818" lon="6.63757">
        <ele>2054.5</ele>
        <time>2017-09-28T10:09:50Z</time>
      </trkpt>
      <trkpt lat="45.64812" lon="6.63747">
        <ele>2056.1</ele>
        <time>2017-09-28T10:09:58Z</time>
      </trkpt>
      <trkpt lat="45.64805" lon="6.63738">
        <ele>2057.5</ele>
        <time>2017-09-28T10:10:05Z</time>
      </trkpt>
      <trkpt lat="45.64798" lon="6.6373">
        <ele>2058.9</ele>
        <time>2017-09-28T10:10:12Z</time>
      </trkpt>
      <trkpt lat="45.6479" lon="6.63723">
        <ele>2060.1</ele>
        <time>2017-09-28T10:10:19Z</time>
      </trkpt>
      <trkpt lat="45.64784" lon="6.63713">
        <ele>2061.6</ele>
        <time>2017-09-28T10:10:27Z</time>
      </trkpt>
      <trkpt lat="45.64775" lon="6.63707">
        <ele>2063.1</ele>
        <time>2017-09-28T10:10:35Z</time>
      </trkpt>
      <trkpt lat="45.64767" lon="6.63699">
        <ele>2064.7</ele>
        <time>2017-09-28T10:10:43Z</time>
      </trkpt>
      <trkpt lat="45.64759" lon="6.63693">
        <ele>2066.3</ele>
        <time>2017-09-28T10:10:51Z</time>
      </trkpt>
      <trkpt lat="45.64751" lon="6.63684">
        <ele>2067.6</ele>
        <time>2017-09-28T10:10:58Z</time>
      </trkpt>
      <trkpt lat="45.64742" lon="6.63682">
        <ele>2068.8</ele>
        <time>2017-09-28T10:11:05Z</time>
      </trkpt>
      <trkpt lat="45.64732" lon="6.63683">
        <ele>2070.1</ele>
        <time>2017-09-28T10:11:13Z</time>
      </trkpt>
      <trkpt lat="45.64722" lon="6.63678">
        <ele>2072</ele>
        <time>2017-09-28T10:11:21Z</time>
      </trkpt>
      <trkpt lat="45.64714" lon="6.63671">
        <ele>2073.6</ele>
        <time>2017-09-28T10:11:29Z</time>
      </trkpt>
      <trkpt lat="45.64707" lon="6.63661">
        <ele>2075.1</ele>
        <time>2017-09-28T10:11:37Z</time>
      </trkpt>
      <trkpt lat="45.64702" lon="6.63651">
        <ele>2076.3</ele>
        <time>2017-09-28T10:11:44Z</time>
      </trkpt>
      <trkpt lat="45.64698" lon="6.63639">
        <ele>2077.3</ele>
        <time>2017-09-28T10:11:51Z</time>
      </trkpt>
      <trkpt lat="45.64691" lon="6.63629">
        <ele>2078.5</ele>
        <time>2017-09-28T10:11:59Z</time>
      </trkpt>
      <trkpt lat="45.64685" lon="6.63619">
        <ele>2079.6</ele>
        <time>2017-09-28T10:12:06Z</time>
      </trkpt>
      <trkpt lat="45.64677" lon="6.6361">
        <ele>2080.9</ele>
        <time>2017-09-28T10:12:14Z</time>
      </trkpt>
      <trkpt lat="45.6467" lon="6.63601">
        <ele>2082.1</ele>
        <time>2017-09-28T10:12:21Z</time>
      </trkpt>
      <trkpt lat="45.64663" lon="6.63592">
        <ele>2083.2</ele>
        <time>2017-09-28T10:12:28Z</time>
      </trkpt>
      <trkpt lat="45.64657" lon="6.63583">
        <ele>2084.6</ele>
        <time>2017-09-28T10:12:35Z</time>
      </trkpt>
      <trkpt lat="45.64649" lon="6.63576">
        <ele>2085.8</ele>
        <time>2017-09-28T10:12:42Z</time>
      </trkpt>
      <trkpt lat="45.64641" lon="6.63567">
        <ele>2087</ele>
        <time>2017-09-28T10:12:49Z</time>
      </trkpt>
      <trkpt lat="45.64633" lon="6.6356">
        <ele>2088.7</ele>
        <time>2017-09-28T10:12:57Z</time>
      </trkpt>
      <trkpt lat="45.64625" lon="6.63552">
        <ele>2090.1</ele>
        <time>2017-09-28T10:13:04Z</time>
      </trkpt>
      <trkpt lat="45.64619" lon="6.63543">
        <ele>2091.5</ele>
        <time>2017-09-28T10:13:11Z</time>
      </trkpt>
      <trkpt lat="45.64611" lon="6.63535">
        <ele>2092.9</ele>
        <time>2017-09-28T10:13:18Z</time>
      </trkpt>
      <trkpt lat="45.64604" lon="6.63525">
        <ele>2094</ele>
        <time>2017-09-28T10:13:25Z</time>
      </trkpt>
      <trkpt lat="45.64597" lon="6.63515">
        <ele>2095.4</ele>
        <time>2017-09-28T10:13:32Z</time>
      </trkpt>
      <trkpt lat="45.64589" lon="6.63506">
        <ele>2096.8</ele>
        <time>2017-09-28T10:13:40Z</time>
      </trkpt>
      <trkpt lat="45.6458" lon="6.63501">
        <ele>2098.2</ele>
        <time>2017-09-28T10:13:47Z</time>
      </trkpt>
      <trkpt lat="45.64572" lon="6.63495">
        <ele>2099.5</ele>
        <time>2017-09-28T10:13:54Z</time>
      </trkpt>
      <trkpt lat="45.64565" lon="6.63485">
        <ele>2100.7</ele>
        <time>2017-09-28T10:14:01Z</time>
      </trkpt>
      <trkpt lat="45.6456" lon="6.63474">
        <ele>2101.4</ele>
        <time>2017-09-28T10:14:07Z</time>
      </trkpt>
      <trkpt lat="45.64554" lon="6.63462">
        <ele>2101.9</ele>
        <time>2017-09-28T10:14:13Z</time>
      </trkpt>
      <trkpt lat="45.64548" lon="6.63452">
        <ele>2102.4</ele>
        <time>2017-09-28T10:14:18Z</time>
      </trkpt>
      <trkpt lat="45.64542" lon="6.63443">
        <ele>2102.9</ele>
        <time>2017-09-28T10:14:23Z</time>
      </trkpt>
      <trkpt lat="45.64535" lon="6.63435">
        <ele>2103.3</ele>
        <time>2017-09-28T10:14:28Z</time>
      </trkpt>
      <trkpt lat="45.64526" lon="6.63426">
        <ele>2103.9</ele>
        <time>2017-09-28T10:14:34Z</time>
      </trkpt>
      <trkpt lat="45.64519" lon="6.6342">
        <ele>2104.4</ele>
        <time>2017-09-28T10:14:39Z</time>
      </trkpt>
      <trkpt lat="45.64508" lon="6.63419">
        <ele>2104.6</ele>
        <time>2017-09-28T10:14:44Z</time>
      </trkpt>
      <trkpt lat="45.645" lon="6.63428">
        <ele>2105.2</ele>
        <time>2017-09-28T10:14:50Z</time>
      </trkpt>
      <trkpt lat="45.64492" lon="6.63435">
        <ele>2105.9</ele>
        <time>2017-09-28T10:14:56Z</time>
      </trkpt>
      <trkpt lat="45.64483" lon="6.63438">
        <ele>2106.8</ele>
        <time>2017-09-28T10:15:02Z</time>
      </trkpt>
      <trkpt lat="45.64473" lon="6.63439">
        <ele>2107.8</ele>
        <time>2017-09-28T10:15:08Z</time>
      </trkpt>
      <trkpt lat="45.64462" lon="6.63439">
        <ele>2108.8</ele>
        <time>2017-09-28T10:15:14Z</time>
      </trkpt>
      <trkpt lat="45.64453" lon="6.63437">
        <ele>2109.8</ele>
        <time>2017-09-28T10:15:20Z</time>
      </trkpt>
      <trkpt lat="45.64443" lon="6.63435">
        <ele>2110.8</ele>
        <time>2017-09-28T10:15:26Z</time>
      </trkpt>
      <trkpt lat="45.64432" lon="6.63434">
        <ele>2111.6</ele>
        <time>2017-09-28T10:15:32Z</time>
      </trkpt>
      <trkpt lat="45.64422" lon="6.63438">
        <ele>2112.7</ele>
        <time>2017-09-28T10:15:38Z</time>
      </trkpt>
      <trkpt lat="45.64413" lon="6.63441">
        <ele>2113.6</ele>
        <time>2017-09-28T10:15:43Z</time>
      </trkpt>
      <trkpt lat="45.64403" lon="6.63442">
        <ele>2114.3</ele>
        <time>2017-09-28T10:15:49Z</time>
      </trkpt>
      <trkpt lat="45.64393" lon="6.63445">
        <ele>2115.4</ele>
        <time>2017-09-28T10:15:56Z</time>
      </trkpt>
      <trkpt lat="45.64383" lon="6.63447">
        <ele>2116.2</ele>
        <time>2017-09-28T10:16:02Z</time>
      </trkpt>
      <trkpt lat="45.64373" lon="6.6345">
        <ele>2117.2</ele>
        <time>2017-09-28T10:16:08Z</time>
      </trkpt>
      <trkpt lat="45.64363" lon="6.63451">
        <ele>2118.3</ele>
        <time>2017-09-28T10:16:14Z</time>
      </trkpt>
      <trkpt lat="45.64353" lon="6.63452">
        <ele>2119.2</ele>
        <time>2017-09-28T10:16:20Z</time>
      </trkpt>
      <trkpt lat="45.64344" lon="6.63455">
        <ele>2120.2</ele>
        <time>2017-09-28T10:16:26Z</time>
      </trkpt>
      <trkpt lat="45.64334" lon="6.63456">
        <ele>2121.1</ele>
        <time>2017-09-28T10:16:32Z</time>
      </trkpt>
      <trkpt lat="45.64325" lon="6.63455">
        <ele>2122.1</ele>
        <time>2017-09-28T10:16:38Z</time>
      </trkpt>
      <trkpt lat="45.64315" lon="6.63454">
        <ele>2123.2</ele>
        <time>2017-09-28T10:16:44Z</time>
      </trkpt>
      <trkpt lat="45.64305" lon="6.63449">
        <ele>2124</ele>
        <time>2017-09-28T10:16:50Z</time>
      </trkpt>
      <trkpt lat="45.64294" lon="6.63447">
        <ele>2125</ele>
        <time>2017-09-28T10:16:57Z</time>
      </trkpt>
      <trkpt lat="45.64284" lon="6.63443">
        <ele>2126</ele>
        <time>2017-09-28T10:17:04Z</time>
      </trkpt>
      <trkpt lat="45.64275" lon="6.63443">
        <ele>2126.9</ele>
        <time>2017-09-28T10:17:10Z</time>
      </trkpt>
      <trkpt lat="45.64265" lon="6.63442">
        <ele>2127.8</ele>
        <time>2017-09-28T10:17:16Z</time>
      </trkpt>
      <trkpt lat="45.64255" lon="6.63439">
        <ele>2129</ele>
        <time>2017-09-28T10:17:30Z</time>
      </trkpt>
      <trkpt lat="45.64246" lon="6.63437">
        <ele>2129.6</ele>
        <time>2017-09-28T10:17:36Z</time>
      </trkpt>
      <trkpt lat="45.64236" lon="6.63436">
        <ele>2130.5</ele>
        <time>2017-09-28T10:17:43Z</time>
      </trkpt>
      <trkpt lat="45.64227" lon="6.63431">
        <ele>2131.2</ele>
        <time>2017-09-28T10:17:48Z</time>
      </trkpt>
      <trkpt lat="45.64218" lon="6.63426">
        <ele>2131.8</ele>
        <time>2017-09-28T10:17:53Z</time>
      </trkpt>
      <trkpt lat="45.64209" lon="6.63421">
        <ele>2132.6</ele>
        <time>2017-09-28T10:17:58Z</time>
      </trkpt>
      <trkpt lat="45.642" lon="6.63414">
        <ele>2133.6</ele>
        <time>2017-09-28T10:18:04Z</time>
      </trkpt>
      <trkpt lat="45.64192" lon="6.63406">
        <ele>2134.3</ele>
        <time>2017-09-28T10:18:09Z</time>
      </trkpt>
      <trkpt lat="45.64182" lon="6.634">
        <ele>2134.7</ele>
        <time>2017-09-28T10:18:14Z</time>
      </trkpt>
      <trkpt lat="45.64172" lon="6.63393">
        <ele>2134.6</ele>
        <time>2017-09-28T10:18:20Z</time>
      </trkpt>
      <trkpt lat="45.64169" lon="6.63381">
        <ele>2134.8</ele>
        <time>2017-09-28T10:18:25Z</time>
      </trkpt>
      <trkpt lat="45.6416" lon="6.63371">
        <ele>2135.7</ele>
        <time>2017-09-28T10:18:30Z</time>
      </trkpt>
      <trkpt lat="45.6415" lon="6.63368">
        <ele>2137</ele>
        <time>2017-09-28T10:18:36Z</time>
      </trkpt>
      <trkpt lat="45.64141" lon="6.63363">
        <ele>2138.1</ele>
        <time>2017-09-28T10:18:42Z</time>
      </trkpt>
      <trkpt lat="45.64134" lon="6.63353">
        <ele>2138.9</ele>
        <time>2017-09-28T10:18:49Z</time>
      </trkpt>
      <trkpt lat="45.64126" lon="6.63343">
        <ele>2139.1</ele>
        <time>2017-09-28T10:18:55Z</time>
      </trkpt>
      <trkpt lat="45.64118" lon="6.63336">
        <ele>2139</ele>
        <time>2017-09-28T10:18:59Z</time>
      </trkpt>
      <trkpt lat="45.64109" lon="6.63327">
        <ele>2138.4</ele>
        <time>2017-09-28T10:19:02Z</time>
      </trkpt>
      <trkpt lat="45.64101" lon="6.63319">
        <ele>2137.7</ele>
        <time>2017-09-28T10:19:05Z</time>
      </trkpt>
      <trkpt lat="45.64093" lon="6.63314">
        <ele>2137.2</ele>
        <time>2017-09-28T10:19:09Z</time>
      </trkpt>
      <trkpt lat="45.64083" lon="6.63307">
        <ele>2137</ele>
        <time>2017-09-28T10:19:14Z</time>
      </trkpt>
      <trkpt lat="45.64074" lon="6.63296">
        <ele>2136.8</ele>
        <time>2017-09-28T10:19:18Z</time>
      </trkpt>
      <trkpt lat="45.64064" lon="6.63285">
        <ele>2136.5</ele>
        <time>2017-09-28T10:19:21Z</time>
      </trkpt>
      <trkpt lat="45.64056" lon="6.63279">
        <ele>2136.2</ele>
        <time>2017-09-28T10:19:24Z</time>
      </trkpt>
      <trkpt lat="45.64046" lon="6.63274">
        <ele>2136.2</ele>
        <time>2017-09-28T10:19:28Z</time>
      </trkpt>
      <trkpt lat="45.64037" lon="6.63267">
        <ele>2136.7</ele>
        <time>2017-09-28T10:19:33Z</time>
      </trkpt>
      <trkpt lat="45.64026" lon="6.63265">
        <ele>2137</ele>
        <time>2017-09-28T10:19:38Z</time>
      </trkpt>
      <trkpt lat="45.64015" lon="6.63262">
        <ele>2137.3</ele>
        <time>2017-09-28T10:19:44Z</time>
      </trkpt>
      <trkpt lat="45.64006" lon="6.63257">
        <ele>2137.3</ele>
        <time>2017-09-28T10:19:48Z</time>
      </trkpt>
      <trkpt lat="45.63996" lon="6.6325">
        <ele>2137.2</ele>
        <time>2017-09-28T10:19:53Z</time>
      </trkpt>
      <trkpt lat="45.63986" lon="6.63248">
        <ele>2137.3</ele>
        <time>2017-09-28T10:19:58Z</time>
      </trkpt>
      <trkpt lat="45.63976" lon="6.63246">
        <ele>2138</ele>
        <time>2017-09-28T10:20:04Z</time>
      </trkpt>
      <trkpt lat="45.63967" lon="6.6324">
        <ele>2138.7</ele>
        <time>2017-09-28T10:20:09Z</time>
      </trkpt>
      <trkpt lat="45.63959" lon="6.6323">
        <ele>2138.7</ele>
        <time>2017-09-28T10:20:13Z</time>
      </trkpt>
      <trkpt lat="45.63949" lon="6.63224">
        <ele>2139</ele>
        <time>2017-09-28T10:20:18Z</time>
      </trkpt>
      <trkpt lat="45.63941" lon="6.6322">
        <ele>2141.3</ele>
        <time>2017-09-28T10:24:37Z</time>
      </trkpt>
      <trkpt lat="45.63932" lon="6.63214">
        <ele>2141.7</ele>
        <time>2017-09-28T10:24:42Z</time>
      </trkpt>
      <trkpt lat="45.63922" lon="6.63213">
        <ele>2141.9</ele>
        <time>2017-09-28T10:24:47Z</time>
      </trkpt>
      <trkpt lat="45.63913" lon="6.63208">
        <ele>2142.1</ele>
        <time>2017-09-28T10:24:51Z</time>
      </trkpt>
      <trkpt lat="45.63903" lon="6.63206">
        <ele>2142.7</ele>
        <time>2017-09-28T10:24:57Z</time>
      </trkpt>
      <trkpt lat="45.63894" lon="6.632">
        <ele>2143.5</ele>
        <time>2017-09-28T10:25:03Z</time>
      </trkpt>
      <trkpt lat="45.63885" lon="6.63196">
        <ele>2144.2</ele>
        <time>2017-09-28T10:25:09Z</time>
      </trkpt>
      <trkpt lat="45.63876" lon="6.6319">
        <ele>2144.7</ele>
        <time>2017-09-28T10:25:15Z</time>
      </trkpt>
      <trkpt lat="45.63868" lon="6.63185">
        <ele>2145.2</ele>
        <time>2017-09-28T10:25:21Z</time>
      </trkpt>
      <trkpt lat="45.63858" lon="6.63178">
        <ele>2146.1</ele>
        <time>2017-09-28T10:25:27Z</time>
      </trkpt>
      <trkpt lat="45.63848" lon="6.63173">
        <ele>2146.6</ele>
        <time>2017-09-28T10:25:34Z</time>
      </trkpt>
      <trkpt lat="45.63841" lon="6.63166">
        <ele>2147.4</ele>
        <time>2017-09-28T10:25:40Z</time>
      </trkpt>
      <trkpt lat="45.63832" lon="6.63162">
        <ele>2148.2</ele>
        <time>2017-09-28T10:25:46Z</time>
      </trkpt>
      <trkpt lat="45.63823" lon="6.63157">
        <ele>2149.3</ele>
        <time>2017-09-28T10:25:53Z</time>
      </trkpt>
      <trkpt lat="45.63814" lon="6.63152">
        <ele>2150.7</ele>
        <time>2017-09-28T10:26:34Z</time>
      </trkpt>
      <trkpt lat="45.63806" lon="6.63145">
        <ele>2151.6</ele>
        <time>2017-09-28T10:26:40Z</time>
      </trkpt>
      <trkpt lat="45.638" lon="6.63134">
        <ele>2153.4</ele>
        <time>2017-09-28T10:26:50Z</time>
      </trkpt>
      <trkpt lat="45.63805" lon="6.63123">
        <ele>2154.3</ele>
        <time>2017-09-28T10:26:56Z</time>
      </trkpt>
      <trkpt lat="45.63814" lon="6.63118">
        <ele>2154.9</ele>
        <time>2017-09-28T10:27:02Z</time>
      </trkpt>
      <trkpt lat="45.63822" lon="6.63112">
        <ele>2155.6</ele>
        <time>2017-09-28T10:27:08Z</time>
      </trkpt>
      <trkpt lat="45.63831" lon="6.63103">
        <ele>2156.7</ele>
        <time>2017-09-28T10:27:15Z</time>
      </trkpt>
      <trkpt lat="45.63836" lon="6.6309">
        <ele>2158</ele>
        <time>2017-09-28T10:27:23Z</time>
      </trkpt>
      <trkpt lat="45.63841" lon="6.63078">
        <ele>2158.5</ele>
        <time>2017-09-28T10:27:30Z</time>
      </trkpt>
      <trkpt lat="45.63846" lon="6.63068">
        <ele>2159.6</ele>
        <time>2017-09-28T10:27:37Z</time>
      </trkpt>
      <trkpt lat="45.63843" lon="6.63055">
        <ele>2160.5</ele>
        <time>2017-09-28T10:27:43Z</time>
      </trkpt>
      <trkpt lat="45.63837" lon="6.63045">
        <ele>2161.7</ele>
        <time>2017-09-28T10:27:50Z</time>
      </trkpt>
      <trkpt lat="45.63831" lon="6.63034">
        <ele>2163.2</ele>
        <time>2017-09-28T10:27:58Z</time>
      </trkpt>
      <trkpt lat="45.63825" lon="6.63023">
        <ele>2164.6</ele>
        <time>2017-09-28T10:28:06Z</time>
      </trkpt>
      <trkpt lat="45.63818" lon="6.63013">
        <ele>2165.8</ele>
        <time>2017-09-28T10:28:14Z</time>
      </trkpt>
      <trkpt lat="45.63812" lon="6.63003">
        <ele>2167</ele>
        <time>2017-09-28T10:28:21Z</time>
      </trkpt>
      <trkpt lat="45.63804" lon="6.62995">
        <ele>2168.6</ele>
        <time>2017-09-28T10:28:29Z</time>
      </trkpt>
      <trkpt lat="45.63796" lon="6.62986">
        <ele>2170.1</ele>
        <time>2017-09-28T10:28:37Z</time>
      </trkpt>
      <trkpt lat="45.63788" lon="6.62978">
        <ele>2171.8</ele>
        <time>2017-09-28T10:28:45Z</time>
      </trkpt>
      <trkpt lat="45.63781" lon="6.62968">
        <ele>2173.8</ele>
        <time>2017-09-28T10:28:54Z</time>
      </trkpt>
      <trkpt lat="45.63771" lon="6.62962">
        <ele>2176.2</ele>
        <time>2017-09-28T10:29:03Z</time>
      </trkpt>
      <trkpt lat="45.63764" lon="6.62953">
        <ele>2178.4</ele>
        <time>2017-09-28T10:29:11Z</time>
      </trkpt>
      <trkpt lat="45.63757" lon="6.62944">
        <ele>2180.5</ele>
        <time>2017-09-28T10:29:19Z</time>
      </trkpt>
      <trkpt lat="45.63748" lon="6.62937">
        <ele>2182.5</ele>
        <time>2017-09-28T10:29:28Z</time>
      </trkpt>
      <trkpt lat="45.63741" lon="6.6293">
        <ele>2184.8</ele>
        <time>2017-09-28T10:29:38Z</time>
      </trkpt>
      <trkpt lat="45.63737" lon="6.62943">
        <ele>2186.2</ele>
        <time>2017-09-28T10:29:47Z</time>
      </trkpt>
      <trkpt lat="45.63735" lon="6.62956">
        <ele>2187.3</ele>
        <time>2017-09-28T10:29:55Z</time>
      </trkpt>
      <trkpt lat="45.63731" lon="6.62969">
        <ele>2188.7</ele>
        <time>2017-09-28T10:30:04Z</time>
      </trkpt>
      <trkpt lat="45.63721" lon="6.62969">
        <ele>2189.7</ele>
        <time>2017-09-28T10:30:12Z</time>
      </trkpt>
      <trkpt lat="45.63712" lon="6.62967">
        <ele>2189.7</ele>
        <time>2017-09-28T10:30:17Z</time>
      </trkpt>
      <trkpt lat="45.63702" lon="6.62965">
        <ele>2190.2</ele>
        <time>2017-09-28T10:30:24Z</time>
      </trkpt>
      <trkpt lat="45.63692" lon="6.62963">
        <ele>2191.4</ele>
        <time>2017-09-28T10:30:31Z</time>
      </trkpt>
      <trkpt lat="45.63683" lon="6.62959">
        <ele>2192.7</ele>
        <time>2017-09-28T10:30:39Z</time>
      </trkpt>
      <trkpt lat="45.63675" lon="6.62952">
        <ele>2194.1</ele>
        <time>2017-09-28T10:30:47Z</time>
      </trkpt>
      <trkpt lat="45.63665" lon="6.62949">
        <ele>2195.5</ele>
        <time>2017-09-28T10:30:54Z</time>
      </trkpt>
      <trkpt lat="45.63656" lon="6.62946">
        <ele>2196.6</ele>
        <time>2017-09-28T10:31:01Z</time>
      </trkpt>
      <trkpt lat="45.63647" lon="6.62939">
        <ele>2197.9</ele>
        <time>2017-09-28T10:31:09Z</time>
      </trkpt>
      <trkpt lat="45.63639" lon="6.6293">
        <ele>2200</ele>
        <time>2017-09-28T10:31:18Z</time>
      </trkpt>
      <trkpt lat="45.6363" lon="6.62927">
        <ele>2201.8</ele>
        <time>2017-09-28T10:31:25Z</time>
      </trkpt>
      <trkpt lat="45.63621" lon="6.62924">
        <ele>2203.2</ele>
        <time>2017-09-28T10:31:32Z</time>
      </trkpt>
      <trkpt lat="45.63612" lon="6.62922">
        <ele>2204.4</ele>
        <time>2017-09-28T10:31:39Z</time>
      </trkpt>
      <trkpt lat="45.63602" lon="6.62921">
        <ele>2205.4</ele>
        <time>2017-09-28T10:31:47Z</time>
      </trkpt>
      <trkpt lat="45.63592" lon="6.62919">
        <ele>2206.3</ele>
        <time>2017-09-28T10:31:55Z</time>
      </trkpt>
      <trkpt lat="45.63583" lon="6.62918">
        <ele>2207.5</ele>
        <time>2017-09-28T10:32:03Z</time>
      </trkpt>
      <trkpt lat="45.63573" lon="6.62918">
        <ele>2208.2</ele>
        <time>2017-09-28T10:32:10Z</time>
      </trkpt>
      <trkpt lat="45.63563" lon="6.62917">
        <ele>2208.7</ele>
        <time>2017-09-28T10:32:16Z</time>
      </trkpt>
      <trkpt lat="45.63553" lon="6.62917">
        <ele>2209.3</ele>
        <time>2017-09-28T10:32:23Z</time>
      </trkpt>
      <trkpt lat="45.63546" lon="6.62908">
        <ele>2210</ele>
        <time>2017-09-28T10:32:30Z</time>
      </trkpt>
      <trkpt lat="45.63538" lon="6.62902">
        <ele>2210.3</ele>
        <time>2017-09-28T10:32:35Z</time>
      </trkpt>
      <trkpt lat="45.63529" lon="6.62896">
        <ele>2210.3</ele>
        <time>2017-09-28T10:32:40Z</time>
      </trkpt>
      <trkpt lat="45.6352" lon="6.62889">
        <ele>2210.6</ele>
        <time>2017-09-28T10:32:46Z</time>
      </trkpt>
      <trkpt lat="45.63513" lon="6.62881">
        <ele>2211.8</ele>
        <time>2017-09-28T10:32:53Z</time>
      </trkpt>
      <trkpt lat="45.63505" lon="6.62871">
        <ele>2213.3</ele>
        <time>2017-09-28T10:33:00Z</time>
      </trkpt>
      <trkpt lat="45.63498" lon="6.6286">
        <ele>2214.9</ele>
        <time>2017-09-28T10:33:08Z</time>
      </trkpt>
      <trkpt lat="45.63489" lon="6.62859">
        <ele>2215.7</ele>
        <time>2017-09-28T10:33:14Z</time>
      </trkpt>
      <trkpt lat="45.6348" lon="6.6286">
        <ele>2217.6</ele>
        <time>2017-09-28T10:33:43Z</time>
      </trkpt>
      <trkpt lat="45.63474" lon="6.6285">
        <ele>2220.2</ele>
        <time>2017-09-28T10:34:01Z</time>
      </trkpt>
      <trkpt lat="45.63467" lon="6.62841">
        <ele>2222</ele>
        <time>2017-09-28T10:34:13Z</time>
      </trkpt>
      <trkpt lat="45.63461" lon="6.62832">
        <ele>2223.8</ele>
        <time>2017-09-28T10:34:24Z</time>
      </trkpt>
      <trkpt lat="45.63453" lon="6.62824">
        <ele>2225.3</ele>
        <time>2017-09-28T10:34:34Z</time>
      </trkpt>
      <trkpt lat="45.63448" lon="6.62812">
        <ele>2226.5</ele>
        <time>2017-09-28T10:34:44Z</time>
      </trkpt>
      <trkpt lat="45.63441" lon="6.62805">
        <ele>2227.5</ele>
        <time>2017-09-28T10:34:54Z</time>
      </trkpt>
      <trkpt lat="45.63433" lon="6.62797">
        <ele>2229.5</ele>
        <time>2017-09-28T10:35:07Z</time>
      </trkpt>
      <trkpt lat="45.63427" lon="6.62787">
        <ele>2231.1</ele>
        <time>2017-09-28T10:35:19Z</time>
      </trkpt>
      <trkpt lat="45.63419" lon="6.6278">
        <ele>2233.1</ele>
        <time>2017-09-28T10:35:32Z</time>
      </trkpt>
      <trkpt lat="45.63409" lon="6.62781">
        <ele>2234.9</ele>
        <time>2017-09-28T10:35:43Z</time>
      </trkpt>
      <trkpt lat="45.634" lon="6.62779">
        <ele>2237</ele>
        <time>2017-09-28T10:35:55Z</time>
      </trkpt>
      <trkpt lat="45.63392" lon="6.62774">
        <ele>2238.6</ele>
        <time>2017-09-28T10:36:06Z</time>
      </trkpt>
      <trkpt lat="45.63389" lon="6.62761">
        <ele>2239.7</ele>
        <time>2017-09-28T10:36:15Z</time>
      </trkpt>
      <trkpt lat="45.63383" lon="6.62751">
        <ele>2242.1</ele>
        <time>2017-09-28T10:36:34Z</time>
      </trkpt>
      <trkpt lat="45.63377" lon="6.6274">
        <ele>2244</ele>
        <time>2017-09-28T10:36:45Z</time>
      </trkpt>
      <trkpt lat="45.63374" lon="6.62726">
        <ele>2246.2</ele>
        <time>2017-09-28T10:36:56Z</time>
      </trkpt>
      <trkpt lat="45.63365" lon="6.6272">
        <ele>2248.7</ele>
        <time>2017-09-28T10:37:10Z</time>
      </trkpt>
      <trkpt lat="45.63356" lon="6.62715">
        <ele>2250.5</ele>
        <time>2017-09-28T10:37:20Z</time>
      </trkpt>
      <trkpt lat="45.6335" lon="6.62705">
        <ele>2252.1</ele>
        <time>2017-09-28T10:37:30Z</time>
      </trkpt>
      <trkpt lat="45.63343" lon="6.62697">
        <ele>2254</ele>
        <time>2017-09-28T10:37:45Z</time>
      </trkpt>
      <trkpt lat="45.63334" lon="6.62694">
        <ele>2255.5</ele>
        <time>2017-09-28T10:37:56Z</time>
      </trkpt>
      <trkpt lat="45.63325" lon="6.62689">
        <ele>2257.7</ele>
        <time>2017-09-28T10:38:11Z</time>
      </trkpt>
      <trkpt lat="45.63316" lon="6.62683">
        <ele>2260.2</ele>
        <time>2017-09-28T10:38:25Z</time>
      </trkpt>
      <trkpt lat="45.6331" lon="6.62674">
        <ele>2262.6</ele>
        <time>2017-09-28T10:38:38Z</time>
      </trkpt>
      <trkpt lat="45.63303" lon="6.62666">
        <ele>2264.5</ele>
        <time>2017-09-28T10:38:52Z</time>
      </trkpt>
      <trkpt lat="45.63299" lon="6.62653">
        <ele>2267.4</ele>
        <time>2017-09-28T10:39:08Z</time>
      </trkpt>
      <trkpt lat="45.63291" lon="6.62656">
        <ele>2269.5</ele>
        <time>2017-09-28T10:39:34Z</time>
      </trkpt>
      <trkpt lat="45.63284" lon="6.62646">
        <ele>2271.2</ele>
        <time>2017-09-28T10:39:44Z</time>
      </trkpt>
      <trkpt lat="45.63276" lon="6.6264">
        <ele>2273.5</ele>
        <time>2017-09-28T10:39:58Z</time>
      </trkpt>
      <trkpt lat="45.63267" lon="6.6264">
        <ele>2276.7</ele>
        <time>2017-09-28T10:40:26Z</time>
      </trkpt>
      <trkpt lat="45.63269" lon="6.62627">
        <ele>2279.4</ele>
        <time>2017-09-28T10:41:04Z</time>
      </trkpt>
      <trkpt lat="45.63259" lon="6.62625">
        <ele>2282.1</ele>
        <time>2017-09-28T10:44:08Z</time>
      </trkpt>
      <trkpt lat="45.6325" lon="6.62619">
        <ele>2283.9</ele>
        <time>2017-09-28T10:44:17Z</time>
      </trkpt>
      <trkpt lat="45.63244" lon="6.62609">
        <ele>2288</ele>
        <time>2017-09-28T10:44:35Z</time>
      </trkpt>
      <trkpt lat="45.63237" lon="6.626">
        <ele>2290.5</ele>
        <time>2017-09-28T10:44:48Z</time>
      </trkpt>
      <trkpt lat="45.63227" lon="6.62596">
        <ele>2293.8</ele>
        <time>2017-09-28T10:45:14Z</time>
      </trkpt>
      <trkpt lat="45.6322" lon="6.62588">
        <ele>2297</ele>
        <time>2017-09-28T10:45:30Z</time>
      </trkpt>
      <trkpt lat="45.63212" lon="6.62594">
        <ele>2299.5</ele>
        <time>2017-09-28T10:45:53Z</time>
      </trkpt>
      <trkpt lat="45.63202" lon="6.62591">
        <ele>2300.4</ele>
        <time>2017-09-28T10:46:01Z</time>
      </trkpt>
      <trkpt lat="45.63196" lon="6.62582">
        <ele>2302.9</ele>
        <time>2017-09-28T10:46:15Z</time>
      </trkpt>
      <trkpt lat="45.6319" lon="6.62572">
        <ele>2305</ele>
        <time>2017-09-28T10:46:29Z</time>
      </trkpt>
      <trkpt lat="45.63181" lon="6.62569">
        <ele>2307.6</ele>
        <time>2017-09-28T10:46:46Z</time>
      </trkpt>
      <trkpt lat="45.63172" lon="6.62568">
        <ele>2308.5</ele>
        <time>2017-09-28T10:46:55Z</time>
      </trkpt>
      <trkpt lat="45.63162" lon="6.62566">
        <ele>2309.8</ele>
        <time>2017-09-28T10:47:07Z</time>
      </trkpt>
      <trkpt lat="45.63153" lon="6.62559">
        <ele>2311.5</ele>
        <time>2017-09-28T10:47:18Z</time>
      </trkpt>
      <trkpt lat="45.63145" lon="6.62552">
        <ele>2314.3</ele>
        <time>2017-09-28T10:47:34Z</time>
      </trkpt>
      <trkpt lat="45.63138" lon="6.62544">
        <ele>2317.4</ele>
        <time>2017-09-28T10:47:51Z</time>
      </trkpt>
      <trkpt lat="45.63134" lon="6.62532">
        <ele>2321</ele>
        <time>2017-09-28T10:48:22Z</time>
      </trkpt>
      <trkpt lat="45.63125" lon="6.62529">
        <ele>2322.6</ele>
        <time>2017-09-28T10:48:32Z</time>
      </trkpt>
      <trkpt lat="45.63115" lon="6.6253">
        <ele>2327.3</ele>
        <time>2017-09-28T10:48:55Z</time>
      </trkpt>
      <trkpt lat="45.63109" lon="6.6254">
        <ele>2330.3</ele>
        <time>2017-09-28T10:49:13Z</time>
      </trkpt>
      <trkpt lat="45.63101" lon="6.62547">
        <ele>2332.1</ele>
        <time>2017-09-28T10:49:28Z</time>
      </trkpt>
      <trkpt lat="45.63096" lon="6.62557">
        <ele>2333.9</ele>
        <time>2017-09-28T10:49:41Z</time>
      </trkpt>
      <trkpt lat="45.63087" lon="6.62562">
        <ele>2336.7</ele>
        <time>2017-09-28T10:50:00Z</time>
      </trkpt>
      <trkpt lat="45.63078" lon="6.62567">
        <ele>2339.5</ele>
        <time>2017-09-28T10:50:17Z</time>
      </trkpt>
      <trkpt lat="45.6307" lon="6.62572">
        <ele>2344.9</ele>
        <time>2017-09-28T10:50:53Z</time>
      </trkpt>
      <trkpt lat="45.63063" lon="6.62581">
        <ele>2348.6</ele>
        <time>2017-09-28T10:51:29Z</time>
      </trkpt>
      <trkpt lat="45.63055" lon="6.62588">
        <ele>2352.2</ele>
        <time>2017-09-28T10:51:47Z</time>
      </trkpt>
      <trkpt lat="45.63046" lon="6.62582">
        <ele>2355</ele>
        <time>2017-09-28T10:52:01Z</time>
      </trkpt>
      <trkpt lat="45.63041" lon="6.62567">
        <ele>2358.3</ele>
        <time>2017-09-28T10:52:20Z</time>
      </trkpt>
      <trkpt lat="45.63037" lon="6.62556">
        <ele>2360.4</ele>
        <time>2017-09-28T10:52:35Z</time>
      </trkpt>
      <trkpt lat="45.63038" lon="6.62543">
        <ele>2363.5</ele>
        <time>2017-09-28T10:52:53Z</time>
      </trkpt>
      <trkpt lat="45.63037" lon="6.6253">
        <ele>2367.9</ele>
        <time>2017-09-28T10:53:15Z</time>
      </trkpt>
      <trkpt lat="45.63044" lon="6.62521">
        <ele>2369.5</ele>
        <time>2017-09-28T10:58:42Z</time>
      </trkpt>
      <trkpt lat="45.63034" lon="6.62521">
        <ele>2376.5</ele>
        <time>2017-09-28T11:07:44Z</time>
      </trkpt>
      <trkpt lat="45.63027" lon="6.6253">
        <ele>2377.8</ele>
        <time>2017-09-28T11:07:54Z</time>
      </trkpt>
      <trkpt lat="45.63019" lon="6.62537">
        <ele>2382.8</ele>
        <time>2017-09-28T11:08:20Z</time>
      </trkpt>
      <trkpt lat="45.6301" lon="6.62535">
        <ele>2386.5</ele>
        <time>2017-09-28T11:08:41Z</time>
      </trkpt>
      <trkpt lat="45.63001" lon="6.62532">
        <ele>2396.5</ele>
        <time>2017-09-28T11:09:38Z</time>
      </trkpt>
      <trkpt lat="45.62993" lon="6.62526">
        <ele>2400.8</ele>
        <time>2017-09-28T11:10:00Z</time>
      </trkpt>
      <trkpt lat="45.62995" lon="6.62513">
        <ele>2402.9</ele>
        <time>2017-09-28T11:10:34Z</time>
      </trkpt>
      <trkpt lat="45.63003" lon="6.62506">
        <ele>2403.8</ele>
        <time>2017-09-28T11:10:46Z</time>
      </trkpt>
      <trkpt lat="45.63008" lon="6.62495">
        <ele>2405.9</ele>
        <time>2017-09-28T11:11:02Z</time>
      </trkpt>
      <trkpt lat="45.63011" lon="6.62483">
        <ele>2408.5</ele>
        <time>2017-09-28T11:11:15Z</time>
      </trkpt>
      <trkpt lat="45.63018" lon="6.62474">
        <ele>2410.4</ele>
        <time>2017-09-28T11:11:27Z</time>
      </trkpt>
      <trkpt lat="45.63023" lon="6.62462">
        <ele>2413.7</ele>
        <time>2017-09-28T11:11:47Z</time>
      </trkpt>
      <trkpt lat="45.63027" lon="6.6245">
        <ele>2415.3</ele>
        <time>2017-09-28T11:12:00Z</time>
      </trkpt>
      <trkpt lat="45.63034" lon="6.62441">
        <ele>2417.7</ele>
        <time>2017-09-28T11:12:13Z</time>
      </trkpt>
      <trkpt lat="45.63037" lon="6.62429">
        <ele>2419.9</ele>
        <time>2017-09-28T11:12:25Z</time>
      </trkpt>
      <trkpt lat="45.63039" lon="6.62416">
        <ele>2420.2</ele>
        <time>2017-09-28T11:12:37Z</time>
      </trkpt>
      <trkpt lat="45.6304" lon="6.62403">
        <ele>2419.7</ele>
        <time>2017-09-28T11:12:47Z</time>
      </trkpt>
      <trkpt lat="45.6304" lon="6.62389">
        <ele>2420</ele>
        <time>2017-09-28T11:12:58Z</time>
      </trkpt>
      <trkpt lat="45.63043" lon="6.62375">
        <ele>2420.4</ele>
        <time>2017-09-28T11:13:12Z</time>
      </trkpt>
      <trkpt lat="45.63042" lon="6.62362">
        <ele>2421.1</ele>
        <time>2017-09-28T11:13:21Z</time>
      </trkpt>
      <trkpt lat="45.63038" lon="6.6235">
        <ele>2421.8</ele>
        <time>2017-09-28T11:13:29Z</time>
      </trkpt>
      <trkpt lat="45.63035" lon="6.62337">
        <ele>2421.1</ele>
        <time>2017-09-28T11:13:38Z</time>
      </trkpt>
      <trkpt lat="45.63036" lon="6.62323">
        <ele>2419.9</ele>
        <time>2017-09-28T11:13:49Z</time>
      </trkpt>
      <trkpt lat="45.6304" lon="6.62311">
        <ele>2419.6</ele>
        <time>2017-09-28T11:13:59Z</time>
      </trkpt>
      <trkpt lat="45.63034" lon="6.623">
        <ele>2417.8</ele>
        <time>2017-09-28T11:14:11Z</time>
      </trkpt>
      <trkpt lat="45.63033" lon="6.62286">
        <ele>2418.1</ele>
        <time>2017-09-28T11:14:20Z</time>
      </trkpt>
      <trkpt lat="45.63029" lon="6.62274">
        <ele>2418.7</ele>
        <time>2017-09-28T11:14:30Z</time>
      </trkpt>
      <trkpt lat="45.63026" lon="6.62262">
        <ele>2419</ele>
        <time>2017-09-28T11:14:38Z</time>
      </trkpt>
      <trkpt lat="45.63021" lon="6.6225">
        <ele>2419.9</ele>
        <time>2017-09-28T11:14:48Z</time>
      </trkpt>
      <trkpt lat="45.63014" lon="6.62242">
        <ele>2419.8</ele>
        <time>2017-09-28T11:14:57Z</time>
      </trkpt>
      <trkpt lat="45.63005" lon="6.62243">
        <ele>2415.3</ele>
        <time>2017-09-28T11:15:15Z</time>
      </trkpt>
      <trkpt lat="45.62997" lon="6.6224">
        <ele>2410.1</ele>
        <time>2017-09-28T11:16:11Z</time>
      </trkpt>
      <trkpt lat="45.62992" lon="6.62229">
        <ele>2406</ele>
        <time>2017-09-28T11:16:31Z</time>
      </trkpt>
      <trkpt lat="45.62994" lon="6.62216">
        <ele>2401.9</ele>
        <time>2017-09-28T11:16:45Z</time>
      </trkpt>
      <trkpt lat="45.6299" lon="6.62203">
        <ele>2400.1</ele>
        <time>2017-09-28T11:16:58Z</time>
      </trkpt>
      <trkpt lat="45.62986" lon="6.6219">
        <ele>2399.3</ele>
        <time>2017-09-28T11:17:07Z</time>
      </trkpt>
      <trkpt lat="45.62979" lon="6.62179">
        <ele>2396.8</ele>
        <time>2017-09-28T11:17:41Z</time>
      </trkpt>
      <trkpt lat="45.62974" lon="6.62167">
        <ele>2395.9</ele>
        <time>2017-09-28T11:17:50Z</time>
      </trkpt>
      <trkpt lat="45.62976" lon="6.62154">
        <ele>2395.3</ele>
        <time>2017-09-28T11:18:02Z</time>
      </trkpt>
      <trkpt lat="45.62979" lon="6.62142">
        <ele>2398.1</ele>
        <time>2017-09-28T11:18:20Z</time>
      </trkpt>
      <trkpt lat="45.62979" lon="6.62129">
        <ele>2398.9</ele>
        <time>2017-09-28T11:18:29Z</time>
      </trkpt>
      <trkpt lat="45.62979" lon="6.62115">
        <ele>2399.8</ele>
        <time>2017-09-28T11:18:39Z</time>
      </trkpt>
      <trkpt lat="45.62982" lon="6.62103">
        <ele>2401.6</ele>
        <time>2017-09-28T11:18:53Z</time>
      </trkpt>
      <trkpt lat="45.62984" lon="6.6209">
        <ele>2402.3</ele>
        <time>2017-09-28T11:19:07Z</time>
      </trkpt>
      <trkpt lat="45.62985" lon="6.62077">
        <ele>2402.8</ele>
        <time>2017-09-28T11:19:21Z</time>
      </trkpt>
      <trkpt lat="45.62984" lon="6.62063">
        <ele>2403.7</ele>
        <time>2017-09-28T11:19:33Z</time>
      </trkpt>
      <trkpt lat="45.62983" lon="6.6205">
        <ele>2405</ele>
        <time>2017-09-28T11:19:45Z</time>
      </trkpt>
      <trkpt lat="45.62985" lon="6.62037">
        <ele>2405.6</ele>
        <time>2017-09-28T11:19:54Z</time>
      </trkpt>
      <trkpt lat="45.62983" lon="6.62024">
        <ele>2406.9</ele>
        <time>2017-09-28T11:20:07Z</time>
      </trkpt>
      <trkpt lat="45.62979" lon="6.62013">
        <ele>2408</ele>
        <time>2017-09-28T11:20:18Z</time>
      </trkpt>
      <trkpt lat="45.62976" lon="6.62001">
        <ele>2409.6</ele>
        <time>2017-09-28T11:20:30Z</time>
      </trkpt>
      <trkpt lat="45.62971" lon="6.61989">
        <ele>2411</ele>
        <time>2017-09-28T11:20:39Z</time>
      </trkpt>
      <trkpt lat="45.62963" lon="6.61982">
        <ele>2409.9</ele>
        <time>2017-09-28T11:20:53Z</time>
      </trkpt>
      <trkpt lat="45.62956" lon="6.61971">
        <ele>2410.6</ele>
        <time>2017-09-28T11:21:04Z</time>
      </trkpt>
      <trkpt lat="45.6295" lon="6.6196">
        <ele>2410.8</ele>
        <time>2017-09-28T11:21:13Z</time>
      </trkpt>
      <trkpt lat="45.62943" lon="6.6195">
        <ele>2412.3</ele>
        <time>2017-09-28T11:21:25Z</time>
      </trkpt>
      <trkpt lat="45.62937" lon="6.6194">
        <ele>2413.5</ele>
        <time>2017-09-28T11:21:35Z</time>
      </trkpt>
      <trkpt lat="45.62932" lon="6.61929">
        <ele>2414.8</ele>
        <time>2017-09-28T11:21:44Z</time>
      </trkpt>
      <trkpt lat="45.62927" lon="6.61918">
        <ele>2417.1</ele>
        <time>2017-09-28T11:22:04Z</time>
      </trkpt>
      <trkpt lat="45.62919" lon="6.6191">
        <ele>2418.2</ele>
        <time>2017-09-28T11:22:14Z</time>
      </trkpt>
      <trkpt lat="45.62911" lon="6.61904">
        <ele>2419</ele>
        <time>2017-09-28T11:22:25Z</time>
      </trkpt>
      <trkpt lat="45.62901" lon="6.61899">
        <ele>2420.1</ele>
        <time>2017-09-28T11:22:34Z</time>
      </trkpt>
      <trkpt lat="45.6291" lon="6.61894">
        <ele>2425.1</ele>
        <time>2017-09-28T11:23:31Z</time>
      </trkpt>
      <trkpt lat="45.62919" lon="6.61892">
        <ele>2427</ele>
        <time>2017-09-28T11:23:45Z</time>
      </trkpt>
      <trkpt lat="45.62923" lon="6.61881">
        <ele>2429.8</ele>
        <time>2017-09-28T11:24:02Z</time>
      </trkpt>
      <trkpt lat="45.62929" lon="6.6187">
        <ele>2432.6</ele>
        <time>2017-09-28T11:24:19Z</time>
      </trkpt>
      <trkpt lat="45.62932" lon="6.61857">
        <ele>2436.4</ele>
        <time>2017-09-28T11:24:41Z</time>
      </trkpt>
      <trkpt lat="45.62938" lon="6.61846">
        <ele>2438.9</ele>
        <time>2017-09-28T11:24:56Z</time>
      </trkpt>
      <trkpt lat="45.62947" lon="6.61848">
        <ele>2440.9</ele>
        <time>2017-09-28T11:25:12Z</time>
      </trkpt>
      <trkpt lat="45.62956" lon="6.61852">
        <ele>2443.3</ele>
        <time>2017-09-28T11:25:27Z</time>
      </trkpt>
      <trkpt lat="45.62963" lon="6.61861">
        <ele>2444.5</ele>
        <time>2017-09-28T11:25:38Z</time>
      </trkpt>
      <trkpt lat="45.62969" lon="6.61871">
        <ele>2446.5</ele>
        <time>2017-09-28T11:25:53Z</time>
      </trkpt>
      <trkpt lat="45.62977" lon="6.6188">
        <ele>2447.7</ele>
        <time>2017-09-28T11:26:04Z</time>
      </trkpt>
      <trkpt lat="45.62985" lon="6.61887">
        <ele>2449.2</ele>
        <time>2017-09-28T11:26:16Z</time>
      </trkpt>
      <trkpt lat="45.62992" lon="6.61895">
        <ele>2451.1</ele>
        <time>2017-09-28T11:26:28Z</time>
      </trkpt>
      <trkpt lat="45.62999" lon="6.61904">
        <ele>2453.4</ele>
        <time>2017-09-28T11:26:42Z</time>
      </trkpt>
      <trkpt lat="45.63006" lon="6.61913">
        <ele>2456.8</ele>
        <time>2017-09-28T11:27:02Z</time>
      </trkpt>
      <trkpt lat="45.63014" lon="6.6192">
        <ele>2459.3</ele>
        <time>2017-09-28T11:27:21Z</time>
      </trkpt>
      <trkpt lat="45.63023" lon="6.61922">
        <ele>2462.4</ele>
        <time>2017-09-28T11:27:39Z</time>
      </trkpt>
      <trkpt lat="45.63032" lon="6.61927">
        <ele>2464.6</ele>
        <time>2017-09-28T11:27:53Z</time>
      </trkpt>
      <trkpt lat="45.63038" lon="6.61936">
        <ele>2466.5</ele>
        <time>2017-09-28T11:28:14Z</time>
      </trkpt>
      <trkpt lat="45.63045" lon="6.61944">
        <ele>2470.2</ele>
        <time>2017-09-28T11:28:37Z</time>
      </trkpt>
      <trkpt lat="45.63053" lon="6.61952">
        <ele>2472</ele>
        <time>2017-09-28T11:28:52Z</time>
      </trkpt>
      <trkpt lat="45.63058" lon="6.61964">
        <ele>2474.7</ele>
        <time>2017-09-28T11:29:34Z</time>
      </trkpt>
      <trkpt lat="45.63062" lon="6.61977">
        <ele>2476.2</ele>
        <time>2017-09-28T11:29:45Z</time>
      </trkpt>
      <trkpt lat="45.6307" lon="6.61982">
        <ele>2477.9</ele>
        <time>2017-09-28T11:29:57Z</time>
      </trkpt>
      <trkpt lat="45.63078" lon="6.61988">
        <ele>2480.5</ele>
        <time>2017-09-28T11:30:11Z</time>
      </trkpt>
      <trkpt lat="45.63087" lon="6.61993">
        <ele>2483.8</ele>
        <time>2017-09-28T11:30:30Z</time>
      </trkpt>
      <trkpt lat="45.63096" lon="6.61995">
        <ele>2487</ele>
        <time>2017-09-28T11:30:47Z</time>
      </trkpt>
      <trkpt lat="45.63105" lon="6.61999">
        <ele>2491.1</ele>
        <time>2017-09-28T11:31:08Z</time>
      </trkpt>
      <trkpt lat="45.63115" lon="6.61997">
        <ele>2495</ele>
        <time>2017-09-28T11:31:34Z</time>
      </trkpt>
      <trkpt lat="45.63123" lon="6.62004">
        <ele>2497.8</ele>
        <time>2017-09-28T11:31:53Z</time>
      </trkpt>
      <trkpt lat="45.63132" lon="6.62009">
        <ele>2501.3</ele>
        <time>2017-09-28T11:32:12Z</time>
      </trkpt>
      <trkpt lat="45.63138" lon="6.62018">
        <ele>2504.6</ele>
        <time>2017-09-28T11:32:30Z</time>
      </trkpt>
      <trkpt lat="45.63145" lon="6.62028">
        <ele>2507.3</ele>
        <time>2017-09-28T11:32:45Z</time>
      </trkpt>
      <trkpt lat="45.63154" lon="6.62033">
        <ele>2511.2</ele>
        <time>2017-09-28T11:33:05Z</time>
      </trkpt>
      <trkpt lat="45.63162" lon="6.62038">
        <ele>2515.3</ele>
        <time>2017-09-28T11:33:29Z</time>
      </trkpt>
      <trkpt lat="45.63171" lon="6.62042">
        <ele>2518.1</ele>
        <time>2017-09-28T11:33:45Z</time>
      </trkpt>
      <trkpt lat="45.63173" lon="6.62056">
        <ele>2522.2</ele>
        <time>2017-09-28T11:34:12Z</time>
      </trkpt>
      <trkpt lat="45.63168" lon="6.62068">
        <ele>2524.8</ele>
        <time>2017-09-28T11:34:30Z</time>
      </trkpt>
      <trkpt lat="45.63161" lon="6.62078">
        <ele>2527.1</ele>
        <time>2017-09-28T11:34:44Z</time>
      </trkpt>
      <trkpt lat="45.63165" lon="6.62066">
        <ele>2528.7</ele>
        <time>2017-09-28T11:55:33Z</time>
      </trkpt>
      <trkpt lat="45.63171" lon="6.62056">
        <ele>2527</ele>
        <time>2017-09-28T11:55:37Z</time>
      </trkpt>
      <trkpt lat="45.63173" lon="6.62042">
        <ele>2525.3</ele>
        <time>2017-09-28T11:55:40Z</time>
      </trkpt>
      <trkpt lat="45.63161" lon="6.62037">
        <ele>2523</ele>
        <time>2017-09-28T11:55:43Z</time>
      </trkpt>
      <trkpt lat="45.63151" lon="6.62035">
        <ele>2519.6</ele>
        <time>2017-09-28T11:55:46Z</time>
      </trkpt>
      <trkpt lat="45.63141" lon="6.62025">
        <ele>2515.7</ele>
        <time>2017-09-28T11:55:49Z</time>
      </trkpt>
      <trkpt lat="45.63131" lon="6.62013">
        <ele>2511.7</ele>
        <time>2017-09-28T11:55:52Z</time>
      </trkpt>
      <trkpt lat="45.63124" lon="6.62005">
        <ele>2507.9</ele>
        <time>2017-09-28T11:55:55Z</time>
      </trkpt>
      <trkpt lat="45.63114" lon="6.62002">
        <ele>2504</ele>
        <time>2017-09-28T11:55:58Z</time>
      </trkpt>
      <trkpt lat="45.63103" lon="6.62001">
        <ele>2498.1</ele>
        <time>2017-09-28T11:56:02Z</time>
      </trkpt>
      <trkpt lat="45.63093" lon="6.61999">
        <ele>2492.7</ele>
        <time>2017-09-28T11:56:07Z</time>
      </trkpt>
      <trkpt lat="45.63084" lon="6.61995">
        <ele>2488.4</ele>
        <time>2017-09-28T11:56:12Z</time>
      </trkpt>
      <trkpt lat="45.63075" lon="6.6199">
        <ele>2485.3</ele>
        <time>2017-09-28T11:56:17Z</time>
      </trkpt>
      <trkpt lat="45.63066" lon="6.61985">
        <ele>2483.2</ele>
        <time>2017-09-28T11:56:20Z</time>
      </trkpt>
      <trkpt lat="45.63058" lon="6.61976">
        <ele>2480</ele>
        <time>2017-09-28T11:56:25Z</time>
      </trkpt>
      <trkpt lat="45.63055" lon="6.61963">
        <ele>2478.5</ele>
        <time>2017-09-28T11:56:28Z</time>
      </trkpt>
      <trkpt lat="45.63049" lon="6.61952">
        <ele>2476.1</ele>
        <time>2017-09-28T11:56:32Z</time>
      </trkpt>
      <trkpt lat="45.63041" lon="6.61943">
        <ele>2473.7</ele>
        <time>2017-09-28T11:56:36Z</time>
      </trkpt>
      <trkpt lat="45.63034" lon="6.61934">
        <ele>2467.1</ele>
        <time>2017-09-28T11:57:07Z</time>
      </trkpt>
      <trkpt lat="45.63024" lon="6.6193">
        <ele>2466</ele>
        <time>2017-09-28T11:57:12Z</time>
      </trkpt>
      <trkpt lat="45.63017" lon="6.61921">
        <ele>2464</ele>
        <time>2017-09-28T11:57:23Z</time>
      </trkpt>
      <trkpt lat="45.63008" lon="6.6192">
        <ele>2461.4</ele>
        <time>2017-09-28T11:57:38Z</time>
      </trkpt>
      <trkpt lat="45.62999" lon="6.61911">
        <ele>2458.5</ele>
        <time>2017-09-28T11:57:50Z</time>
      </trkpt>
      <trkpt lat="45.62993" lon="6.61902">
        <ele>2456.8</ele>
        <time>2017-09-28T11:57:54Z</time>
      </trkpt>
      <trkpt lat="45.62984" lon="6.6189">
        <ele>2455.1</ele>
        <time>2017-09-28T11:57:57Z</time>
      </trkpt>
      <trkpt lat="45.62976" lon="6.61883">
        <ele>2453.2</ele>
        <time>2017-09-28T11:58:00Z</time>
      </trkpt>
      <trkpt lat="45.62967" lon="6.61871">
        <ele>2451.7</ele>
        <time>2017-09-28T11:58:03Z</time>
      </trkpt>
      <trkpt lat="45.62961" lon="6.6186">
        <ele>2449.6</ele>
        <time>2017-09-28T11:58:07Z</time>
      </trkpt>
      <trkpt lat="45.62952" lon="6.61852">
        <ele>2448.2</ele>
        <time>2017-09-28T11:58:10Z</time>
      </trkpt>
      <trkpt lat="45.62942" lon="6.61849">
        <ele>2446.5</ele>
        <time>2017-09-28T11:58:13Z</time>
      </trkpt>
      <trkpt lat="45.62933" lon="6.61853">
        <ele>2443.4</ele>
        <time>2017-09-28T11:58:17Z</time>
      </trkpt>
      <trkpt lat="45.62928" lon="6.61865">
        <ele>2440</ele>
        <time>2017-09-28T11:58:22Z</time>
      </trkpt>
      <trkpt lat="45.62926" lon="6.61877">
        <ele>2437.1</ele>
        <time>2017-09-28T11:58:26Z</time>
      </trkpt>
      <trkpt lat="45.62922" lon="6.61891">
        <ele>2433.2</ele>
        <time>2017-09-28T11:58:32Z</time>
      </trkpt>
      <trkpt lat="45.62912" lon="6.61897">
        <ele>2428.8</ele>
        <time>2017-09-28T11:58:47Z</time>
      </trkpt>
      <trkpt lat="45.62903" lon="6.61899">
        <ele>2427.6</ele>
        <time>2017-09-28T11:58:50Z</time>
      </trkpt>
      <trkpt lat="45.62892" lon="6.61893">
        <ele>2424.7</ele>
        <time>2017-09-28T11:58:54Z</time>
      </trkpt>
      <trkpt lat="45.62884" lon="6.61887">
        <ele>2418.2</ele>
        <time>2017-09-28T11:59:10Z</time>
      </trkpt>
      <trkpt lat="45.62874" lon="6.61884">
        <ele>2415.4</ele>
        <time>2017-09-28T11:59:16Z</time>
      </trkpt>
      <trkpt lat="45.62867" lon="6.61877">
        <ele>2409.5</ele>
        <time>2017-09-28T11:59:29Z</time>
      </trkpt>
      <trkpt lat="45.62858" lon="6.61877">
        <ele>2404.2</ele>
        <time>2017-09-28T11:59:51Z</time>
      </trkpt>
      <trkpt lat="45.6285" lon="6.61869">
        <ele>2402.3</ele>
        <time>2017-09-28T11:59:59Z</time>
      </trkpt>
      <trkpt lat="45.6284" lon="6.61865">
        <ele>2399.1</ele>
        <time>2017-09-28T12:00:04Z</time>
      </trkpt>
      <trkpt lat="45.62831" lon="6.61862">
        <ele>2395.4</ele>
        <time>2017-09-28T12:00:10Z</time>
      </trkpt>
      <trkpt lat="45.62823" lon="6.61855">
        <ele>2390.6</ele>
        <time>2017-09-28T12:00:17Z</time>
      </trkpt>
      <trkpt lat="45.62813" lon="6.61854">
        <ele>2384.7</ele>
        <time>2017-09-28T12:00:29Z</time>
      </trkpt>
      <trkpt lat="45.62804" lon="6.61859">
        <ele>2381.7</ele>
        <time>2017-09-28T12:00:35Z</time>
      </trkpt>
      <trkpt lat="45.628" lon="6.61873">
        <ele>2377.5</ele>
        <time>2017-09-28T12:00:41Z</time>
      </trkpt>
      <trkpt lat="45.62792" lon="6.6188">
        <ele>2373.9</ele>
        <time>2017-09-28T12:00:47Z</time>
      </trkpt>
      <trkpt lat="45.62781" lon="6.61878">
        <ele>2372</ele>
        <time>2017-09-28T12:00:51Z</time>
      </trkpt>
      <trkpt lat="45.62772" lon="6.61873">
        <ele>2369.1</ele>
        <time>2017-09-28T12:00:56Z</time>
      </trkpt>
      <trkpt lat="45.62762" lon="6.61877">
        <ele>2365.5</ele>
        <time>2017-09-28T12:01:01Z</time>
      </trkpt>
      <trkpt lat="45.62753" lon="6.61886">
        <ele>2362.6</ele>
        <time>2017-09-28T12:01:05Z</time>
      </trkpt>
      <trkpt lat="45.62744" lon="6.61888">
        <ele>2360.1</ele>
        <time>2017-09-28T12:01:09Z</time>
      </trkpt>
      <trkpt lat="45.62734" lon="6.61887">
        <ele>2357.6</ele>
        <time>2017-09-28T12:01:14Z</time>
      </trkpt>
      <trkpt lat="45.62728" lon="6.61898">
        <ele>2353.7</ele>
        <time>2017-09-28T12:01:20Z</time>
      </trkpt>
      <trkpt lat="45.62719" lon="6.61899">
        <ele>2351.7</ele>
        <time>2017-09-28T12:01:24Z</time>
      </trkpt>
      <trkpt lat="45.62712" lon="6.61889">
        <ele>2350</ele>
        <time>2017-09-28T12:01:28Z</time>
      </trkpt>
      <trkpt lat="45.62707" lon="6.61879">
        <ele>2349.2</ele>
        <time>2017-09-28T12:01:30Z</time>
      </trkpt>
      <trkpt lat="45.62699" lon="6.61867">
        <ele>2348</ele>
        <time>2017-09-28T12:01:32Z</time>
      </trkpt>
      <trkpt lat="45.62706" lon="6.61857">
        <ele>2339.4</ele>
        <time>2017-09-28T12:01:56Z</time>
      </trkpt>
      <trkpt lat="45.62697" lon="6.61851">
        <ele>2336.7</ele>
        <time>2017-09-28T12:02:08Z</time>
      </trkpt>
      <trkpt lat="45.627" lon="6.61838">
        <ele>2331.4</ele>
        <time>2017-09-28T12:02:44Z</time>
      </trkpt>
      <trkpt lat="45.62709" lon="6.61829">
        <ele>2329.2</ele>
        <time>2017-09-28T12:02:49Z</time>
      </trkpt>
      <trkpt lat="45.62708" lon="6.61809">
        <ele>2326.8</ele>
        <time>2017-09-28T12:02:53Z</time>
      </trkpt>
      <trkpt lat="45.62705" lon="6.61797">
        <ele>2325.6</ele>
        <time>2017-09-28T12:02:55Z</time>
      </trkpt>
      <trkpt lat="45.62698" lon="6.61788">
        <ele>2324.4</ele>
        <time>2017-09-28T12:02:57Z</time>
      </trkpt>
      <trkpt lat="45.62688" lon="6.61782">
        <ele>2322.9</ele>
        <time>2017-09-28T12:02:59Z</time>
      </trkpt>
      <trkpt lat="45.6268" lon="6.61772">
        <ele>2319.4</ele>
        <time>2017-09-28T12:03:03Z</time>
      </trkpt>
      <trkpt lat="45.62674" lon="6.61757">
        <ele>2316.4</ele>
        <time>2017-09-28T12:03:07Z</time>
      </trkpt>
      <trkpt lat="45.62667" lon="6.61746">
        <ele>2314.2</ele>
        <time>2017-09-28T12:03:11Z</time>
      </trkpt>
      <trkpt lat="45.62661" lon="6.61733">
        <ele>2311.5</ele>
        <time>2017-09-28T12:03:21Z</time>
      </trkpt>
      <trkpt lat="45.62653" lon="6.61719">
        <ele>2311</ele>
        <time>2017-09-28T12:03:24Z</time>
      </trkpt>
      <trkpt lat="45.62644" lon="6.6171">
        <ele>2310.7</ele>
        <time>2017-09-28T12:03:26Z</time>
      </trkpt>
      <trkpt lat="45.62637" lon="6.61701">
        <ele>2310</ele>
        <time>2017-09-28T12:03:28Z</time>
      </trkpt>
      <trkpt lat="45.62633" lon="6.61685">
        <ele>2308.5</ele>
        <time>2017-09-28T12:03:31Z</time>
      </trkpt>
      <trkpt lat="45.62632" lon="6.6167">
        <ele>2306.7</ele>
        <time>2017-09-28T12:03:34Z</time>
      </trkpt>
      <trkpt lat="45.62631" lon="6.61657">
        <ele>2304.3</ele>
        <time>2017-09-28T12:03:37Z</time>
      </trkpt>
      <trkpt lat="45.62631" lon="6.6164">
        <ele>2301.3</ele>
        <time>2017-09-28T12:03:41Z</time>
      </trkpt>
      <trkpt lat="45.62635" lon="6.61623">
        <ele>2298.6</ele>
        <time>2017-09-28T12:03:44Z</time>
      </trkpt>
      <trkpt lat="45.62642" lon="6.61613">
        <ele>2296.5</ele>
        <time>2017-09-28T12:03:47Z</time>
      </trkpt>
      <trkpt lat="45.62648" lon="6.61602">
        <ele>2294.4</ele>
        <time>2017-09-28T12:03:50Z</time>
      </trkpt>
      <trkpt lat="45.62652" lon="6.61588">
        <ele>2290.9</ele>
        <time>2017-09-28T12:03:55Z</time>
      </trkpt>
      <trkpt lat="45.62657" lon="6.61576">
        <ele>2285.7</ele>
        <time>2017-09-28T12:04:05Z</time>
      </trkpt>
      <trkpt lat="45.62667" lon="6.61566">
        <ele>2283.9</ele>
        <time>2017-09-28T12:04:10Z</time>
      </trkpt>
      <trkpt lat="45.62675" lon="6.61558">
        <ele>2283.1</ele>
        <time>2017-09-28T12:04:12Z</time>
      </trkpt>
      <trkpt lat="45.62686" lon="6.61551">
        <ele>2281.9</ele>
        <time>2017-09-28T12:04:14Z</time>
      </trkpt>
      <trkpt lat="45.62693" lon="6.61536">
        <ele>2280.9</ele>
        <time>2017-09-28T12:04:16Z</time>
      </trkpt>
      <trkpt lat="45.62696" lon="6.61524">
        <ele>2280.3</ele>
        <time>2017-09-28T12:04:18Z</time>
      </trkpt>
      <trkpt lat="45.62697" lon="6.61507">
        <ele>2279.5</ele>
        <time>2017-09-28T12:04:22Z</time>
      </trkpt>
      <trkpt lat="45.62696" lon="6.61494">
        <ele>2279.4</ele>
        <time>2017-09-28T12:04:25Z</time>
      </trkpt>
      <trkpt lat="45.62694" lon="6.6148">
        <ele>2279.4</ele>
        <time>2017-09-28T12:04:28Z</time>
      </trkpt>
      <trkpt lat="45.62694" lon="6.61463">
        <ele>2279.7</ele>
        <time>2017-09-28T12:04:32Z</time>
      </trkpt>
      <trkpt lat="45.62692" lon="6.61449">
        <ele>2279.9</ele>
        <time>2017-09-28T12:04:36Z</time>
      </trkpt>
      <trkpt lat="45.62694" lon="6.61433">
        <ele>2279.6</ele>
        <time>2017-09-28T12:04:39Z</time>
      </trkpt>
      <trkpt lat="45.62703" lon="6.61421">
        <ele>2279.1</ele>
        <time>2017-09-28T12:04:42Z</time>
      </trkpt>
      <trkpt lat="45.62713" lon="6.61411">
        <ele>2278.5</ele>
        <time>2017-09-28T12:04:45Z</time>
      </trkpt>
      <trkpt lat="45.6272" lon="6.61401">
        <ele>2277.7</ele>
        <time>2017-09-28T12:04:48Z</time>
      </trkpt>
      <trkpt lat="45.62726" lon="6.61391">
        <ele>2276.9</ele>
        <time>2017-09-28T12:04:50Z</time>
      </trkpt>
      <trkpt lat="45.62732" lon="6.61375">
        <ele>2276</ele>
        <time>2017-09-28T12:04:53Z</time>
      </trkpt>
      <trkpt lat="45.62736" lon="6.61361">
        <ele>2274.9</ele>
        <time>2017-09-28T12:04:56Z</time>
      </trkpt>
      <trkpt lat="45.62739" lon="6.61346">
        <ele>2273.5</ele>
        <time>2017-09-28T12:05:03Z</time>
      </trkpt>
      <trkpt lat="45.62744" lon="6.61333">
        <ele>2273.2</ele>
        <time>2017-09-28T12:05:07Z</time>
      </trkpt>
      <trkpt lat="45.62744" lon="6.61317">
        <ele>2272.5</ele>
        <time>2017-09-28T12:05:13Z</time>
      </trkpt>
      <trkpt lat="45.62745" lon="6.61303">
        <ele>2272.5</ele>
        <time>2017-09-28T12:05:17Z</time>
      </trkpt>
      <trkpt lat="45.62748" lon="6.61289">
        <ele>2272.4</ele>
        <time>2017-09-28T12:05:20Z</time>
      </trkpt>
      <trkpt lat="45.62753" lon="6.61276">
        <ele>2272.6</ele>
        <time>2017-09-28T12:05:23Z</time>
      </trkpt>
      <trkpt lat="45.62757" lon="6.61264">
        <ele>2273.6</ele>
        <time>2017-09-28T12:05:30Z</time>
      </trkpt>
      <trkpt lat="45.6276" lon="6.61251">
        <ele>2273.6</ele>
        <time>2017-09-28T12:05:35Z</time>
      </trkpt>
      <trkpt lat="45.62763" lon="6.61236">
        <ele>2273.7</ele>
        <time>2017-09-28T12:05:40Z</time>
      </trkpt>
      <trkpt lat="45.62767" lon="6.61223">
        <ele>2273.9</ele>
        <time>2017-09-28T12:05:45Z</time>
      </trkpt>
      <trkpt lat="45.62762" lon="6.61212">
        <ele>2273.7</ele>
        <time>2017-09-28T12:05:50Z</time>
      </trkpt>
      <trkpt lat="45.62752" lon="6.61208">
        <ele>2273.8</ele>
        <time>2017-09-28T12:05:54Z</time>
      </trkpt>
      <trkpt lat="45.62745" lon="6.61199">
        <ele>2274.3</ele>
        <time>2017-09-28T12:05:58Z</time>
      </trkpt>
      <trkpt lat="45.6274" lon="6.61187">
        <ele>2274.6</ele>
        <time>2017-09-28T12:06:02Z</time>
      </trkpt>
      <trkpt lat="45.62736" lon="6.61172">
        <ele>2274.5</ele>
        <time>2017-09-28T12:06:05Z</time>
      </trkpt>
      <trkpt lat="45.62731" lon="6.61162">
        <ele>2274.7</ele>
        <time>2017-09-28T12:06:08Z</time>
      </trkpt>
      <trkpt lat="45.62726" lon="6.61151">
        <ele>2275.1</ele>
        <time>2017-09-28T12:06:13Z</time>
      </trkpt>
      <trkpt lat="45.62717" lon="6.61142">
        <ele>2276.1</ele>
        <time>2017-09-28T12:06:18Z</time>
      </trkpt>
      <trkpt lat="45.62708" lon="6.61134">
        <ele>2276.6</ele>
        <time>2017-09-28T12:06:23Z</time>
      </trkpt>
      <trkpt lat="45.62699" lon="6.61132">
        <ele>2277</ele>
        <time>2017-09-28T12:06:27Z</time>
      </trkpt>
      <trkpt lat="45.62689" lon="6.61133">
        <ele>2278</ele>
        <time>2017-09-28T12:06:32Z</time>
      </trkpt>
      <trkpt lat="45.6268" lon="6.61126">
        <ele>2278.4</ele>
        <time>2017-09-28T12:06:36Z</time>
      </trkpt>
      <trkpt lat="45.62673" lon="6.61115">
        <ele>2278.3</ele>
        <time>2017-09-28T12:06:39Z</time>
      </trkpt>
      <trkpt lat="45.62662" lon="6.61102">
        <ele>2277.8</ele>
        <time>2017-09-28T12:06:42Z</time>
      </trkpt>
      <trkpt lat="45.62653" lon="6.61094">
        <ele>2277.1</ele>
        <time>2017-09-28T12:06:44Z</time>
      </trkpt>
      <trkpt lat="45.62644" lon="6.61089">
        <ele>2276.4</ele>
        <time>2017-09-28T12:06:46Z</time>
      </trkpt>
      <trkpt lat="45.62635" lon="6.61086">
        <ele>2275.8</ele>
        <time>2017-09-28T12:06:49Z</time>
      </trkpt>
      <trkpt lat="45.62624" lon="6.61082">
        <ele>2275.8</ele>
        <time>2017-09-28T12:06:53Z</time>
      </trkpt>
      <trkpt lat="45.62615" lon="6.61073">
        <ele>2276.2</ele>
        <time>2017-09-28T12:06:57Z</time>
      </trkpt>
      <trkpt lat="45.62606" lon="6.61064">
        <ele>2276.8</ele>
        <time>2017-09-28T12:07:01Z</time>
      </trkpt>
      <trkpt lat="45.62597" lon="6.61058">
        <ele>2277.6</ele>
        <time>2017-09-28T12:07:06Z</time>
      </trkpt>
      <trkpt lat="45.62587" lon="6.61053">
        <ele>2278.6</ele>
        <time>2017-09-28T12:07:11Z</time>
      </trkpt>
      <trkpt lat="45.62576" lon="6.61049">
        <ele>2279.8</ele>
        <time>2017-09-28T12:07:16Z</time>
      </trkpt>
      <trkpt lat="45.62566" lon="6.61044">
        <ele>2280.4</ele>
        <time>2017-09-28T12:07:21Z</time>
      </trkpt>
      <trkpt lat="45.62557" lon="6.61039">
        <ele>2280.8</ele>
        <time>2017-09-28T12:07:25Z</time>
      </trkpt>
      <trkpt lat="45.62548" lon="6.6103">
        <ele>2280.8</ele>
        <time>2017-09-28T12:07:28Z</time>
      </trkpt>
      <trkpt lat="45.62536" lon="6.61022">
        <ele>2280.6</ele>
        <time>2017-09-28T12:07:31Z</time>
      </trkpt>
      <trkpt lat="45.62526" lon="6.61018">
        <ele>2280.5</ele>
        <time>2017-09-28T12:07:34Z</time>
      </trkpt>
      <trkpt lat="45.62516" lon="6.61013">
        <ele>2280.7</ele>
        <time>2017-09-28T12:07:39Z</time>
      </trkpt>
      <trkpt lat="45.62507" lon="6.61008">
        <ele>2281</ele>
        <time>2017-09-28T12:07:43Z</time>
      </trkpt>
      <trkpt lat="45.62498" lon="6.61004">
        <ele>2281.5</ele>
        <time>2017-09-28T12:07:47Z</time>
      </trkpt>
      <trkpt lat="45.62488" lon="6.61006">
        <ele>2282.2</ele>
        <time>2017-09-28T12:07:52Z</time>
      </trkpt>
      <trkpt lat="45.62477" lon="6.61008">
        <ele>2283.2</ele>
        <time>2017-09-28T12:07:57Z</time>
      </trkpt>
      <trkpt lat="45.62465" lon="6.61011">
        <ele>2283.3</ele>
        <time>2017-09-28T12:08:01Z</time>
      </trkpt>
      <trkpt lat="45.62457" lon="6.61007">
        <ele>2280.8</ele>
        <time>2017-09-28T12:08:24Z</time>
      </trkpt>
      <trkpt lat="45.62448" lon="6.61004">
        <ele>2274.2</ele>
        <time>2017-09-28T12:09:06Z</time>
      </trkpt>
      <trkpt lat="45.62439" lon="6.60999">
        <ele>2271.9</ele>
        <time>2017-09-28T12:09:22Z</time>
      </trkpt>
      <trkpt lat="45.6243" lon="6.60995">
        <ele>2270.9</ele>
        <time>2017-09-28T12:09:26Z</time>
      </trkpt>
      <trkpt lat="45.62421" lon="6.6099">
        <ele>2264.2</ele>
        <time>2017-09-28T12:09:58Z</time>
      </trkpt>
      <trkpt lat="45.62413" lon="6.60981">
        <ele>2263.9</ele>
        <time>2017-09-28T12:10:01Z</time>
      </trkpt>
      <trkpt lat="45.62404" lon="6.60977">
        <ele>2263.1</ele>
        <time>2017-09-28T12:10:08Z</time>
      </trkpt>
      <trkpt lat="45.62395" lon="6.60974">
        <ele>2265</ele>
        <time>2017-09-28T12:10:25Z</time>
      </trkpt>
      <trkpt lat="45.62385" lon="6.60969">
        <ele>2266.5</ele>
        <time>2017-09-28T12:12:34Z</time>
      </trkpt>
      <trkpt lat="45.62376" lon="6.60963">
        <ele>2265</ele>
        <time>2017-09-28T12:12:38Z</time>
      </trkpt>
      <trkpt lat="45.62369" lon="6.60955">
        <ele>2263.4</ele>
        <time>2017-09-28T12:12:41Z</time>
      </trkpt>
      <trkpt lat="45.62362" lon="6.60944">
        <ele>2261.4</ele>
        <time>2017-09-28T12:12:44Z</time>
      </trkpt>
      <trkpt lat="45.62353" lon="6.60935">
        <ele>2259.5</ele>
        <time>2017-09-28T12:12:47Z</time>
      </trkpt>
      <trkpt lat="45.62344" lon="6.60927">
        <ele>2258.1</ele>
        <time>2017-09-28T12:12:52Z</time>
      </trkpt>
      <trkpt lat="45.62335" lon="6.60924">
        <ele>2257.9</ele>
        <time>2017-09-28T12:12:56Z</time>
      </trkpt>
      <trkpt lat="45.62326" lon="6.60919">
        <ele>2257.8</ele>
        <time>2017-09-28T12:13:00Z</time>
      </trkpt>
      <trkpt lat="45.62319" lon="6.60912">
        <ele>2257.5</ele>
        <time>2017-09-28T12:13:06Z</time>
      </trkpt>
      <trkpt lat="45.62309" lon="6.60908">
        <ele>2256.8</ele>
        <time>2017-09-28T12:13:09Z</time>
      </trkpt>
      <trkpt lat="45.62299" lon="6.60905">
        <ele>2255.5</ele>
        <time>2017-09-28T12:13:13Z</time>
      </trkpt>
      <trkpt lat="45.62294" lon="6.60892">
        <ele>2254.4</ele>
        <time>2017-09-28T12:13:20Z</time>
      </trkpt>
      <trkpt lat="45.62288" lon="6.6088">
        <ele>2253.1</ele>
        <time>2017-09-28T12:13:25Z</time>
      </trkpt>
      <trkpt lat="45.6228" lon="6.60873">
        <ele>2250.7</ele>
        <time>2017-09-28T12:13:30Z</time>
      </trkpt>
      <trkpt lat="45.6227" lon="6.60863">
        <ele>2249.2</ele>
        <time>2017-09-28T12:13:33Z</time>
      </trkpt>
      <trkpt lat="45.62261" lon="6.60859">
        <ele>2248</ele>
        <time>2017-09-28T12:13:35Z</time>
      </trkpt>
      <trkpt lat="45.62252" lon="6.60856">
        <ele>2244.3</ele>
        <time>2017-09-28T12:13:40Z</time>
      </trkpt>
      <trkpt lat="45.62242" lon="6.60852">
        <ele>2236.8</ele>
        <time>2017-09-28T12:14:03Z</time>
      </trkpt>
      <trkpt lat="45.62234" lon="6.60842">
        <ele>2234.2</ele>
        <time>2017-09-28T12:14:07Z</time>
      </trkpt>
      <trkpt lat="45.62233" lon="6.60828">
        <ele>2232</ele>
        <time>2017-09-28T12:14:10Z</time>
      </trkpt>
      <trkpt lat="45.62232" lon="6.60813">
        <ele>2230</ele>
        <time>2017-09-28T12:14:13Z</time>
      </trkpt>
      <trkpt lat="45.62234" lon="6.608">
        <ele>2227.2</ele>
        <time>2017-09-28T12:14:18Z</time>
      </trkpt>
      <trkpt lat="45.62228" lon="6.60791">
        <ele>2222.8</ele>
        <time>2017-09-28T12:14:49Z</time>
      </trkpt>
      <trkpt lat="45.6222" lon="6.60773">
        <ele>2222.4</ele>
        <time>2017-09-28T12:14:52Z</time>
      </trkpt>
      <trkpt lat="45.62219" lon="6.60758">
        <ele>2222</ele>
        <time>2017-09-28T12:14:54Z</time>
      </trkpt>
      <trkpt lat="45.62215" lon="6.60742">
        <ele>2221</ele>
        <time>2017-09-28T12:14:57Z</time>
      </trkpt>
      <trkpt lat="45.6221" lon="6.60725">
        <ele>2219.8</ele>
        <time>2017-09-28T12:15:00Z</time>
      </trkpt>
      <trkpt lat="45.62203" lon="6.60712">
        <ele>2219.1</ele>
        <time>2017-09-28T12:15:02Z</time>
      </trkpt>
      <trkpt lat="45.62198" lon="6.60699">
        <ele>2218.5</ele>
        <time>2017-09-28T12:15:04Z</time>
      </trkpt>
      <trkpt lat="45.62193" lon="6.60688">
        <ele>2215.2</ele>
        <time>2017-09-28T12:15:14Z</time>
      </trkpt>
      <trkpt lat="45.62186" lon="6.60676">
        <ele>2214</ele>
        <time>2017-09-28T12:21:32Z</time>
      </trkpt>
      <trkpt lat="45.62178" lon="6.6067">
        <ele>2213.4</ele>
        <time>2017-09-28T12:21:35Z</time>
      </trkpt>
      <trkpt lat="45.6217" lon="6.60665">
        <ele>2212.4</ele>
        <time>2017-09-28T12:21:38Z</time>
      </trkpt>
      <trkpt lat="45.6216" lon="6.6066">
        <ele>2210.7</ele>
        <time>2017-09-28T12:21:41Z</time>
      </trkpt>
      <trkpt lat="45.62151" lon="6.60658">
        <ele>2208.7</ele>
        <time>2017-09-28T12:21:44Z</time>
      </trkpt>
      <trkpt lat="45.6214" lon="6.60657">
        <ele>2205.9</ele>
        <time>2017-09-28T12:21:48Z</time>
      </trkpt>
      <trkpt lat="45.62131" lon="6.60657">
        <ele>2204</ele>
        <time>2017-09-28T12:21:51Z</time>
      </trkpt>
      <trkpt lat="45.62119" lon="6.60657">
        <ele>2202.2</ele>
        <time>2017-09-28T12:21:54Z</time>
      </trkpt>
      <trkpt lat="45.62108" lon="6.60649">
        <ele>2201</ele>
        <time>2017-09-28T12:21:57Z</time>
      </trkpt>
      <trkpt lat="45.62096" lon="6.6064">
        <ele>2200.2</ele>
        <time>2017-09-28T12:22:00Z</time>
      </trkpt>
      <trkpt lat="45.62089" lon="6.60632">
        <ele>2199.7</ele>
        <time>2017-09-28T12:22:02Z</time>
      </trkpt>
      <trkpt lat="45.6208" lon="6.60622">
        <ele>2199</ele>
        <time>2017-09-28T12:22:05Z</time>
      </trkpt>
      <trkpt lat="45.62072" lon="6.60612">
        <ele>2198.3</ele>
        <time>2017-09-28T12:22:08Z</time>
      </trkpt>
      <trkpt lat="45.62064" lon="6.60603">
        <ele>2197.6</ele>
        <time>2017-09-28T12:22:11Z</time>
      </trkpt>
      <trkpt lat="45.62057" lon="6.60592">
        <ele>2196.5</ele>
        <time>2017-09-28T12:22:14Z</time>
      </trkpt>
      <trkpt lat="45.62048" lon="6.60581">
        <ele>2195.5</ele>
        <time>2017-09-28T12:22:17Z</time>
      </trkpt>
      <trkpt lat="45.6204" lon="6.60572">
        <ele>2194.7</ele>
        <time>2017-09-28T12:22:19Z</time>
      </trkpt>
      <trkpt lat="45.62033" lon="6.60563">
        <ele>2193.8</ele>
        <time>2017-09-28T12:22:21Z</time>
      </trkpt>
      <trkpt lat="45.62025" lon="6.60555">
        <ele>2191.8</ele>
        <time>2017-09-28T12:22:24Z</time>
      </trkpt>
      <trkpt lat="45.62015" lon="6.60544">
        <ele>2188.8</ele>
        <time>2017-09-28T12:22:28Z</time>
      </trkpt>
      <trkpt lat="45.62006" lon="6.60537">
        <ele>2186.5</ele>
        <time>2017-09-28T12:22:31Z</time>
      </trkpt>
      <trkpt lat="45.61996" lon="6.6053">
        <ele>2183.8</ele>
        <time>2017-09-28T12:22:35Z</time>
      </trkpt>
      <trkpt lat="45.61986" lon="6.60525">
        <ele>2181.1</ele>
        <time>2017-09-28T12:22:39Z</time>
      </trkpt>
      <trkpt lat="45.61978" lon="6.6052">
        <ele>2179.1</ele>
        <time>2017-09-28T12:22:42Z</time>
      </trkpt>
      <trkpt lat="45.6197" lon="6.60513">
        <ele>2175</ele>
        <time>2017-09-28T12:22:56Z</time>
      </trkpt>
      <trkpt lat="45.61963" lon="6.60503">
        <ele>2174.8</ele>
        <time>2017-09-28T12:23:00Z</time>
      </trkpt>
      <trkpt lat="45.61955" lon="6.60494">
        <ele>2174.3</ele>
        <time>2017-09-28T12:23:05Z</time>
      </trkpt>
      <trkpt lat="45.61948" lon="6.60484">
        <ele>2173</ele>
        <time>2017-09-28T12:23:09Z</time>
      </trkpt>
      <trkpt lat="45.61942" lon="6.60473">
        <ele>2170.9</ele>
        <time>2017-09-28T12:23:13Z</time>
      </trkpt>
      <trkpt lat="45.61936" lon="6.60461">
        <ele>2164.5</ele>
        <time>2017-09-28T12:23:47Z</time>
      </trkpt>
      <trkpt lat="45.61932" lon="6.60449">
        <ele>2161.2</ele>
        <time>2017-09-28T12:23:55Z</time>
      </trkpt>
      <trkpt lat="45.61931" lon="6.60434">
        <ele>2158.6</ele>
        <time>2017-09-28T12:24:01Z</time>
      </trkpt>
      <trkpt lat="45.6193" lon="6.60419">
        <ele>2157.5</ele>
        <time>2017-09-28T12:24:04Z</time>
      </trkpt>
      <trkpt lat="45.61926" lon="6.60405">
        <ele>2156.6</ele>
        <time>2017-09-28T12:24:07Z</time>
      </trkpt>
      <trkpt lat="45.61922" lon="6.60394">
        <ele>2155.8</ele>
        <time>2017-09-28T12:24:10Z</time>
      </trkpt>
      <trkpt lat="45.61918" lon="6.6038">
        <ele>2155.2</ele>
        <time>2017-09-28T12:24:13Z</time>
      </trkpt>
      <trkpt lat="45.61916" lon="6.60365">
        <ele>2154.2</ele>
        <time>2017-09-28T12:24:17Z</time>
      </trkpt>
      <trkpt lat="45.6191" lon="6.6035">
        <ele>2152.6</ele>
        <time>2017-09-28T12:24:21Z</time>
      </trkpt>
      <trkpt lat="45.61901" lon="6.60344">
        <ele>2151</ele>
        <time>2017-09-28T12:24:24Z</time>
      </trkpt>
      <trkpt lat="45.61892" lon="6.6034">
        <ele>2149.9</ele>
        <time>2017-09-28T12:24:26Z</time>
      </trkpt>
      <trkpt lat="45.6188" lon="6.60336">
        <ele>2147.4</ele>
        <time>2017-09-28T12:24:29Z</time>
      </trkpt>
      <trkpt lat="45.61867" lon="6.60335">
        <ele>2145</ele>
        <time>2017-09-28T12:24:32Z</time>
      </trkpt>
      <trkpt lat="45.61857" lon="6.60333">
        <ele>2143.3</ele>
        <time>2017-09-28T12:24:34Z</time>
      </trkpt>
      <trkpt lat="45.61848" lon="6.60332">
        <ele>2141.4</ele>
        <time>2017-09-28T12:24:36Z</time>
      </trkpt>
      <trkpt lat="45.61837" lon="6.60333">
        <ele>2138.7</ele>
        <time>2017-09-28T12:24:39Z</time>
      </trkpt>
      <trkpt lat="45.61825" lon="6.60334">
        <ele>2136.5</ele>
        <time>2017-09-28T12:24:42Z</time>
      </trkpt>
      <trkpt lat="45.61815" lon="6.60329">
        <ele>2135.2</ele>
        <time>2017-09-28T12:24:44Z</time>
      </trkpt>
      <trkpt lat="45.61803" lon="6.60325">
        <ele>2133.2</ele>
        <time>2017-09-28T12:24:47Z</time>
      </trkpt>
      <trkpt lat="45.61795" lon="6.60321">
        <ele>2132.3</ele>
        <time>2017-09-28T12:24:49Z</time>
      </trkpt>
      <trkpt lat="45.61785" lon="6.60315">
        <ele>2131.4</ele>
        <time>2017-09-28T12:24:51Z</time>
      </trkpt>
      <trkpt lat="45.61775" lon="6.60314">
        <ele>2130.4</ele>
        <time>2017-09-28T12:24:53Z</time>
      </trkpt>
      <trkpt lat="45.61763" lon="6.60313">
        <ele>2128.6</ele>
        <time>2017-09-28T12:24:56Z</time>
      </trkpt>
      <trkpt lat="45.61748" lon="6.60309">
        <ele>2126.2</ele>
        <time>2017-09-28T12:24:59Z</time>
      </trkpt>
      <trkpt lat="45.61738" lon="6.60309">
        <ele>2124.4</ele>
        <time>2017-09-28T12:25:01Z</time>
      </trkpt>
      <trkpt lat="45.61726" lon="6.60307">
        <ele>2122.4</ele>
        <time>2017-09-28T12:25:04Z</time>
      </trkpt>
      <trkpt lat="45.61719" lon="6.60297">
        <ele>2121.4</ele>
        <time>2017-09-28T12:25:07Z</time>
      </trkpt>
      <trkpt lat="45.61713" lon="6.60284">
        <ele>2120.8</ele>
        <time>2017-09-28T12:25:10Z</time>
      </trkpt>
      <trkpt lat="45.61708" lon="6.60273">
        <ele>2120.2</ele>
        <time>2017-09-28T12:25:13Z</time>
      </trkpt>
      <trkpt lat="45.61716" lon="6.60263">
        <ele>2118.2</ele>
        <time>2017-09-28T12:30:59Z</time>
      </trkpt>
      <trkpt lat="45.61724" lon="6.60249">
        <ele>2117.8</ele>
        <time>2017-09-28T12:31:02Z</time>
      </trkpt>
      <trkpt lat="45.61731" lon="6.6024">
        <ele>2117.4</ele>
        <time>2017-09-28T12:31:04Z</time>
      </trkpt>
      <trkpt lat="45.61739" lon="6.6023">
        <ele>2116.9</ele>
        <time>2017-09-28T12:31:06Z</time>
      </trkpt>
      <trkpt lat="45.61748" lon="6.60218">
        <ele>2116.3</ele>
        <time>2017-09-28T12:31:08Z</time>
      </trkpt>
      <trkpt lat="45.61757" lon="6.60205">
        <ele>2115.7</ele>
        <time>2017-09-28T12:31:10Z</time>
      </trkpt>
      <trkpt lat="45.61765" lon="6.60193">
        <ele>2114.8</ele>
        <time>2017-09-28T12:31:12Z</time>
      </trkpt>
      <trkpt lat="45.61773" lon="6.60182">
        <ele>2113.5</ele>
        <time>2017-09-28T12:31:14Z</time>
      </trkpt>
      <trkpt lat="45.6178" lon="6.60172">
        <ele>2112.2</ele>
        <time>2017-09-28T12:31:16Z</time>
      </trkpt>
      <trkpt lat="45.61787" lon="6.60164">
        <ele>2111</ele>
        <time>2017-09-28T12:31:18Z</time>
      </trkpt>
      <trkpt lat="45.61794" lon="6.60153">
        <ele>2110.1</ele>
        <time>2017-09-28T12:31:20Z</time>
      </trkpt>
      <trkpt lat="45.61799" lon="6.6014">
        <ele>2109.2</ele>
        <time>2017-09-28T12:31:22Z</time>
      </trkpt>
      <trkpt lat="45.61804" lon="6.60124">
        <ele>2108.3</ele>
        <time>2017-09-28T12:31:24Z</time>
      </trkpt>
      <trkpt lat="45.6181" lon="6.60108">
        <ele>2107.3</ele>
        <time>2017-09-28T12:31:26Z</time>
      </trkpt>
      <trkpt lat="45.61816" lon="6.60094">
        <ele>2106.1</ele>
        <time>2017-09-28T12:31:28Z</time>
      </trkpt>
      <trkpt lat="45.61822" lon="6.6008">
        <ele>2104.9</ele>
        <time>2017-09-28T12:31:30Z</time>
      </trkpt>
      <trkpt lat="45.61831" lon="6.60066">
        <ele>2103.7</ele>
        <time>2017-09-28T12:31:32Z</time>
      </trkpt>
      <trkpt lat="45.61841" lon="6.60052">
        <ele>2102.4</ele>
        <time>2017-09-28T12:31:34Z</time>
      </trkpt>
      <trkpt lat="45.61849" lon="6.60037">
        <ele>2100.9</ele>
        <time>2017-09-28T12:31:36Z</time>
      </trkpt>
      <trkpt lat="45.61859" lon="6.60024">
        <ele>2099.7</ele>
        <time>2017-09-28T12:31:38Z</time>
      </trkpt>
      <trkpt lat="45.6187" lon="6.60012">
        <ele>2098.6</ele>
        <time>2017-09-28T12:31:40Z</time>
      </trkpt>
      <trkpt lat="45.61882" lon="6.60004">
        <ele>2097.4</ele>
        <time>2017-09-28T12:31:42Z</time>
      </trkpt>
      <trkpt lat="45.61894" lon="6.59999">
        <ele>2096.1</ele>
        <time>2017-09-28T12:31:44Z</time>
      </trkpt>
      <trkpt lat="45.61909" lon="6.59993">
        <ele>2094.8</ele>
        <time>2017-09-28T12:31:46Z</time>
      </trkpt>
      <trkpt lat="45.61923" lon="6.59987">
        <ele>2093.3</ele>
        <time>2017-09-28T12:31:48Z</time>
      </trkpt>
      <trkpt lat="45.61936" lon="6.5998">
        <ele>2091.8</ele>
        <time>2017-09-28T12:31:50Z</time>
      </trkpt>
      <trkpt lat="45.61947" lon="6.59972">
        <ele>2090.4</ele>
        <time>2017-09-28T12:31:52Z</time>
      </trkpt>
      <trkpt lat="45.61957" lon="6.59965">
        <ele>2088.8</ele>
        <time>2017-09-28T12:31:54Z</time>
      </trkpt>
      <trkpt lat="45.61967" lon="6.59962">
        <ele>2086.6</ele>
        <time>2017-09-28T12:31:57Z</time>
      </trkpt>
      <trkpt lat="45.61975" lon="6.5997">
        <ele>2081.6</ele>
        <time>2017-09-28T12:32:18Z</time>
      </trkpt>
      <trkpt lat="45.61974" lon="6.59986">
        <ele>2082</ele>
        <time>2017-09-28T12:34:59Z</time>
      </trkpt>
      <trkpt lat="45.61972" lon="6.59999">
        <ele>2080.8</ele>
        <time>2017-09-28T12:35:03Z</time>
      </trkpt>
      <trkpt lat="45.61983" lon="6.60001">
        <ele>2078.2</ele>
        <time>2017-09-28T12:35:15Z</time>
      </trkpt>
      <trkpt lat="45.61994" lon="6.59995">
        <ele>2075.8</ele>
        <time>2017-09-28T12:35:18Z</time>
      </trkpt>
      <trkpt lat="45.62" lon="6.60008">
        <ele>2071.4</ele>
        <time>2017-09-28T12:35:23Z</time>
      </trkpt>
      <trkpt lat="45.62009" lon="6.6001">
        <ele>2065.9</ele>
        <time>2017-09-28T12:35:29Z</time>
      </trkpt>
      <trkpt lat="45.62015" lon="6.6002">
        <ele>2059.2</ele>
        <time>2017-09-28T12:35:39Z</time>
      </trkpt>
      <trkpt lat="45.62024" lon="6.60016">
        <ele>2057.1</ele>
        <time>2017-09-28T12:35:42Z</time>
      </trkpt>
      <trkpt lat="45.62035" lon="6.60013">
        <ele>2054.8</ele>
        <time>2017-09-28T12:35:45Z</time>
      </trkpt>
      <trkpt lat="45.62044" lon="6.60012">
        <ele>2051.9</ele>
        <time>2017-09-28T12:35:49Z</time>
      </trkpt>
      <trkpt lat="45.62053" lon="6.60014">
        <ele>2045.3</ele>
        <time>2017-09-28T12:36:06Z</time>
      </trkpt>
      <trkpt lat="45.62065" lon="6.60019">
        <ele>2043.8</ele>
        <time>2017-09-28T12:36:12Z</time>
      </trkpt>
      <trkpt lat="45.62076" lon="6.60018">
        <ele>2042.2</ele>
        <time>2017-09-28T12:36:15Z</time>
      </trkpt>
      <trkpt lat="45.62085" lon="6.60011">
        <ele>2040.6</ele>
        <time>2017-09-28T12:36:18Z</time>
      </trkpt>
      <trkpt lat="45.62097" lon="6.60007">
        <ele>2039.1</ele>
        <time>2017-09-28T12:36:21Z</time>
      </trkpt>
      <trkpt lat="45.62106" lon="6.6">
        <ele>2036.3</ele>
        <time>2017-09-28T12:36:25Z</time>
      </trkpt>
      <trkpt lat="45.62109" lon="6.60012">
        <ele>2033.6</ele>
        <time>2017-09-28T12:36:29Z</time>
      </trkpt>
      <trkpt lat="45.621" lon="6.60021">
        <ele>2031.1</ele>
        <time>2017-09-28T12:36:34Z</time>
      </trkpt>
      <trkpt lat="45.62109" lon="6.60027">
        <ele>2026.1</ele>
        <time>2017-09-28T12:36:52Z</time>
      </trkpt>
      <trkpt lat="45.62118" lon="6.60024">
        <ele>2023.4</ele>
        <time>2017-09-28T12:36:58Z</time>
      </trkpt>
      <trkpt lat="45.62122" lon="6.60036">
        <ele>2020.3</ele>
        <time>2017-09-28T12:37:04Z</time>
      </trkpt>
      <trkpt lat="45.62132" lon="6.60038">
        <ele>2017</ele>
        <time>2017-09-28T12:37:17Z</time>
      </trkpt>
      <trkpt lat="45.62141" lon="6.60036">
        <ele>2015.2</ele>
        <time>2017-09-28T12:38:18Z</time>
      </trkpt>
      <trkpt lat="45.62151" lon="6.60033">
        <ele>2014.4</ele>
        <time>2017-09-28T12:38:25Z</time>
      </trkpt>
      <trkpt lat="45.6216" lon="6.60028">
        <ele>2010.2</ele>
        <time>2017-09-28T12:38:37Z</time>
      </trkpt>
      <trkpt lat="45.62164" lon="6.60014">
        <ele>2005.5</ele>
        <time>2017-09-28T12:38:53Z</time>
      </trkpt>
      <trkpt lat="45.62174" lon="6.60008">
        <ele>2004.3</ele>
        <time>2017-09-28T12:39:01Z</time>
      </trkpt>
      <trkpt lat="45.62183" lon="6.60004">
        <ele>2003.3</ele>
        <time>2017-09-28T12:39:05Z</time>
      </trkpt>
      <trkpt lat="45.6219" lon="6.59997">
        <ele>2001.3</ele>
        <time>2017-09-28T12:39:11Z</time>
      </trkpt>
      <trkpt lat="45.622" lon="6.59999">
        <ele>1998.7</ele>
        <time>2017-09-28T12:39:16Z</time>
      </trkpt>
      <trkpt lat="45.62207" lon="6.59989">
        <ele>1996.8</ele>
        <time>2017-09-28T12:39:21Z</time>
      </trkpt>
      <trkpt lat="45.62214" lon="6.59978">
        <ele>1994.4</ele>
        <time>2017-09-28T12:39:25Z</time>
      </trkpt>
      <trkpt lat="45.62224" lon="6.59977">
        <ele>1992.9</ele>
        <time>2017-09-28T12:39:28Z</time>
      </trkpt>
      <trkpt lat="45.62227" lon="6.59963">
        <ele>1990.6</ele>
        <time>2017-09-28T12:39:32Z</time>
      </trkpt>
      <trkpt lat="45.62235" lon="6.59957">
        <ele>1987.8</ele>
        <time>2017-09-28T12:39:37Z</time>
      </trkpt>
      <trkpt lat="45.62245" lon="6.59955">
        <ele>1986</ele>
        <time>2017-09-28T12:39:41Z</time>
      </trkpt>
      <trkpt lat="45.62255" lon="6.59957">
        <ele>1983.5</ele>
        <time>2017-09-28T12:39:45Z</time>
      </trkpt>
      <trkpt lat="45.62263" lon="6.59952">
        <ele>1981.5</ele>
        <time>2017-09-28T12:39:49Z</time>
      </trkpt>
      <trkpt lat="45.62269" lon="6.5994">
        <ele>1979.2</ele>
        <time>2017-09-28T12:39:54Z</time>
      </trkpt>
      <trkpt lat="45.62277" lon="6.59932">
        <ele>1978</ele>
        <time>2017-09-28T12:39:58Z</time>
      </trkpt>
      <trkpt lat="45.62287" lon="6.59938">
        <ele>1976.5</ele>
        <time>2017-09-28T12:40:03Z</time>
      </trkpt>
      <trkpt lat="45.62293" lon="6.59948">
        <ele>1975.3</ele>
        <time>2017-09-28T12:40:06Z</time>
      </trkpt>
      <trkpt lat="45.62298" lon="6.5996">
        <ele>1973.3</ele>
        <time>2017-09-28T12:40:22Z</time>
      </trkpt>
      <trkpt lat="45.62308" lon="6.59962">
        <ele>1973.6</ele>
        <time>2017-09-28T12:40:31Z</time>
      </trkpt>
      <trkpt lat="45.62319" lon="6.59963">
        <ele>1973.7</ele>
        <time>2017-09-28T12:40:36Z</time>
      </trkpt>
      <trkpt lat="45.6233" lon="6.5996">
        <ele>1973.7</ele>
        <time>2017-09-28T12:40:40Z</time>
      </trkpt>
      <trkpt lat="45.6234" lon="6.59956">
        <ele>1973.2</ele>
        <time>2017-09-28T12:40:44Z</time>
      </trkpt>
      <trkpt lat="45.62351" lon="6.59954">
        <ele>1971.7</ele>
        <time>2017-09-28T12:40:48Z</time>
      </trkpt>
      <trkpt lat="45.62359" lon="6.59964">
        <ele>1970</ele>
        <time>2017-09-28T12:40:52Z</time>
      </trkpt>
      <trkpt lat="45.62372" lon="6.5996">
        <ele>1968.5</ele>
        <time>2017-09-28T12:40:55Z</time>
      </trkpt>
      <trkpt lat="45.62381" lon="6.5995">
        <ele>1967.6</ele>
        <time>2017-09-28T12:40:57Z</time>
      </trkpt>
      <trkpt lat="45.62388" lon="6.5994">
        <ele>1966.6</ele>
        <time>2017-09-28T12:40:59Z</time>
      </trkpt>
      <trkpt lat="45.62396" lon="6.59931">
        <ele>1965</ele>
        <time>2017-09-28T12:41:02Z</time>
      </trkpt>
      <trkpt lat="45.62405" lon="6.59921">
        <ele>1962.3</ele>
        <time>2017-09-28T12:41:07Z</time>
      </trkpt>
      <trkpt lat="45.62415" lon="6.59922">
        <ele>1960.4</ele>
        <time>2017-09-28T12:41:11Z</time>
      </trkpt>
      <trkpt lat="45.62424" lon="6.59931">
        <ele>1958.2</ele>
        <time>2017-09-28T12:41:15Z</time>
      </trkpt>
      <trkpt lat="45.62433" lon="6.59939">
        <ele>1955.2</ele>
        <time>2017-09-28T12:41:20Z</time>
      </trkpt>
      <trkpt lat="45.62442" lon="6.59943">
        <ele>1949.6</ele>
        <time>2017-09-28T12:41:37Z</time>
      </trkpt>
      <trkpt lat="45.62448" lon="6.59958">
        <ele>1948.6</ele>
        <time>2017-09-28T12:41:41Z</time>
      </trkpt>
      <trkpt lat="45.62455" lon="6.59966">
        <ele>1946.9</ele>
        <time>2017-09-28T12:41:45Z</time>
      </trkpt>
      <trkpt lat="45.62465" lon="6.59972">
        <ele>1943</ele>
        <time>2017-09-28T12:41:56Z</time>
      </trkpt>
      <trkpt lat="45.62471" lon="6.59984">
        <ele>1941.2</ele>
        <time>2017-09-28T12:42:00Z</time>
      </trkpt>
      <trkpt lat="45.62479" lon="6.5999">
        <ele>1939</ele>
        <time>2017-09-28T12:42:11Z</time>
      </trkpt>
      <trkpt lat="45.62488" lon="6.59992">
        <ele>1939</ele>
        <time>2017-09-28T12:42:17Z</time>
      </trkpt>
      <trkpt lat="45.62498" lon="6.59997">
        <ele>1938.8</ele>
        <time>2017-09-28T12:42:20Z</time>
      </trkpt>
      <trkpt lat="45.62507" lon="6.60004">
        <ele>1938.3</ele>
        <time>2017-09-28T12:42:24Z</time>
      </trkpt>
      <trkpt lat="45.62519" lon="6.60005">
        <ele>1937.8</ele>
        <time>2017-09-28T12:42:28Z</time>
      </trkpt>
      <trkpt lat="45.6253" lon="6.60004">
        <ele>1937.4</ele>
        <time>2017-09-28T12:42:31Z</time>
      </trkpt>
      <trkpt lat="45.62535" lon="6.60016">
        <ele>1935.9</ele>
        <time>2017-09-28T12:42:59Z</time>
      </trkpt>
      <trkpt lat="45.62533" lon="6.60028">
        <ele>1936.2</ele>
        <time>2017-09-28T12:43:08Z</time>
      </trkpt>
      <trkpt lat="45.62536" lon="6.60041">
        <ele>1936</ele>
        <time>2017-09-28T12:43:16Z</time>
      </trkpt>
      <trkpt lat="45.62544" lon="6.60053">
        <ele>1935.8</ele>
        <time>2017-09-28T12:43:20Z</time>
      </trkpt>
      <trkpt lat="45.62547" lon="6.60065">
        <ele>1935.4</ele>
        <time>2017-09-28T12:43:22Z</time>
      </trkpt>
      <trkpt lat="45.6255" lon="6.60081">
        <ele>1934.7</ele>
        <time>2017-09-28T12:43:24Z</time>
      </trkpt>
      <trkpt lat="45.62556" lon="6.60095">
        <ele>1933.6</ele>
        <time>2017-09-28T12:43:27Z</time>
      </trkpt>
      <trkpt lat="45.62565" lon="6.60103">
        <ele>1932.6</ele>
        <time>2017-09-28T12:43:30Z</time>
      </trkpt>
      <trkpt lat="45.62575" lon="6.60109">
        <ele>1932</ele>
        <time>2017-09-28T12:43:34Z</time>
      </trkpt>
      <trkpt lat="45.62586" lon="6.60101">
        <ele>1931.3</ele>
        <time>2017-09-28T12:43:37Z</time>
      </trkpt>
      <trkpt lat="45.62591" lon="6.60089">
        <ele>1929.2</ele>
        <time>2017-09-28T12:43:46Z</time>
      </trkpt>
      <trkpt lat="45.62598" lon="6.60075">
        <ele>1928.8</ele>
        <time>2017-09-28T12:43:50Z</time>
      </trkpt>
      <trkpt lat="45.62604" lon="6.60064">
        <ele>1928.4</ele>
        <time>2017-09-28T12:43:53Z</time>
      </trkpt>
      <trkpt lat="45.62608" lon="6.60052">
        <ele>1927.6</ele>
        <time>2017-09-28T12:43:57Z</time>
      </trkpt>
      <trkpt lat="45.62617" lon="6.6004">
        <ele>1926.5</ele>
        <time>2017-09-28T12:44:04Z</time>
      </trkpt>
      <trkpt lat="45.62627" lon="6.60032">
        <ele>1926</ele>
        <time>2017-09-28T12:44:07Z</time>
      </trkpt>
      <trkpt lat="45.62637" lon="6.60029">
        <ele>1925.7</ele>
        <time>2017-09-28T12:44:09Z</time>
      </trkpt>
      <trkpt lat="45.62646" lon="6.60025">
        <ele>1925.3</ele>
        <time>2017-09-28T12:44:11Z</time>
      </trkpt>
      <trkpt lat="45.62656" lon="6.60023">
        <ele>1924.8</ele>
        <time>2017-09-28T12:44:13Z</time>
      </trkpt>
      <trkpt lat="45.62666" lon="6.60023">
        <ele>1924.2</ele>
        <time>2017-09-28T12:44:15Z</time>
      </trkpt>
      <trkpt lat="45.62678" lon="6.60024">
        <ele>1923.8</ele>
        <time>2017-09-28T12:44:17Z</time>
      </trkpt>
      <trkpt lat="45.62689" lon="6.60025">
        <ele>1922.4</ele>
        <time>2017-09-28T12:44:21Z</time>
      </trkpt>
      <trkpt lat="45.627" lon="6.60032">
        <ele>1921.3</ele>
        <time>2017-09-28T12:44:25Z</time>
      </trkpt>
      <trkpt lat="45.62708" lon="6.6004">
        <ele>1920.7</ele>
        <time>2017-09-28T12:44:27Z</time>
      </trkpt>
      <trkpt lat="45.62715" lon="6.60048">
        <ele>1920</ele>
        <time>2017-09-28T12:44:29Z</time>
      </trkpt>
      <trkpt lat="45.62719" lon="6.60036">
        <ele>1917.3</ele>
        <time>2017-09-28T12:44:36Z</time>
      </trkpt>
      <trkpt lat="45.62718" lon="6.60021">
        <ele>1915.6</ele>
        <time>2017-09-28T12:44:39Z</time>
      </trkpt>
      <trkpt lat="45.62713" lon="6.60007">
        <ele>1913.5</ele>
        <time>2017-09-28T12:44:42Z</time>
      </trkpt>
      <trkpt lat="45.62714" lon="6.5999">
        <ele>1910.8</ele>
        <time>2017-09-28T12:44:45Z</time>
      </trkpt>
      <trkpt lat="45.62713" lon="6.59977">
        <ele>1906.5</ele>
        <time>2017-09-28T12:44:50Z</time>
      </trkpt>
      <trkpt lat="45.62706" lon="6.59961">
        <ele>1902.4</ele>
        <time>2017-09-28T12:44:57Z</time>
      </trkpt>
      <trkpt lat="45.627" lon="6.59948">
        <ele>1900.1</ele>
        <time>2017-09-28T12:45:00Z</time>
      </trkpt>
      <trkpt lat="45.62692" lon="6.59942">
        <ele>1898</ele>
        <time>2017-09-28T12:45:03Z</time>
      </trkpt>
      <trkpt lat="45.62683" lon="6.59936">
        <ele>1896.2</ele>
        <time>2017-09-28T12:45:06Z</time>
      </trkpt>
      <trkpt lat="45.6268" lon="6.59922">
        <ele>1893.2</ele>
        <time>2017-09-28T12:45:11Z</time>
      </trkpt>
      <trkpt lat="45.62686" lon="6.59908">
        <ele>1890.1</ele>
        <time>2017-09-28T12:45:15Z</time>
      </trkpt>
      <trkpt lat="45.62682" lon="6.59893">
        <ele>1886.9</ele>
        <time>2017-09-28T12:45:19Z</time>
      </trkpt>
      <trkpt lat="45.62677" lon="6.59882">
        <ele>1884.1</ele>
        <time>2017-09-28T12:45:22Z</time>
      </trkpt>
      <trkpt lat="45.62686" lon="6.59873">
        <ele>1880</ele>
        <time>2017-09-28T12:45:27Z</time>
      </trkpt>
      <trkpt lat="45.62695" lon="6.59864">
        <ele>1877.1</ele>
        <time>2017-09-28T12:45:31Z</time>
      </trkpt>
      <trkpt lat="45.62701" lon="6.59852">
        <ele>1874.3</ele>
        <time>2017-09-28T12:45:34Z</time>
      </trkpt>
      <trkpt lat="45.62705" lon="6.59839">
        <ele>1871.4</ele>
        <time>2017-09-28T12:45:37Z</time>
      </trkpt>
      <trkpt lat="45.62706" lon="6.59823">
        <ele>1867.2</ele>
        <time>2017-09-28T12:45:43Z</time>
      </trkpt>
      <trkpt lat="45.62706" lon="6.59808">
        <ele>1865.7</ele>
        <time>2017-09-28T12:45:46Z</time>
      </trkpt>
      <trkpt lat="45.62714" lon="6.59798">
        <ele>1862.8</ele>
        <time>2017-09-28T12:45:51Z</time>
      </trkpt>
      <trkpt lat="45.62724" lon="6.598">
        <ele>1859.8</ele>
        <time>2017-09-28T12:46:29Z</time>
      </trkpt>
      <trkpt lat="45.62731" lon="6.59788">
        <ele>1859.5</ele>
        <time>2017-09-28T12:46:33Z</time>
      </trkpt>
      <trkpt lat="45.62729" lon="6.59775">
        <ele>1859</ele>
        <time>2017-09-28T12:46:35Z</time>
      </trkpt>
      <trkpt lat="45.62727" lon="6.59762">
        <ele>1858.5</ele>
        <time>2017-09-28T12:46:37Z</time>
      </trkpt>
      <trkpt lat="45.62729" lon="6.59748">
        <ele>1858</ele>
        <time>2017-09-28T12:46:39Z</time>
      </trkpt>
      <trkpt lat="45.62733" lon="6.59732">
        <ele>1857.3</ele>
        <time>2017-09-28T12:46:41Z</time>
      </trkpt>
      <trkpt lat="45.62739" lon="6.59716">
        <ele>1856.6</ele>
        <time>2017-09-28T12:46:43Z</time>
      </trkpt>
      <trkpt lat="45.62745" lon="6.59697">
        <ele>1855.8</ele>
        <time>2017-09-28T12:46:45Z</time>
      </trkpt>
      <trkpt lat="45.62752" lon="6.5968">
        <ele>1855</ele>
        <time>2017-09-28T12:46:47Z</time>
      </trkpt>
      <trkpt lat="45.62758" lon="6.59661">
        <ele>1854.3</ele>
        <time>2017-09-28T12:46:49Z</time>
      </trkpt>
      <trkpt lat="45.62764" lon="6.59644">
        <ele>1853.7</ele>
        <time>2017-09-28T12:46:51Z</time>
      </trkpt>
      <trkpt lat="45.62771" lon="6.5963">
        <ele>1853</ele>
        <time>2017-09-28T12:46:53Z</time>
      </trkpt>
      <trkpt lat="45.62778" lon="6.59618">
        <ele>1852.3</ele>
        <time>2017-09-28T12:46:55Z</time>
      </trkpt>
      <trkpt lat="45.62787" lon="6.59609">
        <ele>1851.7</ele>
        <time>2017-09-28T12:46:57Z</time>
      </trkpt>
      <trkpt lat="45.62795" lon="6.596">
        <ele>1851.2</ele>
        <time>2017-09-28T12:46:59Z</time>
      </trkpt>
      <trkpt lat="45.62804" lon="6.59595">
        <ele>1850.8</ele>
        <time>2017-09-28T12:47:01Z</time>
      </trkpt>
      <trkpt lat="45.62813" lon="6.59593">
        <ele>1850.4</ele>
        <time>2017-09-28T12:47:03Z</time>
      </trkpt>
      <trkpt lat="45.62823" lon="6.5959">
        <ele>1849.8</ele>
        <time>2017-09-28T12:47:05Z</time>
      </trkpt>
      <trkpt lat="45.62832" lon="6.5959">
        <ele>1847.9</ele>
        <time>2017-09-28T12:47:09Z</time>
      </trkpt>
      <trkpt lat="45.62842" lon="6.59594">
        <ele>1845.9</ele>
        <time>2017-09-28T12:47:12Z</time>
      </trkpt>
      <trkpt lat="45.62853" lon="6.59599">
        <ele>1843.7</ele>
        <time>2017-09-28T12:47:15Z</time>
      </trkpt>
      <trkpt lat="45.62862" lon="6.59594">
        <ele>1841.6</ele>
        <time>2017-09-28T12:47:18Z</time>
      </trkpt>
      <trkpt lat="45.62872" lon="6.59588">
        <ele>1838.4</ele>
        <time>2017-09-28T12:47:24Z</time>
      </trkpt>
      <trkpt lat="45.62882" lon="6.59577">
        <ele>1836.8</ele>
        <time>2017-09-28T12:47:28Z</time>
      </trkpt>
      <trkpt lat="45.62891" lon="6.59567">
        <ele>1835.1</ele>
        <time>2017-09-28T12:47:32Z</time>
      </trkpt>
      <trkpt lat="45.62898" lon="6.59558">
        <ele>1829.8</ele>
        <time>2017-09-28T12:47:48Z</time>
      </trkpt>
      <trkpt lat="45.62904" lon="6.59548">
        <ele>1829.4</ele>
        <time>2017-09-28T12:48:06Z</time>
      </trkpt>
      <trkpt lat="45.62911" lon="6.59539">
        <ele>1828.8</ele>
        <time>2017-09-28T12:48:09Z</time>
      </trkpt>
      <trkpt lat="45.62921" lon="6.59531">
        <ele>1827.1</ele>
        <time>2017-09-28T12:48:13Z</time>
      </trkpt>
      <trkpt lat="45.6293" lon="6.59535">
        <ele>1825.6</ele>
        <time>2017-09-28T12:48:16Z</time>
      </trkpt>
      <trkpt lat="45.62939" lon="6.59527">
        <ele>1824.3</ele>
        <time>2017-09-28T12:48:19Z</time>
      </trkpt>
      <trkpt lat="45.62949" lon="6.5952">
        <ele>1823.2</ele>
        <time>2017-09-28T12:48:21Z</time>
      </trkpt>
      <trkpt lat="45.62958" lon="6.59514">
        <ele>1822</ele>
        <time>2017-09-28T12:48:23Z</time>
      </trkpt>
      <trkpt lat="45.62966" lon="6.59501">
        <ele>1820.5</ele>
        <time>2017-09-28T12:48:26Z</time>
      </trkpt>
      <trkpt lat="45.62975" lon="6.5949">
        <ele>1818.5</ele>
        <time>2017-09-28T12:48:29Z</time>
      </trkpt>
      <trkpt lat="45.62983" lon="6.59477">
        <ele>1816</ele>
        <time>2017-09-28T12:48:32Z</time>
      </trkpt>
      <trkpt lat="45.62991" lon="6.59482">
        <ele>1812.5</ele>
        <time>2017-09-28T12:48:36Z</time>
      </trkpt>
      <trkpt lat="45.62992" lon="6.59498">
        <ele>1808</ele>
        <time>2017-09-28T12:48:50Z</time>
      </trkpt>
      <trkpt lat="45.62992" lon="6.59516">
        <ele>1806.9</ele>
        <time>2017-09-28T12:48:53Z</time>
      </trkpt>
      <trkpt lat="45.6299" lon="6.59532">
        <ele>1804.5</ele>
        <time>2017-09-28T12:49:01Z</time>
      </trkpt>
      <trkpt lat="45.63" lon="6.59531">
        <ele>1803.1</ele>
        <time>2017-09-28T12:49:16Z</time>
      </trkpt>
      <trkpt lat="45.63008" lon="6.59524">
        <ele>1803.4</ele>
        <time>2017-09-28T12:49:19Z</time>
      </trkpt>
      <trkpt lat="45.63019" lon="6.59518">
        <ele>1803.1</ele>
        <time>2017-09-28T12:49:23Z</time>
      </trkpt>
      <trkpt lat="45.63027" lon="6.59507">
        <ele>1802.3</ele>
        <time>2017-09-28T12:49:26Z</time>
      </trkpt>
      <trkpt lat="45.63038" lon="6.59504">
        <ele>1800.3</ele>
        <time>2017-09-28T12:49:30Z</time>
      </trkpt>
      <trkpt lat="45.63043" lon="6.59516">
        <ele>1797.1</ele>
        <time>2017-09-28T12:49:45Z</time>
      </trkpt>
      <trkpt lat="45.6305" lon="6.59526">
        <ele>1797.6</ele>
        <time>2017-09-28T12:49:58Z</time>
      </trkpt>
      <trkpt lat="45.63056" lon="6.59536">
        <ele>1798.8</ele>
        <time>2017-09-28T12:50:25Z</time>
      </trkpt>
      <trkpt lat="45.63061" lon="6.59548">
        <ele>1799</ele>
        <time>2017-09-28T12:50:33Z</time>
      </trkpt>
      <trkpt lat="45.63068" lon="6.59557">
        <ele>1799.8</ele>
        <time>2017-09-28T12:50:41Z</time>
      </trkpt>
      <trkpt lat="45.63077" lon="6.59559">
        <ele>1800.3</ele>
        <time>2017-09-28T12:50:48Z</time>
      </trkpt>
      <trkpt lat="45.63088" lon="6.59562">
        <ele>1801</ele>
        <time>2017-09-28T12:50:55Z</time>
      </trkpt>
      <trkpt lat="45.631" lon="6.59558">
        <ele>1801.2</ele>
        <time>2017-09-28T12:50:59Z</time>
      </trkpt>
      <trkpt lat="45.63114" lon="6.59562">
        <ele>1800.6</ele>
        <time>2017-09-28T12:51:02Z</time>
      </trkpt>
      <trkpt lat="45.63123" lon="6.59565">
        <ele>1800</ele>
        <time>2017-09-28T12:51:05Z</time>
      </trkpt>
      <trkpt lat="45.63131" lon="6.5957">
        <ele>1798.4</ele>
        <time>2017-09-28T12:51:18Z</time>
      </trkpt>
      <trkpt lat="45.6314" lon="6.59575">
        <ele>1797.5</ele>
        <time>2017-09-28T12:51:22Z</time>
      </trkpt>
      <trkpt lat="45.63141" lon="6.5956">
        <ele>1796.9</ele>
        <time>2017-09-28T12:51:28Z</time>
      </trkpt>
      <trkpt lat="45.63141" lon="6.59545">
        <ele>1797.1</ele>
        <time>2017-09-28T12:51:33Z</time>
      </trkpt>
      <trkpt lat="45.63146" lon="6.59531">
        <ele>1797.5</ele>
        <time>2017-09-28T12:51:38Z</time>
      </trkpt>
      <trkpt lat="45.63155" lon="6.59526">
        <ele>1797.8</ele>
        <time>2017-09-28T12:51:43Z</time>
      </trkpt>
      <trkpt lat="45.63157" lon="6.59513">
        <ele>1797.7</ele>
        <time>2017-09-28T12:51:47Z</time>
      </trkpt>
      <trkpt lat="45.63158" lon="6.59498">
        <ele>1796.7</ele>
        <time>2017-09-28T12:51:51Z</time>
      </trkpt>
      <trkpt lat="45.63159" lon="6.59484">
        <ele>1794.9</ele>
        <time>2017-09-28T12:51:55Z</time>
      </trkpt>
      <trkpt lat="45.63169" lon="6.59477">
        <ele>1792.6</ele>
        <time>2017-09-28T12:51:59Z</time>
      </trkpt>
      <trkpt lat="45.6318" lon="6.59476">
        <ele>1789.7</ele>
        <time>2017-09-28T12:52:04Z</time>
      </trkpt>
      <trkpt lat="45.63186" lon="6.59466">
        <ele>1787.6</ele>
        <time>2017-09-28T12:52:08Z</time>
      </trkpt>
      <trkpt lat="45.63188" lon="6.59453">
        <ele>1785.6</ele>
        <time>2017-09-28T12:52:13Z</time>
      </trkpt>
      <trkpt lat="45.63187" lon="6.5944">
        <ele>1784.8</ele>
        <time>2017-09-28T12:52:18Z</time>
      </trkpt>
      <trkpt lat="45.6319" lon="6.59426">
        <ele>1785.1</ele>
        <time>2017-09-28T12:52:22Z</time>
      </trkpt>
      <trkpt lat="45.63196" lon="6.59414">
        <ele>1785.3</ele>
        <time>2017-09-28T12:52:25Z</time>
      </trkpt>
      <trkpt lat="45.63199" lon="6.594">
        <ele>1785.3</ele>
        <time>2017-09-28T12:52:28Z</time>
      </trkpt>
      <trkpt lat="45.63201" lon="6.59383">
        <ele>1785.4</ele>
        <time>2017-09-28T12:52:31Z</time>
      </trkpt>
      <trkpt lat="45.63205" lon="6.59371">
        <ele>1785.4</ele>
        <time>2017-09-28T12:52:34Z</time>
      </trkpt>
      <trkpt lat="45.63209" lon="6.59358">
        <ele>1785.2</ele>
        <time>2017-09-28T12:52:37Z</time>
      </trkpt>
      <trkpt lat="45.63214" lon="6.59345">
        <ele>1785</ele>
        <time>2017-09-28T12:52:40Z</time>
      </trkpt>
      <trkpt lat="45.63218" lon="6.59328">
        <ele>1784.5</ele>
        <time>2017-09-28T12:52:43Z</time>
      </trkpt>
      <trkpt lat="45.63219" lon="6.59315">
        <ele>1783.3</ele>
        <time>2017-09-28T12:52:46Z</time>
      </trkpt>
      <trkpt lat="45.63222" lon="6.59302">
        <ele>1782.3</ele>
        <time>2017-09-28T12:52:48Z</time>
      </trkpt>
      <trkpt lat="45.63227" lon="6.59289">
        <ele>1781.2</ele>
        <time>2017-09-28T12:52:50Z</time>
      </trkpt>
      <trkpt lat="45.63236" lon="6.59278">
        <ele>1779.8</ele>
        <time>2017-09-28T12:52:52Z</time>
      </trkpt>
      <trkpt lat="45.63245" lon="6.59278">
        <ele>1777.3</ele>
        <time>2017-09-28T12:52:56Z</time>
      </trkpt>
      <trkpt lat="45.63254" lon="6.59274">
        <ele>1774.1</ele>
        <time>2017-09-28T12:53:06Z</time>
      </trkpt>
      <trkpt lat="45.63256" lon="6.59258">
        <ele>1772.3</ele>
        <time>2017-09-28T12:53:11Z</time>
      </trkpt>
      <trkpt lat="45.63267" lon="6.59247">
        <ele>1770.8</ele>
        <time>2017-09-28T12:53:14Z</time>
      </trkpt>
      <trkpt lat="45.63274" lon="6.59238">
        <ele>1768.5</ele>
        <time>2017-09-28T12:53:17Z</time>
      </trkpt>
      <trkpt lat="45.63279" lon="6.59228">
        <ele>1765</ele>
        <time>2017-09-28T12:53:21Z</time>
      </trkpt>
      <trkpt lat="45.63286" lon="6.59216">
        <ele>1759.1</ele>
        <time>2017-09-28T12:53:29Z</time>
      </trkpt>
      <trkpt lat="45.63291" lon="6.59205">
        <ele>1755.2</ele>
        <time>2017-09-28T12:53:35Z</time>
      </trkpt>
      <trkpt lat="45.63292" lon="6.59188">
        <ele>1753.5</ele>
        <time>2017-09-28T12:53:39Z</time>
      </trkpt>
      <trkpt lat="45.63287" lon="6.59175">
        <ele>1749.9</ele>
        <time>2017-09-28T12:54:48Z</time>
      </trkpt>
      <trkpt lat="45.6329" lon="6.59159">
        <ele>1746.3</ele>
        <time>2017-09-28T12:54:54Z</time>
      </trkpt>
      <trkpt lat="45.63303" lon="6.59151">
        <ele>1744.4</ele>
        <time>2017-09-28T12:54:57Z</time>
      </trkpt>
      <trkpt lat="45.63311" lon="6.59146">
        <ele>1743.1</ele>
        <time>2017-09-28T12:54:59Z</time>
      </trkpt>
      <trkpt lat="45.6332" lon="6.59142">
        <ele>1742</ele>
        <time>2017-09-28T12:55:01Z</time>
      </trkpt>
      <trkpt lat="45.63331" lon="6.59135">
        <ele>1740.7</ele>
        <time>2017-09-28T12:55:03Z</time>
      </trkpt>
      <trkpt lat="45.63341" lon="6.59132">
        <ele>1739.3</ele>
        <time>2017-09-28T12:55:05Z</time>
      </trkpt>
      <trkpt lat="45.63351" lon="6.59126">
        <ele>1736.4</ele>
        <time>2017-09-28T12:55:09Z</time>
      </trkpt>
      <trkpt lat="45.63358" lon="6.59118">
        <ele>1732.5</ele>
        <time>2017-09-28T12:55:23Z</time>
      </trkpt>
      <trkpt lat="45.63365" lon="6.59105">
        <ele>1732.3</ele>
        <time>2017-09-28T12:55:28Z</time>
      </trkpt>
      <trkpt lat="45.63373" lon="6.59092">
        <ele>1732.2</ele>
        <time>2017-09-28T12:55:31Z</time>
      </trkpt>
      <trkpt lat="45.63385" lon="6.59082">
        <ele>1731.6</ele>
        <time>2017-09-28T12:55:34Z</time>
      </trkpt>
      <trkpt lat="45.63394" lon="6.59079">
        <ele>1729.7</ele>
        <time>2017-09-28T12:55:38Z</time>
      </trkpt>
      <trkpt lat="45.63403" lon="6.59075">
        <ele>1727.9</ele>
        <time>2017-09-28T12:55:43Z</time>
      </trkpt>
      <trkpt lat="45.63408" lon="6.59064">
        <ele>1727.2</ele>
        <time>2017-09-28T12:55:46Z</time>
      </trkpt>
      <trkpt lat="45.63414" lon="6.59054">
        <ele>1726.7</ele>
        <time>2017-09-28T12:55:48Z</time>
      </trkpt>
      <trkpt lat="45.63422" lon="6.59041">
        <ele>1725.1</ele>
        <time>2017-09-28T12:55:51Z</time>
      </trkpt>
      <trkpt lat="45.63434" lon="6.59042">
        <ele>1722.1</ele>
        <time>2017-09-28T12:55:56Z</time>
      </trkpt>
      <trkpt lat="45.63442" lon="6.59048">
        <ele>1720.8</ele>
        <time>2017-09-28T12:56:00Z</time>
      </trkpt>
      <trkpt lat="45.63454" lon="6.59048">
        <ele>1720.3</ele>
        <time>2017-09-28T12:56:04Z</time>
      </trkpt>
      <trkpt lat="45.63462" lon="6.59041">
        <ele>1720</ele>
        <time>2017-09-28T12:56:06Z</time>
      </trkpt>
      <trkpt lat="45.63472" lon="6.59033">
        <ele>1719.2</ele>
        <time>2017-09-28T12:56:09Z</time>
      </trkpt>
      <trkpt lat="45.6348" lon="6.59029">
        <ele>1718.4</ele>
        <time>2017-09-28T12:56:12Z</time>
      </trkpt>
      <trkpt lat="45.63488" lon="6.59017">
        <ele>1717</ele>
        <time>2017-09-28T12:56:16Z</time>
      </trkpt>
      <trkpt lat="45.63495" lon="6.59009">
        <ele>1715.4</ele>
        <time>2017-09-28T12:56:19Z</time>
      </trkpt>
      <trkpt lat="45.63505" lon="6.59">
        <ele>1713.8</ele>
        <time>2017-09-28T12:56:23Z</time>
      </trkpt>
      <trkpt lat="45.63514" lon="6.58994">
        <ele>1712.8</ele>
        <time>2017-09-28T12:56:26Z</time>
      </trkpt>
      <trkpt lat="45.63517" lon="6.58981">
        <ele>1712.2</ele>
        <time>2017-09-28T12:56:29Z</time>
      </trkpt>
      <trkpt lat="45.63524" lon="6.58967">
        <ele>1711.6</ele>
        <time>2017-09-28T12:56:32Z</time>
      </trkpt>
      <trkpt lat="45.63529" lon="6.58953">
        <ele>1710.2</ele>
        <time>2017-09-28T12:56:35Z</time>
      </trkpt>
      <trkpt lat="45.63535" lon="6.58941">
        <ele>1708.3</ele>
        <time>2017-09-28T12:56:38Z</time>
      </trkpt>
      <trkpt lat="45.63547" lon="6.58937">
        <ele>1706.8</ele>
        <time>2017-09-28T12:56:41Z</time>
      </trkpt>
      <trkpt lat="45.63557" lon="6.5893">
        <ele>1705.7</ele>
        <time>2017-09-28T12:56:44Z</time>
      </trkpt>
      <trkpt lat="45.63569" lon="6.58922">
        <ele>1704.8</ele>
        <time>2017-09-28T12:56:47Z</time>
      </trkpt>
      <trkpt lat="45.63578" lon="6.58915">
        <ele>1704.4</ele>
        <time>2017-09-28T12:56:50Z</time>
      </trkpt>
      <trkpt lat="45.63588" lon="6.58909">
        <ele>1704.9</ele>
        <time>2017-09-28T12:56:54Z</time>
      </trkpt>
      <trkpt lat="45.63597" lon="6.58903">
        <ele>1704.9</ele>
        <time>2017-09-28T12:56:57Z</time>
      </trkpt>
      <trkpt lat="45.63604" lon="6.5889">
        <ele>1703.9</ele>
        <time>2017-09-28T12:57:00Z</time>
      </trkpt>
      <trkpt lat="45.6361" lon="6.58877">
        <ele>1701.9</ele>
        <time>2017-09-28T12:57:03Z</time>
      </trkpt>
      <trkpt lat="45.63617" lon="6.58867">
        <ele>1699.6</ele>
        <time>2017-09-28T12:57:06Z</time>
      </trkpt>
      <trkpt lat="45.63627" lon="6.58859">
        <ele>1698.1</ele>
        <time>2017-09-28T12:57:10Z</time>
      </trkpt>
      <trkpt lat="45.63637" lon="6.58858">
        <ele>1697.4</ele>
        <time>2017-09-28T12:57:13Z</time>
      </trkpt>
      <trkpt lat="45.63648" lon="6.58854">
        <ele>1696.7</ele>
        <time>2017-09-28T12:57:16Z</time>
      </trkpt>
      <trkpt lat="45.63656" lon="6.58848">
        <ele>1695.8</ele>
        <time>2017-09-28T12:57:18Z</time>
      </trkpt>
      <trkpt lat="45.63664" lon="6.58839">
        <ele>1695</ele>
        <time>2017-09-28T12:57:20Z</time>
      </trkpt>
      <trkpt lat="45.63672" lon="6.5883">
        <ele>1693.8</ele>
        <time>2017-09-28T12:57:22Z</time>
      </trkpt>
      <trkpt lat="45.63683" lon="6.58823">
        <ele>1692.4</ele>
        <time>2017-09-28T12:57:24Z</time>
      </trkpt>
      <trkpt lat="45.63693" lon="6.58817">
        <ele>1690.6</ele>
        <time>2017-09-28T12:57:26Z</time>
      </trkpt>
      <trkpt lat="45.63703" lon="6.58813">
        <ele>1688.9</ele>
        <time>2017-09-28T12:57:28Z</time>
      </trkpt>
      <trkpt lat="45.63715" lon="6.58809">
        <ele>1686.5</ele>
        <time>2017-09-28T12:57:31Z</time>
      </trkpt>
      <trkpt lat="45.63726" lon="6.58819">
        <ele>1684.1</ele>
        <time>2017-09-28T12:57:34Z</time>
      </trkpt>
      <trkpt lat="45.63735" lon="6.58822">
        <ele>1681.7</ele>
        <time>2017-09-28T12:57:37Z</time>
      </trkpt>
      <trkpt lat="45.63745" lon="6.58824">
        <ele>1676.7</ele>
        <time>2017-09-28T12:57:43Z</time>
      </trkpt>
      <trkpt lat="45.63755" lon="6.58818">
        <ele>1673.6</ele>
        <time>2017-09-28T12:57:49Z</time>
      </trkpt>
      <trkpt lat="45.63759" lon="6.58806">
        <ele>1671.5</ele>
        <time>2017-09-28T12:57:53Z</time>
      </trkpt>
      <trkpt lat="45.63769" lon="6.58804">
        <ele>1670.5</ele>
        <time>2017-09-28T12:57:57Z</time>
      </trkpt>
      <trkpt lat="45.6378" lon="6.58801">
        <ele>1669.8</ele>
        <time>2017-09-28T12:58:00Z</time>
      </trkpt>
      <trkpt lat="45.63779" lon="6.58786">
        <ele>1665.7</ele>
        <time>2017-09-28T12:58:16Z</time>
      </trkpt>
      <trkpt lat="45.63777" lon="6.58769">
        <ele>1664.8</ele>
        <time>2017-09-28T12:58:19Z</time>
      </trkpt>
      <trkpt lat="45.63772" lon="6.58755">
        <ele>1663.7</ele>
        <time>2017-09-28T12:58:24Z</time>
      </trkpt>
      <trkpt lat="45.63775" lon="6.58742">
        <ele>1662.5</ele>
        <time>2017-09-28T12:58:27Z</time>
      </trkpt>
      <trkpt lat="45.6378" lon="6.58728">
        <ele>1660.8</ele>
        <time>2017-09-28T12:58:30Z</time>
      </trkpt>
      <trkpt lat="45.63787" lon="6.58716">
        <ele>1658.7</ele>
        <time>2017-09-28T12:58:33Z</time>
      </trkpt>
      <trkpt lat="45.63795" lon="6.58703">
        <ele>1656.1</ele>
        <time>2017-09-28T12:58:36Z</time>
      </trkpt>
      <trkpt lat="45.63801" lon="6.58692">
        <ele>1653.4</ele>
        <time>2017-09-28T12:58:39Z</time>
      </trkpt>
      <trkpt lat="45.63809" lon="6.58684">
        <ele>1650.6</ele>
        <time>2017-09-28T12:58:42Z</time>
      </trkpt>
      <trkpt lat="45.63818" lon="6.58673">
        <ele>1649</ele>
        <time>2017-09-28T12:58:44Z</time>
      </trkpt>
      <trkpt lat="45.63827" lon="6.58663">
        <ele>1647</ele>
        <time>2017-09-28T12:58:46Z</time>
      </trkpt>
      <trkpt lat="45.63836" lon="6.58659">
        <ele>1643.9</ele>
        <time>2017-09-28T12:58:49Z</time>
      </trkpt>
      <trkpt lat="45.63846" lon="6.58655">
        <ele>1641.3</ele>
        <time>2017-09-28T12:58:54Z</time>
      </trkpt>
      <trkpt lat="45.63857" lon="6.5865">
        <ele>1639.6</ele>
        <time>2017-09-28T12:59:00Z</time>
      </trkpt>
      <trkpt lat="45.63866" lon="6.58646">
        <ele>1638.9</ele>
        <time>2017-09-28T12:59:04Z</time>
      </trkpt>
      <trkpt lat="45.63877" lon="6.58644">
        <ele>1638.1</ele>
        <time>2017-09-28T12:59:10Z</time>
      </trkpt>
      <trkpt lat="45.63886" lon="6.58642">
        <ele>1637.6</ele>
        <time>2017-09-28T12:59:13Z</time>
      </trkpt>
      <trkpt lat="45.63895" lon="6.58638">
        <ele>1637</ele>
        <time>2017-09-28T12:59:16Z</time>
      </trkpt>
      <trkpt lat="45.63907" lon="6.58632">
        <ele>1636.2</ele>
        <time>2017-09-28T12:59:19Z</time>
      </trkpt>
      <trkpt lat="45.63916" lon="6.58625">
        <ele>1633.9</ele>
        <time>2017-09-28T12:59:23Z</time>
      </trkpt>
      <trkpt lat="45.63927" lon="6.58616">
        <ele>1631.8</ele>
        <time>2017-09-28T12:59:27Z</time>
      </trkpt>
      <trkpt lat="45.63934" lon="6.58607">
        <ele>1630.1</ele>
        <time>2017-09-28T12:59:30Z</time>
      </trkpt>
      <trkpt lat="45.63945" lon="6.58599">
        <ele>1627.9</ele>
        <time>2017-09-28T12:59:34Z</time>
      </trkpt>
      <trkpt lat="45.63956" lon="6.58593">
        <ele>1626.4</ele>
        <time>2017-09-28T12:59:37Z</time>
      </trkpt>
      <trkpt lat="45.63965" lon="6.5859">
        <ele>1624.9</ele>
        <time>2017-09-28T12:59:41Z</time>
      </trkpt>
      <trkpt lat="45.63974" lon="6.58584">
        <ele>1624.1</ele>
        <time>2017-09-28T12:59:44Z</time>
      </trkpt>
      <trkpt lat="45.63984" lon="6.58578">
        <ele>1622.8</ele>
        <time>2017-09-28T12:59:49Z</time>
      </trkpt>
      <trkpt lat="45.63993" lon="6.58569">
        <ele>1622.8</ele>
        <time>2017-09-28T12:59:53Z</time>
      </trkpt>
      <trkpt lat="45.64001" lon="6.58562">
        <ele>1622.3</ele>
        <time>2017-09-28T12:59:56Z</time>
      </trkpt>
      <trkpt lat="45.64012" lon="6.58557">
        <ele>1621.7</ele>
        <time>2017-09-28T12:59:59Z</time>
      </trkpt>
      <trkpt lat="45.64024" lon="6.5856">
        <ele>1620.4</ele>
        <time>2017-09-28T13:00:02Z</time>
      </trkpt>
      <trkpt lat="45.64034" lon="6.58562">
        <ele>1618.3</ele>
        <time>2017-09-28T13:00:05Z</time>
      </trkpt>
      <trkpt lat="45.64042" lon="6.58555">
        <ele>1616.2</ele>
        <time>2017-09-28T13:00:09Z</time>
      </trkpt>
      <trkpt lat="45.64049" lon="6.58543">
        <ele>1614.7</ele>
        <time>2017-09-28T13:00:14Z</time>
      </trkpt>
      <trkpt lat="45.64055" lon="6.58531">
        <ele>1614.4</ele>
        <time>2017-09-28T13:00:18Z</time>
      </trkpt>
      <trkpt lat="45.64062" lon="6.58517">
        <ele>1613.8</ele>
        <time>2017-09-28T13:00:22Z</time>
      </trkpt>
      <trkpt lat="45.6407" lon="6.58504">
        <ele>1613.3</ele>
        <time>2017-09-28T13:00:25Z</time>
      </trkpt>
      <trkpt lat="45.64077" lon="6.58495">
        <ele>1611.9</ele>
        <time>2017-09-28T13:00:29Z</time>
      </trkpt>
      <trkpt lat="45.64087" lon="6.58488">
        <ele>1610.8</ele>
        <time>2017-09-28T13:00:33Z</time>
      </trkpt>
      <trkpt lat="45.64096" lon="6.58481">
        <ele>1610</ele>
        <time>2017-09-28T13:00:36Z</time>
      </trkpt>
      <trkpt lat="45.64102" lon="6.5847">
        <ele>1609.5</ele>
        <time>2017-09-28T13:00:40Z</time>
      </trkpt>
      <trkpt lat="45.64108" lon="6.58458">
        <ele>1609.7</ele>
        <time>2017-09-28T13:00:44Z</time>
      </trkpt>
      <trkpt lat="45.64114" lon="6.58449">
        <ele>1610.4</ele>
        <time>2017-09-28T13:00:48Z</time>
      </trkpt>
      <trkpt lat="45.64123" lon="6.58441">
        <ele>1611.5</ele>
        <time>2017-09-28T13:00:53Z</time>
      </trkpt>
      <trkpt lat="45.64132" lon="6.58439">
        <ele>1612.3</ele>
        <time>2017-09-28T13:00:58Z</time>
      </trkpt>
      <trkpt lat="45.64142" lon="6.58438">
        <ele>1612.3</ele>
        <time>2017-09-28T13:01:02Z</time>
      </trkpt>
      <trkpt lat="45.64152" lon="6.58436">
        <ele>1612</ele>
        <time>2017-09-28T13:01:06Z</time>
      </trkpt>
      <trkpt lat="45.64161" lon="6.58434">
        <ele>1611.6</ele>
        <time>2017-09-28T13:01:09Z</time>
      </trkpt>
      <trkpt lat="45.64172" lon="6.58428">
        <ele>1611.2</ele>
        <time>2017-09-28T13:01:13Z</time>
      </trkpt>
      <trkpt lat="45.6418" lon="6.5842">
        <ele>1610.8</ele>
        <time>2017-09-28T13:01:15Z</time>
      </trkpt>
      <trkpt lat="45.64188" lon="6.58409">
        <ele>1610.4</ele>
        <time>2017-09-28T13:01:17Z</time>
      </trkpt>
      <trkpt lat="45.6419" lon="6.58396">
        <ele>1610.2</ele>
        <time>2017-09-28T13:01:19Z</time>
      </trkpt>
      <trkpt lat="45.64193" lon="6.58384">
        <ele>1610.1</ele>
        <time>2017-09-28T13:01:22Z</time>
      </trkpt>
      <trkpt lat="45.64204" lon="6.58372">
        <ele>1609.5</ele>
        <time>2017-09-28T13:01:25Z</time>
      </trkpt>
      <trkpt lat="45.64211" lon="6.58363">
        <ele>1609</ele>
        <time>2017-09-28T13:01:27Z</time>
      </trkpt>
      <trkpt lat="45.64223" lon="6.58363">
        <ele>1608</ele>
        <time>2017-09-28T13:01:30Z</time>
      </trkpt>
      <trkpt lat="45.64232" lon="6.58357">
        <ele>1607.4</ele>
        <time>2017-09-28T13:01:32Z</time>
      </trkpt>
      <trkpt lat="45.6424" lon="6.58346">
        <ele>1606.6</ele>
        <time>2017-09-28T13:01:34Z</time>
      </trkpt>
      <trkpt lat="45.64246" lon="6.58336">
        <ele>1605.5</ele>
        <time>2017-09-28T13:01:36Z</time>
      </trkpt>
      <trkpt lat="45.64254" lon="6.58329">
        <ele>1604.1</ele>
        <time>2017-09-28T13:01:38Z</time>
      </trkpt>
      <trkpt lat="45.64264" lon="6.58327">
        <ele>1602.1</ele>
        <time>2017-09-28T13:01:41Z</time>
      </trkpt>
      <trkpt lat="45.64275" lon="6.58327">
        <ele>1601</ele>
        <time>2017-09-28T13:01:43Z</time>
      </trkpt>
      <trkpt lat="45.64285" lon="6.58323">
        <ele>1600.2</ele>
        <time>2017-09-28T13:01:45Z</time>
      </trkpt>
      <trkpt lat="45.64296" lon="6.58321">
        <ele>1599.5</ele>
        <time>2017-09-28T13:01:47Z</time>
      </trkpt>
      <trkpt lat="45.64307" lon="6.58316">
        <ele>1598.9</ele>
        <time>2017-09-28T13:01:49Z</time>
      </trkpt>
      <trkpt lat="45.64317" lon="6.58308">
        <ele>1598.3</ele>
        <time>2017-09-28T13:01:51Z</time>
      </trkpt>
      <trkpt lat="45.64327" lon="6.58305">
        <ele>1597.3</ele>
        <time>2017-09-28T13:01:53Z</time>
      </trkpt>
      <trkpt lat="45.64339" lon="6.58312">
        <ele>1595.8</ele>
        <time>2017-09-28T13:01:56Z</time>
      </trkpt>
      <trkpt lat="45.64348" lon="6.58314">
        <ele>1594.7</ele>
        <time>2017-09-28T13:01:58Z</time>
      </trkpt>
      <trkpt lat="45.64359" lon="6.5831">
        <ele>1593.9</ele>
        <time>2017-09-28T13:02:00Z</time>
      </trkpt>
      <trkpt lat="45.64369" lon="6.58306">
        <ele>1593.1</ele>
        <time>2017-09-28T13:02:02Z</time>
      </trkpt>
      <trkpt lat="45.64381" lon="6.583">
        <ele>1592.4</ele>
        <time>2017-09-28T13:02:04Z</time>
      </trkpt>
      <trkpt lat="45.64394" lon="6.58293">
        <ele>1591.4</ele>
        <time>2017-09-28T13:02:06Z</time>
      </trkpt>
      <trkpt lat="45.64404" lon="6.58286">
        <ele>1590.7</ele>
        <time>2017-09-28T13:02:08Z</time>
      </trkpt>
      <trkpt lat="45.64415" lon="6.58284">
        <ele>1590.1</ele>
        <time>2017-09-28T13:02:10Z</time>
      </trkpt>
      <trkpt lat="45.64425" lon="6.58284">
        <ele>1589.5</ele>
        <time>2017-09-28T13:02:12Z</time>
      </trkpt>
      <trkpt lat="45.64436" lon="6.58285">
        <ele>1588.9</ele>
        <time>2017-09-28T13:02:14Z</time>
      </trkpt>
      <trkpt lat="45.64447" lon="6.58285">
        <ele>1588.3</ele>
        <time>2017-09-28T13:02:16Z</time>
      </trkpt>
      <trkpt lat="45.64458" lon="6.58287">
        <ele>1587.8</ele>
        <time>2017-09-28T13:02:18Z</time>
      </trkpt>
      <trkpt lat="45.64469" lon="6.58292">
        <ele>1587.2</ele>
        <time>2017-09-28T13:02:20Z</time>
      </trkpt>
      <trkpt lat="45.64479" lon="6.58296">
        <ele>1586.6</ele>
        <time>2017-09-28T13:02:22Z</time>
      </trkpt>
      <trkpt lat="45.64491" lon="6.583">
        <ele>1585.9</ele>
        <time>2017-09-28T13:02:24Z</time>
      </trkpt>
      <trkpt lat="45.64506" lon="6.58299">
        <ele>1585.1</ele>
        <time>2017-09-28T13:02:26Z</time>
      </trkpt>
      <trkpt lat="45.64521" lon="6.58298">
        <ele>1584.7</ele>
        <time>2017-09-28T13:02:28Z</time>
      </trkpt>
      <trkpt lat="45.64532" lon="6.58299">
        <ele>1584.4</ele>
        <time>2017-09-28T13:02:30Z</time>
      </trkpt>
      <trkpt lat="45.64541" lon="6.58299">
        <ele>1584.4</ele>
        <time>2017-09-28T13:02:32Z</time>
      </trkpt>
      <trkpt lat="45.64553" lon="6.58297">
        <ele>1584.4</ele>
        <time>2017-09-28T13:02:35Z</time>
      </trkpt>
      <trkpt lat="45.64565" lon="6.58302">
        <ele>1584.3</ele>
        <time>2017-09-28T13:02:38Z</time>
      </trkpt>
      <trkpt lat="45.64577" lon="6.58304">
        <ele>1584.2</ele>
        <time>2017-09-28T13:02:41Z</time>
      </trkpt>
      <trkpt lat="45.64585" lon="6.58309">
        <ele>1584</ele>
        <time>2017-09-28T13:02:43Z</time>
      </trkpt>
      <trkpt lat="45.64593" lon="6.58316">
        <ele>1583.5</ele>
        <time>2017-09-28T13:02:45Z</time>
      </trkpt>
      <trkpt lat="45.64601" lon="6.58325">
        <ele>1583.1</ele>
        <time>2017-09-28T13:02:47Z</time>
      </trkpt>
      <trkpt lat="45.64614" lon="6.58326">
        <ele>1582.5</ele>
        <time>2017-09-28T13:02:50Z</time>
      </trkpt>
      <trkpt lat="45.64625" lon="6.58318">
        <ele>1582.4</ele>
        <time>2017-09-28T13:02:52Z</time>
      </trkpt>
      <trkpt lat="45.64633" lon="6.58314">
        <ele>1582.2</ele>
        <time>2017-09-28T13:02:54Z</time>
      </trkpt>
      <trkpt lat="45.64642" lon="6.58323">
        <ele>1582.1</ele>
        <time>2017-09-28T13:02:57Z</time>
      </trkpt>
      <trkpt lat="45.64649" lon="6.58332">
        <ele>1582</ele>
        <time>2017-09-28T13:03:15Z</time>
      </trkpt>
      <trkpt lat="45.64656" lon="6.58343">
        <ele>1582.5</ele>
        <time>2017-09-28T13:03:21Z</time>
      </trkpt>
      <trkpt lat="45.64658" lon="6.58357">
        <ele>1583.1</ele>
        <time>2017-09-28T13:03:25Z</time>
      </trkpt>
      <trkpt lat="45.64659" lon="6.58374">
        <ele>1583.5</ele>
        <time>2017-09-28T13:03:29Z</time>
      </trkpt>
      <trkpt lat="45.64663" lon="6.58387">
        <ele>1583.9</ele>
        <time>2017-09-28T13:03:32Z</time>
      </trkpt>
      <trkpt lat="45.64668" lon="6.584">
        <ele>1584</ele>
        <time>2017-09-28T13:03:35Z</time>
      </trkpt>
      <trkpt lat="45.64675" lon="6.58411">
        <ele>1584</ele>
        <time>2017-09-28T13:03:38Z</time>
      </trkpt>
      <trkpt lat="45.64685" lon="6.58421">
        <ele>1583.9</ele>
        <time>2017-09-28T13:03:41Z</time>
      </trkpt>
      <trkpt lat="45.64694" lon="6.58433">
        <ele>1583.8</ele>
        <time>2017-09-28T13:03:44Z</time>
      </trkpt>
      <trkpt lat="45.64701" lon="6.58443">
        <ele>1583.5</ele>
        <time>2017-09-28T13:03:46Z</time>
      </trkpt>
      <trkpt lat="45.64708" lon="6.58453">
        <ele>1583.3</ele>
        <time>2017-09-28T13:03:48Z</time>
      </trkpt>
      <trkpt lat="45.64716" lon="6.58462">
        <ele>1583</ele>
        <time>2017-09-28T13:03:50Z</time>
      </trkpt>
      <trkpt lat="45.64725" lon="6.58471">
        <ele>1582.7</ele>
        <time>2017-09-28T13:03:52Z</time>
      </trkpt>
      <trkpt lat="45.64735" lon="6.58481">
        <ele>1582.1</ele>
        <time>2017-09-28T13:03:55Z</time>
      </trkpt>
      <trkpt lat="45.64744" lon="6.58485">
        <ele>1581.6</ele>
        <time>2017-09-28T13:03:57Z</time>
      </trkpt>
      <trkpt lat="45.64754" lon="6.58482">
        <ele>1581.2</ele>
        <time>2017-09-28T13:03:59Z</time>
      </trkpt>
      <trkpt lat="45.64763" lon="6.58475">
        <ele>1580.9</ele>
        <time>2017-09-28T13:04:01Z</time>
      </trkpt>
      <trkpt lat="45.64773" lon="6.58462">
        <ele>1580.5</ele>
        <time>2017-09-28T13:04:04Z</time>
      </trkpt>
      <trkpt lat="45.64781" lon="6.58448">
        <ele>1580.3</ele>
        <time>2017-09-28T13:04:07Z</time>
      </trkpt>
      <trkpt lat="45.6479" lon="6.58434">
        <ele>1580</ele>
        <time>2017-09-28T13:04:10Z</time>
      </trkpt>
      <trkpt lat="45.648" lon="6.58421">
        <ele>1579.9</ele>
        <time>2017-09-28T13:04:13Z</time>
      </trkpt>
      <trkpt lat="45.64806" lon="6.58411">
        <ele>1579.8</ele>
        <time>2017-09-28T13:04:15Z</time>
      </trkpt>
      <trkpt lat="45.64815" lon="6.58399">
        <ele>1579.7</ele>
        <time>2017-09-28T13:04:18Z</time>
      </trkpt>
      <trkpt lat="45.64824" lon="6.58391">
        <ele>1580</ele>
        <time>2017-09-28T13:04:21Z</time>
      </trkpt>
      <trkpt lat="45.64835" lon="6.58385">
        <ele>1580.5</ele>
        <time>2017-09-28T13:04:25Z</time>
      </trkpt>
      <trkpt lat="45.64845" lon="6.58381">
        <ele>1581.3</ele>
        <time>2017-09-28T13:04:29Z</time>
      </trkpt>
      <trkpt lat="45.64855" lon="6.5838">
        <ele>1581.9</ele>
        <time>2017-09-28T13:04:33Z</time>
      </trkpt>
      <trkpt lat="45.64864" lon="6.58378">
        <ele>1582.8</ele>
        <time>2017-09-28T13:04:38Z</time>
      </trkpt>
      <trkpt lat="45.64873" lon="6.58384">
        <ele>1582</ele>
        <time>2017-09-28T13:08:21Z</time>
      </trkpt>
      <trkpt lat="45.64884" lon="6.58383">
        <ele>1582.9</ele>
        <time>2017-09-28T13:08:27Z</time>
      </trkpt>
      <trkpt lat="45.64893" lon="6.58385">
        <ele>1583.7</ele>
        <time>2017-09-28T13:08:32Z</time>
      </trkpt>
      <trkpt lat="45.64902" lon="6.58387">
        <ele>1584.4</ele>
        <time>2017-09-28T13:08:37Z</time>
      </trkpt>
      <trkpt lat="45.64912" lon="6.58392">
        <ele>1584.9</ele>
        <time>2017-09-28T13:08:42Z</time>
      </trkpt>
      <trkpt lat="45.64922" lon="6.58393">
        <ele>1585.5</ele>
        <time>2017-09-28T13:08:47Z</time>
      </trkpt>
      <trkpt lat="45.64931" lon="6.58396">
        <ele>1586.1</ele>
        <time>2017-09-28T13:08:51Z</time>
      </trkpt>
      <trkpt lat="45.64941" lon="6.58397">
        <ele>1586.9</ele>
        <time>2017-09-28T13:08:57Z</time>
      </trkpt>
      <trkpt lat="45.6495" lon="6.584">
        <ele>1587.7</ele>
        <time>2017-09-28T13:09:02Z</time>
      </trkpt>
      <trkpt lat="45.6496" lon="6.58396">
        <ele>1588.4</ele>
        <time>2017-09-28T13:09:08Z</time>
      </trkpt>
      <trkpt lat="45.64971" lon="6.58393">
        <ele>1589.5</ele>
        <time>2017-09-28T13:09:14Z</time>
      </trkpt>
      <trkpt lat="45.6498" lon="6.5839">
        <ele>1590.7</ele>
        <time>2017-09-28T13:09:20Z</time>
      </trkpt>
      <trkpt lat="45.6499" lon="6.58387">
        <ele>1591.9</ele>
        <time>2017-09-28T13:09:26Z</time>
      </trkpt>
      <trkpt lat="45.65" lon="6.58388">
        <ele>1592.9</ele>
        <time>2017-09-28T13:09:32Z</time>
      </trkpt>
      <trkpt lat="45.65007" lon="6.58398">
        <ele>1593.5</ele>
        <time>2017-09-28T13:09:37Z</time>
      </trkpt>
      <trkpt lat="45.65012" lon="6.58411">
        <ele>1593.7</ele>
        <time>2017-09-28T13:09:44Z</time>
      </trkpt>
      <trkpt lat="45.65017" lon="6.58422">
        <ele>1594.1</ele>
        <time>2017-09-28T13:09:50Z</time>
      </trkpt>
      <trkpt lat="45.65024" lon="6.58433">
        <ele>1594.2</ele>
        <time>2017-09-28T13:09:54Z</time>
      </trkpt>
      <trkpt lat="45.65031" lon="6.5844">
        <ele>1594.2</ele>
        <time>2017-09-28T13:09:57Z</time>
      </trkpt>
      <trkpt lat="45.65041" lon="6.58441">
        <ele>1594</ele>
        <time>2017-09-28T13:10:00Z</time>
      </trkpt>
      <trkpt lat="45.65051" lon="6.58434">
        <ele>1594</ele>
        <time>2017-09-28T13:10:04Z</time>
      </trkpt>
      <trkpt lat="45.65058" lon="6.58422">
        <ele>1594</ele>
        <time>2017-09-28T13:10:07Z</time>
      </trkpt>
      <trkpt lat="45.65064" lon="6.58409">
        <ele>1593.9</ele>
        <time>2017-09-28T13:10:10Z</time>
      </trkpt>
      <trkpt lat="45.6507" lon="6.58394">
        <ele>1593.7</ele>
        <time>2017-09-28T13:10:13Z</time>
      </trkpt>
      <trkpt lat="45.65074" lon="6.58377">
        <ele>1593.6</ele>
        <time>2017-09-28T13:10:16Z</time>
      </trkpt>
      <trkpt lat="45.65077" lon="6.58359">
        <ele>1593.4</ele>
        <time>2017-09-28T13:10:19Z</time>
      </trkpt>
      <trkpt lat="45.65079" lon="6.5834">
        <ele>1593.1</ele>
        <time>2017-09-28T13:10:22Z</time>
      </trkpt>
      <trkpt lat="45.65081" lon="6.58328">
        <ele>1593</ele>
        <time>2017-09-28T13:10:24Z</time>
      </trkpt>
      <trkpt lat="45.65086" lon="6.58315">
        <ele>1592.7</ele>
        <time>2017-09-28T13:10:26Z</time>
      </trkpt>
      <trkpt lat="45.65093" lon="6.58302">
        <ele>1592.5</ele>
        <time>2017-09-28T13:10:28Z</time>
      </trkpt>
      <trkpt lat="45.65101" lon="6.58289">
        <ele>1592.2</ele>
        <time>2017-09-28T13:10:30Z</time>
      </trkpt>
      <trkpt lat="45.65108" lon="6.58275">
        <ele>1591.8</ele>
        <time>2017-09-28T13:10:32Z</time>
      </trkpt>
      <trkpt lat="45.65114" lon="6.5826">
        <ele>1591.5</ele>
        <time>2017-09-28T13:10:34Z</time>
      </trkpt>
      <trkpt lat="45.65118" lon="6.58246">
        <ele>1591.3</ele>
        <time>2017-09-28T13:10:36Z</time>
      </trkpt>
      <trkpt lat="45.65119" lon="6.58227">
        <ele>1591.3</ele>
        <time>2017-09-28T13:10:39Z</time>
      </trkpt>
      <trkpt lat="45.65116" lon="6.58213">
        <ele>1591.5</ele>
        <time>2017-09-28T13:10:42Z</time>
      </trkpt>
      <trkpt lat="45.65114" lon="6.58199">
        <ele>1591.9</ele>
        <time>2017-09-28T13:10:45Z</time>
      </trkpt>
      <trkpt lat="45.65112" lon="6.58185">
        <ele>1592.3</ele>
        <time>2017-09-28T13:10:48Z</time>
      </trkpt>
      <trkpt lat="45.65109" lon="6.58169">
        <ele>1592.8</ele>
        <time>2017-09-28T13:10:52Z</time>
      </trkpt>
      <trkpt lat="45.65105" lon="6.58154">
        <ele>1593.6</ele>
        <time>2017-09-28T13:10:56Z</time>
      </trkpt>
      <trkpt lat="45.65102" lon="6.5814">
        <ele>1594.5</ele>
        <time>2017-09-28T13:11:00Z</time>
      </trkpt>
      <trkpt lat="45.651" lon="6.58124">
        <ele>1595.2</ele>
        <time>2017-09-28T13:11:04Z</time>
      </trkpt>
      <trkpt lat="45.65097" lon="6.5811">
        <ele>1596.1</ele>
        <time>2017-09-28T13:11:08Z</time>
      </trkpt>
      <trkpt lat="45.65105" lon="6.58101">
        <ele>1596.8</ele>
        <time>2017-09-28T13:11:12Z</time>
      </trkpt>
      <trkpt lat="45.65116" lon="6.58099">
        <ele>1597.4</ele>
        <time>2017-09-28T13:11:16Z</time>
      </trkpt>
      <trkpt lat="45.65124" lon="6.58106">
        <ele>1598</ele>
        <time>2017-09-28T13:11:20Z</time>
      </trkpt>
      <trkpt lat="45.6513" lon="6.58117">
        <ele>1598.7</ele>
        <time>2017-09-28T13:11:24Z</time>
      </trkpt>
      <trkpt lat="45.65135" lon="6.5813">
        <ele>1599.8</ele>
        <time>2017-09-28T13:11:28Z</time>
      </trkpt>
      <trkpt lat="45.65138" lon="6.58142">
        <ele>1600.8</ele>
        <time>2017-09-28T13:11:32Z</time>
      </trkpt>
      <trkpt lat="45.65136" lon="6.58157">
        <ele>1601.9</ele>
        <time>2017-09-28T13:11:37Z</time>
      </trkpt>
      <trkpt lat="45.65136" lon="6.58171">
        <ele>1602.8</ele>
        <time>2017-09-28T13:11:42Z</time>
      </trkpt>
      <trkpt lat="45.65137" lon="6.58185">
        <ele>1603.7</ele>
        <time>2017-09-28T13:11:47Z</time>
      </trkpt>
      <trkpt lat="45.65139" lon="6.58198">
        <ele>1604.6</ele>
        <time>2017-09-28T13:11:52Z</time>
      </trkpt>
      <trkpt lat="45.65144" lon="6.58212">
        <ele>1605.7</ele>
        <time>2017-09-28T13:11:58Z</time>
      </trkpt>
      <trkpt lat="45.6515" lon="6.58222">
        <ele>1606.5</ele>
        <time>2017-09-28T13:12:03Z</time>
      </trkpt>
      <trkpt lat="45.65154" lon="6.58235">
        <ele>1607.3</ele>
        <time>2017-09-28T13:12:08Z</time>
      </trkpt>
      <trkpt lat="45.65158" lon="6.58246">
        <ele>1608.3</ele>
        <time>2017-09-28T13:12:13Z</time>
      </trkpt>
      <trkpt lat="45.6516" lon="6.58259">
        <ele>1609.2</ele>
        <time>2017-09-28T13:12:18Z</time>
      </trkpt>
      <trkpt lat="45.65162" lon="6.58273">
        <ele>1610.3</ele>
        <time>2017-09-28T13:12:23Z</time>
      </trkpt>
      <trkpt lat="45.65163" lon="6.58286">
        <ele>1611.4</ele>
        <time>2017-09-28T13:12:28Z</time>
      </trkpt>
      <trkpt lat="45.65166" lon="6.58299">
        <ele>1612.1</ele>
        <time>2017-09-28T13:12:33Z</time>
      </trkpt>
      <trkpt lat="45.65171" lon="6.58311">
        <ele>1612.6</ele>
        <time>2017-09-28T13:12:38Z</time>
      </trkpt>
      <trkpt lat="45.65173" lon="6.58324">
        <ele>1613.1</ele>
        <time>2017-09-28T13:12:43Z</time>
      </trkpt>
      <trkpt lat="45.65174" lon="6.58338">
        <ele>1613.7</ele>
        <time>2017-09-28T13:12:48Z</time>
      </trkpt>
      <trkpt lat="45.65172" lon="6.58352">
        <ele>1614.6</ele>
        <time>2017-09-28T13:12:53Z</time>
      </trkpt>
      <trkpt lat="45.65171" lon="6.58366">
        <ele>1615.2</ele>
        <time>2017-09-28T13:12:58Z</time>
      </trkpt>
      <trkpt lat="45.65169" lon="6.58378">
        <ele>1616.1</ele>
        <time>2017-09-28T13:13:03Z</time>
      </trkpt>
      <trkpt lat="45.65169" lon="6.58391">
        <ele>1617</ele>
        <time>2017-09-28T13:13:08Z</time>
      </trkpt>
      <trkpt lat="45.65166" lon="6.58405">
        <ele>1618.2</ele>
        <time>2017-09-28T13:13:14Z</time>
      </trkpt>
      <trkpt lat="45.65163" lon="6.58418">
        <ele>1619.4</ele>
        <time>2017-09-28T13:13:20Z</time>
      </trkpt>
      <trkpt lat="45.65159" lon="6.5843">
        <ele>1620.6</ele>
        <time>2017-09-28T13:13:26Z</time>
      </trkpt>
      <trkpt lat="45.65167" lon="6.58439">
        <ele>1622</ele>
        <time>2017-09-28T13:13:35Z</time>
      </trkpt>
      <trkpt lat="45.65176" lon="6.58434">
        <ele>1622.4</ele>
        <time>2017-09-28T13:13:40Z</time>
      </trkpt>
      <trkpt lat="45.65183" lon="6.58424">
        <ele>1622.9</ele>
        <time>2017-09-28T13:13:45Z</time>
      </trkpt>
      <trkpt lat="45.65188" lon="6.58413">
        <ele>1623.7</ele>
        <time>2017-09-28T13:13:50Z</time>
      </trkpt>
      <trkpt lat="45.65194" lon="6.584">
        <ele>1624.4</ele>
        <time>2017-09-28T13:13:55Z</time>
      </trkpt>
      <trkpt lat="45.652" lon="6.58389">
        <ele>1625.3</ele>
        <time>2017-09-28T13:14:00Z</time>
      </trkpt>
      <trkpt lat="45.65205" lon="6.58377">
        <ele>1625.9</ele>
        <time>2017-09-28T13:14:05Z</time>
      </trkpt>
      <trkpt lat="45.65211" lon="6.58366">
        <ele>1626.7</ele>
        <time>2017-09-28T13:14:10Z</time>
      </trkpt>
      <trkpt lat="45.65217" lon="6.58354">
        <ele>1627.7</ele>
        <time>2017-09-28T13:14:15Z</time>
      </trkpt>
      <trkpt lat="45.6522" lon="6.58341">
        <ele>1628.5</ele>
        <time>2017-09-28T13:14:20Z</time>
      </trkpt>
      <trkpt lat="45.65217" lon="6.58326">
        <ele>1629</ele>
        <time>2017-09-28T13:14:25Z</time>
      </trkpt>
      <trkpt lat="45.65213" lon="6.58314">
        <ele>1629.9</ele>
        <time>2017-09-28T13:14:30Z</time>
      </trkpt>
      <trkpt lat="45.65208" lon="6.58302">
        <ele>1630.7</ele>
        <time>2017-09-28T13:14:35Z</time>
      </trkpt>
      <trkpt lat="45.65203" lon="6.5829">
        <ele>1631.6</ele>
        <time>2017-09-28T13:14:40Z</time>
      </trkpt>
      <trkpt lat="45.65201" lon="6.58275">
        <ele>1632.5</ele>
        <time>2017-09-28T13:14:45Z</time>
      </trkpt>
      <trkpt lat="45.65202" lon="6.58261">
        <ele>1633.3</ele>
        <time>2017-09-28T13:14:50Z</time>
      </trkpt>
      <trkpt lat="45.65205" lon="6.58246">
        <ele>1634.1</ele>
        <time>2017-09-28T13:14:55Z</time>
      </trkpt>
      <trkpt lat="45.65207" lon="6.58232">
        <ele>1635.1</ele>
        <time>2017-09-28T13:15:00Z</time>
      </trkpt>
      <trkpt lat="45.65208" lon="6.58217">
        <ele>1635.9</ele>
        <time>2017-09-28T13:15:05Z</time>
      </trkpt>
      <trkpt lat="45.65207" lon="6.58203">
        <ele>1637</ele>
        <time>2017-09-28T13:15:10Z</time>
      </trkpt>
      <trkpt lat="45.65205" lon="6.58188">
        <ele>1637.9</ele>
        <time>2017-09-28T13:15:15Z</time>
      </trkpt>
      <trkpt lat="45.65202" lon="6.58174">
        <ele>1639.1</ele>
        <time>2017-09-28T13:15:20Z</time>
      </trkpt>
      <trkpt lat="45.65199" lon="6.58162">
        <ele>1640.1</ele>
        <time>2017-09-28T13:15:25Z</time>
      </trkpt>
      <trkpt lat="45.65195" lon="6.58148">
        <ele>1640.9</ele>
        <time>2017-09-28T13:15:30Z</time>
      </trkpt>
      <trkpt lat="45.65192" lon="6.58136">
        <ele>1641.8</ele>
        <time>2017-09-28T13:15:35Z</time>
      </trkpt>
      <trkpt lat="45.65194" lon="6.58123">
        <ele>1642.7</ele>
        <time>2017-09-28T13:15:40Z</time>
      </trkpt>
      <trkpt lat="45.65204" lon="6.58123">
        <ele>1643.2</ele>
        <time>2017-09-28T13:15:45Z</time>
      </trkpt>
      <trkpt lat="45.6521" lon="6.58135">
        <ele>1643.8</ele>
        <time>2017-09-28T13:15:50Z</time>
      </trkpt>
      <trkpt lat="45.65214" lon="6.58148">
        <ele>1644.4</ele>
        <time>2017-09-28T13:15:55Z</time>
      </trkpt>
      <trkpt lat="45.65219" lon="6.58161">
        <ele>1645</ele>
        <time>2017-09-28T13:16:00Z</time>
      </trkpt>
      <trkpt lat="45.65223" lon="6.58173">
        <ele>1645.6</ele>
        <time>2017-09-28T13:16:04Z</time>
      </trkpt>
      <trkpt lat="45.65229" lon="6.58184">
        <ele>1646.1</ele>
        <time>2017-09-28T13:16:08Z</time>
      </trkpt>
      <trkpt lat="45.65234" lon="6.58196">
        <ele>1646.9</ele>
        <time>2017-09-28T13:16:13Z</time>
      </trkpt>
      <trkpt lat="45.65237" lon="6.58211">
        <ele>1647.7</ele>
        <time>2017-09-28T13:16:18Z</time>
      </trkpt>
      <trkpt lat="45.65235" lon="6.58225">
        <ele>1648.7</ele>
        <time>2017-09-28T13:16:23Z</time>
      </trkpt>
      <trkpt lat="45.65234" lon="6.58239">
        <ele>1649.8</ele>
        <time>2017-09-28T13:16:28Z</time>
      </trkpt>
      <trkpt lat="45.65237" lon="6.58254">
        <ele>1651</ele>
        <time>2017-09-28T13:16:33Z</time>
      </trkpt>
      <trkpt lat="45.65243" lon="6.58266">
        <ele>1652.5</ele>
        <time>2017-09-28T13:16:38Z</time>
      </trkpt>
      <trkpt lat="45.6525" lon="6.58277">
        <ele>1653.9</ele>
        <time>2017-09-28T13:16:43Z</time>
      </trkpt>
      <trkpt lat="45.65258" lon="6.58284">
        <ele>1654.9</ele>
        <time>2017-09-28T13:16:48Z</time>
      </trkpt>
      <trkpt lat="45.65266" lon="6.5829">
        <ele>1656</ele>
        <time>2017-09-28T13:16:53Z</time>
      </trkpt>
      <trkpt lat="45.65276" lon="6.58296">
        <ele>1656.6</ele>
        <time>2017-09-28T13:16:59Z</time>
      </trkpt>
      <trkpt lat="45.65284" lon="6.58302">
        <ele>1657.1</ele>
        <time>2017-09-28T13:17:04Z</time>
      </trkpt>
      <trkpt lat="45.65292" lon="6.58311">
        <ele>1658.3</ele>
        <time>2017-09-28T13:17:10Z</time>
      </trkpt>
      <trkpt lat="45.65301" lon="6.58316">
        <ele>1659.4</ele>
        <time>2017-09-28T13:17:16Z</time>
      </trkpt>
      <trkpt lat="45.6531" lon="6.58324">
        <ele>1660.7</ele>
        <time>2017-09-28T13:17:22Z</time>
      </trkpt>
      <trkpt lat="45.65318" lon="6.5833">
        <ele>1661.9</ele>
        <time>2017-09-28T13:17:28Z</time>
      </trkpt>
      <trkpt lat="45.65327" lon="6.58336">
        <ele>1662.6</ele>
        <time>2017-09-28T13:17:34Z</time>
      </trkpt>
      <trkpt lat="45.65335" lon="6.58342">
        <ele>1663.4</ele>
        <time>2017-09-28T13:17:39Z</time>
      </trkpt>
      <trkpt lat="45.65344" lon="6.58345">
        <ele>1664.5</ele>
        <time>2017-09-28T13:17:45Z</time>
      </trkpt>
      <trkpt lat="45.65353" lon="6.58347">
        <ele>1665.6</ele>
        <time>2017-09-28T13:17:51Z</time>
      </trkpt>
      <trkpt lat="45.65363" lon="6.58349">
        <ele>1666.8</ele>
        <time>2017-09-28T13:17:57Z</time>
      </trkpt>
      <trkpt lat="45.65373" lon="6.58353">
        <ele>1668.2</ele>
        <time>2017-09-28T13:18:04Z</time>
      </trkpt>
      <trkpt lat="45.65382" lon="6.58352">
        <ele>1669</ele>
        <time>2017-09-28T13:18:10Z</time>
      </trkpt>
      <trkpt lat="45.65391" lon="6.58355">
        <ele>1669.9</ele>
        <time>2017-09-28T13:18:16Z</time>
      </trkpt>
      <trkpt lat="45.654" lon="6.58359">
        <ele>1671</ele>
        <time>2017-09-28T13:18:22Z</time>
      </trkpt>
      <trkpt lat="45.6541" lon="6.5836">
        <ele>1672.2</ele>
        <time>2017-09-28T13:18:28Z</time>
      </trkpt>
      <trkpt lat="45.65419" lon="6.58359">
        <ele>1672.9</ele>
        <time>2017-09-28T13:18:34Z</time>
      </trkpt>
      <trkpt lat="45.65429" lon="6.58358">
        <ele>1673.9</ele>
        <time>2017-09-28T13:18:41Z</time>
      </trkpt>
      <trkpt lat="45.65439" lon="6.58364">
        <ele>1674.9</ele>
        <time>2017-09-28T13:18:47Z</time>
      </trkpt>
      <trkpt lat="45.65447" lon="6.5837">
        <ele>1675.8</ele>
        <time>2017-09-28T13:18:53Z</time>
      </trkpt>
      <trkpt lat="45.65456" lon="6.58377">
        <ele>1677.2</ele>
        <time>2017-09-28T13:18:59Z</time>
      </trkpt>
      <trkpt lat="45.65466" lon="6.58382">
        <ele>1678</ele>
        <time>2017-09-28T13:19:05Z</time>
      </trkpt>
      <trkpt lat="45.65476" lon="6.58386">
        <ele>1679.2</ele>
        <time>2017-09-28T13:19:11Z</time>
      </trkpt>
      <trkpt lat="45.65487" lon="6.58388">
        <ele>1680.5</ele>
        <time>2017-09-28T13:19:17Z</time>
      </trkpt>
      <trkpt lat="45.65497" lon="6.58388">
        <ele>1681</ele>
        <time>2017-09-28T13:19:22Z</time>
      </trkpt>
      <trkpt lat="45.65507" lon="6.58388">
        <ele>1681.4</ele>
        <time>2017-09-28T13:19:26Z</time>
      </trkpt>
      <trkpt lat="45.65517" lon="6.58392">
        <ele>1681.8</ele>
        <time>2017-09-28T13:19:30Z</time>
      </trkpt>
      <trkpt lat="45.65528" lon="6.58398">
        <ele>1681.8</ele>
        <time>2017-09-28T13:19:34Z</time>
      </trkpt>
      <trkpt lat="45.65537" lon="6.58402">
        <ele>1681.7</ele>
        <time>2017-09-28T13:19:37Z</time>
      </trkpt>
      <trkpt lat="45.65546" lon="6.58406">
        <ele>1681.7</ele>
        <time>2017-09-28T13:19:40Z</time>
      </trkpt>
      <trkpt lat="45.65557" lon="6.58411">
        <ele>1681.8</ele>
        <time>2017-09-28T13:19:44Z</time>
      </trkpt>
      <trkpt lat="45.65567" lon="6.58414">
        <ele>1682.2</ele>
        <time>2017-09-28T13:19:47Z</time>
      </trkpt>
      <trkpt lat="45.65576" lon="6.58414">
        <ele>1682.4</ele>
        <time>2017-09-28T13:19:50Z</time>
      </trkpt>
      <trkpt lat="45.65586" lon="6.58412">
        <ele>1682.8</ele>
        <time>2017-09-28T13:19:53Z</time>
      </trkpt>
      <trkpt lat="45.65598" lon="6.58409">
        <ele>1682.6</ele>
        <time>2017-09-28T13:19:56Z</time>
      </trkpt>
      <trkpt lat="45.65611" lon="6.58405">
        <ele>1682.3</ele>
        <time>2017-09-28T13:19:59Z</time>
      </trkpt>
      <trkpt lat="45.65623" lon="6.58399">
        <ele>1682.2</ele>
        <time>2017-09-28T13:20:02Z</time>
      </trkpt>
      <trkpt lat="45.65633" lon="6.58395">
        <ele>1682.2</ele>
        <time>2017-09-28T13:20:05Z</time>
      </trkpt>
      <trkpt lat="45.65644" lon="6.58395">
        <ele>1682.4</ele>
        <time>2017-09-28T13:20:08Z</time>
      </trkpt>
      <trkpt lat="45.65653" lon="6.58399">
        <ele>1682.5</ele>
        <time>2017-09-28T13:20:11Z</time>
      </trkpt>
      <trkpt lat="45.65662" lon="6.58405">
        <ele>1682.5</ele>
        <time>2017-09-28T13:20:14Z</time>
      </trkpt>
      <trkpt lat="45.6567" lon="6.58412">
        <ele>1682.2</ele>
        <time>2017-09-28T13:20:18Z</time>
      </trkpt>
      <trkpt lat="45.65679" lon="6.58416">
        <ele>1681.9</ele>
        <time>2017-09-28T13:20:21Z</time>
      </trkpt>
      <trkpt lat="45.65689" lon="6.58414">
        <ele>1681.9</ele>
        <time>2017-09-28T13:20:24Z</time>
      </trkpt>
      <trkpt lat="45.65701" lon="6.58409">
        <ele>1681.9</ele>
        <time>2017-09-28T13:20:27Z</time>
      </trkpt>
      <trkpt lat="45.65713" lon="6.58406">
        <ele>1681.9</ele>
        <time>2017-09-28T13:20:30Z</time>
      </trkpt>
      <trkpt lat="45.65722" lon="6.58403">
        <ele>1682.2</ele>
        <time>2017-09-28T13:20:33Z</time>
      </trkpt>
      <trkpt lat="45.65731" lon="6.584">
        <ele>1682.7</ele>
        <time>2017-09-28T13:20:36Z</time>
      </trkpt>
      <trkpt lat="45.65741" lon="6.58397">
        <ele>1683.2</ele>
        <time>2017-09-28T13:20:39Z</time>
      </trkpt>
      <trkpt lat="45.65753" lon="6.58397">
        <ele>1683.7</ele>
        <time>2017-09-28T13:20:43Z</time>
      </trkpt>
      <trkpt lat="45.65764" lon="6.58398">
        <ele>1684.4</ele>
        <time>2017-09-28T13:20:47Z</time>
      </trkpt>
      <trkpt lat="45.65775" lon="6.58398">
        <ele>1685.1</ele>
        <time>2017-09-28T13:20:51Z</time>
      </trkpt>
      <trkpt lat="45.65786" lon="6.58399">
        <ele>1685.6</ele>
        <time>2017-09-28T13:20:55Z</time>
      </trkpt>
      <trkpt lat="45.65795" lon="6.58396">
        <ele>1686.2</ele>
        <time>2017-09-28T13:20:59Z</time>
      </trkpt>
      <trkpt lat="45.65805" lon="6.58395">
        <ele>1686.9</ele>
        <time>2017-09-28T13:21:03Z</time>
      </trkpt>
      <trkpt lat="45.65814" lon="6.58394">
        <ele>1687.8</ele>
        <time>2017-09-28T13:21:07Z</time>
      </trkpt>
      <trkpt lat="45.65825" lon="6.58394">
        <ele>1688.4</ele>
        <time>2017-09-28T13:21:12Z</time>
      </trkpt>
      <trkpt lat="45.65836" lon="6.58395">
        <ele>1689.5</ele>
        <time>2017-09-28T13:21:18Z</time>
      </trkpt>
      <trkpt lat="45.65846" lon="6.58398">
        <ele>1690.7</ele>
        <time>2017-09-28T13:21:24Z</time>
      </trkpt>
      <trkpt lat="45.65856" lon="6.58402">
        <ele>1691.7</ele>
        <time>2017-09-28T13:21:30Z</time>
      </trkpt>
      <trkpt lat="45.65863" lon="6.58409">
        <ele>1692.8</ele>
        <time>2017-09-28T13:21:35Z</time>
      </trkpt>
      <trkpt lat="45.65873" lon="6.58412">
        <ele>1693.5</ele>
        <time>2017-09-28T13:21:41Z</time>
      </trkpt>
      <trkpt lat="45.65884" lon="6.58413">
        <ele>1694.4</ele>
        <time>2017-09-28T13:21:47Z</time>
      </trkpt>
      <trkpt lat="45.65894" lon="6.58413">
        <ele>1695.2</ele>
        <time>2017-09-28T13:21:53Z</time>
      </trkpt>
      <trkpt lat="45.65903" lon="6.58411">
        <ele>1696.4</ele>
        <time>2017-09-28T13:21:59Z</time>
      </trkpt>
      <trkpt lat="45.65913" lon="6.58413">
        <ele>1697.6</ele>
        <time>2017-09-28T13:22:05Z</time>
      </trkpt>
      <trkpt lat="45.65922" lon="6.58418">
        <ele>1698.9</ele>
        <time>2017-09-28T13:22:11Z</time>
      </trkpt>
      <trkpt lat="45.65931" lon="6.58427">
        <ele>1700.2</ele>
        <time>2017-09-28T13:22:17Z</time>
      </trkpt>
      <trkpt lat="45.65939" lon="6.58436">
        <ele>1700.9</ele>
        <time>2017-09-28T13:22:22Z</time>
      </trkpt>
      <trkpt lat="45.65948" lon="6.58444">
        <ele>1701.4</ele>
        <time>2017-09-28T13:22:27Z</time>
      </trkpt>
      <trkpt lat="45.65957" lon="6.58448">
        <ele>1701.7</ele>
        <time>2017-09-28T13:22:31Z</time>
      </trkpt>
      <trkpt lat="45.65967" lon="6.5845">
        <ele>1702.3</ele>
        <time>2017-09-28T13:22:36Z</time>
      </trkpt>
      <trkpt lat="45.65978" lon="6.58452">
        <ele>1702.9</ele>
        <time>2017-09-28T13:22:41Z</time>
      </trkpt>
      <trkpt lat="45.65987" lon="6.58455">
        <ele>1703.8</ele>
        <time>2017-09-28T13:22:46Z</time>
      </trkpt>
      <trkpt lat="45.65997" lon="6.58464">
        <ele>1704.7</ele>
        <time>2017-09-28T13:22:51Z</time>
      </trkpt>
      <trkpt lat="45.66001" lon="6.58475">
        <ele>1705.3</ele>
        <time>2017-09-28T13:22:55Z</time>
      </trkpt>
      <trkpt lat="45.66007" lon="6.58489">
        <ele>1705.4</ele>
        <time>2017-09-28T13:22:58Z</time>
      </trkpt>
      <trkpt lat="45.66016" lon="6.58496">
        <ele>1705.3</ele>
        <time>2017-09-28T13:23:01Z</time>
      </trkpt>
      <trkpt lat="45.66026" lon="6.58499">
        <ele>1705.6</ele>
        <time>2017-09-28T13:23:05Z</time>
      </trkpt>
      <trkpt lat="45.66037" lon="6.58501">
        <ele>1706.2</ele>
        <time>2017-09-28T13:23:09Z</time>
      </trkpt>
      <trkpt lat="45.66048" lon="6.585">
        <ele>1706.5</ele>
        <time>2017-09-28T13:23:13Z</time>
      </trkpt>
      <trkpt lat="45.66059" lon="6.58499">
        <ele>1706.7</ele>
        <time>2017-09-28T13:23:17Z</time>
      </trkpt>
      <trkpt lat="45.66068" lon="6.58502">
        <ele>1707.2</ele>
        <time>2017-09-28T13:23:21Z</time>
      </trkpt>
      <trkpt lat="45.66075" lon="6.58513">
        <ele>1708.2</ele>
        <time>2017-09-28T13:23:26Z</time>
      </trkpt>
      <trkpt lat="45.66082" lon="6.58522">
        <ele>1708.7</ele>
        <time>2017-09-28T13:23:30Z</time>
      </trkpt>
      <trkpt lat="45.66092" lon="6.58524">
        <ele>1709.4</ele>
        <time>2017-09-28T13:23:34Z</time>
      </trkpt>
      <trkpt lat="45.66101" lon="6.5853">
        <ele>1710.9</ele>
        <time>2017-09-28T13:23:39Z</time>
      </trkpt>
      <trkpt lat="45.66105" lon="6.58544">
        <ele>1711.8</ele>
        <time>2017-09-28T13:23:43Z</time>
      </trkpt>
      <trkpt lat="45.66107" lon="6.58558">
        <ele>1712.3</ele>
        <time>2017-09-28T13:23:46Z</time>
      </trkpt>
      <trkpt lat="45.66108" lon="6.58572">
        <ele>1712.3</ele>
        <time>2017-09-28T13:23:49Z</time>
      </trkpt>
      <trkpt lat="45.6611" lon="6.58588">
        <ele>1712.3</ele>
        <time>2017-09-28T13:23:52Z</time>
      </trkpt>
      <trkpt lat="45.66112" lon="6.58604">
        <ele>1712.2</ele>
        <time>2017-09-28T13:23:55Z</time>
      </trkpt>
      <trkpt lat="45.66121" lon="6.58613">
        <ele>1712.1</ele>
        <time>2017-09-28T13:23:58Z</time>
      </trkpt>
      <trkpt lat="45.66132" lon="6.58609">
        <ele>1712.3</ele>
        <time>2017-09-28T13:24:02Z</time>
      </trkpt>
      <trkpt lat="45.6614" lon="6.58601">
        <ele>1712.9</ele>
        <time>2017-09-28T13:24:06Z</time>
      </trkpt>
      <trkpt lat="45.66149" lon="6.58597">
        <ele>1713.8</ele>
        <time>2017-09-28T13:24:10Z</time>
      </trkpt>
      <trkpt lat="45.66158" lon="6.58592">
        <ele>1714.6</ele>
        <time>2017-09-28T13:24:14Z</time>
      </trkpt>
      <trkpt lat="45.66166" lon="6.58585">
        <ele>1715.2</ele>
        <time>2017-09-28T13:24:18Z</time>
      </trkpt>
      <trkpt lat="45.66175" lon="6.58576">
        <ele>1715.5</ele>
        <time>2017-09-28T13:24:22Z</time>
      </trkpt>
      <trkpt lat="45.66181" lon="6.58565">
        <ele>1715.3</ele>
        <time>2017-09-28T13:24:24Z</time>
      </trkpt>
      <trkpt lat="45.6619" lon="6.58554">
        <ele>1715.1</ele>
        <time>2017-09-28T13:24:26Z</time>
      </trkpt>
      <trkpt lat="45.66203" lon="6.58547">
        <ele>1714.8</ele>
        <time>2017-09-28T13:24:28Z</time>
      </trkpt>
      <trkpt lat="45.66218" lon="6.58546">
        <ele>1714.2</ele>
        <time>2017-09-28T13:24:30Z</time>
      </trkpt>
      <trkpt lat="45.66236" lon="6.58546">
        <ele>1713.2</ele>
        <time>2017-09-28T13:24:32Z</time>
      </trkpt>
      <trkpt lat="45.66245" lon="6.58546">
        <ele>1712.8</ele>
        <time>2017-09-28T13:24:33Z</time>
      </trkpt>
      <trkpt lat="45.66254" lon="6.58547">
        <ele>1712.3</ele>
        <time>2017-09-28T13:24:34Z</time>
      </trkpt>
      <trkpt lat="45.66271" lon="6.58548">
        <ele>1711.3</ele>
        <time>2017-09-28T13:24:36Z</time>
      </trkpt>
      <trkpt lat="45.66287" lon="6.58545">
        <ele>1709.9</ele>
        <time>2017-09-28T13:24:38Z</time>
      </trkpt>
      <trkpt lat="45.663" lon="6.58536">
        <ele>1708.4</ele>
        <time>2017-09-28T13:24:40Z</time>
      </trkpt>
      <trkpt lat="45.66313" lon="6.58523">
        <ele>1706.9</ele>
        <time>2017-09-28T13:24:42Z</time>
      </trkpt>
      <trkpt lat="45.66326" lon="6.58509">
        <ele>1705.5</ele>
        <time>2017-09-28T13:24:44Z</time>
      </trkpt>
      <trkpt lat="45.66339" lon="6.58495">
        <ele>1704</ele>
        <time>2017-09-28T13:24:46Z</time>
      </trkpt>
      <trkpt lat="45.66352" lon="6.58483">
        <ele>1702.3</ele>
        <time>2017-09-28T13:24:48Z</time>
      </trkpt>
      <trkpt lat="45.66366" lon="6.58475">
        <ele>1700.4</ele>
        <time>2017-09-28T13:24:50Z</time>
      </trkpt>
      <trkpt lat="45.66381" lon="6.58471">
        <ele>1698.6</ele>
        <time>2017-09-28T13:24:52Z</time>
      </trkpt>
      <trkpt lat="45.66396" lon="6.58466">
        <ele>1696.6</ele>
        <time>2017-09-28T13:24:54Z</time>
      </trkpt>
      <trkpt lat="45.6641" lon="6.58462">
        <ele>1694.5</ele>
        <time>2017-09-28T13:24:56Z</time>
      </trkpt>
      <trkpt lat="45.66425" lon="6.58456">
        <ele>1692.6</ele>
        <time>2017-09-28T13:24:58Z</time>
      </trkpt>
      <trkpt lat="45.6644" lon="6.58452">
        <ele>1690.7</ele>
        <time>2017-09-28T13:25:00Z</time>
      </trkpt>
      <trkpt lat="45.66456" lon="6.58453">
        <ele>1688.9</ele>
        <time>2017-09-28T13:25:02Z</time>
      </trkpt>
      <trkpt lat="45.66472" lon="6.58458">
        <ele>1687.5</ele>
        <time>2017-09-28T13:25:04Z</time>
      </trkpt>
      <trkpt lat="45.66487" lon="6.58462">
        <ele>1686.3</ele>
        <time>2017-09-28T13:25:06Z</time>
      </trkpt>
      <trkpt lat="45.665" lon="6.5847">
        <ele>1685.2</ele>
        <time>2017-09-28T13:25:08Z</time>
      </trkpt>
      <trkpt lat="45.66511" lon="6.58481">
        <ele>1684.1</ele>
        <time>2017-09-28T13:25:10Z</time>
      </trkpt>
      <trkpt lat="45.66523" lon="6.58492">
        <ele>1682.8</ele>
        <time>2017-09-28T13:25:12Z</time>
      </trkpt>
      <trkpt lat="45.66538" lon="6.58496">
        <ele>1681.6</ele>
        <time>2017-09-28T13:25:14Z</time>
      </trkpt>
      <trkpt lat="45.66554" lon="6.58492">
        <ele>1680.5</ele>
        <time>2017-09-28T13:25:16Z</time>
      </trkpt>
      <trkpt lat="45.66571" lon="6.58484">
        <ele>1679.4</ele>
        <time>2017-09-28T13:25:18Z</time>
      </trkpt>
      <trkpt lat="45.66586" lon="6.58477">
        <ele>1678.6</ele>
        <time>2017-09-28T13:25:20Z</time>
      </trkpt>
      <trkpt lat="45.66603" lon="6.58474">
        <ele>1677.6</ele>
        <time>2017-09-28T13:25:22Z</time>
      </trkpt>
      <trkpt lat="45.6662" lon="6.58477">
        <ele>1676.5</ele>
        <time>2017-09-28T13:25:24Z</time>
      </trkpt>
      <trkpt lat="45.66628" lon="6.5848">
        <ele>1675.9</ele>
        <time>2017-09-28T13:25:25Z</time>
      </trkpt>
      <trkpt lat="45.66645" lon="6.58488">
        <ele>1674.7</ele>
        <time>2017-09-28T13:25:27Z</time>
      </trkpt>
      <trkpt lat="45.6666" lon="6.58499">
        <ele>1673.6</ele>
        <time>2017-09-28T13:25:29Z</time>
      </trkpt>
      <trkpt lat="45.6667" lon="6.58511">
        <ele>1672.9</ele>
        <time>2017-09-28T13:25:31Z</time>
      </trkpt>
      <trkpt lat="45.66677" lon="6.58526">
        <ele>1672.2</ele>
        <time>2017-09-28T13:25:34Z</time>
      </trkpt>
      <trkpt lat="45.66682" lon="6.58536">
        <ele>1671.8</ele>
        <time>2017-09-28T13:25:39Z</time>
      </trkpt>
      <trkpt lat="45.6669" lon="6.58545">
        <ele>1672.3</ele>
        <time>2017-09-28T13:25:44Z</time>
      </trkpt>
      <trkpt lat="45.66698" lon="6.58551">
        <ele>1673.2</ele>
        <time>2017-09-28T13:25:50Z</time>
      </trkpt>
      <trkpt lat="45.66705" lon="6.58561">
        <ele>1674.4</ele>
        <time>2017-09-28T13:25:56Z</time>
      </trkpt>
      <trkpt lat="45.66713" lon="6.58567">
        <ele>1675.7</ele>
        <time>2017-09-28T13:26:02Z</time>
      </trkpt>
      <trkpt lat="45.66722" lon="6.58575">
        <ele>1676.4</ele>
        <time>2017-09-28T13:26:07Z</time>
      </trkpt>
      <trkpt lat="45.66731" lon="6.5858">
        <ele>1676.7</ele>
        <time>2017-09-28T13:26:12Z</time>
      </trkpt>
      <trkpt lat="45.66741" lon="6.58581">
        <ele>1677.2</ele>
        <time>2017-09-28T13:26:17Z</time>
      </trkpt>
      <trkpt lat="45.66749" lon="6.58584">
        <ele>1678</ele>
        <time>2017-09-28T13:26:22Z</time>
      </trkpt>
      <trkpt lat="45.66759" lon="6.58588">
        <ele>1679.1</ele>
        <time>2017-09-28T13:26:28Z</time>
      </trkpt>
      <trkpt lat="45.66767" lon="6.58596">
        <ele>1680</ele>
        <time>2017-09-28T13:26:34Z</time>
      </trkpt>
      <trkpt lat="45.66775" lon="6.58605">
        <ele>1680.8</ele>
        <time>2017-09-28T13:26:40Z</time>
      </trkpt>
      <trkpt lat="45.66783" lon="6.58614">
        <ele>1681.8</ele>
        <time>2017-09-28T13:26:47Z</time>
      </trkpt>
      <trkpt lat="45.66791" lon="6.58624">
        <ele>1682.8</ele>
        <time>2017-09-28T13:26:54Z</time>
      </trkpt>
      <trkpt lat="45.66797" lon="6.58633">
        <ele>1683.8</ele>
        <time>2017-09-28T13:27:01Z</time>
      </trkpt>
      <trkpt lat="45.66804" lon="6.58642">
        <ele>1685</ele>
        <time>2017-09-28T13:27:08Z</time>
      </trkpt>
      <trkpt lat="45.66811" lon="6.58651">
        <ele>1687.1</ele>
        <time>2017-09-28T13:27:16Z</time>
      </trkpt>
      <trkpt lat="45.66819" lon="6.5866">
        <ele>1689.3</ele>
        <time>2017-09-28T13:27:24Z</time>
      </trkpt>
      <trkpt lat="45.66827" lon="6.58668">
        <ele>1691.7</ele>
        <time>2017-09-28T13:27:33Z</time>
      </trkpt>
      <trkpt lat="45.66832" lon="6.5868">
        <ele>1693.8</ele>
        <time>2017-09-28T13:27:41Z</time>
      </trkpt>
      <trkpt lat="45.66837" lon="6.58692">
        <ele>1696.3</ele>
        <time>2017-09-28T13:27:50Z</time>
      </trkpt>
      <trkpt lat="45.66845" lon="6.58699">
        <ele>1698.1</ele>
        <time>2017-09-28T13:27:58Z</time>
      </trkpt>
      <trkpt lat="45.66853" lon="6.58706">
        <ele>1700</ele>
        <time>2017-09-28T13:28:07Z</time>
      </trkpt>
      <trkpt lat="45.66861" lon="6.58714">
        <ele>1702</ele>
        <time>2017-09-28T13:28:16Z</time>
      </trkpt>
      <trkpt lat="45.66869" lon="6.58719">
        <ele>1704.3</ele>
        <time>2017-09-28T13:28:25Z</time>
      </trkpt>
      <trkpt lat="45.66879" lon="6.58723">
        <ele>1706.7</ele>
        <time>2017-09-28T13:28:35Z</time>
      </trkpt>
      <trkpt lat="45.66886" lon="6.58733">
        <ele>1708</ele>
        <time>2017-09-28T13:28:44Z</time>
      </trkpt>
      <trkpt lat="45.66893" lon="6.58741">
        <ele>1708.9</ele>
        <time>2017-09-28T13:28:51Z</time>
      </trkpt>
      <trkpt lat="45.669" lon="6.5875">
        <ele>1709.8</ele>
        <time>2017-09-28T13:28:59Z</time>
      </trkpt>
      <trkpt lat="45.66905" lon="6.58761">
        <ele>1710.5</ele>
        <time>2017-09-28T13:29:07Z</time>
      </trkpt>
      <trkpt lat="45.6691" lon="6.58772">
        <ele>1711.5</ele>
        <time>2017-09-28T13:29:14Z</time>
      </trkpt>
      <trkpt lat="45.66918" lon="6.58778">
        <ele>1713</ele>
        <time>2017-09-28T13:29:21Z</time>
      </trkpt>
      <trkpt lat="45.66928" lon="6.58783">
        <ele>1715.5</ele>
        <time>2017-09-28T13:29:30Z</time>
      </trkpt>
      <trkpt lat="45.66937" lon="6.58789">
        <ele>1718</ele>
        <time>2017-09-28T13:29:39Z</time>
      </trkpt>
      <trkpt lat="45.66943" lon="6.58799">
        <ele>1720.4</ele>
        <time>2017-09-28T13:29:49Z</time>
      </trkpt>
      <trkpt lat="45.66947" lon="6.58812">
        <ele>1722.2</ele>
        <time>2017-09-28T13:29:58Z</time>
      </trkpt>
      <trkpt lat="45.66947" lon="6.58825">
        <ele>1723.5</ele>
        <time>2017-09-28T13:30:06Z</time>
      </trkpt>
      <trkpt lat="45.66943" lon="6.58837">
        <ele>1724.4</ele>
        <time>2017-09-28T13:30:13Z</time>
      </trkpt>
      <trkpt lat="45.66941" lon="6.58851">
        <ele>1726.3</ele>
        <time>2017-09-28T13:30:28Z</time>
      </trkpt>
      <trkpt lat="45.66944" lon="6.58864">
        <ele>1728.8</ele>
        <time>2017-09-28T13:30:41Z</time>
      </trkpt>
      <trkpt lat="45.66943" lon="6.58877">
        <ele>1731.3</ele>
        <time>2017-09-28T13:30:52Z</time>
      </trkpt>
      <trkpt lat="45.66939" lon="6.5889">
        <ele>1733.5</ele>
        <time>2017-09-28T13:31:01Z</time>
      </trkpt>
      <trkpt lat="45.66935" lon="6.58903">
        <ele>1736.1</ele>
        <time>2017-09-28T13:31:12Z</time>
      </trkpt>
      <trkpt lat="45.66932" lon="6.58915">
        <ele>1738</ele>
        <time>2017-09-28T13:31:22Z</time>
      </trkpt>
      <trkpt lat="45.66922" lon="6.58918">
        <ele>1739.3</ele>
        <time>2017-09-28T13:35:54Z</time>
      </trkpt>
      <trkpt lat="45.66914" lon="6.58911">
        <ele>1740.4</ele>
        <time>2017-09-28T13:36:00Z</time>
      </trkpt>
      <trkpt lat="45.66907" lon="6.58901">
        <ele>1741.9</ele>
        <time>2017-09-28T13:36:06Z</time>
      </trkpt>
      <trkpt lat="45.66901" lon="6.58891">
        <ele>1743.7</ele>
        <time>2017-09-28T13:36:13Z</time>
      </trkpt>
      <trkpt lat="45.66893" lon="6.58882">
        <ele>1745.2</ele>
        <time>2017-09-28T13:36:20Z</time>
      </trkpt>
      <trkpt lat="45.66884" lon="6.58874">
        <ele>1746.1</ele>
        <time>2017-09-28T13:36:26Z</time>
      </trkpt>
      <trkpt lat="45.66875" lon="6.58872">
        <ele>1746.7</ele>
        <time>2017-09-28T13:36:31Z</time>
      </trkpt>
      <trkpt lat="45.66866" lon="6.58873">
        <ele>1747.6</ele>
        <time>2017-09-28T13:36:37Z</time>
      </trkpt>
      <trkpt lat="45.66858" lon="6.5888">
        <ele>1749.1</ele>
        <time>2017-09-28T13:36:44Z</time>
      </trkpt>
      <trkpt lat="45.66848" lon="6.58885">
        <ele>1751.3</ele>
        <time>2017-09-28T13:36:53Z</time>
      </trkpt>
      <trkpt lat="45.66839" lon="6.58882">
        <ele>1752.6</ele>
        <time>2017-09-28T13:37:00Z</time>
      </trkpt>
      <trkpt lat="45.66831" lon="6.58877">
        <ele>1753.8</ele>
        <time>2017-09-28T13:37:07Z</time>
      </trkpt>
      <trkpt lat="45.66822" lon="6.58869">
        <ele>1755.2</ele>
        <time>2017-09-28T13:37:15Z</time>
      </trkpt>
      <trkpt lat="45.66814" lon="6.58861">
        <ele>1756.4</ele>
        <time>2017-09-28T13:37:22Z</time>
      </trkpt>
      <trkpt lat="45.66807" lon="6.58852">
        <ele>1758.6</ele>
        <time>2017-09-28T13:37:30Z</time>
      </trkpt>
      <trkpt lat="45.66798" lon="6.58853">
        <ele>1760.9</ele>
        <time>2017-09-28T13:37:38Z</time>
      </trkpt>
      <trkpt lat="45.6679" lon="6.58861">
        <ele>1763.1</ele>
        <time>2017-09-28T13:37:47Z</time>
      </trkpt>
      <trkpt lat="45.66782" lon="6.58866">
        <ele>1765.8</ele>
        <time>2017-09-28T13:37:58Z</time>
      </trkpt>
      <trkpt lat="45.66773" lon="6.58859">
        <ele>1768.2</ele>
        <time>2017-09-28T13:38:11Z</time>
      </trkpt>
      <trkpt lat="45.66765" lon="6.58855">
        <ele>1770.4</ele>
        <time>2017-09-28T13:38:23Z</time>
      </trkpt>
      <trkpt lat="45.66756" lon="6.58855">
        <ele>1772.8</ele>
        <time>2017-09-28T13:38:34Z</time>
      </trkpt>
      <trkpt lat="45.66747" lon="6.5886">
        <ele>1775.5</ele>
        <time>2017-09-28T13:38:46Z</time>
      </trkpt>
      <trkpt lat="45.66738" lon="6.58862">
        <ele>1777.7</ele>
        <time>2017-09-28T13:38:57Z</time>
      </trkpt>
      <trkpt lat="45.66729" lon="6.58863">
        <ele>1779.5</ele>
        <time>2017-09-28T13:39:07Z</time>
      </trkpt>
      <trkpt lat="45.66719" lon="6.58865">
        <ele>1782.1</ele>
        <time>2017-09-28T13:39:25Z</time>
      </trkpt>
      <trkpt lat="45.66709" lon="6.58868">
        <ele>1783.9</ele>
        <time>2017-09-28T13:39:35Z</time>
      </trkpt>
      <trkpt lat="45.667" lon="6.58871">
        <ele>1786</ele>
        <time>2017-09-28T13:39:46Z</time>
      </trkpt>
      <trkpt lat="45.66691" lon="6.58875">
        <ele>1788.4</ele>
        <time>2017-09-28T13:39:57Z</time>
      </trkpt>
      <trkpt lat="45.66683" lon="6.58881">
        <ele>1790.2</ele>
        <time>2017-09-28T13:40:07Z</time>
      </trkpt>
      <trkpt lat="45.66692" lon="6.58888">
        <ele>1791.9</ele>
        <time>2017-09-28T13:40:22Z</time>
      </trkpt>
      <trkpt lat="45.66702" lon="6.58891">
        <ele>1793.4</ele>
        <time>2017-09-28T13:40:29Z</time>
      </trkpt>
      <trkpt lat="45.66711" lon="6.58896">
        <ele>1795.1</ele>
        <time>2017-09-28T13:40:37Z</time>
      </trkpt>
      <trkpt lat="45.66719" lon="6.58903">
        <ele>1796.7</ele>
        <time>2017-09-28T13:40:45Z</time>
      </trkpt>
      <trkpt lat="45.66726" lon="6.58911">
        <ele>1798.7</ele>
        <time>2017-09-28T13:40:53Z</time>
      </trkpt>
      <trkpt lat="45.66735" lon="6.58916">
        <ele>1800.4</ele>
        <time>2017-09-28T13:41:01Z</time>
      </trkpt>
      <trkpt lat="45.66743" lon="6.58922">
        <ele>1802</ele>
        <time>2017-09-28T13:41:09Z</time>
      </trkpt>
      <trkpt lat="45.66752" lon="6.58928">
        <ele>1803.8</ele>
        <time>2017-09-28T13:41:18Z</time>
      </trkpt>
      <trkpt lat="45.66759" lon="6.58937">
        <ele>1805.1</ele>
        <time>2017-09-28T13:41:26Z</time>
      </trkpt>
      <trkpt lat="45.66767" lon="6.58946">
        <ele>1806.4</ele>
        <time>2017-09-28T13:41:34Z</time>
      </trkpt>
      <trkpt lat="45.66775" lon="6.58953">
        <ele>1807.8</ele>
        <time>2017-09-28T13:41:42Z</time>
      </trkpt>
      <trkpt lat="45.66782" lon="6.58962">
        <ele>1809.2</ele>
        <time>2017-09-28T13:41:50Z</time>
      </trkpt>
      <trkpt lat="45.6679" lon="6.58971">
        <ele>1810.8</ele>
        <time>2017-09-28T13:41:58Z</time>
      </trkpt>
      <trkpt lat="45.66797" lon="6.5898">
        <ele>1812.1</ele>
        <time>2017-09-28T13:42:05Z</time>
      </trkpt>
      <trkpt lat="45.66801" lon="6.58993">
        <ele>1813.4</ele>
        <time>2017-09-28T13:42:12Z</time>
      </trkpt>
      <trkpt lat="45.66807" lon="6.59004">
        <ele>1814.2</ele>
        <time>2017-09-28T13:42:21Z</time>
      </trkpt>
      <trkpt lat="45.66815" lon="6.59011">
        <ele>1815.4</ele>
        <time>2017-09-28T13:42:28Z</time>
      </trkpt>
      <trkpt lat="45.66822" lon="6.59022">
        <ele>1816.4</ele>
        <time>2017-09-28T13:42:35Z</time>
      </trkpt>
      <trkpt lat="45.66827" lon="6.59033">
        <ele>1817.2</ele>
        <time>2017-09-28T13:42:42Z</time>
      </trkpt>
      <trkpt lat="45.66833" lon="6.59044">
        <ele>1818.2</ele>
        <time>2017-09-28T13:42:49Z</time>
      </trkpt>
      <trkpt lat="45.66839" lon="6.59054">
        <ele>1819.5</ele>
        <time>2017-09-28T13:42:56Z</time>
      </trkpt>
      <trkpt lat="45.66831" lon="6.59061">
        <ele>1821.6</ele>
        <time>2017-09-28T13:43:09Z</time>
      </trkpt>
      <trkpt lat="45.66821" lon="6.59055">
        <ele>1823.1</ele>
        <time>2017-09-28T13:43:16Z</time>
      </trkpt>
      <trkpt lat="45.66813" lon="6.59049">
        <ele>1824.4</ele>
        <time>2017-09-28T13:43:23Z</time>
      </trkpt>
      <trkpt lat="45.66805" lon="6.59045">
        <ele>1825.8</ele>
        <time>2017-09-28T13:43:30Z</time>
      </trkpt>
      <trkpt lat="45.66796" lon="6.59043">
        <ele>1826.8</ele>
        <time>2017-09-28T13:43:37Z</time>
      </trkpt>
      <trkpt lat="45.66786" lon="6.59037">
        <ele>1827.8</ele>
        <time>2017-09-28T13:43:44Z</time>
      </trkpt>
      <trkpt lat="45.66779" lon="6.59028">
        <ele>1828.8</ele>
        <time>2017-09-28T13:43:51Z</time>
      </trkpt>
      <trkpt lat="45.6677" lon="6.59021">
        <ele>1830</ele>
        <time>2017-09-28T13:43:58Z</time>
      </trkpt>
      <trkpt lat="45.6676" lon="6.5902">
        <ele>1831</ele>
        <time>2017-09-28T13:44:05Z</time>
      </trkpt>
      <trkpt lat="45.6675" lon="6.59018">
        <ele>1831.5</ele>
        <time>2017-09-28T13:44:12Z</time>
      </trkpt>
      <trkpt lat="45.66742" lon="6.59013">
        <ele>1832.4</ele>
        <time>2017-09-28T13:44:18Z</time>
      </trkpt>
      <trkpt lat="45.66732" lon="6.59008">
        <ele>1833.4</ele>
        <time>2017-09-28T13:44:25Z</time>
      </trkpt>
      <trkpt lat="45.66722" lon="6.59006">
        <ele>1834.3</ele>
        <time>2017-09-28T13:44:32Z</time>
      </trkpt>
      <trkpt lat="45.66713" lon="6.59004">
        <ele>1835.6</ele>
        <time>2017-09-28T13:44:39Z</time>
      </trkpt>
      <trkpt lat="45.66719" lon="6.59015">
        <ele>1837.6</ele>
        <time>2017-09-28T13:44:50Z</time>
      </trkpt>
      <trkpt lat="45.66729" lon="6.5902">
        <ele>1839</ele>
        <time>2017-09-28T13:44:57Z</time>
      </trkpt>
      <trkpt lat="45.66736" lon="6.59028">
        <ele>1840.2</ele>
        <time>2017-09-28T13:45:04Z</time>
      </trkpt>
      <trkpt lat="45.66742" lon="6.59039">
        <ele>1841.3</ele>
        <time>2017-09-28T13:45:11Z</time>
      </trkpt>
      <trkpt lat="45.66751" lon="6.59045">
        <ele>1842.5</ele>
        <time>2017-09-28T13:45:18Z</time>
      </trkpt>
      <trkpt lat="45.6676" lon="6.59051">
        <ele>1843.8</ele>
        <time>2017-09-28T13:45:25Z</time>
      </trkpt>
      <trkpt lat="45.66769" lon="6.59059">
        <ele>1845.4</ele>
        <time>2017-09-28T13:45:33Z</time>
      </trkpt>
      <trkpt lat="45.66776" lon="6.59068">
        <ele>1846.7</ele>
        <time>2017-09-28T13:45:40Z</time>
      </trkpt>
      <trkpt lat="45.66783" lon="6.59078">
        <ele>1847.8</ele>
        <time>2017-09-28T13:45:47Z</time>
      </trkpt>
      <trkpt lat="45.6679" lon="6.59088">
        <ele>1849.1</ele>
        <time>2017-09-28T13:45:54Z</time>
      </trkpt>
      <trkpt lat="45.66796" lon="6.59098">
        <ele>1850.4</ele>
        <time>2017-09-28T13:46:01Z</time>
      </trkpt>
      <trkpt lat="45.66802" lon="6.59108">
        <ele>1851.8</ele>
        <time>2017-09-28T13:46:08Z</time>
      </trkpt>
      <trkpt lat="45.66807" lon="6.5912">
        <ele>1853.1</ele>
        <time>2017-09-28T13:46:15Z</time>
      </trkpt>
      <trkpt lat="45.66812" lon="6.59133">
        <ele>1854.5</ele>
        <time>2017-09-28T13:46:23Z</time>
      </trkpt>
      <trkpt lat="45.66816" lon="6.59145">
        <ele>1856.1</ele>
        <time>2017-09-28T13:46:31Z</time>
      </trkpt>
      <trkpt lat="45.66821" lon="6.59157">
        <ele>1857.8</ele>
        <time>2017-09-28T13:46:39Z</time>
      </trkpt>
      <trkpt lat="45.66825" lon="6.5917">
        <ele>1859.5</ele>
        <time>2017-09-28T13:46:47Z</time>
      </trkpt>
      <trkpt lat="45.66816" lon="6.59172">
        <ele>1861</ele>
        <time>2017-09-28T13:46:56Z</time>
      </trkpt>
      <trkpt lat="45.66808" lon="6.59164">
        <ele>1862.2</ele>
        <time>2017-09-28T13:47:03Z</time>
      </trkpt>
      <trkpt lat="45.668" lon="6.59158">
        <ele>1863.5</ele>
        <time>2017-09-28T13:47:10Z</time>
      </trkpt>
      <trkpt lat="45.66791" lon="6.59154">
        <ele>1864.3</ele>
        <time>2017-09-28T13:47:17Z</time>
      </trkpt>
      <trkpt lat="45.66782" lon="6.5915">
        <ele>1865.6</ele>
        <time>2017-09-28T13:47:24Z</time>
      </trkpt>
      <trkpt lat="45.66773" lon="6.59147">
        <ele>1866.7</ele>
        <time>2017-09-28T13:47:31Z</time>
      </trkpt>
      <trkpt lat="45.66763" lon="6.59145">
        <ele>1867.8</ele>
        <time>2017-09-28T13:47:39Z</time>
      </trkpt>
      <trkpt lat="45.66753" lon="6.59146">
        <ele>1869</ele>
        <time>2017-09-28T13:47:47Z</time>
      </trkpt>
      <trkpt lat="45.66744" lon="6.59147">
        <ele>1870.1</ele>
        <time>2017-09-28T13:47:54Z</time>
      </trkpt>
      <trkpt lat="45.66735" lon="6.59143">
        <ele>1870.9</ele>
        <time>2017-09-28T13:48:00Z</time>
      </trkpt>
      <trkpt lat="45.66727" lon="6.59134">
        <ele>1871.8</ele>
        <time>2017-09-28T13:48:07Z</time>
      </trkpt>
      <trkpt lat="45.6672" lon="6.59125">
        <ele>1872.8</ele>
        <time>2017-09-28T13:48:14Z</time>
      </trkpt>
      <trkpt lat="45.66712" lon="6.59117">
        <ele>1873.3</ele>
        <time>2017-09-28T13:48:20Z</time>
      </trkpt>
      <trkpt lat="45.66704" lon="6.59108">
        <ele>1873.3</ele>
        <time>2017-09-28T13:48:25Z</time>
      </trkpt>
      <trkpt lat="45.66697" lon="6.59098">
        <ele>1873.1</ele>
        <time>2017-09-28T13:48:29Z</time>
      </trkpt>
      <trkpt lat="45.66688" lon="6.59094">
        <ele>1872.9</ele>
        <time>2017-09-28T13:48:33Z</time>
      </trkpt>
      <trkpt lat="45.66679" lon="6.59097">
        <ele>1873.1</ele>
        <time>2017-09-28T13:48:39Z</time>
      </trkpt>
      <trkpt lat="45.66674" lon="6.59109">
        <ele>1874.7</ele>
        <time>2017-09-28T13:48:47Z</time>
      </trkpt>
      <trkpt lat="45.66681" lon="6.59119">
        <ele>1876.2</ele>
        <time>2017-09-28T13:48:54Z</time>
      </trkpt>
      <trkpt lat="45.66688" lon="6.59128">
        <ele>1878</ele>
        <time>2017-09-28T13:49:02Z</time>
      </trkpt>
      <trkpt lat="45.66696" lon="6.59137">
        <ele>1879.9</ele>
        <time>2017-09-28T13:49:10Z</time>
      </trkpt>
      <trkpt lat="45.66701" lon="6.59148">
        <ele>1881.8</ele>
        <time>2017-09-28T13:49:18Z</time>
      </trkpt>
      <trkpt lat="45.66706" lon="6.59161">
        <ele>1883.8</ele>
        <time>2017-09-28T13:49:26Z</time>
      </trkpt>
      <trkpt lat="45.6671" lon="6.59174">
        <ele>1885.6</ele>
        <time>2017-09-28T13:49:34Z</time>
      </trkpt>
      <trkpt lat="45.6671" lon="6.59188">
        <ele>1886.9</ele>
        <time>2017-09-28T13:49:41Z</time>
      </trkpt>
      <trkpt lat="45.66709" lon="6.59201">
        <ele>1888.2</ele>
        <time>2017-09-28T13:50:08Z</time>
      </trkpt>
      <trkpt lat="45.66706" lon="6.59213">
        <ele>1893.8</ele>
        <time>2017-09-28T13:50:37Z</time>
      </trkpt>
      <trkpt lat="45.66708" lon="6.59226">
        <ele>1896.5</ele>
        <time>2017-09-28T13:50:52Z</time>
      </trkpt>
      <trkpt lat="45.66712" lon="6.59238">
        <ele>1899.1</ele>
        <time>2017-09-28T13:51:06Z</time>
      </trkpt>
      <trkpt lat="45.66716" lon="6.59251">
        <ele>1902</ele>
        <time>2017-09-28T13:51:21Z</time>
      </trkpt>
      <trkpt lat="45.66721" lon="6.59262">
        <ele>1904.8</ele>
        <time>2017-09-28T13:51:36Z</time>
      </trkpt>
      <trkpt lat="45.66729" lon="6.59269">
        <ele>1906.6</ele>
        <time>2017-09-28T13:51:47Z</time>
      </trkpt>
      <trkpt lat="45.66736" lon="6.59279">
        <ele>1908.1</ele>
        <time>2017-09-28T13:51:59Z</time>
      </trkpt>
      <trkpt lat="45.66741" lon="6.59291">
        <ele>1912.3</ele>
        <time>2017-09-28T13:52:22Z</time>
      </trkpt>
      <trkpt lat="45.66744" lon="6.59303">
        <ele>1915.4</ele>
        <time>2017-09-28T13:52:38Z</time>
      </trkpt>
      <trkpt lat="45.66752" lon="6.59311">
        <ele>1918.1</ele>
        <time>2017-09-28T13:52:54Z</time>
      </trkpt>
      <trkpt lat="45.6675" lon="6.59324">
        <ele>1921.2</ele>
        <time>2017-09-28T13:53:13Z</time>
      </trkpt>
      <trkpt lat="45.66757" lon="6.59332">
        <ele>1923.7</ele>
        <time>2017-09-28T13:53:29Z</time>
      </trkpt>
      <trkpt lat="45.66763" lon="6.59342">
        <ele>1928.7</ele>
        <time>2017-09-28T13:53:56Z</time>
      </trkpt>
      <trkpt lat="45.6677" lon="6.59351">
        <ele>1931.5</ele>
        <time>2017-09-28T13:54:10Z</time>
      </trkpt>
      <trkpt lat="45.66773" lon="6.59364">
        <ele>1935.6</ele>
        <time>2017-09-28T13:54:34Z</time>
      </trkpt>
      <trkpt lat="45.66776" lon="6.59376">
        <ele>1938.3</ele>
        <time>2017-09-28T13:54:52Z</time>
      </trkpt>
      <trkpt lat="45.66768" lon="6.59381">
        <ele>1941.5</ele>
        <time>2017-09-28T13:55:09Z</time>
      </trkpt>
      <trkpt lat="45.66758" lon="6.59379">
        <ele>1943.3</ele>
        <time>2017-09-28T13:55:20Z</time>
      </trkpt>
      <trkpt lat="45.66749" lon="6.59379">
        <ele>1945.1</ele>
        <time>2017-09-28T13:55:33Z</time>
      </trkpt>
      <trkpt lat="45.6674" lon="6.59379">
        <ele>1947.1</ele>
        <time>2017-09-28T13:55:45Z</time>
      </trkpt>
      <trkpt lat="45.66731" lon="6.59374">
        <ele>1948</ele>
        <time>2017-09-28T13:55:54Z</time>
      </trkpt>
      <trkpt lat="45.66722" lon="6.59374">
        <ele>1950.1</ele>
        <time>2017-09-28T13:56:07Z</time>
      </trkpt>
      <trkpt lat="45.66713" lon="6.59371">
        <ele>1952.5</ele>
        <time>2017-09-28T13:56:22Z</time>
      </trkpt>
      <trkpt lat="45.66704" lon="6.59367">
        <ele>1954.6</ele>
        <time>2017-09-28T13:56:33Z</time>
      </trkpt>
      <trkpt lat="45.66697" lon="6.59358">
        <ele>1957.7</ele>
        <time>2017-09-28T13:56:49Z</time>
      </trkpt>
      <trkpt lat="45.6669" lon="6.59348">
        <ele>1960</ele>
        <time>2017-09-28T13:57:05Z</time>
      </trkpt>
      <trkpt lat="45.66682" lon="6.59341">
        <ele>1961.6</ele>
        <time>2017-09-28T13:57:19Z</time>
      </trkpt>
      <trkpt lat="45.66671" lon="6.59341">
        <ele>1963</ele>
        <time>2017-09-28T13:57:32Z</time>
      </trkpt>
      <trkpt lat="45.66662" lon="6.59344">
        <ele>1965.4</ele>
        <time>2017-09-28T13:57:43Z</time>
      </trkpt>
      <trkpt lat="45.66654" lon="6.59351">
        <ele>1967.1</ele>
        <time>2017-09-28T13:57:58Z</time>
      </trkpt>
      <trkpt lat="45.66644" lon="6.5935">
        <ele>1968.1</ele>
        <time>2017-09-28T13:58:09Z</time>
      </trkpt>
      <trkpt lat="45.66635" lon="6.59352">
        <ele>1968.2</ele>
        <time>2017-09-28T13:58:15Z</time>
      </trkpt>
      <trkpt lat="45.66625" lon="6.5935">
        <ele>1970.5</ele>
        <time>2017-09-28T13:58:34Z</time>
      </trkpt>
      <trkpt lat="45.66617" lon="6.59357">
        <ele>1971.7</ele>
        <time>2017-09-28T13:58:51Z</time>
      </trkpt>
      <trkpt lat="45.66608" lon="6.59363">
        <ele>1973.7</ele>
        <time>2017-09-28T13:59:05Z</time>
      </trkpt>
      <trkpt lat="45.66599" lon="6.59365">
        <ele>1975</ele>
        <time>2017-09-28T13:59:16Z</time>
      </trkpt>
      <trkpt lat="45.6659" lon="6.59364">
        <ele>1976.9</ele>
        <time>2017-09-28T13:59:28Z</time>
      </trkpt>
      <trkpt lat="45.6658" lon="6.59364">
        <ele>1977.3</ele>
        <time>2017-09-28T13:59:33Z</time>
      </trkpt>
      <trkpt lat="45.66571" lon="6.59359">
        <ele>1977.4</ele>
        <time>2017-09-28T13:59:37Z</time>
      </trkpt>
      <trkpt lat="45.66562" lon="6.59356">
        <ele>1978.3</ele>
        <time>2017-09-28T13:59:45Z</time>
      </trkpt>
      <trkpt lat="45.66553" lon="6.5936">
        <ele>1978.9</ele>
        <time>2017-09-28T13:59:52Z</time>
      </trkpt>
      <trkpt lat="45.66545" lon="6.59368">
        <ele>1980.2</ele>
        <time>2017-09-28T14:00:01Z</time>
      </trkpt>
      <trkpt lat="45.66535" lon="6.59372">
        <ele>1981.4</ele>
        <time>2017-09-28T14:00:09Z</time>
      </trkpt>
      <trkpt lat="45.66529" lon="6.59381">
        <ele>1984.2</ele>
        <time>2017-09-28T14:00:32Z</time>
      </trkpt>
      <trkpt lat="45.66521" lon="6.59387">
        <ele>1985.6</ele>
        <time>2017-09-28T14:00:43Z</time>
      </trkpt>
      <trkpt lat="45.66511" lon="6.59392">
        <ele>1988.3</ele>
        <time>2017-09-28T14:00:57Z</time>
      </trkpt>
      <trkpt lat="45.66503" lon="6.59397">
        <ele>1990.3</ele>
        <time>2017-09-28T14:01:08Z</time>
      </trkpt>
      <trkpt lat="45.66495" lon="6.59405">
        <ele>1991.5</ele>
        <time>2017-09-28T14:01:20Z</time>
      </trkpt>
      <trkpt lat="45.66486" lon="6.59409">
        <ele>1994.3</ele>
        <time>2017-09-28T14:01:39Z</time>
      </trkpt>
      <trkpt lat="45.66477" lon="6.59409">
        <ele>1995.4</ele>
        <time>2017-09-28T14:01:48Z</time>
      </trkpt>
      <trkpt lat="45.66485" lon="6.59417">
        <ele>1998.8</ele>
        <time>2017-09-28T14:02:11Z</time>
      </trkpt>
      <trkpt lat="45.66479" lon="6.59427">
        <ele>2003</ele>
        <time>2017-09-28T14:02:35Z</time>
      </trkpt>
      <trkpt lat="45.66471" lon="6.59433">
        <ele>2005.7</ele>
        <time>2017-09-28T14:02:51Z</time>
      </trkpt>
      <trkpt lat="45.66463" lon="6.59439">
        <ele>2008</ele>
        <time>2017-09-28T14:03:07Z</time>
      </trkpt>
      <trkpt lat="45.66453" lon="6.59441">
        <ele>2010.2</ele>
        <time>2017-09-28T14:03:19Z</time>
      </trkpt>
      <trkpt lat="45.66443" lon="6.5944">
        <ele>2011.9</ele>
        <time>2017-09-28T14:03:32Z</time>
      </trkpt>
      <trkpt lat="45.6645" lon="6.59449">
        <ele>2014.1</ele>
        <time>2017-09-28T14:03:45Z</time>
      </trkpt>
      <trkpt lat="45.66442" lon="6.59457">
        <ele>2019.7</ele>
        <time>2017-09-28T14:04:25Z</time>
      </trkpt>
      <trkpt lat="45.66434" lon="6.59464">
        <ele>2021</ele>
        <time>2017-09-28T14:04:37Z</time>
      </trkpt>
      <trkpt lat="45.66425" lon="6.59463">
        <ele>2022.9</ele>
        <time>2017-09-28T14:04:50Z</time>
      </trkpt>
      <trkpt lat="45.66417" lon="6.59457">
        <ele>2025.4</ele>
        <time>2017-09-28T14:05:04Z</time>
      </trkpt>
      <trkpt lat="45.66408" lon="6.59452">
        <ele>2027.1</ele>
        <time>2017-09-28T14:05:16Z</time>
      </trkpt>
      <trkpt lat="45.66398" lon="6.59451">
        <ele>2029.2</ele>
        <time>2017-09-28T14:05:29Z</time>
      </trkpt>
      <trkpt lat="45.66389" lon="6.5945">
        <ele>2029.9</ele>
        <time>2017-09-28T14:05:39Z</time>
      </trkpt>
      <trkpt lat="45.6638" lon="6.59448">
        <ele>2031.2</ele>
        <time>2017-09-28T14:05:49Z</time>
      </trkpt>
      <trkpt lat="45.6637" lon="6.59446">
        <ele>2032.8</ele>
        <time>2017-09-28T14:06:01Z</time>
      </trkpt>
      <trkpt lat="45.66361" lon="6.59446">
        <ele>2034.8</ele>
        <time>2017-09-28T14:06:14Z</time>
      </trkpt>
      <trkpt lat="45.66352" lon="6.59445">
        <ele>2036.8</ele>
        <time>2017-09-28T14:06:26Z</time>
      </trkpt>
      <trkpt lat="45.66343" lon="6.59442">
        <ele>2039.1</ele>
        <time>2017-09-28T14:06:40Z</time>
      </trkpt>
      <trkpt lat="45.66334" lon="6.59439">
        <ele>2040.2</ele>
        <time>2017-09-28T14:06:50Z</time>
      </trkpt>
      <trkpt lat="45.66324" lon="6.59435">
        <ele>2041.1</ele>
        <time>2017-09-28T14:07:00Z</time>
      </trkpt>
      <trkpt lat="45.66316" lon="6.59433">
        <ele>2042.6</ele>
        <time>2017-09-28T14:07:11Z</time>
      </trkpt>
      <trkpt lat="45.66306" lon="6.59434">
        <ele>2044.8</ele>
        <time>2017-09-28T14:07:25Z</time>
      </trkpt>
      <trkpt lat="45.66298" lon="6.59437">
        <ele>2047.8</ele>
        <time>2017-09-28T14:07:46Z</time>
      </trkpt>
      <trkpt lat="45.6629" lon="6.59444">
        <ele>2049.4</ele>
        <time>2017-09-28T14:07:57Z</time>
      </trkpt>
      <trkpt lat="45.66282" lon="6.59451">
        <ele>2050.9</ele>
        <time>2017-09-28T14:08:08Z</time>
      </trkpt>
      <trkpt lat="45.66278" lon="6.59463">
        <ele>2051.8</ele>
        <time>2017-09-28T14:08:23Z</time>
      </trkpt>
      <trkpt lat="45.66285" lon="6.59472">
        <ele>2052</ele>
        <time>2017-09-28T14:08:32Z</time>
      </trkpt>
      <trkpt lat="45.66295" lon="6.59477">
        <ele>2052.7</ele>
        <time>2017-09-28T14:09:37Z</time>
      </trkpt>
      <trkpt lat="45.66304" lon="6.59484">
        <ele>2053.7</ele>
        <time>2017-09-28T14:09:44Z</time>
      </trkpt>
      <trkpt lat="45.66313" lon="6.59489">
        <ele>2055.2</ele>
        <time>2017-09-28T14:09:52Z</time>
      </trkpt>
      <trkpt lat="45.66322" lon="6.59492">
        <ele>2057.4</ele>
        <time>2017-09-28T14:10:01Z</time>
      </trkpt>
      <trkpt lat="45.66332" lon="6.59497">
        <ele>2059.3</ele>
        <time>2017-09-28T14:10:10Z</time>
      </trkpt>
      <trkpt lat="45.66341" lon="6.595">
        <ele>2059.9</ele>
        <time>2017-09-28T14:10:16Z</time>
      </trkpt>
      <trkpt lat="45.66354" lon="6.59505">
        <ele>2059.9</ele>
        <time>2017-09-28T14:10:20Z</time>
      </trkpt>
      <trkpt lat="45.66364" lon="6.5951">
        <ele>2059.8</ele>
        <time>2017-09-28T14:10:23Z</time>
      </trkpt>
      <trkpt lat="45.66374" lon="6.59513">
        <ele>2059.6</ele>
        <time>2017-09-28T14:10:27Z</time>
      </trkpt>
      <trkpt lat="45.66386" lon="6.59518">
        <ele>2059.3</ele>
        <time>2017-09-28T14:10:30Z</time>
      </trkpt>
      <trkpt lat="45.66395" lon="6.59524">
        <ele>2058.9</ele>
        <time>2017-09-28T14:10:32Z</time>
      </trkpt>
      <trkpt lat="45.66404" lon="6.59529">
        <ele>2058.4</ele>
        <time>2017-09-28T14:10:34Z</time>
      </trkpt>
      <trkpt lat="45.66414" lon="6.59534">
        <ele>2058</ele>
        <time>2017-09-28T14:10:37Z</time>
      </trkpt>
      <trkpt lat="45.66423" lon="6.59538">
        <ele>2058</ele>
        <time>2017-09-28T14:10:42Z</time>
      </trkpt>
      <trkpt lat="45.66432" lon="6.59542">
        <ele>2058.3</ele>
        <time>2017-09-28T14:10:47Z</time>
      </trkpt>
      <trkpt lat="45.66442" lon="6.59544">
        <ele>2058.8</ele>
        <time>2017-09-28T14:10:53Z</time>
      </trkpt>
      <trkpt lat="45.66452" lon="6.59546">
        <ele>2059.6</ele>
        <time>2017-09-28T14:10:59Z</time>
      </trkpt>
      <trkpt lat="45.66462" lon="6.59549">
        <ele>2060.7</ele>
        <time>2017-09-28T14:11:06Z</time>
      </trkpt>
      <trkpt lat="45.66472" lon="6.59552">
        <ele>2061.9</ele>
        <time>2017-09-28T14:11:13Z</time>
      </trkpt>
      <trkpt lat="45.66481" lon="6.59553">
        <ele>2063.1</ele>
        <time>2017-09-28T14:11:20Z</time>
      </trkpt>
      <trkpt lat="45.6649" lon="6.59557">
        <ele>2064.1</ele>
        <time>2017-09-28T14:11:27Z</time>
      </trkpt>
      <trkpt lat="45.66498" lon="6.59562">
        <ele>2065.3</ele>
        <time>2017-09-28T14:11:34Z</time>
      </trkpt>
      <trkpt lat="45.66507" lon="6.59559">
        <ele>2066.2</ele>
        <time>2017-09-28T14:11:41Z</time>
      </trkpt>
      <trkpt lat="45.66515" lon="6.59567">
        <ele>2069.2</ele>
        <time>2017-09-28T14:12:02Z</time>
      </trkpt>
      <trkpt lat="45.66524" lon="6.5957">
        <ele>2071.6</ele>
        <time>2017-09-28T14:12:15Z</time>
      </trkpt>
      <trkpt lat="45.66533" lon="6.59567">
        <ele>2073.2</ele>
        <time>2017-09-28T14:12:27Z</time>
      </trkpt>
      <trkpt lat="45.66543" lon="6.59569">
        <ele>2075</ele>
        <time>2017-09-28T14:12:35Z</time>
      </trkpt>
      <trkpt lat="45.66552" lon="6.59572">
        <ele>2077.2</ele>
        <time>2017-09-28T14:12:43Z</time>
      </trkpt>
      <trkpt lat="45.66562" lon="6.59575">
        <ele>2078.4</ele>
        <time>2017-09-28T14:12:52Z</time>
      </trkpt>
      <trkpt lat="45.66571" lon="6.59577">
        <ele>2079.9</ele>
        <time>2017-09-28T14:13:00Z</time>
      </trkpt>
      <trkpt lat="45.66581" lon="6.59578">
        <ele>2081.4</ele>
        <time>2017-09-28T14:13:09Z</time>
      </trkpt>
      <trkpt lat="45.6659" lon="6.59582">
        <ele>2082.4</ele>
        <time>2017-09-28T14:13:17Z</time>
      </trkpt>
      <trkpt lat="45.666" lon="6.59584">
        <ele>2083.7</ele>
        <time>2017-09-28T14:13:25Z</time>
      </trkpt>
      <trkpt lat="45.66608" lon="6.59589">
        <ele>2084.7</ele>
        <time>2017-09-28T14:13:32Z</time>
      </trkpt>
      <trkpt lat="45.66618" lon="6.59595">
        <ele>2085.7</ele>
        <time>2017-09-28T14:13:40Z</time>
      </trkpt>
      <trkpt lat="45.66627" lon="6.59601">
        <ele>2087.4</ele>
        <time>2017-09-28T14:13:47Z</time>
      </trkpt>
      <trkpt lat="45.66635" lon="6.59606">
        <ele>2089.9</ele>
        <time>2017-09-28T14:13:59Z</time>
      </trkpt>
      <trkpt lat="45.66643" lon="6.59614">
        <ele>2093.4</ele>
        <time>2017-09-28T14:14:21Z</time>
      </trkpt>
      <trkpt lat="45.66651" lon="6.59621">
        <ele>2095.8</ele>
        <time>2017-09-28T14:14:36Z</time>
      </trkpt>
      <trkpt lat="45.66661" lon="6.59627">
        <ele>2097.5</ele>
        <time>2017-09-28T14:14:42Z</time>
      </trkpt>
      <trkpt lat="45.6667" lon="6.59629">
        <ele>2100.3</ele>
        <time>2017-09-28T14:14:49Z</time>
      </trkpt>
      <trkpt lat="45.66679" lon="6.59635">
        <ele>2101.5</ele>
        <time>2017-09-28T14:14:56Z</time>
      </trkpt>
      <trkpt lat="45.66686" lon="6.59643">
        <ele>2102.1</ele>
        <time>2017-09-28T14:15:01Z</time>
      </trkpt>
      <trkpt lat="45.66695" lon="6.59653">
        <ele>2102.8</ele>
        <time>2017-09-28T14:16:24Z</time>
      </trkpt>
      <trkpt lat="45.66705" lon="6.59665">
        <ele>2102.6</ele>
        <time>2017-09-28T14:16:27Z</time>
      </trkpt>
      <trkpt lat="45.66714" lon="6.59676">
        <ele>2102.2</ele>
        <time>2017-09-28T14:16:29Z</time>
      </trkpt>
      <trkpt lat="45.66721" lon="6.59688">
        <ele>2101.7</ele>
        <time>2017-09-28T14:16:31Z</time>
      </trkpt>
      <trkpt lat="45.66727" lon="6.59699">
        <ele>2101.4</ele>
        <time>2017-09-28T14:16:35Z</time>
      </trkpt>
      <trkpt lat="45.66736" lon="6.59707">
        <ele>2103.5</ele>
        <time>2017-09-28T14:17:53Z</time>
      </trkpt>
      <trkpt lat="45.66744" lon="6.59714">
        <ele>2103.3</ele>
        <time>2017-09-28T14:17:56Z</time>
      </trkpt>
      <trkpt lat="45.66752" lon="6.59722">
        <ele>2102.9</ele>
        <time>2017-09-28T14:17:59Z</time>
      </trkpt>
      <trkpt lat="45.66765" lon="6.59729">
        <ele>2102.5</ele>
        <time>2017-09-28T14:18:02Z</time>
      </trkpt>
      <trkpt lat="45.66775" lon="6.59737">
        <ele>2101.6</ele>
        <time>2017-09-28T14:18:05Z</time>
      </trkpt>
      <trkpt lat="45.66783" lon="6.59742">
        <ele>2100.7</ele>
        <time>2017-09-28T14:18:07Z</time>
      </trkpt>
      <trkpt lat="45.66792" lon="6.59747">
        <ele>2099.5</ele>
        <time>2017-09-28T14:18:09Z</time>
      </trkpt>
      <trkpt lat="45.66802" lon="6.5975">
        <ele>2097.8</ele>
        <time>2017-09-28T14:18:11Z</time>
      </trkpt>
      <trkpt lat="45.66811" lon="6.59751">
        <ele>2096</ele>
        <time>2017-09-28T14:18:13Z</time>
      </trkpt>
      <trkpt lat="45.6682" lon="6.5975">
        <ele>2094.2</ele>
        <time>2017-09-28T14:18:15Z</time>
      </trkpt>
      <trkpt lat="45.66833" lon="6.59748">
        <ele>2092.5</ele>
        <time>2017-09-28T14:18:17Z</time>
      </trkpt>
      <trkpt lat="45.66844" lon="6.59744">
        <ele>2090.9</ele>
        <time>2017-09-28T14:18:19Z</time>
      </trkpt>
      <trkpt lat="45.66854" lon="6.59743">
        <ele>2089.3</ele>
        <time>2017-09-28T14:18:21Z</time>
      </trkpt>
      <trkpt lat="45.66865" lon="6.59743">
        <ele>2086.8</ele>
        <time>2017-09-28T14:18:24Z</time>
      </trkpt>
      <trkpt lat="45.66876" lon="6.59742">
        <ele>2084</ele>
        <time>2017-09-28T14:18:28Z</time>
      </trkpt>
      <trkpt lat="45.66887" lon="6.5974">
        <ele>2080.1</ele>
        <time>2017-09-28T14:18:33Z</time>
      </trkpt>
      <trkpt lat="45.66897" lon="6.59737">
        <ele>2076.5</ele>
        <time>2017-09-28T14:18:37Z</time>
      </trkpt>
      <trkpt lat="45.6691" lon="6.59733">
        <ele>2072.9</ele>
        <time>2017-09-28T14:18:40Z</time>
      </trkpt>
      <trkpt lat="45.6692" lon="6.59728">
        <ele>2070.2</ele>
        <time>2017-09-28T14:18:42Z</time>
      </trkpt>
      <trkpt lat="45.66931" lon="6.59725">
        <ele>2068</ele>
        <time>2017-09-28T14:18:44Z</time>
      </trkpt>
      <trkpt lat="45.66942" lon="6.59728">
        <ele>2066.2</ele>
        <time>2017-09-28T14:18:46Z</time>
      </trkpt>
      <trkpt lat="45.66952" lon="6.59736">
        <ele>2064.6</ele>
        <time>2017-09-28T14:18:48Z</time>
      </trkpt>
      <trkpt lat="45.66963" lon="6.59745">
        <ele>2063.2</ele>
        <time>2017-09-28T14:18:50Z</time>
      </trkpt>
      <trkpt lat="45.66974" lon="6.5975">
        <ele>2062.2</ele>
        <time>2017-09-28T14:18:52Z</time>
      </trkpt>
      <trkpt lat="45.66986" lon="6.59753">
        <ele>2061.2</ele>
        <time>2017-09-28T14:18:55Z</time>
      </trkpt>
      <trkpt lat="45.67" lon="6.59756">
        <ele>2060.7</ele>
        <time>2017-09-28T14:18:58Z</time>
      </trkpt>
      <trkpt lat="45.6701" lon="6.5976">
        <ele>2060.2</ele>
        <time>2017-09-28T14:19:00Z</time>
      </trkpt>
      <trkpt lat="45.67021" lon="6.59763">
        <ele>2059.6</ele>
        <time>2017-09-28T14:19:02Z</time>
      </trkpt>
      <trkpt lat="45.67032" lon="6.59763">
        <ele>2059.1</ele>
        <time>2017-09-28T14:19:04Z</time>
      </trkpt>
      <trkpt lat="45.67042" lon="6.5976">
        <ele>2058.7</ele>
        <time>2017-09-28T14:19:06Z</time>
      </trkpt>
      <trkpt lat="45.67053" lon="6.59758">
        <ele>2058.2</ele>
        <time>2017-09-28T14:19:08Z</time>
      </trkpt>
      <trkpt lat="45.67064" lon="6.59758">
        <ele>2057.8</ele>
        <time>2017-09-28T14:19:10Z</time>
      </trkpt>
      <trkpt lat="45.67073" lon="6.59762">
        <ele>2057.2</ele>
        <time>2017-09-28T14:19:13Z</time>
      </trkpt>
      <trkpt lat="45.67083" lon="6.59766">
        <ele>2057.3</ele>
        <time>2017-09-28T14:19:18Z</time>
      </trkpt>
      <trkpt lat="45.67092" lon="6.5977">
        <ele>2058.3</ele>
        <time>2017-09-28T14:19:24Z</time>
      </trkpt>
      <trkpt lat="45.67102" lon="6.59775">
        <ele>2059.7</ele>
        <time>2017-09-28T14:19:31Z</time>
      </trkpt>
      <trkpt lat="45.67111" lon="6.59779">
        <ele>2061.9</ele>
        <time>2017-09-28T14:19:44Z</time>
      </trkpt>
      <trkpt lat="45.67119" lon="6.59784">
        <ele>2065.6</ele>
        <time>2017-09-28T14:20:12Z</time>
      </trkpt>
      <trkpt lat="45.67128" lon="6.59788">
        <ele>2067.8</ele>
        <time>2017-09-28T14:20:23Z</time>
      </trkpt>
      <trkpt lat="45.67137" lon="6.59793">
        <ele>2071.3</ele>
        <time>2017-09-28T14:20:41Z</time>
      </trkpt>
      <trkpt lat="45.67145" lon="6.59797">
        <ele>2073.7</ele>
        <time>2017-09-28T14:20:52Z</time>
      </trkpt>
      <trkpt lat="45.67154" lon="6.59803">
        <ele>2076.2</ele>
        <time>2017-09-28T14:21:06Z</time>
      </trkpt>
      <trkpt lat="45.67163" lon="6.5981">
        <ele>2076.6</ele>
        <time>2017-09-28T14:21:14Z</time>
      </trkpt>
      <trkpt lat="45.6717" lon="6.59818">
        <ele>2077.1</ele>
        <time>2017-09-28T14:21:20Z</time>
      </trkpt>
      <trkpt lat="45.67178" lon="6.59826">
        <ele>2077.7</ele>
        <time>2017-09-28T14:21:26Z</time>
      </trkpt>
      <trkpt lat="45.67186" lon="6.59832">
        <ele>2078.7</ele>
        <time>2017-09-28T14:21:32Z</time>
      </trkpt>
      <trkpt lat="45.67194" lon="6.5984">
        <ele>2080.9</ele>
        <time>2017-09-28T14:21:39Z</time>
      </trkpt>
      <trkpt lat="45.67203" lon="6.59843">
        <ele>2084.2</ele>
        <time>2017-09-28T14:21:57Z</time>
      </trkpt>
      <trkpt lat="45.67213" lon="6.59848">
        <ele>2086.4</ele>
        <time>2017-09-28T14:23:57Z</time>
      </trkpt>
      <trkpt lat="45.67203" lon="6.59847">
        <ele>2086.7</ele>
        <time>2017-09-28T14:24:13Z</time>
      </trkpt>
      <trkpt lat="45.67214" lon="6.5985">
        <ele>2087.2</ele>
        <time>2017-09-28T14:24:48Z</time>
      </trkpt>
      <trkpt lat="45.67222" lon="6.59857">
        <ele>2087.8</ele>
        <time>2017-09-28T14:24:52Z</time>
      </trkpt>
      <trkpt lat="45.6723" lon="6.59865">
        <ele>2089</ele>
        <time>2017-09-28T14:24:57Z</time>
      </trkpt>
      <trkpt lat="45.67239" lon="6.5987">
        <ele>2090</ele>
        <time>2017-09-28T14:25:02Z</time>
      </trkpt>
      <trkpt lat="45.67247" lon="6.59877">
        <ele>2091.5</ele>
        <time>2017-09-28T14:25:07Z</time>
      </trkpt>
      <trkpt lat="45.67257" lon="6.59879">
        <ele>2093.6</ele>
        <time>2017-09-28T14:25:14Z</time>
      </trkpt>
      <trkpt lat="45.67267" lon="6.5988">
        <ele>2095.5</ele>
        <time>2017-09-28T14:25:21Z</time>
      </trkpt>
      <trkpt lat="45.67276" lon="6.59886">
        <ele>2097</ele>
        <time>2017-09-28T14:25:29Z</time>
      </trkpt>
      <trkpt lat="45.67285" lon="6.59891">
        <ele>2097.8</ele>
        <time>2017-09-28T14:25:36Z</time>
      </trkpt>
      <trkpt lat="45.67294" lon="6.59893">
        <ele>2097.9</ele>
        <time>2017-09-28T14:25:39Z</time>
      </trkpt>
      <trkpt lat="45.67303" lon="6.59898">
        <ele>2097.8</ele>
        <time>2017-09-28T14:25:42Z</time>
      </trkpt>
      <trkpt lat="45.67311" lon="6.59904">
        <ele>2097.8</ele>
        <time>2017-09-28T14:25:46Z</time>
      </trkpt>
      <trkpt lat="45.6732" lon="6.5991">
        <ele>2098.1</ele>
        <time>2017-09-28T14:25:51Z</time>
      </trkpt>
      <trkpt lat="45.67326" lon="6.59919">
        <ele>2099.8</ele>
        <time>2017-09-28T14:25:57Z</time>
      </trkpt>
      <trkpt lat="45.67332" lon="6.5993">
        <ele>2102.3</ele>
        <time>2017-09-28T14:28:04Z</time>
      </trkpt>
      <trkpt lat="45.67342" lon="6.59944">
        <ele>2102.4</ele>
        <time>2017-09-28T14:28:09Z</time>
      </trkpt>
      <trkpt lat="45.6735" lon="6.59954">
        <ele>2102.1</ele>
        <time>2017-09-28T14:28:11Z</time>
      </trkpt>
      <trkpt lat="45.6736" lon="6.59963">
        <ele>2101.7</ele>
        <time>2017-09-28T14:28:14Z</time>
      </trkpt>
      <trkpt lat="45.67371" lon="6.59971">
        <ele>2101.2</ele>
        <time>2017-09-28T14:28:17Z</time>
      </trkpt>
      <trkpt lat="45.67379" lon="6.59982">
        <ele>2100.5</ele>
        <time>2017-09-28T14:28:20Z</time>
      </trkpt>
      <trkpt lat="45.67388" lon="6.5999">
        <ele>2100.1</ele>
        <time>2017-09-28T14:28:22Z</time>
      </trkpt>
      <trkpt lat="45.67398" lon="6.59996">
        <ele>2099.5</ele>
        <time>2017-09-28T14:28:24Z</time>
      </trkpt>
      <trkpt lat="45.6741" lon="6.60002">
        <ele>2099</ele>
        <time>2017-09-28T14:28:26Z</time>
      </trkpt>
      <trkpt lat="45.67419" lon="6.60003">
        <ele>2098.8</ele>
        <time>2017-09-28T14:28:29Z</time>
      </trkpt>
      <trkpt lat="45.6743" lon="6.60006">
        <ele>2100.1</ele>
        <time>2017-09-28T14:28:36Z</time>
      </trkpt>
      <trkpt lat="45.67439" lon="6.60008">
        <ele>2100.9</ele>
        <time>2017-09-28T14:28:40Z</time>
      </trkpt>
      <trkpt lat="45.67449" lon="6.60014">
        <ele>2101.5</ele>
        <time>2017-09-28T14:28:44Z</time>
      </trkpt>
      <trkpt lat="45.67457" lon="6.6002">
        <ele>2101.9</ele>
        <time>2017-09-28T14:28:47Z</time>
      </trkpt>
      <trkpt lat="45.6747" lon="6.60026">
        <ele>2101.8</ele>
        <time>2017-09-28T14:28:50Z</time>
      </trkpt>
      <trkpt lat="45.6748" lon="6.60029">
        <ele>2101.7</ele>
        <time>2017-09-28T14:28:52Z</time>
      </trkpt>
      <trkpt lat="45.6749" lon="6.60032">
        <ele>2101.5</ele>
        <time>2017-09-28T14:28:54Z</time>
      </trkpt>
      <trkpt lat="45.67501" lon="6.60036">
        <ele>2101.2</ele>
        <time>2017-09-28T14:28:57Z</time>
      </trkpt>
      <trkpt lat="45.6751" lon="6.6004">
        <ele>2101.9</ele>
        <time>2017-09-28T14:29:02Z</time>
      </trkpt>
      <trkpt lat="45.67519" lon="6.60044">
        <ele>2103.9</ele>
        <time>2017-09-28T14:29:08Z</time>
      </trkpt>
      <trkpt lat="45.67528" lon="6.60052">
        <ele>2106.1</ele>
        <time>2017-09-28T14:29:15Z</time>
      </trkpt>
      <trkpt lat="45.67536" lon="6.60058">
        <ele>2107.5</ele>
        <time>2017-09-28T14:29:22Z</time>
      </trkpt>
      <trkpt lat="45.67543" lon="6.60067">
        <ele>2108.6</ele>
        <time>2017-09-28T14:29:29Z</time>
      </trkpt>
      <trkpt lat="45.67553" lon="6.60074">
        <ele>2109.2</ele>
        <time>2017-09-28T14:29:35Z</time>
      </trkpt>
      <trkpt lat="45.67563" lon="6.60074">
        <ele>2109.1</ele>
        <time>2017-09-28T14:29:38Z</time>
      </trkpt>
      <trkpt lat="45.67573" lon="6.6007">
        <ele>2109</ele>
        <time>2017-09-28T14:29:41Z</time>
      </trkpt>
      <trkpt lat="45.67584" lon="6.60071">
        <ele>2109.6</ele>
        <time>2017-09-28T14:29:46Z</time>
      </trkpt>
      <trkpt lat="45.67594" lon="6.60076">
        <ele>2109.5</ele>
        <time>2017-09-28T14:30:15Z</time>
      </trkpt>
      <trkpt lat="45.67606" lon="6.60077">
        <ele>2108.2</ele>
        <time>2017-09-28T14:30:20Z</time>
      </trkpt>
      <trkpt lat="45.67615" lon="6.60077">
        <ele>2105.6</ele>
        <time>2017-09-28T14:30:24Z</time>
      </trkpt>
      <trkpt lat="45.67626" lon="6.60079">
        <ele>2103.1</ele>
        <time>2017-09-28T14:30:27Z</time>
      </trkpt>
      <trkpt lat="45.67638" lon="6.60078">
        <ele>2100.4</ele>
        <time>2017-09-28T14:30:30Z</time>
      </trkpt>
      <trkpt lat="45.67648" lon="6.60077">
        <ele>2098.1</ele>
        <time>2017-09-28T14:30:33Z</time>
      </trkpt>
      <trkpt lat="45.6766" lon="6.60071">
        <ele>2096.7</ele>
        <time>2017-09-28T14:30:36Z</time>
      </trkpt>
      <trkpt lat="45.6767" lon="6.60067">
        <ele>2095.7</ele>
        <time>2017-09-28T14:30:38Z</time>
      </trkpt>
      <trkpt lat="45.6768" lon="6.60065">
        <ele>2094.3</ele>
        <time>2017-09-28T14:30:40Z</time>
      </trkpt>
      <trkpt lat="45.67691" lon="6.60068">
        <ele>2091.9</ele>
        <time>2017-09-28T14:30:43Z</time>
      </trkpt>
      <trkpt lat="45.67702" lon="6.60068">
        <ele>2089.5</ele>
        <time>2017-09-28T14:30:46Z</time>
      </trkpt>
      <trkpt lat="45.67712" lon="6.6007">
        <ele>2086.5</ele>
        <time>2017-09-28T14:30:50Z</time>
      </trkpt>
      <trkpt lat="45.67724" lon="6.60073">
        <ele>2085.4</ele>
        <time>2017-09-28T14:30:52Z</time>
      </trkpt>
      <trkpt lat="45.67733" lon="6.60073">
        <ele>2084.2</ele>
        <time>2017-09-28T14:30:55Z</time>
      </trkpt>
      <trkpt lat="45.67742" lon="6.60067">
        <ele>2083.9</ele>
        <time>2017-09-28T14:30:59Z</time>
      </trkpt>
      <trkpt lat="45.67752" lon="6.60064">
        <ele>2083.6</ele>
        <time>2017-09-28T14:31:03Z</time>
      </trkpt>
      <trkpt lat="45.67761" lon="6.60066">
        <ele>2074.4</ele>
        <time>2017-09-28T14:32:12Z</time>
      </trkpt>
      <trkpt lat="45.67773" lon="6.60067">
        <ele>2074.5</ele>
        <time>2017-09-28T14:32:37Z</time>
      </trkpt>
      <trkpt lat="45.67783" lon="6.60065">
        <ele>2073.2</ele>
        <time>2017-09-28T14:32:39Z</time>
      </trkpt>
      <trkpt lat="45.67793" lon="6.60062">
        <ele>2070.5</ele>
        <time>2017-09-28T14:32:42Z</time>
      </trkpt>
      <trkpt lat="45.67794" lon="6.60076">
        <ele>2064.4</ele>
        <time>2017-09-28T14:32:50Z</time>
      </trkpt>
      <trkpt lat="45.67803" lon="6.60076">
        <ele>2059.1</ele>
        <time>2017-09-28T14:32:58Z</time>
      </trkpt>
      <trkpt lat="45.67813" lon="6.60075">
        <ele>2052.8</ele>
        <time>2017-09-28T14:33:15Z</time>
      </trkpt>
      <trkpt lat="45.6782" lon="6.60084">
        <ele>2049.2</ele>
        <time>2017-09-28T14:33:24Z</time>
      </trkpt>
      <trkpt lat="45.6783" lon="6.60087">
        <ele>2045.1</ele>
        <time>2017-09-28T14:33:32Z</time>
      </trkpt>
      <trkpt lat="45.6784" lon="6.60083">
        <ele>2043</ele>
        <time>2017-09-28T14:33:36Z</time>
      </trkpt>
      <trkpt lat="45.6784" lon="6.60097">
        <ele>2040.2</ele>
        <time>2017-09-28T14:33:42Z</time>
      </trkpt>
      <trkpt lat="45.67834" lon="6.60111">
        <ele>2037.3</ele>
        <time>2017-09-28T14:33:46Z</time>
      </trkpt>
      <trkpt lat="45.67829" lon="6.60123">
        <ele>2035.2</ele>
        <time>2017-09-28T14:33:49Z</time>
      </trkpt>
      <trkpt lat="45.67837" lon="6.60129">
        <ele>2031.5</ele>
        <time>2017-09-28T14:33:55Z</time>
      </trkpt>
      <trkpt lat="45.67847" lon="6.60124">
        <ele>2029.9</ele>
        <time>2017-09-28T14:33:57Z</time>
      </trkpt>
      <trkpt lat="45.67857" lon="6.60115">
        <ele>2026.9</ele>
        <time>2017-09-28T14:34:00Z</time>
      </trkpt>
      <trkpt lat="45.67856" lon="6.60133">
        <ele>2022.8</ele>
        <time>2017-09-28T14:34:05Z</time>
      </trkpt>
      <trkpt lat="45.67854" lon="6.6015">
        <ele>2019.9</ele>
        <time>2017-09-28T14:34:08Z</time>
      </trkpt>
      <trkpt lat="45.67865" lon="6.60148">
        <ele>2015.4</ele>
        <time>2017-09-28T14:34:13Z</time>
      </trkpt>
      <trkpt lat="45.67874" lon="6.60142">
        <ele>2012.6</ele>
        <time>2017-09-28T14:34:16Z</time>
      </trkpt>
      <trkpt lat="45.67884" lon="6.60137">
        <ele>2010.2</ele>
        <time>2017-09-28T14:34:18Z</time>
      </trkpt>
      <trkpt lat="45.67893" lon="6.60128">
        <ele>2007.6</ele>
        <time>2017-09-28T14:34:20Z</time>
      </trkpt>
      <trkpt lat="45.67903" lon="6.60114">
        <ele>2005.3</ele>
        <time>2017-09-28T14:34:22Z</time>
      </trkpt>
      <trkpt lat="45.67911" lon="6.60101">
        <ele>2002.8</ele>
        <time>2017-09-28T14:34:24Z</time>
      </trkpt>
      <trkpt lat="45.67921" lon="6.60094">
        <ele>2000.5</ele>
        <time>2017-09-28T14:34:26Z</time>
      </trkpt>
      <trkpt lat="45.67925" lon="6.60107">
        <ele>1996.8</ele>
        <time>2017-09-28T14:34:30Z</time>
      </trkpt>
      <trkpt lat="45.67932" lon="6.60115">
        <ele>1993.1</ele>
        <time>2017-09-28T14:34:34Z</time>
      </trkpt>
      <trkpt lat="45.67944" lon="6.60111">
        <ele>1991.6</ele>
        <time>2017-09-28T14:34:36Z</time>
      </trkpt>
      <trkpt lat="45.67957" lon="6.6011">
        <ele>1990</ele>
        <time>2017-09-28T14:34:38Z</time>
      </trkpt>
      <trkpt lat="45.67966" lon="6.60117">
        <ele>1988.5</ele>
        <time>2017-09-28T14:34:40Z</time>
      </trkpt>
      <trkpt lat="45.67975" lon="6.60129">
        <ele>1986.6</ele>
        <time>2017-09-28T14:34:42Z</time>
      </trkpt>
      <trkpt lat="45.67987" lon="6.6014">
        <ele>1984.5</ele>
        <time>2017-09-28T14:34:44Z</time>
      </trkpt>
      <trkpt lat="45.68" lon="6.60142">
        <ele>1982.4</ele>
        <time>2017-09-28T14:34:46Z</time>
      </trkpt>
      <trkpt lat="45.68013" lon="6.60131">
        <ele>1980.5</ele>
        <time>2017-09-28T14:34:48Z</time>
      </trkpt>
      <trkpt lat="45.68025" lon="6.60118">
        <ele>1978.8</ele>
        <time>2017-09-28T14:34:50Z</time>
      </trkpt>
      <trkpt lat="45.68039" lon="6.60113">
        <ele>1977.2</ele>
        <time>2017-09-28T14:34:52Z</time>
      </trkpt>
      <trkpt lat="45.68056" lon="6.60113">
        <ele>1975.5</ele>
        <time>2017-09-28T14:34:54Z</time>
      </trkpt>
      <trkpt lat="45.68073" lon="6.60113">
        <ele>1974.2</ele>
        <time>2017-09-28T14:34:56Z</time>
      </trkpt>
      <trkpt lat="45.68085" lon="6.6011">
        <ele>1973.2</ele>
        <time>2017-09-28T14:34:58Z</time>
      </trkpt>
      <trkpt lat="45.68097" lon="6.60107">
        <ele>1972.4</ele>
        <time>2017-09-28T14:35:01Z</time>
      </trkpt>
      <trkpt lat="45.68108" lon="6.60106">
        <ele>1971.9</ele>
        <time>2017-09-28T14:35:04Z</time>
      </trkpt>
      <trkpt lat="45.6812" lon="6.60106">
        <ele>1971.4</ele>
        <time>2017-09-28T14:35:07Z</time>
      </trkpt>
      <trkpt lat="45.68132" lon="6.60103">
        <ele>1970.8</ele>
        <time>2017-09-28T14:35:10Z</time>
      </trkpt>
      <trkpt lat="45.68142" lon="6.60104">
        <ele>1969.6</ele>
        <time>2017-09-28T14:35:13Z</time>
      </trkpt>
      <trkpt lat="45.68152" lon="6.6011">
        <ele>1967</ele>
        <time>2017-09-28T14:35:17Z</time>
      </trkpt>
      <trkpt lat="45.68159" lon="6.60118">
        <ele>1962.8</ele>
        <time>2017-09-28T14:35:25Z</time>
      </trkpt>
      <trkpt lat="45.68168" lon="6.60129">
        <ele>1960</ele>
        <time>2017-09-28T14:35:29Z</time>
      </trkpt>
      <trkpt lat="45.68179" lon="6.60131">
        <ele>1956.7</ele>
        <time>2017-09-28T14:35:33Z</time>
      </trkpt>
      <trkpt lat="45.68179" lon="6.60117">
        <ele>1951.8</ele>
        <time>2017-09-28T14:35:39Z</time>
      </trkpt>
      <trkpt lat="45.68188" lon="6.60114">
        <ele>1947.1</ele>
        <time>2017-09-28T14:35:45Z</time>
      </trkpt>
      <trkpt lat="45.68197" lon="6.60114">
        <ele>1942.5</ele>
        <time>2017-09-28T14:35:51Z</time>
      </trkpt>
      <trkpt lat="45.68207" lon="6.60114">
        <ele>1939.6</ele>
        <time>2017-09-28T14:35:54Z</time>
      </trkpt>
      <trkpt lat="45.68221" lon="6.6011">
        <ele>1936.4</ele>
        <time>2017-09-28T14:35:57Z</time>
      </trkpt>
      <trkpt lat="45.68236" lon="6.60106">
        <ele>1934.3</ele>
        <time>2017-09-28T14:35:59Z</time>
      </trkpt>
      <trkpt lat="45.68252" lon="6.60101">
        <ele>1932.3</ele>
        <time>2017-09-28T14:36:01Z</time>
      </trkpt>
      <trkpt lat="45.68268" lon="6.60093">
        <ele>1930.5</ele>
        <time>2017-09-28T14:36:03Z</time>
      </trkpt>
      <trkpt lat="45.6828" lon="6.60087">
        <ele>1928.9</ele>
        <time>2017-09-28T14:36:05Z</time>
      </trkpt>
      <trkpt lat="45.6829" lon="6.6008">
        <ele>1927.3</ele>
        <time>2017-09-28T14:36:08Z</time>
      </trkpt>
      <trkpt lat="45.68299" lon="6.60076">
        <ele>1926.1</ele>
        <time>2017-09-28T14:36:11Z</time>
      </trkpt>
      <trkpt lat="45.68311" lon="6.60076">
        <ele>1925.3</ele>
        <time>2017-09-28T14:36:14Z</time>
      </trkpt>
      <trkpt lat="45.6832" lon="6.60075">
        <ele>1924.6</ele>
        <time>2017-09-28T14:36:16Z</time>
      </trkpt>
      <trkpt lat="45.68331" lon="6.60073">
        <ele>1922.4</ele>
        <time>2017-09-28T14:36:20Z</time>
      </trkpt>
      <trkpt lat="45.68341" lon="6.60066">
        <ele>1920.1</ele>
        <time>2017-09-28T14:36:23Z</time>
      </trkpt>
      <trkpt lat="45.68349" lon="6.60057">
        <ele>1917.4</ele>
        <time>2017-09-28T14:36:26Z</time>
      </trkpt>
      <trkpt lat="45.68358" lon="6.6005">
        <ele>1914.5</ele>
        <time>2017-09-28T14:36:29Z</time>
      </trkpt>
      <trkpt lat="45.68367" lon="6.6005">
        <ele>1913.2</ele>
        <time>2017-09-28T14:36:31Z</time>
      </trkpt>
      <trkpt lat="45.6838" lon="6.60048">
        <ele>1912.1</ele>
        <time>2017-09-28T14:36:33Z</time>
      </trkpt>
      <trkpt lat="45.68393" lon="6.60045">
        <ele>1911.2</ele>
        <time>2017-09-28T14:36:35Z</time>
      </trkpt>
      <trkpt lat="45.68406" lon="6.60039">
        <ele>1910.4</ele>
        <time>2017-09-28T14:36:37Z</time>
      </trkpt>
      <trkpt lat="45.68415" lon="6.60036">
        <ele>1909.5</ele>
        <time>2017-09-28T14:36:39Z</time>
      </trkpt>
      <trkpt lat="45.68426" lon="6.60033">
        <ele>1908</ele>
        <time>2017-09-28T14:36:41Z</time>
      </trkpt>
      <trkpt lat="45.68435" lon="6.60028">
        <ele>1906</ele>
        <time>2017-09-28T14:36:43Z</time>
      </trkpt>
      <trkpt lat="45.68445" lon="6.60032">
        <ele>1896.8</ele>
        <time>2017-09-28T14:37:12Z</time>
      </trkpt>
      <trkpt lat="45.68453" lon="6.60024">
        <ele>1894.4</ele>
        <time>2017-09-28T14:37:16Z</time>
      </trkpt>
      <trkpt lat="45.68463" lon="6.60021">
        <ele>1892.2</ele>
        <time>2017-09-28T14:37:19Z</time>
      </trkpt>
      <trkpt lat="45.68473" lon="6.60016">
        <ele>1890.4</ele>
        <time>2017-09-28T14:37:21Z</time>
      </trkpt>
      <trkpt lat="45.68486" lon="6.60021">
        <ele>1888.3</ele>
        <time>2017-09-28T14:37:24Z</time>
      </trkpt>
      <trkpt lat="45.68496" lon="6.6003">
        <ele>1887.2</ele>
        <time>2017-09-28T14:37:26Z</time>
      </trkpt>
      <trkpt lat="45.68507" lon="6.60036">
        <ele>1886</ele>
        <time>2017-09-28T14:37:28Z</time>
      </trkpt>
      <trkpt lat="45.68518" lon="6.6004">
        <ele>1883.6</ele>
        <time>2017-09-28T14:37:31Z</time>
      </trkpt>
      <trkpt lat="45.68529" lon="6.60039">
        <ele>1879.8</ele>
        <time>2017-09-28T14:37:35Z</time>
      </trkpt>
      <trkpt lat="45.68539" lon="6.60043">
        <ele>1876.4</ele>
        <time>2017-09-28T14:37:38Z</time>
      </trkpt>
      <trkpt lat="45.68552" lon="6.60053">
        <ele>1872.5</ele>
        <time>2017-09-28T14:37:42Z</time>
      </trkpt>
      <trkpt lat="45.6856" lon="6.60065">
        <ele>1871.1</ele>
        <time>2017-09-28T14:37:44Z</time>
      </trkpt>
      <trkpt lat="45.68562" lon="6.60081">
        <ele>1869.7</ele>
        <time>2017-09-28T14:37:46Z</time>
      </trkpt>
      <trkpt lat="45.68566" lon="6.60101">
        <ele>1868.6</ele>
        <time>2017-09-28T14:37:48Z</time>
      </trkpt>
      <trkpt lat="45.68571" lon="6.60118">
        <ele>1867.1</ele>
        <time>2017-09-28T14:37:50Z</time>
      </trkpt>
      <trkpt lat="45.68576" lon="6.60132">
        <ele>1865.1</ele>
        <time>2017-09-28T14:37:52Z</time>
      </trkpt>
      <trkpt lat="45.68581" lon="6.60147">
        <ele>1861.4</ele>
        <time>2017-09-28T14:37:55Z</time>
      </trkpt>
      <trkpt lat="45.68588" lon="6.60156">
        <ele>1857.9</ele>
        <time>2017-09-28T14:37:58Z</time>
      </trkpt>
      <trkpt lat="45.68598" lon="6.60158">
        <ele>1856.1</ele>
        <time>2017-09-28T14:38:00Z</time>
      </trkpt>
      <trkpt lat="45.68609" lon="6.60158">
        <ele>1853.6</ele>
        <time>2017-09-28T14:38:03Z</time>
      </trkpt>
      <trkpt lat="45.6862" lon="6.60156">
        <ele>1852</ele>
        <time>2017-09-28T14:38:05Z</time>
      </trkpt>
      <trkpt lat="45.68632" lon="6.60157">
        <ele>1850</ele>
        <time>2017-09-28T14:38:07Z</time>
      </trkpt>
      <trkpt lat="45.68642" lon="6.60156">
        <ele>1848.2</ele>
        <time>2017-09-28T14:38:09Z</time>
      </trkpt>
      <trkpt lat="45.68651" lon="6.60151">
        <ele>1846.6</ele>
        <time>2017-09-28T14:38:11Z</time>
      </trkpt>
      <trkpt lat="45.68658" lon="6.60139">
        <ele>1844.9</ele>
        <time>2017-09-28T14:38:13Z</time>
      </trkpt>
      <trkpt lat="45.68664" lon="6.60122">
        <ele>1842.4</ele>
        <time>2017-09-28T14:38:16Z</time>
      </trkpt>
      <trkpt lat="45.68668" lon="6.6011">
        <ele>1839.6</ele>
        <time>2017-09-28T14:38:19Z</time>
      </trkpt>
      <trkpt lat="45.68674" lon="6.601">
        <ele>1837.9</ele>
        <time>2017-09-28T14:38:21Z</time>
      </trkpt>
      <trkpt lat="45.68677" lon="6.60087">
        <ele>1836</ele>
        <time>2017-09-28T14:38:23Z</time>
      </trkpt>
      <trkpt lat="45.6868" lon="6.60071">
        <ele>1834.1</ele>
        <time>2017-09-28T14:38:25Z</time>
      </trkpt>
      <trkpt lat="45.68683" lon="6.60049">
        <ele>1832.4</ele>
        <time>2017-09-28T14:38:27Z</time>
      </trkpt>
      <trkpt lat="45.68686" lon="6.6003">
        <ele>1830.4</ele>
        <time>2017-09-28T14:38:29Z</time>
      </trkpt>
      <trkpt lat="45.68689" lon="6.60015">
        <ele>1828.7</ele>
        <time>2017-09-28T14:38:31Z</time>
      </trkpt>
      <trkpt lat="45.68691" lon="6.59999">
        <ele>1827</ele>
        <time>2017-09-28T14:38:33Z</time>
      </trkpt>
      <trkpt lat="45.68692" lon="6.59984">
        <ele>1824.7</ele>
        <time>2017-09-28T14:38:35Z</time>
      </trkpt>
      <trkpt lat="45.68699" lon="6.59975">
        <ele>1820.6</ele>
        <time>2017-09-28T14:38:39Z</time>
      </trkpt>
      <trkpt lat="45.68709" lon="6.59978">
        <ele>1819</ele>
        <time>2017-09-28T14:38:41Z</time>
      </trkpt>
      <trkpt lat="45.6872" lon="6.59982">
        <ele>1817.5</ele>
        <time>2017-09-28T14:38:43Z</time>
      </trkpt>
      <trkpt lat="45.6873" lon="6.59989">
        <ele>1815.7</ele>
        <time>2017-09-28T14:38:45Z</time>
      </trkpt>
      <trkpt lat="45.6874" lon="6.6">
        <ele>1814</ele>
        <time>2017-09-28T14:38:47Z</time>
      </trkpt>
      <trkpt lat="45.68748" lon="6.6001">
        <ele>1811.9</ele>
        <time>2017-09-28T14:38:49Z</time>
      </trkpt>
      <trkpt lat="45.68755" lon="6.60023">
        <ele>1808.8</ele>
        <time>2017-09-28T14:38:52Z</time>
      </trkpt>
      <trkpt lat="45.68765" lon="6.60024">
        <ele>1806.3</ele>
        <time>2017-09-28T14:38:55Z</time>
      </trkpt>
      <trkpt lat="45.68773" lon="6.6003">
        <ele>1804.7</ele>
        <time>2017-09-28T14:38:57Z</time>
      </trkpt>
      <trkpt lat="45.68785" lon="6.60036">
        <ele>1801.8</ele>
        <time>2017-09-28T14:39:00Z</time>
      </trkpt>
      <trkpt lat="45.68795" lon="6.60029">
        <ele>1798.7</ele>
        <time>2017-09-28T14:39:03Z</time>
      </trkpt>
      <trkpt lat="45.68804" lon="6.60023">
        <ele>1795.7</ele>
        <time>2017-09-28T14:39:06Z</time>
      </trkpt>
      <trkpt lat="45.68814" lon="6.60013">
        <ele>1792.6</ele>
        <time>2017-09-28T14:39:09Z</time>
      </trkpt>
      <trkpt lat="45.68824" lon="6.6001">
        <ele>1788.3</ele>
        <time>2017-09-28T14:39:13Z</time>
      </trkpt>
      <trkpt lat="45.68837" lon="6.60001">
        <ele>1785.2</ele>
        <time>2017-09-28T14:39:16Z</time>
      </trkpt>
      <trkpt lat="45.68849" lon="6.59995">
        <ele>1781.4</ele>
        <time>2017-09-28T14:39:19Z</time>
      </trkpt>
      <trkpt lat="45.68861" lon="6.59987">
        <ele>1779.3</ele>
        <time>2017-09-28T14:39:21Z</time>
      </trkpt>
      <trkpt lat="45.68872" lon="6.59979">
        <ele>1777.4</ele>
        <time>2017-09-28T14:39:23Z</time>
      </trkpt>
      <trkpt lat="45.68882" lon="6.59975">
        <ele>1775.5</ele>
        <time>2017-09-28T14:39:25Z</time>
      </trkpt>
      <trkpt lat="45.68892" lon="6.59978">
        <ele>1773.4</ele>
        <time>2017-09-28T14:39:27Z</time>
      </trkpt>
      <trkpt lat="45.68902" lon="6.59973">
        <ele>1770.5</ele>
        <time>2017-09-28T14:39:30Z</time>
      </trkpt>
      <trkpt lat="45.68909" lon="6.59964">
        <ele>1767.3</ele>
        <time>2017-09-28T14:39:33Z</time>
      </trkpt>
      <trkpt lat="45.68911" lon="6.59951">
        <ele>1763.7</ele>
        <time>2017-09-28T14:39:38Z</time>
      </trkpt>
      <trkpt lat="45.68919" lon="6.59942">
        <ele>1761.5</ele>
        <time>2017-09-28T14:39:42Z</time>
      </trkpt>
      <trkpt lat="45.6893" lon="6.59936">
        <ele>1758.7</ele>
        <time>2017-09-28T14:39:46Z</time>
      </trkpt>
      <trkpt lat="45.68941" lon="6.59932">
        <ele>1755.8</ele>
        <time>2017-09-28T14:39:49Z</time>
      </trkpt>
      <trkpt lat="45.68952" lon="6.59937">
        <ele>1753.9</ele>
        <time>2017-09-28T14:39:51Z</time>
      </trkpt>
      <trkpt lat="45.68963" lon="6.59934">
        <ele>1750.3</ele>
        <time>2017-09-28T14:39:55Z</time>
      </trkpt>
      <trkpt lat="45.68971" lon="6.59926">
        <ele>1747.7</ele>
        <time>2017-09-28T14:39:58Z</time>
      </trkpt>
      <trkpt lat="45.68977" lon="6.59916">
        <ele>1745.2</ele>
        <time>2017-09-28T14:40:01Z</time>
      </trkpt>
      <trkpt lat="45.68978" lon="6.59901">
        <ele>1741.9</ele>
        <time>2017-09-28T14:40:05Z</time>
      </trkpt>
      <trkpt lat="45.68977" lon="6.59884">
        <ele>1739</ele>
        <time>2017-09-28T14:40:08Z</time>
      </trkpt>
      <trkpt lat="45.68975" lon="6.59871">
        <ele>1736</ele>
        <time>2017-09-28T14:40:11Z</time>
      </trkpt>
      <trkpt lat="45.68979" lon="6.59858">
        <ele>1732.9</ele>
        <time>2017-09-28T14:40:27Z</time>
      </trkpt>
      <trkpt lat="45.68988" lon="6.59848">
        <ele>1732.5</ele>
        <time>2017-09-28T14:40:35Z</time>
      </trkpt>
      <trkpt lat="45.68994" lon="6.59834">
        <ele>1731.5</ele>
        <time>2017-09-28T14:40:38Z</time>
      </trkpt>
      <trkpt lat="45.68997" lon="6.59818">
        <ele>1730.6</ele>
        <time>2017-09-28T14:40:41Z</time>
      </trkpt>
      <trkpt lat="45.69001" lon="6.59805">
        <ele>1729.1</ele>
        <time>2017-09-28T14:40:44Z</time>
      </trkpt>
      <trkpt lat="45.69013" lon="6.59808">
        <ele>1726.2</ele>
        <time>2017-09-28T14:40:55Z</time>
      </trkpt>
      <trkpt lat="45.69024" lon="6.59813">
        <ele>1725.7</ele>
        <time>2017-09-28T14:40:57Z</time>
      </trkpt>
      <trkpt lat="45.69036" lon="6.59814">
        <ele>1725.1</ele>
        <time>2017-09-28T14:40:59Z</time>
      </trkpt>
      <trkpt lat="45.69048" lon="6.59814">
        <ele>1724.7</ele>
        <time>2017-09-28T14:41:01Z</time>
      </trkpt>
      <trkpt lat="45.69059" lon="6.59811">
        <ele>1724.4</ele>
        <time>2017-09-28T14:41:03Z</time>
      </trkpt>
      <trkpt lat="45.69068" lon="6.59801">
        <ele>1724</ele>
        <time>2017-09-28T14:41:05Z</time>
      </trkpt>
      <trkpt lat="45.69074" lon="6.59788">
        <ele>1723.9</ele>
        <time>2017-09-28T14:41:07Z</time>
      </trkpt>
      <trkpt lat="45.6908" lon="6.59776">
        <ele>1723.8</ele>
        <time>2017-09-28T14:41:09Z</time>
      </trkpt>
      <trkpt lat="45.69085" lon="6.59765">
        <ele>1723.7</ele>
        <time>2017-09-28T14:41:11Z</time>
      </trkpt>
      <trkpt lat="45.69091" lon="6.59755">
        <ele>1723.6</ele>
        <time>2017-09-28T14:41:13Z</time>
      </trkpt>
      <trkpt lat="45.69095" lon="6.59739">
        <ele>1723.7</ele>
        <time>2017-09-28T14:41:16Z</time>
      </trkpt>
      <trkpt lat="45.69095" lon="6.59725">
        <ele>1724.1</ele>
        <time>2017-09-28T14:41:19Z</time>
      </trkpt>
      <trkpt lat="45.69092" lon="6.5971">
        <ele>1724.7</ele>
        <time>2017-09-28T14:41:23Z</time>
      </trkpt>
      <trkpt lat="45.6909" lon="6.59697">
        <ele>1725.7</ele>
        <time>2017-09-28T14:41:27Z</time>
      </trkpt>
      <trkpt lat="45.69087" lon="6.59684">
        <ele>1726.6</ele>
        <time>2017-09-28T14:41:31Z</time>
      </trkpt>
      <trkpt lat="45.69083" lon="6.59671">
        <ele>1727.5</ele>
        <time>2017-09-28T14:41:36Z</time>
      </trkpt>
      <trkpt lat="45.69079" lon="6.59658">
        <ele>1728.8</ele>
        <time>2017-09-28T14:41:41Z</time>
      </trkpt>
      <trkpt lat="45.69074" lon="6.59645">
        <ele>1730.1</ele>
        <time>2017-09-28T14:41:47Z</time>
      </trkpt>
      <trkpt lat="45.69068" lon="6.59633">
        <ele>1731.8</ele>
        <time>2017-09-28T14:41:53Z</time>
      </trkpt>
      <trkpt lat="45.69064" lon="6.59619">
        <ele>1733.5</ele>
        <time>2017-09-28T14:41:59Z</time>
      </trkpt>
      <trkpt lat="45.69061" lon="6.59606">
        <ele>1734.8</ele>
        <time>2017-09-28T14:42:05Z</time>
      </trkpt>
      <trkpt lat="45.69058" lon="6.59593">
        <ele>1735.8</ele>
        <time>2017-09-28T14:42:11Z</time>
      </trkpt>
      <trkpt lat="45.69054" lon="6.5958">
        <ele>1736.9</ele>
        <time>2017-09-28T14:42:17Z</time>
      </trkpt>
      <trkpt lat="45.69052" lon="6.59567">
        <ele>1737.9</ele>
        <time>2017-09-28T14:42:23Z</time>
      </trkpt>
      <trkpt lat="45.6905" lon="6.59554">
        <ele>1738.9</ele>
        <time>2017-09-28T14:42:29Z</time>
      </trkpt>
      <trkpt lat="45.69047" lon="6.59541">
        <ele>1740</ele>
        <time>2017-09-28T14:42:35Z</time>
      </trkpt>
      <trkpt lat="45.69045" lon="6.59527">
        <ele>1740.9</ele>
        <time>2017-09-28T14:42:41Z</time>
      </trkpt>
      <trkpt lat="45.69042" lon="6.59515">
        <ele>1741.9</ele>
        <time>2017-09-28T14:42:47Z</time>
      </trkpt>
      <trkpt lat="45.6904" lon="6.595">
        <ele>1743.1</ele>
        <time>2017-09-28T14:42:54Z</time>
      </trkpt>
      <trkpt lat="45.69038" lon="6.59486">
        <ele>1744.1</ele>
        <time>2017-09-28T14:43:00Z</time>
      </trkpt>
      <trkpt lat="45.69038" lon="6.59473">
        <ele>1745.1</ele>
        <time>2017-09-28T14:43:06Z</time>
      </trkpt>
      <trkpt lat="45.69038" lon="6.59459">
        <ele>1746.3</ele>
        <time>2017-09-28T14:43:12Z</time>
      </trkpt>
      <trkpt lat="45.69036" lon="6.59445">
        <ele>1747.9</ele>
        <time>2017-09-28T14:43:19Z</time>
      </trkpt>
      <trkpt lat="45.69032" lon="6.59433">
        <ele>1749.1</ele>
        <time>2017-09-28T14:43:25Z</time>
      </trkpt>
      <trkpt lat="45.6903" lon="6.59417">
        <ele>1750.2</ele>
        <time>2017-09-28T14:43:31Z</time>
      </trkpt>
      <trkpt lat="45.69029" lon="6.59404">
        <ele>1751.2</ele>
        <time>2017-09-28T14:43:36Z</time>
      </trkpt>
      <trkpt lat="45.69026" lon="6.5939">
        <ele>1752</ele>
        <time>2017-09-28T14:43:42Z</time>
      </trkpt>
      <trkpt lat="45.69025" lon="6.59377">
        <ele>1752.4</ele>
        <time>2017-09-28T14:43:46Z</time>
      </trkpt>
      <trkpt lat="45.69024" lon="6.59364">
        <ele>1752.9</ele>
        <time>2017-09-28T14:43:51Z</time>
      </trkpt>
      <trkpt lat="45.69021" lon="6.5935">
        <ele>1753</ele>
        <time>2017-09-28T14:43:56Z</time>
      </trkpt>
      <trkpt lat="45.69019" lon="6.59334">
        <ele>1753.3</ele>
        <time>2017-09-28T14:44:01Z</time>
      </trkpt>
      <trkpt lat="45.69017" lon="6.5932">
        <ele>1753.8</ele>
        <time>2017-09-28T14:44:05Z</time>
      </trkpt>
      <trkpt lat="45.69017" lon="6.59307">
        <ele>1754.4</ele>
        <time>2017-09-28T14:44:09Z</time>
      </trkpt>
      <trkpt lat="45.69016" lon="6.59293">
        <ele>1755.3</ele>
        <time>2017-09-28T14:44:14Z</time>
      </trkpt>
      <trkpt lat="45.69017" lon="6.59278">
        <ele>1756.4</ele>
        <time>2017-09-28T14:44:20Z</time>
      </trkpt>
      <trkpt lat="45.69018" lon="6.59263">
        <ele>1757.2</ele>
        <time>2017-09-28T14:44:26Z</time>
      </trkpt>
      <trkpt lat="45.69021" lon="6.59249">
        <ele>1758</ele>
        <time>2017-09-28T14:44:31Z</time>
      </trkpt>
      <trkpt lat="45.69025" lon="6.59235">
        <ele>1758.7</ele>
        <time>2017-09-28T14:44:36Z</time>
      </trkpt>
      <trkpt lat="45.69032" lon="6.59224">
        <ele>1759.2</ele>
        <time>2017-09-28T14:44:41Z</time>
      </trkpt>
      <trkpt lat="45.69039" lon="6.59215">
        <ele>1759.8</ele>
        <time>2017-09-28T14:44:45Z</time>
      </trkpt>
      <trkpt lat="45.69046" lon="6.59201">
        <ele>1760.4</ele>
        <time>2017-09-28T14:44:49Z</time>
      </trkpt>
      <trkpt lat="45.69054" lon="6.5919">
        <ele>1760.7</ele>
        <time>2017-09-28T14:44:53Z</time>
      </trkpt>
      <trkpt lat="45.69062" lon="6.59181">
        <ele>1760.6</ele>
        <time>2017-09-28T14:44:56Z</time>
      </trkpt>
      <trkpt lat="45.6907" lon="6.59171">
        <ele>1760.6</ele>
        <time>2017-09-28T14:44:59Z</time>
      </trkpt>
      <trkpt lat="45.69079" lon="6.59162">
        <ele>1760.4</ele>
        <time>2017-09-28T14:45:01Z</time>
      </trkpt>
      <trkpt lat="45.69086" lon="6.59154">
        <ele>1760.3</ele>
        <time>2017-09-28T14:45:03Z</time>
      </trkpt>
      <trkpt lat="45.69095" lon="6.59141">
        <ele>1760</ele>
        <time>2017-09-28T14:45:06Z</time>
      </trkpt>
      <trkpt lat="45.69101" lon="6.59128">
        <ele>1759.9</ele>
        <time>2017-09-28T14:45:09Z</time>
      </trkpt>
      <trkpt lat="45.69107" lon="6.59117">
        <ele>1759.9</ele>
        <time>2017-09-28T14:45:12Z</time>
      </trkpt>
      <trkpt lat="45.69115" lon="6.59105">
        <ele>1759.6</ele>
        <time>2017-09-28T14:45:15Z</time>
      </trkpt>
      <trkpt lat="45.69123" lon="6.59093">
        <ele>1759.5</ele>
        <time>2017-09-28T14:45:18Z</time>
      </trkpt>
      <trkpt lat="45.6913" lon="6.59079">
        <ele>1759.5</ele>
        <time>2017-09-28T14:45:21Z</time>
      </trkpt>
      <trkpt lat="45.69135" lon="6.59067">
        <ele>1759.6</ele>
        <time>2017-09-28T14:45:24Z</time>
      </trkpt>
      <trkpt lat="45.6914" lon="6.59055">
        <ele>1759.7</ele>
        <time>2017-09-28T14:45:27Z</time>
      </trkpt>
      <trkpt lat="45.69149" lon="6.59048">
        <ele>1759.4</ele>
        <time>2017-09-28T14:45:30Z</time>
      </trkpt>
      <trkpt lat="45.69163" lon="6.59042">
        <ele>1759</ele>
        <time>2017-09-28T14:45:33Z</time>
      </trkpt>
      <trkpt lat="45.69176" lon="6.59038">
        <ele>1758.5</ele>
        <time>2017-09-28T14:45:35Z</time>
      </trkpt>
      <trkpt lat="45.69189" lon="6.59029">
        <ele>1758</ele>
        <time>2017-09-28T14:45:37Z</time>
      </trkpt>
      <trkpt lat="45.69199" lon="6.59018">
        <ele>1757.7</ele>
        <time>2017-09-28T14:45:39Z</time>
      </trkpt>
      <trkpt lat="45.69207" lon="6.5901">
        <ele>1757.2</ele>
        <time>2017-09-28T14:45:41Z</time>
      </trkpt>
      <trkpt lat="45.69215" lon="6.59002">
        <ele>1756.8</ele>
        <time>2017-09-28T14:45:43Z</time>
      </trkpt>
      <trkpt lat="45.69222" lon="6.58994">
        <ele>1756.5</ele>
        <time>2017-09-28T14:45:45Z</time>
      </trkpt>
      <trkpt lat="45.69231" lon="6.58989">
        <ele>1756.2</ele>
        <time>2017-09-28T14:45:47Z</time>
      </trkpt>
      <trkpt lat="45.6924" lon="6.58983">
        <ele>1756.2</ele>
        <time>2017-09-28T14:45:49Z</time>
      </trkpt>
      <trkpt lat="45.69247" lon="6.58974">
        <ele>1756.2</ele>
        <time>2017-09-28T14:45:51Z</time>
      </trkpt>
      <trkpt lat="45.69254" lon="6.5896">
        <ele>1756</ele>
        <time>2017-09-28T14:45:54Z</time>
      </trkpt>
      <trkpt lat="45.6926" lon="6.58944">
        <ele>1756.1</ele>
        <time>2017-09-28T14:45:57Z</time>
      </trkpt>
      <trkpt lat="45.69264" lon="6.5893">
        <ele>1756.3</ele>
        <time>2017-09-28T14:46:00Z</time>
      </trkpt>
      <trkpt lat="45.69267" lon="6.58916">
        <ele>1756.4</ele>
        <time>2017-09-28T14:46:03Z</time>
      </trkpt>
      <trkpt lat="45.69267" lon="6.589">
        <ele>1756.5</ele>
        <time>2017-09-28T14:46:07Z</time>
      </trkpt>
      <trkpt lat="45.69266" lon="6.58886">
        <ele>1756.6</ele>
        <time>2017-09-28T14:46:11Z</time>
      </trkpt>
      <trkpt lat="45.69261" lon="6.5887">
        <ele>1756.6</ele>
        <time>2017-09-28T14:46:15Z</time>
      </trkpt>
      <trkpt lat="45.69259" lon="6.58855">
        <ele>1756.5</ele>
        <time>2017-09-28T14:46:19Z</time>
      </trkpt>
      <trkpt lat="45.69262" lon="6.58841">
        <ele>1756.4</ele>
        <time>2017-09-28T14:48:35Z</time>
      </trkpt>
      <trkpt lat="45.69267" lon="6.58827">
        <ele>1757.1</ele>
        <time>2017-09-28T14:48:40Z</time>
      </trkpt>
      <trkpt lat="45.69273" lon="6.58817">
        <ele>1757.2</ele>
        <time>2017-09-28T14:48:43Z</time>
      </trkpt>
      <trkpt lat="45.69282" lon="6.58806">
        <ele>1756.9</ele>
        <time>2017-09-28T14:48:45Z</time>
      </trkpt>
      <trkpt lat="45.69292" lon="6.58799">
        <ele>1756.4</ele>
        <time>2017-09-28T14:48:47Z</time>
      </trkpt>
      <trkpt lat="45.69304" lon="6.58797">
        <ele>1756</ele>
        <time>2017-09-28T14:48:49Z</time>
      </trkpt>
      <trkpt lat="45.69313" lon="6.58792">
        <ele>1755.5</ele>
        <time>2017-09-28T14:48:51Z</time>
      </trkpt>
      <trkpt lat="45.6932" lon="6.58783">
        <ele>1755</ele>
        <time>2017-09-28T14:48:53Z</time>
      </trkpt>
      <trkpt lat="45.69326" lon="6.58774">
        <ele>1754.6</ele>
        <time>2017-09-28T14:48:55Z</time>
      </trkpt>
      <trkpt lat="45.69333" lon="6.58761">
        <ele>1753.9</ele>
        <time>2017-09-28T14:48:58Z</time>
      </trkpt>
      <trkpt lat="45.69331" lon="6.58748">
        <ele>1753.8</ele>
        <time>2017-09-28T14:49:02Z</time>
      </trkpt>
      <trkpt lat="45.69339" lon="6.58737">
        <ele>1752.9</ele>
        <time>2017-09-28T14:49:08Z</time>
      </trkpt>
      <trkpt lat="45.69345" lon="6.58727">
        <ele>1752.6</ele>
        <time>2017-09-28T14:49:11Z</time>
      </trkpt>
      <trkpt lat="45.69353" lon="6.58716">
        <ele>1752.1</ele>
        <time>2017-09-28T14:49:14Z</time>
      </trkpt>
      <trkpt lat="45.69363" lon="6.58708">
        <ele>1751.5</ele>
        <time>2017-09-28T14:49:17Z</time>
      </trkpt>
      <trkpt lat="45.69372" lon="6.58697">
        <ele>1749.9</ele>
        <time>2017-09-28T14:49:20Z</time>
      </trkpt>
      <trkpt lat="45.69381" lon="6.58688">
        <ele>1747.3</ele>
        <time>2017-09-28T14:49:23Z</time>
      </trkpt>
      <trkpt lat="45.69386" lon="6.58677">
        <ele>1745.2</ele>
        <time>2017-09-28T14:49:25Z</time>
      </trkpt>
      <trkpt lat="45.69394" lon="6.58663">
        <ele>1742.8</ele>
        <time>2017-09-28T14:49:27Z</time>
      </trkpt>
      <trkpt lat="45.69405" lon="6.58653">
        <ele>1740.9</ele>
        <time>2017-09-28T14:49:29Z</time>
      </trkpt>
      <trkpt lat="45.69413" lon="6.58646">
        <ele>1739</ele>
        <time>2017-09-28T14:49:32Z</time>
      </trkpt>
      <trkpt lat="45.69411" lon="6.5863">
        <ele>1737.2</ele>
        <time>2017-09-28T14:49:36Z</time>
      </trkpt>
      <trkpt lat="45.69417" lon="6.58617">
        <ele>1735.8</ele>
        <time>2017-09-28T14:49:39Z</time>
      </trkpt>
      <trkpt lat="45.69426" lon="6.5861">
        <ele>1733.7</ele>
        <time>2017-09-28T14:49:42Z</time>
      </trkpt>
      <trkpt lat="45.69436" lon="6.58602">
        <ele>1731.3</ele>
        <time>2017-09-28T14:49:45Z</time>
      </trkpt>
      <trkpt lat="45.69446" lon="6.5859">
        <ele>1729.8</ele>
        <time>2017-09-28T14:49:47Z</time>
      </trkpt>
      <trkpt lat="45.69458" lon="6.5858">
        <ele>1728.3</ele>
        <time>2017-09-28T14:49:49Z</time>
      </trkpt>
      <trkpt lat="45.6947" lon="6.58575">
        <ele>1727</ele>
        <time>2017-09-28T14:49:51Z</time>
      </trkpt>
      <trkpt lat="45.69481" lon="6.5857">
        <ele>1726.1</ele>
        <time>2017-09-28T14:49:54Z</time>
      </trkpt>
      <trkpt lat="45.69486" lon="6.58553">
        <ele>1725.7</ele>
        <time>2017-09-28T14:49:57Z</time>
      </trkpt>
      <trkpt lat="45.6949" lon="6.5854">
        <ele>1725.2</ele>
        <time>2017-09-28T14:49:59Z</time>
      </trkpt>
      <trkpt lat="45.69494" lon="6.58527">
        <ele>1724.7</ele>
        <time>2017-09-28T14:50:01Z</time>
      </trkpt>
      <trkpt lat="45.69498" lon="6.58515">
        <ele>1724.2</ele>
        <time>2017-09-28T14:50:03Z</time>
      </trkpt>
      <trkpt lat="45.69503" lon="6.585">
        <ele>1723.9</ele>
        <time>2017-09-28T14:50:06Z</time>
      </trkpt>
      <trkpt lat="45.69509" lon="6.58489">
        <ele>1723.9</ele>
        <time>2017-09-28T14:50:10Z</time>
      </trkpt>
      <trkpt lat="45.69512" lon="6.58474">
        <ele>1722.4</ele>
        <time>2017-09-28T14:50:15Z</time>
      </trkpt>
      <trkpt lat="45.6952" lon="6.58485">
        <ele>1718.7</ele>
        <time>2017-09-28T14:50:21Z</time>
      </trkpt>
      <trkpt lat="45.69529" lon="6.58478">
        <ele>1715.8</ele>
        <time>2017-09-28T14:50:25Z</time>
      </trkpt>
      <trkpt lat="45.69536" lon="6.58467">
        <ele>1713.5</ele>
        <time>2017-09-28T14:50:28Z</time>
      </trkpt>
      <trkpt lat="45.69545" lon="6.58458">
        <ele>1711</ele>
        <time>2017-09-28T14:50:31Z</time>
      </trkpt>
      <trkpt lat="45.69549" lon="6.58474">
        <ele>1705</ele>
        <time>2017-09-28T14:50:38Z</time>
      </trkpt>
      <trkpt lat="45.69548" lon="6.58492">
        <ele>1703.2</ele>
        <time>2017-09-28T14:50:40Z</time>
      </trkpt>
      <trkpt lat="45.69545" lon="6.5851">
        <ele>1701.1</ele>
        <time>2017-09-28T14:50:42Z</time>
      </trkpt>
      <trkpt lat="45.69546" lon="6.58527">
        <ele>1698</ele>
        <time>2017-09-28T14:50:45Z</time>
      </trkpt>
      <trkpt lat="45.69556" lon="6.58517">
        <ele>1692.5</ele>
        <time>2017-09-28T14:50:51Z</time>
      </trkpt>
      <trkpt lat="45.69563" lon="6.58508">
        <ele>1690.8</ele>
        <time>2017-09-28T14:50:53Z</time>
      </trkpt>
      <trkpt lat="45.69571" lon="6.58495">
        <ele>1687.9</ele>
        <time>2017-09-28T14:50:56Z</time>
      </trkpt>
      <trkpt lat="45.6958" lon="6.58486">
        <ele>1684.5</ele>
        <time>2017-09-28T14:50:59Z</time>
      </trkpt>
      <trkpt lat="45.6958" lon="6.58503">
        <ele>1680.8</ele>
        <time>2017-09-28T14:51:03Z</time>
      </trkpt>
      <trkpt lat="45.69591" lon="6.58495">
        <ele>1677.6</ele>
        <time>2017-09-28T14:51:07Z</time>
      </trkpt>
      <trkpt lat="45.69596" lon="6.58484">
        <ele>1676.1</ele>
        <time>2017-09-28T14:51:09Z</time>
      </trkpt>
      <trkpt lat="45.69602" lon="6.58469">
        <ele>1673.5</ele>
        <time>2017-09-28T14:51:12Z</time>
      </trkpt>
      <trkpt lat="45.69607" lon="6.58454">
        <ele>1671.5</ele>
        <time>2017-09-28T14:51:14Z</time>
      </trkpt>
      <trkpt lat="45.69612" lon="6.5844">
        <ele>1669.4</ele>
        <time>2017-09-28T14:51:16Z</time>
      </trkpt>
      <trkpt lat="45.69612" lon="6.58427">
        <ele>1666.7</ele>
        <time>2017-09-28T14:51:19Z</time>
      </trkpt>
      <trkpt lat="45.69612" lon="6.58411">
        <ele>1664.2</ele>
        <time>2017-09-28T14:51:22Z</time>
      </trkpt>
      <trkpt lat="45.69614" lon="6.58395">
        <ele>1662</ele>
        <time>2017-09-28T14:51:25Z</time>
      </trkpt>
      <trkpt lat="45.69622" lon="6.58383">
        <ele>1660.5</ele>
        <time>2017-09-28T14:51:27Z</time>
      </trkpt>
      <trkpt lat="45.69632" lon="6.58374">
        <ele>1658.9</ele>
        <time>2017-09-28T14:51:29Z</time>
      </trkpt>
      <trkpt lat="45.6964" lon="6.58366">
        <ele>1657.3</ele>
        <time>2017-09-28T14:51:31Z</time>
      </trkpt>
      <trkpt lat="45.69646" lon="6.58357">
        <ele>1655.6</ele>
        <time>2017-09-28T14:51:33Z</time>
      </trkpt>
      <trkpt lat="45.69654" lon="6.5835">
        <ele>1653.7</ele>
        <time>2017-09-28T14:51:35Z</time>
      </trkpt>
      <trkpt lat="45.69661" lon="6.5834">
        <ele>1651.7</ele>
        <time>2017-09-28T14:51:37Z</time>
      </trkpt>
      <trkpt lat="45.69669" lon="6.58329">
        <ele>1648.8</ele>
        <time>2017-09-28T14:51:40Z</time>
      </trkpt>
      <trkpt lat="45.69675" lon="6.58315">
        <ele>1645.9</ele>
        <time>2017-09-28T14:51:43Z</time>
      </trkpt>
      <trkpt lat="45.6968" lon="6.583">
        <ele>1643.8</ele>
        <time>2017-09-28T14:51:45Z</time>
      </trkpt>
      <trkpt lat="45.69685" lon="6.58282">
        <ele>1641.6</ele>
        <time>2017-09-28T14:51:47Z</time>
      </trkpt>
      <trkpt lat="45.69692" lon="6.58265">
        <ele>1639.3</ele>
        <time>2017-09-28T14:51:49Z</time>
      </trkpt>
      <trkpt lat="45.69699" lon="6.58254">
        <ele>1636.9</ele>
        <time>2017-09-28T14:51:51Z</time>
      </trkpt>
      <trkpt lat="45.69708" lon="6.58245">
        <ele>1633.4</ele>
        <time>2017-09-28T14:51:54Z</time>
      </trkpt>
      <trkpt lat="45.69701" lon="6.5823">
        <ele>1630.4</ele>
        <time>2017-09-28T14:51:57Z</time>
      </trkpt>
      <trkpt lat="45.69701" lon="6.58214">
        <ele>1627.1</ele>
        <time>2017-09-28T14:52:00Z</time>
      </trkpt>
      <trkpt lat="45.69703" lon="6.58196">
        <ele>1624</ele>
        <time>2017-09-28T14:52:03Z</time>
      </trkpt>
      <trkpt lat="45.69707" lon="6.58184">
        <ele>1622</ele>
        <time>2017-09-28T14:52:05Z</time>
      </trkpt>
      <trkpt lat="45.69713" lon="6.58172">
        <ele>1619.9</ele>
        <time>2017-09-28T14:52:07Z</time>
      </trkpt>
      <trkpt lat="45.69719" lon="6.58158">
        <ele>1617.8</ele>
        <time>2017-09-28T14:52:09Z</time>
      </trkpt>
      <trkpt lat="45.69727" lon="6.58149">
        <ele>1615.8</ele>
        <time>2017-09-28T14:52:11Z</time>
      </trkpt>
      <trkpt lat="45.69736" lon="6.58141">
        <ele>1613.9</ele>
        <time>2017-09-28T14:52:13Z</time>
      </trkpt>
      <trkpt lat="45.69745" lon="6.58135">
        <ele>1611.9</ele>
        <time>2017-09-28T14:52:15Z</time>
      </trkpt>
      <trkpt lat="45.69749" lon="6.5812">
        <ele>1608.8</ele>
        <time>2017-09-28T14:52:18Z</time>
      </trkpt>
      <trkpt lat="45.69749" lon="6.58104">
        <ele>1606.1</ele>
        <time>2017-09-28T14:52:21Z</time>
      </trkpt>
      <trkpt lat="45.69754" lon="6.58088">
        <ele>1604</ele>
        <time>2017-09-28T14:52:24Z</time>
      </trkpt>
      <trkpt lat="45.69761" lon="6.58071">
        <ele>1602.4</ele>
        <time>2017-09-28T14:52:27Z</time>
      </trkpt>
      <trkpt lat="45.69765" lon="6.58059">
        <ele>1601.7</ele>
        <time>2017-09-28T14:52:29Z</time>
      </trkpt>
      <trkpt lat="45.69767" lon="6.58044">
        <ele>1600.6</ele>
        <time>2017-09-28T14:52:32Z</time>
      </trkpt>
      <trkpt lat="45.69769" lon="6.5803">
        <ele>1598.8</ele>
        <time>2017-09-28T14:52:36Z</time>
      </trkpt>
      <trkpt lat="45.69767" lon="6.58043">
        <ele>1599</ele>
        <time>2017-09-28T14:52:50Z</time>
      </trkpt>
      <trkpt lat="45.69773" lon="6.5803">
        <ele>1597.3</ele>
        <time>2017-09-28T14:52:57Z</time>
      </trkpt>
      <trkpt lat="45.6978" lon="6.58019">
        <ele>1595.7</ele>
        <time>2017-09-28T14:52:59Z</time>
      </trkpt>
      <trkpt lat="45.69786" lon="6.58007">
        <ele>1593.9</ele>
        <time>2017-09-28T14:53:01Z</time>
      </trkpt>
      <trkpt lat="45.69786" lon="6.5799">
        <ele>1591.6</ele>
        <time>2017-09-28T14:53:04Z</time>
      </trkpt>
      <trkpt lat="45.69792" lon="6.57981">
        <ele>1589</ele>
        <time>2017-09-28T14:53:08Z</time>
      </trkpt>
      <trkpt lat="45.69801" lon="6.57988">
        <ele>1586.5</ele>
        <time>2017-09-28T14:53:12Z</time>
      </trkpt>
      <trkpt lat="45.6981" lon="6.57983">
        <ele>1582.3</ele>
        <time>2017-09-28T14:53:18Z</time>
      </trkpt>
      <trkpt lat="45.69818" lon="6.5799">
        <ele>1580.5</ele>
        <time>2017-09-28T14:53:21Z</time>
      </trkpt>
      <trkpt lat="45.69822" lon="6.57976">
        <ele>1578.2</ele>
        <time>2017-09-28T14:53:24Z</time>
      </trkpt>
      <trkpt lat="45.69822" lon="6.57963">
        <ele>1576.6</ele>
        <time>2017-09-28T14:53:26Z</time>
      </trkpt>
      <trkpt lat="45.69828" lon="6.57951">
        <ele>1572.6</ele>
        <time>2017-09-28T14:53:31Z</time>
      </trkpt>
      <trkpt lat="45.69836" lon="6.57942">
        <ele>1568.8</ele>
        <time>2017-09-28T14:53:37Z</time>
      </trkpt>
      <trkpt lat="45.6984" lon="6.57927">
        <ele>1566.5</ele>
        <time>2017-09-28T14:53:40Z</time>
      </trkpt>
      <trkpt lat="45.69847" lon="6.57915">
        <ele>1564.5</ele>
        <time>2017-09-28T14:53:42Z</time>
      </trkpt>
      <trkpt lat="45.69856" lon="6.5792">
        <ele>1559.8</ele>
        <time>2017-09-28T14:53:47Z</time>
      </trkpt>
      <trkpt lat="45.69859" lon="6.57933">
        <ele>1556.6</ele>
        <time>2017-09-28T14:53:50Z</time>
      </trkpt>
      <trkpt lat="45.69868" lon="6.57927">
        <ele>1552.8</ele>
        <time>2017-09-28T14:53:54Z</time>
      </trkpt>
      <trkpt lat="45.69872" lon="6.57942">
        <ele>1550.7</ele>
        <time>2017-09-28T14:53:57Z</time>
      </trkpt>
      <trkpt lat="45.69879" lon="6.57929">
        <ele>1547.4</ele>
        <time>2017-09-28T14:54:02Z</time>
      </trkpt>
      <trkpt lat="45.69885" lon="6.57916">
        <ele>1546.4</ele>
        <time>2017-09-28T14:54:04Z</time>
      </trkpt>
      <trkpt lat="45.69892" lon="6.57903">
        <ele>1545.4</ele>
        <time>2017-09-28T14:54:06Z</time>
      </trkpt>
      <trkpt lat="45.69903" lon="6.57894">
        <ele>1544.3</ele>
        <time>2017-09-28T14:54:08Z</time>
      </trkpt>
      <trkpt lat="45.69914" lon="6.57887">
        <ele>1543</ele>
        <time>2017-09-28T14:54:10Z</time>
      </trkpt>
      <trkpt lat="45.69926" lon="6.57878">
        <ele>1541.7</ele>
        <time>2017-09-28T14:54:12Z</time>
      </trkpt>
      <trkpt lat="45.69939" lon="6.5787">
        <ele>1540.1</ele>
        <time>2017-09-28T14:54:14Z</time>
      </trkpt>
      <trkpt lat="45.69951" lon="6.57868">
        <ele>1538.4</ele>
        <time>2017-09-28T14:54:16Z</time>
      </trkpt>
      <trkpt lat="45.69961" lon="6.57866">
        <ele>1536.5</ele>
        <time>2017-09-28T14:54:18Z</time>
      </trkpt>
      <trkpt lat="45.69954" lon="6.57876">
        <ele>1530.4</ele>
        <time>2017-09-28T14:54:27Z</time>
      </trkpt>
      <trkpt lat="45.69964" lon="6.57879">
        <ele>1525.9</ele>
        <time>2017-09-28T14:54:41Z</time>
      </trkpt>
      <trkpt lat="45.69955" lon="6.57889">
        <ele>1523.3</ele>
        <time>2017-09-28T14:54:46Z</time>
      </trkpt>
      <trkpt lat="45.69948" lon="6.57897">
        <ele>1521.8</ele>
        <time>2017-09-28T14:54:48Z</time>
      </trkpt>
      <trkpt lat="45.69957" lon="6.57908">
        <ele>1516.4</ele>
        <time>2017-09-28T14:54:55Z</time>
      </trkpt>
      <trkpt lat="45.69967" lon="6.57911">
        <ele>1514.7</ele>
        <time>2017-09-28T14:54:57Z</time>
      </trkpt>
      <trkpt lat="45.69961" lon="6.57924">
        <ele>1510.3</ele>
        <time>2017-09-28T14:55:04Z</time>
      </trkpt>
      <trkpt lat="45.69952" lon="6.57933">
        <ele>1509</ele>
        <time>2017-09-28T14:55:06Z</time>
      </trkpt>
      <trkpt lat="45.69959" lon="6.57946">
        <ele>1505.7</ele>
        <time>2017-09-28T14:55:10Z</time>
      </trkpt>
      <trkpt lat="45.69971" lon="6.57946">
        <ele>1503.4</ele>
        <time>2017-09-28T14:55:13Z</time>
      </trkpt>
      <trkpt lat="45.69964" lon="6.57957">
        <ele>1500.8</ele>
        <time>2017-09-28T14:55:18Z</time>
      </trkpt>
      <trkpt lat="45.6996" lon="6.57969">
        <ele>1499.9</ele>
        <time>2017-09-28T14:55:20Z</time>
      </trkpt>
      <trkpt lat="45.69955" lon="6.57982">
        <ele>1497</ele>
        <time>2017-09-28T14:55:29Z</time>
      </trkpt>
      <trkpt lat="45.69965" lon="6.57984">
        <ele>1495.7</ele>
        <time>2017-09-28T14:55:36Z</time>
      </trkpt>
      <trkpt lat="45.69974" lon="6.57979">
        <ele>1495</ele>
        <time>2017-09-28T14:55:38Z</time>
      </trkpt>
      <trkpt lat="45.69985" lon="6.57975">
        <ele>1494.3</ele>
        <time>2017-09-28T14:55:40Z</time>
      </trkpt>
      <trkpt lat="45.69994" lon="6.57968">
        <ele>1493.1</ele>
        <time>2017-09-28T14:55:43Z</time>
      </trkpt>
      <trkpt lat="45.69996" lon="6.57983">
        <ele>1489.3</ele>
        <time>2017-09-28T14:55:54Z</time>
      </trkpt>
      <trkpt lat="45.70003" lon="6.57971">
        <ele>1486.8</ele>
        <time>2017-09-28T14:55:59Z</time>
      </trkpt>
      <trkpt lat="45.7001" lon="6.57957">
        <ele>1484.9</ele>
        <time>2017-09-28T14:56:02Z</time>
      </trkpt>
      <trkpt lat="45.70017" lon="6.57944">
        <ele>1482.9</ele>
        <time>2017-09-28T14:56:04Z</time>
      </trkpt>
      <trkpt lat="45.70024" lon="6.57932">
        <ele>1480.5</ele>
        <time>2017-09-28T14:56:06Z</time>
      </trkpt>
      <trkpt lat="45.7003" lon="6.57921">
        <ele>1478.2</ele>
        <time>2017-09-28T14:56:08Z</time>
      </trkpt>
      <trkpt lat="45.70036" lon="6.57911">
        <ele>1475.9</ele>
        <time>2017-09-28T14:56:10Z</time>
      </trkpt>
      <trkpt lat="45.70041" lon="6.57899">
        <ele>1473.9</ele>
        <time>2017-09-28T14:56:12Z</time>
      </trkpt>
      <trkpt lat="45.70048" lon="6.57885">
        <ele>1472.1</ele>
        <time>2017-09-28T14:56:14Z</time>
      </trkpt>
      <trkpt lat="45.70054" lon="6.57873">
        <ele>1470.2</ele>
        <time>2017-09-28T14:56:16Z</time>
      </trkpt>
      <trkpt lat="45.7006" lon="6.57862">
        <ele>1468.3</ele>
        <time>2017-09-28T14:56:18Z</time>
      </trkpt>
      <trkpt lat="45.70066" lon="6.57852">
        <ele>1466.4</ele>
        <time>2017-09-28T14:56:20Z</time>
      </trkpt>
      <trkpt lat="45.7007" lon="6.57839">
        <ele>1464.4</ele>
        <time>2017-09-28T14:56:22Z</time>
      </trkpt>
      <trkpt lat="45.70077" lon="6.57824">
        <ele>1462.6</ele>
        <time>2017-09-28T14:56:24Z</time>
      </trkpt>
      <trkpt lat="45.70084" lon="6.57809">
        <ele>1460.7</ele>
        <time>2017-09-28T14:56:26Z</time>
      </trkpt>
      <trkpt lat="45.70092" lon="6.57798">
        <ele>1459</ele>
        <time>2017-09-28T14:56:28Z</time>
      </trkpt>
      <trkpt lat="45.70098" lon="6.57787">
        <ele>1457.3</ele>
        <time>2017-09-28T14:56:30Z</time>
      </trkpt>
      <trkpt lat="45.70103" lon="6.57775">
        <ele>1455.5</ele>
        <time>2017-09-28T14:56:32Z</time>
      </trkpt>
      <trkpt lat="45.7011" lon="6.57762">
        <ele>1453.4</ele>
        <time>2017-09-28T14:56:34Z</time>
      </trkpt>
      <trkpt lat="45.70117" lon="6.57751">
        <ele>1450.8</ele>
        <time>2017-09-28T14:56:37Z</time>
      </trkpt>
      <trkpt lat="45.70119" lon="6.57738">
        <ele>1448.6</ele>
        <time>2017-09-28T14:56:41Z</time>
      </trkpt>
      <trkpt lat="45.7012" lon="6.57723">
        <ele>1448.2</ele>
        <time>2017-09-28T14:56:45Z</time>
      </trkpt>
      <trkpt lat="45.7012" lon="6.57707">
        <ele>1448.5</ele>
        <time>2017-09-28T14:56:49Z</time>
      </trkpt>
      <trkpt lat="45.70118" lon="6.57692">
        <ele>1448.6</ele>
        <time>2017-09-28T14:56:52Z</time>
      </trkpt>
      <trkpt lat="45.70116" lon="6.57676">
        <ele>1448.5</ele>
        <time>2017-09-28T14:56:55Z</time>
      </trkpt>
      <trkpt lat="45.70115" lon="6.57662">
        <ele>1448.4</ele>
        <time>2017-09-28T14:56:58Z</time>
      </trkpt>
      <trkpt lat="45.70113" lon="6.5765">
        <ele>1448.4</ele>
        <time>2017-09-28T14:57:01Z</time>
      </trkpt>
      <trkpt lat="45.70105" lon="6.57636">
        <ele>1448.4</ele>
        <time>2017-09-28T14:57:04Z</time>
      </trkpt>
      <trkpt lat="45.70097" lon="6.57625">
        <ele>1448.2</ele>
        <time>2017-09-28T14:57:07Z</time>
      </trkpt>
      <trkpt lat="45.70087" lon="6.57615">
        <ele>1447.6</ele>
        <time>2017-09-28T14:57:10Z</time>
      </trkpt>
      <trkpt lat="45.70077" lon="6.57606">
        <ele>1447.1</ele>
        <time>2017-09-28T14:57:12Z</time>
      </trkpt>
      <trkpt lat="45.70066" lon="6.57598">
        <ele>1446.7</ele>
        <time>2017-09-28T14:57:14Z</time>
      </trkpt>
      <trkpt lat="45.70055" lon="6.5759">
        <ele>1446.2</ele>
        <time>2017-09-28T14:57:16Z</time>
      </trkpt>
      <trkpt lat="45.70047" lon="6.57584">
        <ele>1445.4</ele>
        <time>2017-09-28T14:57:18Z</time>
      </trkpt>
      <trkpt lat="45.70036" lon="6.5758">
        <ele>1444.4</ele>
        <time>2017-09-28T14:57:20Z</time>
      </trkpt>
      <trkpt lat="45.70022" lon="6.57577">
        <ele>1443.6</ele>
        <time>2017-09-28T14:57:22Z</time>
      </trkpt>
      <trkpt lat="45.70009" lon="6.57574">
        <ele>1442.6</ele>
        <time>2017-09-28T14:57:24Z</time>
      </trkpt>
      <trkpt lat="45.69999" lon="6.57574">
        <ele>1441.7</ele>
        <time>2017-09-28T14:57:26Z</time>
      </trkpt>
      <trkpt lat="45.69987" lon="6.57572">
        <ele>1441</ele>
        <time>2017-09-28T14:57:28Z</time>
      </trkpt>
      <trkpt lat="45.69978" lon="6.57569">
        <ele>1440.3</ele>
        <time>2017-09-28T14:57:30Z</time>
      </trkpt>
      <trkpt lat="45.69969" lon="6.57564">
        <ele>1439</ele>
        <time>2017-09-28T14:57:34Z</time>
      </trkpt>
      <trkpt lat="45.69958" lon="6.57554">
        <ele>1438.2</ele>
        <time>2017-09-28T14:57:37Z</time>
      </trkpt>
      <trkpt lat="45.69946" lon="6.57541">
        <ele>1437.4</ele>
        <time>2017-09-28T14:57:39Z</time>
      </trkpt>
      <trkpt lat="45.69937" lon="6.5753">
        <ele>1436.1</ele>
        <time>2017-09-28T14:57:41Z</time>
      </trkpt>
      <trkpt lat="45.69929" lon="6.57523">
        <ele>1434.6</ele>
        <time>2017-09-28T14:57:43Z</time>
      </trkpt>
      <trkpt lat="45.69941" lon="6.57522">
        <ele>1431.7</ele>
        <time>2017-09-28T14:57:48Z</time>
      </trkpt>
      <trkpt lat="45.69954" lon="6.57525">
        <ele>1430.2</ele>
        <time>2017-09-28T14:57:50Z</time>
      </trkpt>
      <trkpt lat="45.69965" lon="6.57529">
        <ele>1428.7</ele>
        <time>2017-09-28T14:57:52Z</time>
      </trkpt>
      <trkpt lat="45.69977" lon="6.57529">
        <ele>1426</ele>
        <time>2017-09-28T14:57:55Z</time>
      </trkpt>
      <trkpt lat="45.69989" lon="6.5753">
        <ele>1423</ele>
        <time>2017-09-28T14:57:58Z</time>
      </trkpt>
      <trkpt lat="45.69981" lon="6.57519">
        <ele>1417.7</ele>
        <time>2017-09-28T14:58:05Z</time>
      </trkpt>
      <trkpt lat="45.69973" lon="6.57511">
        <ele>1416.4</ele>
        <time>2017-09-28T14:58:07Z</time>
      </trkpt>
      <trkpt lat="45.69965" lon="6.57501">
        <ele>1414.2</ele>
        <time>2017-09-28T14:58:10Z</time>
      </trkpt>
      <trkpt lat="45.69977" lon="6.57502">
        <ele>1409.5</ele>
        <time>2017-09-28T14:58:21Z</time>
      </trkpt>
      <trkpt lat="45.69989" lon="6.57503">
        <ele>1408.5</ele>
        <time>2017-09-28T14:58:23Z</time>
      </trkpt>
      <trkpt lat="45.69999" lon="6.57502">
        <ele>1407.3</ele>
        <time>2017-09-28T14:58:25Z</time>
      </trkpt>
      <trkpt lat="45.70009" lon="6.57498">
        <ele>1405.8</ele>
        <time>2017-09-28T14:58:27Z</time>
      </trkpt>
      <trkpt lat="45.70001" lon="6.57484">
        <ele>1400.7</ele>
        <time>2017-09-28T14:58:35Z</time>
      </trkpt>
      <trkpt lat="45.6999" lon="6.57474">
        <ele>1398.7</ele>
        <time>2017-09-28T14:58:37Z</time>
      </trkpt>
      <trkpt lat="45.69979" lon="6.57464">
        <ele>1396.7</ele>
        <time>2017-09-28T14:58:39Z</time>
      </trkpt>
      <trkpt lat="45.69969" lon="6.57457">
        <ele>1394.8</ele>
        <time>2017-09-28T14:58:41Z</time>
      </trkpt>
      <trkpt lat="45.69957" lon="6.57451">
        <ele>1392.9</ele>
        <time>2017-09-28T14:58:43Z</time>
      </trkpt>
      <trkpt lat="45.69945" lon="6.57443">
        <ele>1390.9</ele>
        <time>2017-09-28T14:58:45Z</time>
      </trkpt>
      <trkpt lat="45.69936" lon="6.57437">
        <ele>1389.1</ele>
        <time>2017-09-28T14:58:47Z</time>
      </trkpt>
      <trkpt lat="45.69927" lon="6.57433">
        <ele>1387.3</ele>
        <time>2017-09-28T14:58:49Z</time>
      </trkpt>
      <trkpt lat="45.69918" lon="6.57427">
        <ele>1385.5</ele>
        <time>2017-09-28T14:58:51Z</time>
      </trkpt>
      <trkpt lat="45.69905" lon="6.57428">
        <ele>1383.3</ele>
        <time>2017-09-28T14:58:54Z</time>
      </trkpt>
      <trkpt lat="45.69894" lon="6.57423">
        <ele>1381.6</ele>
        <time>2017-09-28T14:58:56Z</time>
      </trkpt>
      <trkpt lat="45.69884" lon="6.57417">
        <ele>1379.9</ele>
        <time>2017-09-28T14:58:58Z</time>
      </trkpt>
      <trkpt lat="45.69875" lon="6.57416">
        <ele>1378.4</ele>
        <time>2017-09-28T14:59:00Z</time>
      </trkpt>
      <trkpt lat="45.69865" lon="6.57417">
        <ele>1376.9</ele>
        <time>2017-09-28T14:59:02Z</time>
      </trkpt>
      <trkpt lat="45.69855" lon="6.57416">
        <ele>1375.4</ele>
        <time>2017-09-28T14:59:04Z</time>
      </trkpt>
      <trkpt lat="45.69842" lon="6.57416">
        <ele>1373.8</ele>
        <time>2017-09-28T14:59:06Z</time>
      </trkpt>
      <trkpt lat="45.69831" lon="6.57416">
        <ele>1372.2</ele>
        <time>2017-09-28T14:59:08Z</time>
      </trkpt>
      <trkpt lat="45.69819" lon="6.57417">
        <ele>1369.6</ele>
        <time>2017-09-28T14:59:11Z</time>
      </trkpt>
      <trkpt lat="45.69808" lon="6.57419">
        <ele>1368.1</ele>
        <time>2017-09-28T14:59:13Z</time>
      </trkpt>
      <trkpt lat="45.69798" lon="6.57424">
        <ele>1366.4</ele>
        <time>2017-09-28T14:59:15Z</time>
      </trkpt>
      <trkpt lat="45.6979" lon="6.5743">
        <ele>1364.6</ele>
        <time>2017-09-28T14:59:17Z</time>
      </trkpt>
      <trkpt lat="45.69792" lon="6.57415">
        <ele>1358.8</ele>
        <time>2017-09-28T14:59:27Z</time>
      </trkpt>
      <trkpt lat="45.698" lon="6.57403">
        <ele>1357.7</ele>
        <time>2017-09-28T14:59:29Z</time>
      </trkpt>
      <trkpt lat="45.69808" lon="6.57394">
        <ele>1356.3</ele>
        <time>2017-09-28T14:59:31Z</time>
      </trkpt>
      <trkpt lat="45.69816" lon="6.57389">
        <ele>1353.8</ele>
        <time>2017-09-28T14:59:34Z</time>
      </trkpt>
      <trkpt lat="45.69827" lon="6.57379">
        <ele>1349.7</ele>
        <time>2017-09-28T14:59:52Z</time>
      </trkpt>
      <trkpt lat="45.69838" lon="6.57367">
        <ele>1349.1</ele>
        <time>2017-09-28T14:59:54Z</time>
      </trkpt>
      <trkpt lat="45.6985" lon="6.57355">
        <ele>1348.2</ele>
        <time>2017-09-28T14:59:56Z</time>
      </trkpt>
      <trkpt lat="45.69864" lon="6.57345">
        <ele>1346.7</ele>
        <time>2017-09-28T14:59:58Z</time>
      </trkpt>
      <trkpt lat="45.69877" lon="6.57335">
        <ele>1344.9</ele>
        <time>2017-09-28T15:00:00Z</time>
      </trkpt>
      <trkpt lat="45.69888" lon="6.57333">
        <ele>1343</ele>
        <time>2017-09-28T15:00:02Z</time>
      </trkpt>
      <trkpt lat="45.69901" lon="6.57333">
        <ele>1341.1</ele>
        <time>2017-09-28T15:00:04Z</time>
      </trkpt>
      <trkpt lat="45.69918" lon="6.5733">
        <ele>1339</ele>
        <time>2017-09-28T15:00:06Z</time>
      </trkpt>
      <trkpt lat="45.69933" lon="6.57326">
        <ele>1336.7</ele>
        <time>2017-09-28T15:00:08Z</time>
      </trkpt>
      <trkpt lat="45.69926" lon="6.57318">
        <ele>1329.5</ele>
        <time>2017-09-28T15:00:16Z</time>
      </trkpt>
      <trkpt lat="45.69938" lon="6.57312">
        <ele>1327.1</ele>
        <time>2017-09-28T15:00:20Z</time>
      </trkpt>
      <trkpt lat="45.69947" lon="6.57308">
        <ele>1325.9</ele>
        <time>2017-09-28T15:00:22Z</time>
      </trkpt>
      <trkpt lat="45.69957" lon="6.57305">
        <ele>1324.6</ele>
        <time>2017-09-28T15:00:24Z</time>
      </trkpt>
      <trkpt lat="45.69968" lon="6.57307">
        <ele>1322.1</ele>
        <time>2017-09-28T15:00:27Z</time>
      </trkpt>
      <trkpt lat="45.69979" lon="6.57307">
        <ele>1319.8</ele>
        <time>2017-09-28T15:00:30Z</time>
      </trkpt>
      <trkpt lat="45.69972" lon="6.57297">
        <ele>1315.5</ele>
        <time>2017-09-28T15:00:37Z</time>
      </trkpt>
      <trkpt lat="45.69964" lon="6.57286">
        <ele>1314.4</ele>
        <time>2017-09-28T15:00:39Z</time>
      </trkpt>
      <trkpt lat="45.69955" lon="6.57276">
        <ele>1312.7</ele>
        <time>2017-09-28T15:00:41Z</time>
      </trkpt>
      <trkpt lat="45.69946" lon="6.57269">
        <ele>1310.9</ele>
        <time>2017-09-28T15:00:43Z</time>
      </trkpt>
      <trkpt lat="45.69934" lon="6.57266">
        <ele>1309.3</ele>
        <time>2017-09-28T15:00:45Z</time>
      </trkpt>
      <trkpt lat="45.69925" lon="6.57259">
        <ele>1307.5</ele>
        <time>2017-09-28T15:00:47Z</time>
      </trkpt>
      <trkpt lat="45.69932" lon="6.57246">
        <ele>1300</ele>
        <time>2017-09-28T15:00:55Z</time>
      </trkpt>
      <trkpt lat="45.69946" lon="6.5724">
        <ele>1297.6</ele>
        <time>2017-09-28T15:00:57Z</time>
      </trkpt>
      <trkpt lat="45.69959" lon="6.57235">
        <ele>1294.9</ele>
        <time>2017-09-28T15:00:59Z</time>
      </trkpt>
      <trkpt lat="45.69971" lon="6.57233">
        <ele>1292.2</ele>
        <time>2017-09-28T15:01:01Z</time>
      </trkpt>
      <trkpt lat="45.69965" lon="6.57218">
        <ele>1286.6</ele>
        <time>2017-09-28T15:01:06Z</time>
      </trkpt>
      <trkpt lat="45.69957" lon="6.5721">
        <ele>1284.5</ele>
        <time>2017-09-28T15:01:08Z</time>
      </trkpt>
      <trkpt lat="45.69949" lon="6.572">
        <ele>1282.3</ele>
        <time>2017-09-28T15:01:10Z</time>
      </trkpt>
      <trkpt lat="45.69938" lon="6.57191">
        <ele>1279</ele>
        <time>2017-09-28T15:01:13Z</time>
      </trkpt>
      <trkpt lat="45.69927" lon="6.57184">
        <ele>1276.7</ele>
        <time>2017-09-28T15:01:15Z</time>
      </trkpt>
      <trkpt lat="45.69916" lon="6.57184">
        <ele>1274.6</ele>
        <time>2017-09-28T15:01:17Z</time>
      </trkpt>
      <trkpt lat="45.69906" lon="6.57192">
        <ele>1271.6</ele>
        <time>2017-09-28T15:01:20Z</time>
      </trkpt>
      <trkpt lat="45.69894" lon="6.57193">
        <ele>1268.1</ele>
        <time>2017-09-28T15:01:23Z</time>
      </trkpt>
      <trkpt lat="45.69883" lon="6.57187">
        <ele>1264</ele>
        <time>2017-09-28T15:01:27Z</time>
      </trkpt>
      <trkpt lat="45.69877" lon="6.57178">
        <ele>1261.5</ele>
        <time>2017-09-28T15:01:29Z</time>
      </trkpt>
      <trkpt lat="45.69868" lon="6.57168">
        <ele>1258.2</ele>
        <time>2017-09-28T15:01:32Z</time>
      </trkpt>
      <trkpt lat="45.69857" lon="6.57165">
        <ele>1255.6</ele>
        <time>2017-09-28T15:01:35Z</time>
      </trkpt>
      <trkpt lat="45.6985" lon="6.57153">
        <ele>1252.7</ele>
        <time>2017-09-28T15:01:38Z</time>
      </trkpt>
      <trkpt lat="45.69843" lon="6.57141">
        <ele>1250.7</ele>
        <time>2017-09-28T15:01:40Z</time>
      </trkpt>
      <trkpt lat="45.69834" lon="6.57136">
        <ele>1249</ele>
        <time>2017-09-28T15:01:42Z</time>
      </trkpt>
      <trkpt lat="45.69822" lon="6.5713">
        <ele>1247.2</ele>
        <time>2017-09-28T15:01:44Z</time>
      </trkpt>
      <trkpt lat="45.6981" lon="6.5713">
        <ele>1244.5</ele>
        <time>2017-09-28T15:01:47Z</time>
      </trkpt>
      <trkpt lat="45.69799" lon="6.5713">
        <ele>1242.2</ele>
        <time>2017-09-28T15:01:49Z</time>
      </trkpt>
      <trkpt lat="45.69788" lon="6.57128">
        <ele>1239.4</ele>
        <time>2017-09-28T15:01:51Z</time>
      </trkpt>
      <trkpt lat="45.69776" lon="6.57124">
        <ele>1236.5</ele>
        <time>2017-09-28T15:01:53Z</time>
      </trkpt>
      <trkpt lat="45.69767" lon="6.57121">
        <ele>1233.5</ele>
        <time>2017-09-28T15:01:55Z</time>
      </trkpt>
      <trkpt lat="45.69757" lon="6.57127">
        <ele>1229.9</ele>
        <time>2017-09-28T15:01:58Z</time>
      </trkpt>
      <trkpt lat="45.69749" lon="6.57133">
        <ele>1227.9</ele>
        <time>2017-09-28T15:02:00Z</time>
      </trkpt>
      <trkpt lat="45.69739" lon="6.57143">
        <ele>1225.1</ele>
        <time>2017-09-28T15:02:03Z</time>
      </trkpt>
      <trkpt lat="45.6973" lon="6.5715">
        <ele>1222.4</ele>
        <time>2017-09-28T15:02:06Z</time>
      </trkpt>
      <trkpt lat="45.69721" lon="6.57145">
        <ele>1215.2</ele>
        <time>2017-09-28T15:02:17Z</time>
      </trkpt>
      <trkpt lat="45.69721" lon="6.57129">
        <ele>1211.6</ele>
        <time>2017-09-28T15:02:25Z</time>
      </trkpt>
      <trkpt lat="45.69723" lon="6.57116">
        <ele>1210.1</ele>
        <time>2017-09-28T15:02:28Z</time>
      </trkpt>
      <trkpt lat="45.69714" lon="6.57123">
        <ele>1206.7</ele>
        <time>2017-09-28T15:02:34Z</time>
      </trkpt>
      <trkpt lat="45.69701" lon="6.57127">
        <ele>1203.5</ele>
        <time>2017-09-28T15:02:37Z</time>
      </trkpt>
      <trkpt lat="45.69692" lon="6.57131">
        <ele>1201.2</ele>
        <time>2017-09-28T15:02:39Z</time>
      </trkpt>
      <trkpt lat="45.6968" lon="6.57133">
        <ele>1198.6</ele>
        <time>2017-09-28T15:02:41Z</time>
      </trkpt>
      <trkpt lat="45.69671" lon="6.57133">
        <ele>1195.9</ele>
        <time>2017-09-28T15:02:43Z</time>
      </trkpt>
      <trkpt lat="45.69667" lon="6.57121">
        <ele>1191.4</ele>
        <time>2017-09-28T15:02:47Z</time>
      </trkpt>
      <trkpt lat="45.69662" lon="6.57108">
        <ele>1188.1</ele>
        <time>2017-09-28T15:02:50Z</time>
      </trkpt>
      <trkpt lat="45.69667" lon="6.57089">
        <ele>1185.1</ele>
        <time>2017-09-28T15:02:53Z</time>
      </trkpt>
      <trkpt lat="45.69674" lon="6.57077">
        <ele>1183.2</ele>
        <time>2017-09-28T15:02:55Z</time>
      </trkpt>
      <trkpt lat="45.69685" lon="6.57061">
        <ele>1181.6</ele>
        <time>2017-09-28T15:02:57Z</time>
      </trkpt>
      <trkpt lat="45.69694" lon="6.57047">
        <ele>1180.1</ele>
        <time>2017-09-28T15:02:59Z</time>
      </trkpt>
      <trkpt lat="45.69702" lon="6.57032">
        <ele>1179</ele>
        <time>2017-09-28T15:03:01Z</time>
      </trkpt>
      <trkpt lat="45.69712" lon="6.57016">
        <ele>1178</ele>
        <time>2017-09-28T15:03:03Z</time>
      </trkpt>
      <trkpt lat="45.69719" lon="6.57003">
        <ele>1177</ele>
        <time>2017-09-28T15:03:05Z</time>
      </trkpt>
      <trkpt lat="45.69715" lon="6.5699">
        <ele>1172.3</ele>
        <time>2017-09-28T15:03:13Z</time>
      </trkpt>
      <trkpt lat="45.69707" lon="6.56983">
        <ele>1166</ele>
        <time>2017-09-28T15:03:23Z</time>
      </trkpt>
      <trkpt lat="45.69698" lon="6.56987">
        <ele>1163.3</ele>
        <time>2017-09-28T15:03:27Z</time>
      </trkpt>
      <trkpt lat="45.69688" lon="6.56992">
        <ele>1160.3</ele>
        <time>2017-09-28T15:03:31Z</time>
      </trkpt>
      <trkpt lat="45.69677" lon="6.56991">
        <ele>1155.4</ele>
        <time>2017-09-28T15:03:37Z</time>
      </trkpt>
      <trkpt lat="45.69668" lon="6.56986">
        <ele>1149</ele>
        <time>2017-09-28T15:03:44Z</time>
      </trkpt>
      <trkpt lat="45.6966" lon="6.56995">
        <ele>1144.4</ele>
        <time>2017-09-28T15:03:50Z</time>
      </trkpt>
      <trkpt lat="45.6965" lon="6.56998">
        <ele>1139.6</ele>
        <time>2017-09-28T15:03:57Z</time>
      </trkpt>
      <trkpt lat="45.69641" lon="6.57">
        <ele>1136.5</ele>
        <time>2017-09-28T15:04:01Z</time>
      </trkpt>
      <trkpt lat="45.69629" lon="6.56994">
        <ele>1133.6</ele>
        <time>2017-09-28T15:04:05Z</time>
      </trkpt>
      <trkpt lat="45.69621" lon="6.56987">
        <ele>1130.1</ele>
        <time>2017-09-28T15:04:09Z</time>
      </trkpt>
      <trkpt lat="45.69621" lon="6.56969">
        <ele>1126.7</ele>
        <time>2017-09-28T15:04:12Z</time>
      </trkpt>
      <trkpt lat="45.69624" lon="6.56952">
        <ele>1123.9</ele>
        <time>2017-09-28T15:04:14Z</time>
      </trkpt>
      <trkpt lat="45.69621" lon="6.56939">
        <ele>1121.1</ele>
        <time>2017-09-28T15:04:17Z</time>
      </trkpt>
      <trkpt lat="45.69613" lon="6.56931">
        <ele>1120.7</ele>
        <time>2017-09-28T15:04:29Z</time>
      </trkpt>
      <trkpt lat="45.69605" lon="6.56921">
        <ele>1122.4</ele>
        <time>2017-09-28T15:04:38Z</time>
      </trkpt>
      <trkpt lat="45.69597" lon="6.56912">
        <ele>1123.5</ele>
        <time>2017-09-28T15:04:45Z</time>
      </trkpt>
      <trkpt lat="45.69587" lon="6.56911">
        <ele>1124.1</ele>
        <time>2017-09-28T15:04:50Z</time>
      </trkpt>
      <trkpt lat="45.69577" lon="6.5691">
        <ele>1124.5</ele>
        <time>2017-09-28T15:04:54Z</time>
      </trkpt>
      <trkpt lat="45.69568" lon="6.5691">
        <ele>1124.2</ele>
        <time>2017-09-28T15:04:57Z</time>
      </trkpt>
      <trkpt lat="45.69556" lon="6.56908">
        <ele>1123.3</ele>
        <time>2017-09-28T15:05:00Z</time>
      </trkpt>
      <trkpt lat="45.69545" lon="6.56906">
        <ele>1121.7</ele>
        <time>2017-09-28T15:05:03Z</time>
      </trkpt>
      <trkpt lat="45.69535" lon="6.56908">
        <ele>1119.6</ele>
        <time>2017-09-28T15:05:06Z</time>
      </trkpt>
      <trkpt lat="45.69523" lon="6.56906">
        <ele>1116.8</ele>
        <time>2017-09-28T15:05:09Z</time>
      </trkpt>
      <trkpt lat="45.69513" lon="6.569">
        <ele>1113.4</ele>
        <time>2017-09-28T15:05:12Z</time>
      </trkpt>
      <trkpt lat="45.69503" lon="6.56903">
        <ele>1109.7</ele>
        <time>2017-09-28T15:05:15Z</time>
      </trkpt>
      <trkpt lat="45.69494" lon="6.56908">
        <ele>1105.6</ele>
        <time>2017-09-28T15:05:19Z</time>
      </trkpt>
      <trkpt lat="45.69486" lon="6.56913">
        <ele>1101.5</ele>
        <time>2017-09-28T15:05:24Z</time>
      </trkpt>
      <trkpt lat="45.69477" lon="6.56923">
        <ele>1099.9</ele>
        <time>2017-09-28T15:05:26Z</time>
      </trkpt>
      <trkpt lat="45.69468" lon="6.56933">
        <ele>1098.1</ele>
        <time>2017-09-28T15:05:28Z</time>
      </trkpt>
      <trkpt lat="45.69461" lon="6.56924">
        <ele>1093.1</ele>
        <time>2017-09-28T15:05:34Z</time>
      </trkpt>
      <trkpt lat="45.6946" lon="6.56908">
        <ele>1091.2</ele>
        <time>2017-09-28T15:05:36Z</time>
      </trkpt>
      <trkpt lat="45.69461" lon="6.5689">
        <ele>1089.1</ele>
        <time>2017-09-28T15:05:38Z</time>
      </trkpt>
      <trkpt lat="45.69464" lon="6.56873">
        <ele>1086.8</ele>
        <time>2017-09-28T15:05:40Z</time>
      </trkpt>
      <trkpt lat="45.69469" lon="6.56856">
        <ele>1084.3</ele>
        <time>2017-09-28T15:05:42Z</time>
      </trkpt>
      <trkpt lat="45.69473" lon="6.5684">
        <ele>1081.8</ele>
        <time>2017-09-28T15:05:44Z</time>
      </trkpt>
      <trkpt lat="45.69478" lon="6.56822">
        <ele>1079</ele>
        <time>2017-09-28T15:05:46Z</time>
      </trkpt>
      <trkpt lat="45.69482" lon="6.56803">
        <ele>1076.2</ele>
        <time>2017-09-28T15:05:48Z</time>
      </trkpt>
      <trkpt lat="45.69485" lon="6.5678">
        <ele>1073.8</ele>
        <time>2017-09-28T15:05:50Z</time>
      </trkpt>
      <trkpt lat="45.69488" lon="6.56762">
        <ele>1071.6</ele>
        <time>2017-09-28T15:05:52Z</time>
      </trkpt>
      <trkpt lat="45.69481" lon="6.56753">
        <ele>1068.9</ele>
        <time>2017-09-28T15:05:56Z</time>
      </trkpt>
      <trkpt lat="45.69473" lon="6.56747">
        <ele>1068.1</ele>
        <time>2017-09-28T15:05:59Z</time>
      </trkpt>
      <trkpt lat="45.69462" lon="6.5674">
        <ele>1067.9</ele>
        <time>2017-09-28T15:06:02Z</time>
      </trkpt>
      <trkpt lat="45.69451" lon="6.56731">
        <ele>1067.9</ele>
        <time>2017-09-28T15:06:05Z</time>
      </trkpt>
      <trkpt lat="45.69441" lon="6.56725">
        <ele>1068.1</ele>
        <time>2017-09-28T15:06:08Z</time>
      </trkpt>
      <trkpt lat="45.69428" lon="6.56721">
        <ele>1068.2</ele>
        <time>2017-09-28T15:06:11Z</time>
      </trkpt>
      <trkpt lat="45.69418" lon="6.56718">
        <ele>1068.5</ele>
        <time>2017-09-28T15:06:13Z</time>
      </trkpt>
      <trkpt lat="45.69408" lon="6.56716">
        <ele>1068.7</ele>
        <time>2017-09-28T15:06:15Z</time>
      </trkpt>
      <trkpt lat="45.69397" lon="6.56716">
        <ele>1068.8</ele>
        <time>2017-09-28T15:06:17Z</time>
      </trkpt>
      <trkpt lat="45.69387" lon="6.56715">
        <ele>1069</ele>
        <time>2017-09-28T15:06:19Z</time>
      </trkpt>
      <trkpt lat="45.69378" lon="6.56713">
        <ele>1069.2</ele>
        <time>2017-09-28T15:06:21Z</time>
      </trkpt>
      <trkpt lat="45.69368" lon="6.56712">
        <ele>1069.3</ele>
        <time>2017-09-28T15:06:23Z</time>
      </trkpt>
      <trkpt lat="45.69359" lon="6.56711">
        <ele>1069.5</ele>
        <time>2017-09-28T15:06:25Z</time>
      </trkpt>
      <trkpt lat="45.6935" lon="6.5671">
        <ele>1069.6</ele>
        <time>2017-09-28T15:06:27Z</time>
      </trkpt>
      <trkpt lat="45.6934" lon="6.5671">
        <ele>1069.7</ele>
        <time>2017-09-28T15:06:29Z</time>
      </trkpt>
      <trkpt lat="45.69327" lon="6.56709">
        <ele>1070</ele>
        <time>2017-09-28T15:06:32Z</time>
      </trkpt>
      <trkpt lat="45.69318" lon="6.56711">
        <ele>1070.1</ele>
        <time>2017-09-28T15:06:34Z</time>
      </trkpt>
      <trkpt lat="45.69308" lon="6.56715">
        <ele>1070.4</ele>
        <time>2017-09-28T15:06:36Z</time>
      </trkpt>
      <trkpt lat="45.69298" lon="6.56719">
        <ele>1070.6</ele>
        <time>2017-09-28T15:06:38Z</time>
      </trkpt>
      <trkpt lat="45.69288" lon="6.56723">
        <ele>1070.8</ele>
        <time>2017-09-28T15:06:40Z</time>
      </trkpt>
      <trkpt lat="45.69279" lon="6.56729">
        <ele>1070.9</ele>
        <time>2017-09-28T15:06:42Z</time>
      </trkpt>
      <trkpt lat="45.69269" lon="6.56735">
        <ele>1071</ele>
        <time>2017-09-28T15:06:44Z</time>
      </trkpt>
      <trkpt lat="45.6926" lon="6.56741">
        <ele>1071.1</ele>
        <time>2017-09-28T15:06:46Z</time>
      </trkpt>
      <trkpt lat="45.69251" lon="6.56746">
        <ele>1071.2</ele>
        <time>2017-09-28T15:06:48Z</time>
      </trkpt>
      <trkpt lat="45.69242" lon="6.56751">
        <ele>1071.2</ele>
        <time>2017-09-28T15:06:50Z</time>
      </trkpt>
      <trkpt lat="45.69233" lon="6.56754">
        <ele>1071.4</ele>
        <time>2017-09-28T15:06:52Z</time>
      </trkpt>
      <trkpt lat="45.69224" lon="6.56758">
        <ele>1071.5</ele>
        <time>2017-09-28T15:06:54Z</time>
      </trkpt>
      <trkpt lat="45.69215" lon="6.56762">
        <ele>1071.6</ele>
        <time>2017-09-28T15:06:56Z</time>
      </trkpt>
      <trkpt lat="45.69206" lon="6.56766">
        <ele>1071.9</ele>
        <time>2017-09-28T15:06:58Z</time>
      </trkpt>
      <trkpt lat="45.69197" lon="6.56771">
        <ele>1072.2</ele>
        <time>2017-09-28T15:07:00Z</time>
      </trkpt>
      <trkpt lat="45.69189" lon="6.56776">
        <ele>1072.4</ele>
        <time>2017-09-28T15:07:02Z</time>
      </trkpt>
      <trkpt lat="45.6918" lon="6.56783">
        <ele>1072.6</ele>
        <time>2017-09-28T15:07:04Z</time>
      </trkpt>
      <trkpt lat="45.69172" lon="6.5679">
        <ele>1072.6</ele>
        <time>2017-09-28T15:07:06Z</time>
      </trkpt>
      <trkpt lat="45.69163" lon="6.56797">
        <ele>1072.8</ele>
        <time>2017-09-28T15:07:08Z</time>
      </trkpt>
      <trkpt lat="45.69155" lon="6.56802">
        <ele>1073</ele>
        <time>2017-09-28T15:07:10Z</time>
      </trkpt>
      <trkpt lat="45.69145" lon="6.56807">
        <ele>1073.1</ele>
        <time>2017-09-28T15:07:12Z</time>
      </trkpt>
      <trkpt lat="45.69134" lon="6.56809">
        <ele>1073.4</ele>
        <time>2017-09-28T15:07:14Z</time>
      </trkpt>
      <trkpt lat="45.69122" lon="6.56808">
        <ele>1073.5</ele>
        <time>2017-09-28T15:07:16Z</time>
      </trkpt>
      <trkpt lat="45.69111" lon="6.56807">
        <ele>1073.7</ele>
        <time>2017-09-28T15:07:18Z</time>
      </trkpt>
      <trkpt lat="45.691" lon="6.56806">
        <ele>1073.8</ele>
        <time>2017-09-28T15:07:20Z</time>
      </trkpt>
      <trkpt lat="45.69089" lon="6.56806">
        <ele>1073.9</ele>
        <time>2017-09-28T15:07:22Z</time>
      </trkpt>
      <trkpt lat="45.69077" lon="6.56806">
        <ele>1073.8</ele>
        <time>2017-09-28T15:07:24Z</time>
      </trkpt>
      <trkpt lat="45.69065" lon="6.56807">
        <ele>1073.9</ele>
        <time>2017-09-28T15:07:26Z</time>
      </trkpt>
      <trkpt lat="45.69053" lon="6.56809">
        <ele>1074</ele>
        <time>2017-09-28T15:07:28Z</time>
      </trkpt>
      <trkpt lat="45.69042" lon="6.56811">
        <ele>1074</ele>
        <time>2017-09-28T15:07:30Z</time>
      </trkpt>
      <trkpt lat="45.69031" lon="6.56815">
        <ele>1074.1</ele>
        <time>2017-09-28T15:07:32Z</time>
      </trkpt>
      <trkpt lat="45.69021" lon="6.56818">
        <ele>1074.2</ele>
        <time>2017-09-28T15:07:34Z</time>
      </trkpt>
      <trkpt lat="45.6901" lon="6.56822">
        <ele>1074.2</ele>
        <time>2017-09-28T15:07:36Z</time>
      </trkpt>
      <trkpt lat="45.68999" lon="6.56826">
        <ele>1074.1</ele>
        <time>2017-09-28T15:07:38Z</time>
      </trkpt>
      <trkpt lat="45.68988" lon="6.56829">
        <ele>1074</ele>
        <time>2017-09-28T15:07:40Z</time>
      </trkpt>
      <trkpt lat="45.68977" lon="6.56833">
        <ele>1074</ele>
        <time>2017-09-28T15:07:42Z</time>
      </trkpt>
      <trkpt lat="45.68965" lon="6.56837">
        <ele>1073.9</ele>
        <time>2017-09-28T15:07:44Z</time>
      </trkpt>
      <trkpt lat="45.68953" lon="6.56841">
        <ele>1073.7</ele>
        <time>2017-09-28T15:07:46Z</time>
      </trkpt>
      <trkpt lat="45.68941" lon="6.56845">
        <ele>1073.6</ele>
        <time>2017-09-28T15:07:48Z</time>
      </trkpt>
      <trkpt lat="45.68928" lon="6.56848">
        <ele>1073.5</ele>
        <time>2017-09-28T15:07:50Z</time>
      </trkpt>
      <trkpt lat="45.68915" lon="6.5685">
        <ele>1073.6</ele>
        <time>2017-09-28T15:07:52Z</time>
      </trkpt>
      <trkpt lat="45.68902" lon="6.56852">
        <ele>1073.4</ele>
        <time>2017-09-28T15:07:54Z</time>
      </trkpt>
      <trkpt lat="45.68889" lon="6.56855">
        <ele>1073.3</ele>
        <time>2017-09-28T15:07:56Z</time>
      </trkpt>
      <trkpt lat="45.68876" lon="6.56858">
        <ele>1073.1</ele>
        <time>2017-09-28T15:07:58Z</time>
      </trkpt>
      <trkpt lat="45.68864" lon="6.56861">
        <ele>1072.9</ele>
        <time>2017-09-28T15:08:00Z</time>
      </trkpt>
      <trkpt lat="45.68852" lon="6.56864">
        <ele>1072.8</ele>
        <time>2017-09-28T15:08:02Z</time>
      </trkpt>
      <trkpt lat="45.6884" lon="6.56866">
        <ele>1072.6</ele>
        <time>2017-09-28T15:08:04Z</time>
      </trkpt>
      <trkpt lat="45.68829" lon="6.56869">
        <ele>1072.5</ele>
        <time>2017-09-28T15:08:06Z</time>
      </trkpt>
      <trkpt lat="45.68816" lon="6.56872">
        <ele>1072.4</ele>
        <time>2017-09-28T15:08:08Z</time>
      </trkpt>
      <trkpt lat="45.68804" lon="6.56876">
        <ele>1072.3</ele>
        <time>2017-09-28T15:08:10Z</time>
      </trkpt>
      <trkpt lat="45.68791" lon="6.56879">
        <ele>1072.2</ele>
        <time>2017-09-28T15:08:12Z</time>
      </trkpt>
      <trkpt lat="45.68779" lon="6.56881">
        <ele>1072.1</ele>
        <time>2017-09-28T15:08:14Z</time>
      </trkpt>
      <trkpt lat="45.68768" lon="6.56882">
        <ele>1072.1</ele>
        <time>2017-09-28T15:08:16Z</time>
      </trkpt>
      <trkpt lat="45.68758" lon="6.56883">
        <ele>1072.3</ele>
        <time>2017-09-28T15:08:18Z</time>
      </trkpt>
      <trkpt lat="45.68749" lon="6.56886">
        <ele>1072.4</ele>
        <time>2017-09-28T15:08:20Z</time>
      </trkpt>
      <trkpt lat="45.68736" lon="6.5689">
        <ele>1072.5</ele>
        <time>2017-09-28T15:08:23Z</time>
      </trkpt>
      <trkpt lat="45.68725" lon="6.56892">
        <ele>1072.8</ele>
        <time>2017-09-28T15:08:26Z</time>
      </trkpt>
      <trkpt lat="45.68714" lon="6.56893">
        <ele>1073.3</ele>
        <time>2017-09-28T15:08:29Z</time>
      </trkpt>
      <trkpt lat="45.68702" lon="6.56893">
        <ele>1074</ele>
        <time>2017-09-28T15:08:32Z</time>
      </trkpt>
      <trkpt lat="45.68691" lon="6.56893">
        <ele>1074.5</ele>
        <time>2017-09-28T15:08:35Z</time>
      </trkpt>
      <trkpt lat="45.6868" lon="6.56894">
        <ele>1075</ele>
        <time>2017-09-28T15:08:38Z</time>
      </trkpt>
      <trkpt lat="45.68669" lon="6.56897">
        <ele>1075.4</ele>
        <time>2017-09-28T15:08:41Z</time>
      </trkpt>
      <trkpt lat="45.68662" lon="6.56905">
        <ele>1075.9</ele>
        <time>2017-09-28T15:08:45Z</time>
      </trkpt>
      <trkpt lat="45.6866" lon="6.56909">
        <ele>1074.8</ele>
        <time>2017-09-28T15:09:45Z</time>
      </trkpt>
    </trkseg>
  </trk>
</gpx>